
Distance (Route):
Temperature : 13.6°C
Humidity : 65.8%
Pressure : 0hPa| Receiver | Frames | First received | Last received |
|---|---|---|---|
| HASLITAL | 710 | 2026-09-04 23:23:02 | 2026-09-05 04:19:04 |
| IW2NTF | 567 | 2026-09-04 23:22:21 | 2026-09-05 01:17:44 |
| DO3MHA-11 | 290 | 2026-09-04 23:29:22 | 2026-09-05 01:12:44 |
| DM0DOS-11 | 266 | 2026-09-05 00:08:37 | 2026-09-05 01:03:13 |
| BIOWL1-15 | 213 | 2026-09-05 00:13:11 | 2026-09-05 01:02:17 |
| DB0UT-7 | 180 | 2026-09-04 23:14:14 | 2026-09-05 01:18:58 |
| DO3MHA-12 | 140 | 2026-09-04 23:31:09 | 2026-09-05 00:57:24 |
| HARRO8 | 123 | 2026-09-04 23:33:59 | 2026-09-05 01:09:44 |
| DL1ZP-14 | 107 | 2026-09-04 23:42:41 | 2026-09-05 01:07:37 |
| DF7PN | 102 | 2026-09-04 23:48:11 | 2026-09-05 01:07:55 |
| DK5PH-5 | 77 | 2026-09-04 23:36:13 | 2026-09-05 00:59:07 |
| DL6DJ-15 | 64 | 2026-09-05 00:06:54 | 2026-09-05 01:00:46 |
| DF1GD-15 | 59 | 2026-09-05 00:44:13 | 2026-09-05 01:17:56 |
| BIOWL9-15 | 50 | 2026-09-05 00:14:14 | 2026-09-05 01:01:51 |
| DH7VM-15 | 42 | 2026-09-04 23:22:35 | 2026-09-05 01:13:23 |
| DB0ND-19 | 30 | 2026-09-04 23:15:09 | 2026-09-05 00:40:04 |
| OE9MKV-15 | 29 | 2026-09-05 00:15:08 | 2026-09-05 00:42:41 |
| DM7RM-13 | 10 | 2026-09-05 00:52:31 | 2026-09-05 01:03:40 |
| DB0NH | 2 | 2026-09-04 23:45:46 | 2026-09-04 23:46:17 |
| DF3TZ-5 | 2 | 2026-09-04 23:50:34 | 2026-09-04 23:53:40 |
| BIOWL7-15 | 2 | 2026-09-05 00:17:27 | 2026-09-05 00:53:31 |
| LOEBOVI | 2 | 2026-09-05 00:48:37 | 2026-09-05 00:50:15 |
| IN3HCDX | 1 | 2026-09-05 01:09:34 | 2026-09-05 01:09:34 |
| Receiver | Date | Latitude | Longitude | Direction | Speed | Altitude | Climb | Temperature | Humidity | Pressure | Voltage | Killtimer | Uptime | BKT | XDATA |
|---|---|---|---|---|---|---|---|---|---|---|---|---|---|---|---|
| HASLITAL | 2026-09-05 04:19:04 | 46.77747 | 8.04840 | 0° | 0km/h | 1793m | -0.1m/s | 13.6°C | 65.8% | 0hPa | 2.6V | 05:08:00 | 00:00:00 | 00:00:00 | |
| HASLITAL | 2026-09-05 04:18:44 | 46.77747 | 8.04840 | 0° | 0km/h | 1794m | 0.1m/s | 12.6°C | 72.0% | 0hPa | 2.6V | 05:08:00 | 00:00:00 | 00:00:00 | |
| HASLITAL | 2026-09-05 04:18:23 | 46.77746 | 8.04839 | 0° | 0km/h | 1794m | -0.0m/s | 13.0°C | 68.2% | 0hPa | 2.6V | 05:08:00 | 00:00:00 | 00:00:00 | |
| HASLITAL | 2026-09-05 04:18:03 | 46.77744 | 8.04837 | 0° | 0km/h | 1795m | 0.0m/s | 11.7°C | 75.6% | 0hPa | 2.6V | 05:09:00 | 00:00:00 | 00:00:00 | |
| HASLITAL | 2026-09-05 04:17:43 | 46.77747 | 8.04839 | 0° | 0km/h | 1793m | 0.1m/s | 11.1°C | 83.0% | 0hPa | 2.6V | 05:09:00 | 00:00:00 | 00:00:00 | |
| HASLITAL | 2026-09-05 04:17:22 | 46.77749 | 8.04840 | 0° | 0km/h | 1789m | 0.0m/s | 11.9°C | 77.3% | 0hPa | 2.6V | 05:09:00 | 00:00:00 | 00:00:00 | |
| HASLITAL | 2026-09-05 04:17:02 | 46.77748 | 8.04839 | 0° | 0km/h | 1787m | -0.0m/s | 13.1°C | 67.5% | 0hPa | 2.6V | 05:10:00 | 00:00:00 | 00:00:00 | |
| HASLITAL | 2026-09-05 04:16:41 | 46.77745 | 8.04838 | 0° | 0km/h | 1788m | -0.0m/s | 12.1°C | 75.0% | 0hPa | 2.6V | 05:10:00 | 00:00:00 | 00:00:00 | |
| HASLITAL | 2026-09-05 04:16:20 | 46.77745 | 8.04839 | 0° | 0km/h | 1789m | 0.1m/s | 12.2°C | 72.1% | 0hPa | 2.6V | 05:11:00 | 00:00:00 | 00:00:00 | |
| HASLITAL | 2026-09-05 04:15:59 | 46.77747 | 8.04840 | 0° | 0km/h | 1790m | -0.1m/s | 12.3°C | 71.8% | 0hPa | 2.6V | 05:11:00 | 00:00:00 | 00:00:00 | |
| HASLITAL | 2026-09-05 04:15:38 | 46.77747 | 8.04840 | 0° | 0km/h | 1789m | -0.0m/s | 11.4°C | 81.3% | 0hPa | 2.6V | 05:11:00 | 00:00:00 | 00:00:00 | |
| HASLITAL | 2026-09-05 04:15:17 | 46.77745 | 8.04839 | 0° | 0km/h | 1788m | -0.0m/s | 11.5°C | 80.8% | 0hPa | 2.6V | 05:12:00 | 00:00:00 | 00:00:00 | |
| HASLITAL | 2026-09-05 04:14:56 | 46.77745 | 8.04838 | 0° | 0km/h | 1789m | -0.1m/s | 12.2°C | 74.8% | 0hPa | 2.6V | 05:12:00 | 00:00:00 | 00:00:00 | |
| HASLITAL | 2026-09-05 04:14:36 | 46.77745 | 8.04837 | 0° | 0km/h | 1789m | -0.2m/s | 12.3°C | 75.8% | 0hPa | 2.6V | 05:13:00 | 00:00:00 | 00:00:00 | |
| HASLITAL | 2026-09-05 04:14:15 | 46.77744 | 8.04836 | 0° | 0km/h | 1790m | -0.0m/s | 13.4°C | 67.2% | 0hPa | 2.6V | 05:13:00 | 00:00:00 | 00:00:00 | |
| HASLITAL | 2026-09-05 04:13:55 | 46.77743 | 8.04837 | 0° | 0km/h | 1789m | 0.0m/s | 13.4°C | 66.4% | 0hPa | 2.6V | 05:13:00 | 00:00:00 | 00:00:00 | |
| HASLITAL | 2026-09-05 04:13:34 | 46.77743 | 8.04838 | 0° | 0km/h | 1787m | 0.0m/s | 13.3°C | 67.0% | 0hPa | 2.6V | 05:13:00 | 00:00:00 | 00:00:00 | |
| HASLITAL | 2026-09-05 04:13:14 | 46.77744 | 8.04836 | 0° | 0km/h | 1785m | 0.1m/s | 13.3°C | 66.4% | 0hPa | 2.6V | 05:13:00 | 00:00:00 | 00:00:00 | |
| HASLITAL | 2026-09-05 04:12:53 | 46.77744 | 8.04833 | 0° | 0km/h | 1781m | 0.0m/s | 13.4°C | 67.9% | 0hPa | 2.6V | 05:14:00 | 00:00:00 | 00:00:00 | |
| HASLITAL | 2026-09-05 04:12:32 | 46.77742 | 8.04833 | 0° | 0km/h | 1784m | 0.1m/s | 11.0°C | 82.8% | 0hPa | 2.6V | 05:14:00 | 00:00:00 | 00:00:00 | |
| HASLITAL | 2026-09-05 04:12:11 | 46.77743 | 8.04832 | 0° | 0km/h | 1784m | 0.1m/s | 11.7°C | 77.6% | 0hPa | 2.6V | 05:14:00 | 00:00:00 | 00:00:00 | |
| HASLITAL | 2026-09-05 04:11:50 | 46.77745 | 8.04832 | 0° | 0km/h | 1784m | 0.0m/s | 11.5°C | 77.5% | 0hPa | 2.6V | 05:15:00 | 00:00:00 | 00:00:00 | |
| HASLITAL | 2026-09-05 04:11:29 | 46.77747 | 8.04834 | 0° | 0km/h | 1784m | 0.0m/s | 10.6°C | 84.6% | 0hPa | 2.6V | 05:15:00 | 00:00:00 | 00:00:00 | |
| HASLITAL | 2026-09-05 04:11:09 | 46.77747 | 8.04834 | 0° | 0km/h | 1781m | -0.1m/s | 10.6°C | 86.2% | 0hPa | 2.6V | 05:16:00 | 00:00:00 | 00:00:00 | |
| HASLITAL | 2026-09-05 04:10:48 | 46.77746 | 8.04840 | 0° | 0km/h | 1789m | -0.2m/s | 10.7°C | 85.6% | 0hPa | 2.6V | 05:16:00 | 00:00:00 | 00:00:00 | |
| HASLITAL | 2026-09-05 04:10:28 | 46.77743 | 8.04839 | 0° | 0km/h | 1791m | -0.1m/s | 10.6°C | 87.2% | 0hPa | 2.6V | 05:17:00 | 00:00:00 | 00:00:00 | |
| HASLITAL | 2026-09-05 04:10:07 | 46.77743 | 8.04837 | 0° | 0km/h | 1788m | -0.1m/s | 11.0°C | 83.8% | 0hPa | 2.6V | 05:17:00 | 00:00:00 | 00:00:00 | |
| HASLITAL | 2026-09-05 04:09:27 | 46.77743 | 8.04838 | 0° | 0km/h | 1790m | -0.0m/s | 11.2°C | 80.2% | 0hPa | 2.6V | 05:18:00 | 00:00:00 | 00:00:00 | |
| HASLITAL | 2026-09-05 04:09:06 | 46.77744 | 8.04837 | 0° | 0km/h | 1791m | -0.1m/s | 11.1°C | 80.6% | 0hPa | 2.6V | 05:18:00 | 00:00:00 | 00:00:00 | |
| HASLITAL | 2026-09-05 04:08:45 | 46.77745 | 8.04838 | 0° | 0km/h | 1790m | 0.0m/s | 11.5°C | 77.8% | 0hPa | 2.6V | 05:19:00 | 00:00:00 | 00:00:00 | |
| HASLITAL | 2026-09-05 04:08:25 | 46.77745 | 8.04837 | 0° | 0km/h | 1790m | -0.1m/s | 11.1°C | 82.4% | 0hPa | 2.6V | 05:19:00 | 00:00:00 | 00:00:00 | |
| HASLITAL | 2026-09-05 04:08:04 | 46.77745 | 8.04838 | 0° | 0km/h | 1792m | -0.0m/s | 11.4°C | 79.3% | 0hPa | 2.6V | 05:19:00 | 00:00:00 | 00:00:00 | |
| HASLITAL | 2026-09-05 04:07:43 | 46.77747 | 8.04840 | 0° | 0km/h | 1792m | 0.1m/s | 10.9°C | 83.8% | 0hPa | 2.6V | 05:19:00 | 00:00:00 | 00:00:00 | |
| HASLITAL | 2026-09-05 04:07:23 | 46.77747 | 8.04839 | 0° | 0km/h | 1792m | -0.2m/s | 10.8°C | 85.8% | 0hPa | 2.6V | 05:19:00 | 00:00:00 | 00:00:00 | |
| HASLITAL | 2026-09-05 04:07:03 | 46.77747 | 8.04839 | 0° | 0km/h | 1793m | 0.1m/s | 11.1°C | 82.9% | 0hPa | 2.6V | 05:20:00 | 00:00:00 | 00:00:00 | |
| HASLITAL | 2026-09-05 04:06:42 | 46.77746 | 8.04838 | 0° | 0km/h | 1793m | -0.0m/s | 11.3°C | 80.8% | 0hPa | 2.6V | 05:20:00 | 00:00:00 | 00:00:00 | |
| HASLITAL | 2026-09-05 04:06:21 | 46.77743 | 8.04836 | 0° | 0km/h | 1794m | -0.2m/s | 11.8°C | 76.7% | 0hPa | 2.6V | 05:20:00 | 00:00:00 | 00:00:00 | |
| HASLITAL | 2026-09-05 04:06:01 | 46.77741 | 8.04836 | 0° | 0km/h | 1796m | -0.0m/s | 11.5°C | 79.6% | 0hPa | 2.6V | 05:21:00 | 00:00:00 | 00:00:00 | |
| HASLITAL | 2026-09-05 04:05:40 | 46.77742 | 8.04838 | 0° | 0km/h | 1794m | 0.0m/s | 11.6°C | 78.9% | 0hPa | 2.6V | 05:21:00 | 00:00:00 | 00:00:00 | |
| HASLITAL | 2026-09-05 04:05:19 | 46.77742 | 8.04839 | 0° | 0km/h | 1792m | 0.0m/s | 12.0°C | 76.8% | 0hPa | 2.6V | 05:22:00 | 00:00:00 | 00:00:00 | |
| HASLITAL | 2026-09-05 04:04:58 | 46.77742 | 8.04836 | 0° | 0km/h | 1790m | -0.1m/s | 12.7°C | 71.7% | 0hPa | 2.6V | 05:22:00 | 00:00:00 | 00:00:00 | |
| HASLITAL | 2026-09-05 04:04:37 | 46.77742 | 8.04836 | 0° | 0km/h | 1788m | 0.1m/s | 11.4°C | 82.3% | 0hPa | 2.6V | 05:22:00 | 00:00:00 | 00:00:00 | |
| HASLITAL | 2026-09-05 04:04:16 | 46.77741 | 8.04836 | 0° | 0km/h | 1788m | 0.0m/s | 11.3°C | 83.0% | 0hPa | 2.6V | 05:23:00 | 00:00:00 | 00:00:00 | |
| HASLITAL | 2026-09-05 04:03:56 | 46.77741 | 8.04836 | 0° | 0km/h | 1789m | -0.1m/s | 11.1°C | 83.3% | 0hPa | 2.6V | 05:23:00 | 00:00:00 | 00:00:00 | |
| HASLITAL | 2026-09-05 04:03:36 | 46.77741 | 8.04836 | 0° | 0km/h | 1789m | 0.1m/s | 11.2°C | 83.4% | 0hPa | 2.6V | 05:24:00 | 00:00:00 | 00:00:00 | |
| HASLITAL | 2026-09-05 04:03:15 | 46.77743 | 8.04837 | 0° | 0km/h | 1787m | 0.1m/s | 11.3°C | 80.8% | 0hPa | 2.6V | 05:24:00 | 00:00:00 | 00:00:00 | |
| HASLITAL | 2026-09-05 04:02:54 | 46.77743 | 8.04836 | 0° | 0km/h | 1786m | -0.0m/s | 11.9°C | 76.1% | 0hPa | 2.6V | 05:24:00 | 00:00:00 | 00:00:00 | |
| HASLITAL | 2026-09-05 04:02:34 | 46.77742 | 8.04834 | 0° | 0km/h | 1786m | -0.0m/s | 10.7°C | 86.8% | 0hPa | 2.6V | 05:25:00 | 00:00:00 | 00:00:00 | |
| HASLITAL | 2026-09-05 04:02:13 | 46.77743 | 8.04834 | 0° | 0km/h | 1785m | 0.1m/s | 10.8°C | 85.7% | 0hPa | 2.6V | 05:25:00 | 00:00:00 | 00:00:00 | |
| HASLITAL | 2026-09-05 04:01:53 | 46.77745 | 8.04835 | 0° | 0km/h | 1782m | 0.1m/s | 10.9°C | 83.5% | 0hPa | 2.6V | 05:25:00 | 00:00:00 | 00:00:00 | |
| HASLITAL | 2026-09-05 04:01:32 | 46.77745 | 8.04836 | 0° | 0km/h | 1782m | -0.0m/s | 12.5°C | 71.8% | 0hPa | 2.6V | 05:25:00 | 00:00:00 | 00:00:00 | |
| HASLITAL | 2026-09-05 04:01:11 | 46.77745 | 8.04835 | 0° | 0km/h | 1783m | -0.0m/s | 11.2°C | 82.4% | 0hPa | 2.6V | 05:25:00 | 00:00:00 | 00:00:00 | |
| HASLITAL | 2026-09-05 04:00:50 | 46.77744 | 8.04835 | 0° | 0km/h | 1784m | -0.1m/s | 11.0°C | 85.8% | 0hPa | 2.6V | 05:26:00 | 00:00:00 | 00:00:00 | |
| HASLITAL | 2026-09-05 04:00:29 | 46.77744 | 8.04835 | 0° | 0km/h | 1783m | -0.1m/s | 11.0°C | 87.3% | 0hPa | 2.6V | 05:26:00 | 00:00:00 | 00:00:00 | |
| HASLITAL | 2026-09-05 04:00:08 | 46.77745 | 8.04836 | 0° | 0km/h | 1783m | -0.1m/s | 11.8°C | 77.9% | 0hPa | 2.6V | 05:27:00 | 00:00:00 | 00:00:00 | |
| HASLITAL | 2026-09-05 03:59:47 | 46.77745 | 8.04836 | 0° | 0km/h | 1786m | 0.1m/s | 11.3°C | 83.1% | 0hPa | 2.6V | 05:27:00 | 00:00:00 | 00:00:00 | |
| HASLITAL | 2026-09-05 03:59:26 | 46.77744 | 8.04834 | 0° | 0km/h | 1784m | -0.0m/s | 11.4°C | 82.2% | 0hPa | 2.6V | 05:27:00 | 00:00:00 | 00:00:00 | |
| HASLITAL | 2026-09-05 03:59:06 | 46.77745 | 8.04833 | 0° | 0km/h | 1782m | 0.0m/s | 12.2°C | 76.1% | 0hPa | 2.6V | 05:28:00 | 00:00:00 | 00:00:00 | |
| HASLITAL | 2026-09-05 03:58:45 | 46.77744 | 8.04830 | 0° | 0km/h | 1779m | 0.1m/s | 12.1°C | 76.3% | 0hPa | 2.6V | 05:28:00 | 00:00:00 | 00:00:00 | |
| HASLITAL | 2026-09-05 03:58:24 | 46.77742 | 8.04829 | 0° | 0km/h | 1776m | 0.0m/s | 11.3°C | 84.7% | 0hPa | 2.6V | 05:29:00 | 00:00:00 | 00:00:00 | |
| HASLITAL | 2026-09-05 03:58:03 | 46.77742 | 8.04830 | 0° | 0km/h | 1779m | -0.1m/s | 11.9°C | 79.3% | 0hPa | 2.6V | 05:29:00 | 00:00:00 | 00:00:00 | |
| HASLITAL | 2026-09-05 03:57:43 | 46.77745 | 8.04834 | 0° | 0km/h | 1784m | -0.0m/s | 11.5°C | 81.6% | 0hPa | 2.6V | 05:30:00 | 00:00:00 | 00:00:00 | |
| HASLITAL | 2026-09-05 03:57:22 | 46.77745 | 8.04834 | 0° | 0km/h | 1783m | -0.0m/s | 11.2°C | 84.8% | 0hPa | 2.6V | 05:30:00 | 00:00:00 | 00:00:00 | |
| HASLITAL | 2026-09-05 03:57:01 | 46.77745 | 8.04836 | 0° | 0km/h | 1782m | -0.1m/s | 11.2°C | 85.5% | 0hPa | 2.6V | 05:30:00 | 00:00:00 | 00:00:00 | |
| HASLITAL | 2026-09-05 03:56:40 | 46.77745 | 8.04837 | 0° | 0km/h | 1784m | -0.1m/s | 11.8°C | 78.6% | 0hPa | 2.6V | 05:30:00 | 00:00:00 | 00:00:00 | |
| HASLITAL | 2026-09-05 03:56:20 | 46.77744 | 8.04837 | 0° | 0km/h | 1783m | 0.0m/s | 11.8°C | 78.8% | 0hPa | 2.6V | 05:30:00 | 00:00:00 | 00:00:00 | |
| HASLITAL | 2026-09-05 03:55:59 | 46.77744 | 8.04838 | 0° | 0km/h | 1784m | -0.1m/s | 12.0°C | 79.2% | 0hPa | 2.6V | 05:31:00 | 00:00:00 | 00:00:00 | |
| HASLITAL | 2026-09-05 03:55:39 | 46.77745 | 8.04837 | 0° | 0km/h | 1784m | -0.0m/s | 12.9°C | 71.2% | 0hPa | 2.6V | 05:31:00 | 00:00:00 | 00:00:00 | |
| HASLITAL | 2026-09-05 03:55:19 | 46.77746 | 8.04837 | 0° | 0km/h | 1785m | -0.0m/s | 12.7°C | 73.7% | 0hPa | 2.6V | 05:31:00 | 00:00:00 | 00:00:00 | |
| HASLITAL | 2026-09-05 03:54:58 | 46.77745 | 8.04836 | 0° | 0km/h | 1784m | 0.0m/s | 12.3°C | 75.9% | 0hPa | 2.6V | 05:32:00 | 00:00:00 | 00:00:00 | |
| HASLITAL | 2026-09-05 03:54:37 | 46.77745 | 8.04834 | 0° | 0km/h | 1784m | 0.0m/s | 11.6°C | 80.4% | 0hPa | 2.6V | 05:32:00 | 00:00:00 | 00:00:00 | |
| HASLITAL | 2026-09-05 03:54:17 | 46.77745 | 8.04836 | 0° | 0km/h | 1785m | -0.0m/s | 11.5°C | 81.2% | 0hPa | 2.6V | 05:33:00 | 00:00:00 | 00:00:00 | |
| HASLITAL | 2026-09-05 03:53:56 | 46.77745 | 8.04837 | 0° | 0km/h | 1785m | 0.1m/s | 11.7°C | 80.3% | 0hPa | 2.6V | 05:33:00 | 00:00:00 | 00:00:00 | |
| HASLITAL | 2026-09-05 03:53:35 | 46.77745 | 8.04837 | 0° | 0km/h | 1784m | -0.0m/s | 11.7°C | 82.0% | 0hPa | 2.6V | 05:33:00 | 00:00:00 | 00:00:00 | |
| HASLITAL | 2026-09-05 03:53:15 | 46.77746 | 8.04836 | 0° | 0km/h | 1784m | -0.0m/s | 11.8°C | 80.0% | 0hPa | 2.6V | 05:34:00 | 00:00:00 | 00:00:00 | |
| HASLITAL | 2026-09-05 03:52:55 | 46.77746 | 8.04833 | 0° | 0km/h | 1784m | -0.0m/s | 11.7°C | 82.6% | 0hPa | 2.6V | 05:34:00 | 00:00:00 | 00:00:00 | |
| HASLITAL | 2026-09-05 03:52:34 | 46.77746 | 8.04832 | 0° | 0km/h | 1783m | 0.0m/s | 12.0°C | 79.0% | 0hPa | 2.6V | 05:35:00 | 00:00:00 | 00:00:00 | |
| HASLITAL | 2026-09-05 03:52:14 | 46.77747 | 8.04832 | 0° | 0km/h | 1783m | -0.0m/s | 11.5°C | 84.6% | 0hPa | 2.6V | 05:35:00 | 00:00:00 | 00:00:00 | |
| HASLITAL | 2026-09-05 03:51:53 | 46.77747 | 8.04832 | 0° | 0km/h | 1784m | 0.1m/s | 11.3°C | 86.4% | 0hPa | 2.6V | 05:35:00 | 00:00:00 | 00:00:00 | |
| HASLITAL | 2026-09-05 03:51:33 | 46.77747 | 8.04832 | 0° | 0km/h | 1783m | -0.0m/s | 11.9°C | 79.4% | 0hPa | 2.6V | 05:36:00 | 00:00:00 | 00:00:00 | |
| HASLITAL | 2026-09-05 03:51:12 | 46.77747 | 8.04832 | 0° | 0km/h | 1784m | 0.0m/s | 11.3°C | 84.4% | 0hPa | 2.6V | 05:36:00 | 00:00:00 | 00:00:00 | |
| HASLITAL | 2026-09-05 03:50:52 | 46.77746 | 8.04832 | 0° | 0km/h | 1785m | 0.0m/s | 12.0°C | 79.9% | 0hPa | 2.6V | 05:36:00 | 00:00:00 | 00:00:00 | |
| HASLITAL | 2026-09-05 03:50:31 | 46.77745 | 8.04832 | 0° | 0km/h | 1785m | -0.1m/s | 12.0°C | 80.2% | 0hPa | 2.6V | 05:36:00 | 00:00:00 | 00:00:00 | |
| HASLITAL | 2026-09-05 03:50:11 | 46.77745 | 8.04831 | 0° | 0km/h | 1785m | -0.1m/s | 12.4°C | 75.7% | 0hPa | 2.6V | 05:36:00 | 00:00:00 | 00:00:00 | |
| HASLITAL | 2026-09-05 03:49:51 | 46.77744 | 8.04831 | 0° | 0km/h | 1786m | -0.1m/s | 11.8°C | 79.8% | 0hPa | 2.6V | 05:37:00 | 00:00:00 | 00:00:00 | |
| HASLITAL | 2026-09-05 03:49:30 | 46.77744 | 8.04832 | 0° | 0km/h | 1786m | -0.0m/s | 11.7°C | 81.0% | 0hPa | 2.6V | 05:37:00 | 00:00:00 | 00:00:00 | |
| HASLITAL | 2026-09-05 03:49:09 | 46.77744 | 8.04833 | 0° | 0km/h | 1787m | 0.1m/s | 11.3°C | 83.8% | 0hPa | 2.6V | 05:38:00 | 00:00:00 | 00:00:00 | |
| HASLITAL | 2026-09-05 03:48:48 | 46.77743 | 8.04834 | 0° | 0km/h | 1787m | 0.0m/s | 11.3°C | 82.0% | 0hPa | 2.6V | 05:38:00 | 00:00:00 | 00:00:00 | |
| HASLITAL | 2026-09-05 03:48:27 | 46.77743 | 8.04835 | 0° | 0km/h | 1786m | -0.0m/s | 11.6°C | 82.8% | 0hPa | 2.6V | 05:38:00 | 00:00:00 | 00:00:00 | |
| HASLITAL | 2026-09-05 03:48:06 | 46.77744 | 8.04835 | 0° | 0km/h | 1784m | -0.1m/s | 11.3°C | 84.8% | 0hPa | 2.6V | 05:39:00 | 00:00:00 | 00:00:00 | |
| HASLITAL | 2026-09-05 03:47:45 | 46.77745 | 8.04835 | 0° | 0km/h | 1785m | 0.0m/s | 12.1°C | 78.9% | 0hPa | 2.6V | 05:39:00 | 00:00:00 | 00:00:00 | |
| HASLITAL | 2026-09-05 03:47:25 | 46.77745 | 8.04836 | 0° | 0km/h | 1783m | 0.0m/s | 12.6°C | 74.2% | 0hPa | 2.6V | 05:40:00 | 00:00:00 | 00:00:00 | |
| HASLITAL | 2026-09-05 03:47:05 | 46.77745 | 8.04835 | 0° | 0km/h | 1783m | 0.1m/s | 11.8°C | 82.4% | 0hPa | 2.6V | 05:40:00 | 00:00:00 | 00:00:00 | |
| HASLITAL | 2026-09-05 03:46:44 | 46.77745 | 8.04834 | 0° | 0km/h | 1782m | -0.0m/s | 12.3°C | 76.9% | 0hPa | 2.6V | 05:40:00 | 00:00:00 | 00:00:00 | |
| HASLITAL | 2026-09-05 03:46:23 | 46.77745 | 8.04834 | 0° | 0km/h | 1781m | 0.0m/s | 12.8°C | 73.6% | 0hPa | 2.6V | 05:41:00 | 00:00:00 | 00:00:00 | |
| HASLITAL | 2026-09-05 03:46:02 | 46.77745 | 8.04835 | 0° | 0km/h | 1782m | -0.1m/s | 11.6°C | 81.3% | 0hPa | 2.6V | 05:41:00 | 00:00:00 | 00:00:00 | |
| HASLITAL | 2026-09-05 03:45:42 | 46.77744 | 8.04834 | 0° | 0km/h | 1783m | 0.1m/s | 11.5°C | 81.1% | 0hPa | 2.6V | 05:42:00 | 00:00:00 | 00:00:00 | |
| HASLITAL | 2026-09-05 03:45:21 | 46.77744 | 8.04833 | 0° | 0km/h | 1784m | 0.1m/s | 11.5°C | 85.3% | 0hPa | 2.6V | 05:42:00 | 00:00:00 | 00:00:00 | |
| HASLITAL | 2026-09-05 03:45:01 | 46.77744 | 8.04833 | 0° | 0km/h | 1786m | 0.1m/s | 11.4°C | 85.8% | 0hPa | 2.6V | 05:42:00 | 00:00:00 | 00:00:00 | |
| HASLITAL | 2026-09-05 03:44:41 | 46.77744 | 8.04833 | 0° | 0km/h | 1785m | -0.0m/s | 11.7°C | 83.1% | 0hPa | 2.6V | 05:42:00 | 00:00:00 | 00:00:00 | |
| HASLITAL | 2026-09-05 03:44:20 | 46.77745 | 8.04833 | 0° | 0km/h | 1784m | 0.1m/s | 11.4°C | 85.7% | 0hPa | 2.6V | 05:42:00 | 00:00:00 | 00:00:00 | |
| HASLITAL | 2026-09-05 03:44:00 | 46.77745 | 8.04834 | 0° | 0km/h | 1784m | 0.2m/s | 11.5°C | 85.1% | 0hPa | 2.6V | 05:43:00 | 00:00:00 | 00:00:00 | |
| HASLITAL | 2026-09-05 03:43:40 | 46.77744 | 8.04834 | 0° | 0km/h | 1785m | -0.0m/s | 11.6°C | 84.3% | 0hPa | 2.6V | 05:43:00 | 00:00:00 | 00:00:00 | |
| HASLITAL | 2026-09-05 03:43:19 | 46.77743 | 8.04835 | 0° | 0km/h | 1788m | 0.2m/s | 11.7°C | 83.4% | 0hPa | 2.6V | 05:43:00 | 00:00:00 | 00:00:00 | |
| HASLITAL | 2026-09-05 03:42:59 | 46.77743 | 8.04835 | 0° | 0km/h | 1788m | 0.1m/s | 11.9°C | 81.4% | 0hPa | 2.6V | 05:44:00 | 00:00:00 | 00:00:00 | |
| HASLITAL | 2026-09-05 03:42:38 | 46.77743 | 8.04836 | 0° | 0km/h | 1787m | 0.0m/s | 12.3°C | 78.7% | 0hPa | 2.6V | 05:44:00 | 00:00:00 | 00:00:00 | |
| HASLITAL | 2026-09-05 03:42:18 | 46.77743 | 8.04837 | 0° | 0km/h | 1787m | 0.0m/s | 12.6°C | 76.7% | 0hPa | 2.6V | 05:45:00 | 00:00:00 | 00:00:00 | |
| HASLITAL | 2026-09-05 03:41:58 | 46.77743 | 8.04836 | 0° | 0km/h | 1787m | 0.1m/s | 13.1°C | 71.1% | 0hPa | 2.6V | 05:45:00 | 00:00:00 | 00:00:00 | |
| HASLITAL | 2026-09-05 03:41:37 | 46.77743 | 8.04837 | 0° | 0km/h | 1789m | 0.1m/s | 12.4°C | 76.4% | 0hPa | 2.6V | 05:45:00 | 00:00:00 | 00:00:00 | |
| HASLITAL | 2026-09-05 03:41:17 | 46.77745 | 8.04839 | 0° | 0km/h | 1789m | 0.1m/s | 11.9°C | 81.2% | 0hPa | 2.6V | 05:46:00 | 00:00:00 | 00:00:00 | |
| HASLITAL | 2026-09-05 03:40:56 | 46.77744 | 8.04838 | 0° | 0km/h | 1787m | 0.1m/s | 12.7°C | 74.9% | 0hPa | 2.6V | 05:46:00 | 00:00:00 | 00:00:00 | |
| HASLITAL | 2026-09-05 03:40:36 | 46.77743 | 8.04835 | 0° | 0km/h | 1787m | -0.0m/s | 12.6°C | 77.1% | 0hPa | 2.6V | 05:47:00 | 00:00:00 | 00:00:00 | |
| HASLITAL | 2026-09-05 03:40:15 | 46.77743 | 8.04836 | 0° | 0km/h | 1788m | -0.0m/s | 12.7°C | 76.8% | 0hPa | 2.6V | 05:47:00 | 00:00:00 | 00:00:00 | |
| HASLITAL | 2026-09-05 03:39:55 | 46.77743 | 8.04834 | 0° | 0km/h | 1785m | -0.1m/s | 13.3°C | 71.0% | 0hPa | 2.6V | 05:47:00 | 00:00:00 | 00:00:00 | |
| HASLITAL | 2026-09-05 03:39:35 | 46.77743 | 8.04832 | 0° | 0km/h | 1783m | 0.1m/s | 12.8°C | 74.6% | 0hPa | 2.6V | 05:47:00 | 00:00:00 | 00:00:00 | |
| HASLITAL | 2026-09-05 03:39:14 | 46.77743 | 8.04834 | 0° | 0km/h | 1784m | 0.2m/s | 13.4°C | 70.7% | 0hPa | 2.6V | 05:47:00 | 00:00:00 | 00:00:00 | |
| HASLITAL | 2026-09-05 03:38:54 | 46.77745 | 8.04835 | 0° | 0km/h | 1786m | 0.0m/s | 12.8°C | 75.3% | 0hPa | 2.6V | 05:48:00 | 00:00:00 | 00:00:00 | |
| HASLITAL | 2026-09-05 03:38:34 | 46.77745 | 8.04836 | 0° | 0km/h | 1785m | 0.1m/s | 12.8°C | 74.8% | 0hPa | 2.6V | 05:48:00 | 00:00:00 | 00:00:00 | |
| HASLITAL | 2026-09-05 03:38:13 | 46.77746 | 8.04837 | 0° | 0km/h | 1786m | 0.0m/s | 13.2°C | 73.5% | 0hPa | 2.6V | 05:48:00 | 00:00:00 | 00:00:00 | |
| HASLITAL | 2026-09-05 03:37:52 | 46.77746 | 8.04837 | 0° | 0km/h | 1788m | -0.0m/s | 13.3°C | 71.7% | 0hPa | 2.6V | 05:49:00 | 00:00:00 | 00:00:00 | |
| HASLITAL | 2026-09-05 03:37:31 | 46.77745 | 8.04836 | 0° | 0km/h | 1791m | -0.1m/s | 12.8°C | 74.9% | 0hPa | 2.6V | 05:49:00 | 00:00:00 | 00:00:00 | |
| HASLITAL | 2026-09-05 03:37:11 | 46.77745 | 8.04836 | 0° | 0km/h | 1791m | -0.0m/s | 12.9°C | 74.8% | 0hPa | 2.6V | 05:50:00 | 00:00:00 | 00:00:00 | |
| HASLITAL | 2026-09-05 03:36:50 | 46.77745 | 8.04837 | 0° | 0km/h | 1789m | 0.1m/s | 13.3°C | 73.1% | 0hPa | 2.6V | 05:50:00 | 00:00:00 | 00:00:00 | |
| HASLITAL | 2026-09-05 03:36:29 | 46.77745 | 8.04838 | 0° | 0km/h | 1787m | 0.1m/s | 13.5°C | 68.1% | 0hPa | 2.6V | 05:50:00 | 00:00:00 | 00:00:00 | |
| HASLITAL | 2026-09-05 03:36:08 | 46.77744 | 8.04838 | 0° | 0km/h | 1785m | 0.1m/s | 12.7°C | 76.6% | 0hPa | 2.6V | 05:51:00 | 00:00:00 | 00:00:00 | |
| HASLITAL | 2026-09-05 03:35:48 | 46.77744 | 8.04838 | 0° | 0km/h | 1785m | -0.0m/s | 13.4°C | 71.5% | 0hPa | 2.6V | 05:51:00 | 00:00:00 | 00:00:00 | |
| HASLITAL | 2026-09-05 03:35:27 | 46.77744 | 8.04837 | 0° | 0km/h | 1783m | 0.1m/s | 12.9°C | 75.5% | 0hPa | 2.6V | 05:52:00 | 00:00:00 | 00:00:00 | |
| HASLITAL | 2026-09-05 03:35:07 | 46.77746 | 8.04838 | 0° | 0km/h | 1782m | 0.2m/s | 13.4°C | 71.2% | 0hPa | 2.6V | 05:52:00 | 00:00:00 | 00:00:00 | |
| HASLITAL | 2026-09-05 03:34:46 | 46.77745 | 8.04837 | 0° | 0km/h | 1783m | 0.0m/s | 12.7°C | 78.2% | 0hPa | 2.6V | 05:53:00 | 00:00:00 | 00:00:00 | |
| HASLITAL | 2026-09-05 03:34:26 | 46.77743 | 8.04834 | 0° | 0km/h | 1785m | 0.0m/s | 12.6°C | 79.9% | 0hPa | 2.6V | 05:53:00 | 00:00:00 | 00:00:00 | |
| HASLITAL | 2026-09-05 03:34:05 | 46.77743 | 8.04834 | 0° | 0km/h | 1784m | 0.0m/s | 12.4°C | 79.8% | 0hPa | 2.6V | 05:53:00 | 00:00:00 | 00:00:00 | |
| HASLITAL | 2026-09-05 03:33:44 | 46.77745 | 8.04836 | 0° | 0km/h | 1783m | -0.2m/s | 13.4°C | 72.6% | 0hPa | 2.6V | 05:53:00 | 00:00:00 | 00:00:00 | |
| HASLITAL | 2026-09-05 03:33:23 | 46.77746 | 8.04836 | 0° | 0km/h | 1781m | 0.1m/s | 12.9°C | 77.6% | 0hPa | 2.6V | 05:53:00 | 00:00:00 | 00:00:00 | |
| HASLITAL | 2026-09-05 03:33:03 | 46.77747 | 8.04834 | 0° | 0km/h | 1781m | -0.0m/s | 13.4°C | 72.0% | 0hPa | 2.6V | 05:54:00 | 00:00:00 | 00:00:00 | |
| HASLITAL | 2026-09-05 03:32:43 | 46.77746 | 8.04834 | 0° | 0km/h | 1782m | -0.0m/s | 13.4°C | 71.4% | 0hPa | 2.6V | 05:54:00 | 00:00:00 | 00:00:00 | |
| HASLITAL | 2026-09-05 03:32:22 | 46.77746 | 8.04833 | 0° | 0km/h | 1782m | 0.0m/s | 13.3°C | 72.3% | 0hPa | 2.6V | 05:54:00 | 00:00:00 | 00:00:00 | |
| HASLITAL | 2026-09-05 03:32:01 | 46.77746 | 8.04833 | 0° | 0km/h | 1783m | 0.0m/s | 14.2°C | 66.7% | 0hPa | 2.6V | 05:55:00 | 00:00:00 | 00:00:00 | |
| HASLITAL | 2026-09-05 03:31:40 | 46.77745 | 8.04834 | 0° | 0km/h | 1784m | -0.1m/s | 12.9°C | 77.5% | 0hPa | 2.6V | 05:55:00 | 00:00:00 | 00:00:00 | |
| HASLITAL | 2026-09-05 03:31:20 | 46.77745 | 8.04836 | 0° | 0km/h | 1786m | -0.0m/s | 13.8°C | 68.9% | 0hPa | 2.6V | 05:56:00 | 00:00:00 | 00:00:00 | |
| HASLITAL | 2026-09-05 03:30:59 | 46.77745 | 8.04836 | 0° | 0km/h | 1785m | 0.2m/s | 13.4°C | 71.8% | 0hPa | 2.6V | 05:56:00 | 00:00:00 | 00:00:00 | |
| HASLITAL | 2026-09-05 03:30:38 | 46.77745 | 8.04835 | 0° | 0km/h | 1785m | -0.1m/s | 13.4°C | 72.0% | 0hPa | 2.6V | 05:56:00 | 00:00:00 | 00:00:00 | |
| HASLITAL | 2026-09-05 03:30:17 | 46.77746 | 8.04835 | 0° | 0km/h | 1786m | -0.1m/s | 12.3°C | 83.8% | 0hPa | 2.6V | 05:57:00 | 00:00:00 | 00:00:00 | |
| HASLITAL | 2026-09-05 03:29:56 | 46.77746 | 8.04835 | 0° | 0km/h | 1783m | 0.1m/s | 13.0°C | 77.1% | 0hPa | 2.6V | 05:57:00 | 00:00:00 | 00:00:00 | |
| HASLITAL | 2026-09-05 03:29:36 | 46.77747 | 8.04834 | 0° | 0km/h | 1783m | -0.0m/s | 12.8°C | 78.3% | 0hPa | 2.6V | 05:58:00 | 00:00:00 | 00:00:00 | |
| HASLITAL | 2026-09-05 03:29:15 | 46.77746 | 8.04834 | 0° | 0km/h | 1784m | 0.1m/s | 12.6°C | 80.1% | 0hPa | 2.6V | 05:58:00 | 00:00:00 | 00:00:00 | |
| HASLITAL | 2026-09-05 03:28:54 | 46.77745 | 8.04834 | 0° | 0km/h | 1785m | -0.0m/s | 12.8°C | 78.6% | 0hPa | 2.6V | 05:58:00 | 00:00:00 | 00:00:00 | |
| HASLITAL | 2026-09-05 03:28:34 | 46.77745 | 8.04834 | 0° | 0km/h | 1786m | 0.1m/s | 12.4°C | 84.2% | 0hPa | 2.6V | 05:59:00 | 00:00:00 | 00:00:00 | |
| HASLITAL | 2026-09-05 03:28:13 | 46.77746 | 8.04834 | 0° | 0km/h | 1786m | -0.0m/s | 13.0°C | 76.0% | 0hPa | 2.6V | 05:59:00 | 00:00:00 | 00:00:00 | |
| HASLITAL | 2026-09-05 03:27:53 | 46.77746 | 8.04835 | 0° | 0km/h | 1785m | 0.1m/s | 12.7°C | 78.0% | 0hPa | 2.6V | 05:59:00 | 00:00:00 | 00:00:00 | |
| HASLITAL | 2026-09-05 03:27:32 | 46.77746 | 8.04836 | 0° | 0km/h | 1784m | 0.1m/s | 12.5°C | 80.0% | 0hPa | 2.6V | 05:59:00 | 00:00:00 | 00:00:00 | |
| HASLITAL | 2026-09-05 03:27:12 | 46.77745 | 8.04836 | 0° | 0km/h | 1785m | 0.0m/s | 12.9°C | 77.9% | 0hPa | 2.6V | 05:59:00 | 00:00:00 | 00:00:00 | |
| HASLITAL | 2026-09-05 03:26:51 | 46.77743 | 8.04837 | 0° | 0km/h | 1789m | -0.1m/s | 13.0°C | 77.3% | 0hPa | 2.6V | 06:00:00 | 00:00:00 | 00:00:00 | |
| HASLITAL | 2026-09-05 03:26:30 | 46.77743 | 8.04836 | 0° | 0km/h | 1788m | 0.1m/s | 12.6°C | 78.6% | 0hPa | 2.6V | 06:00:00 | 00:00:00 | 00:00:00 | |
| HASLITAL | 2026-09-05 03:26:09 | 46.77744 | 8.04836 | 0° | 0km/h | 1786m | -0.1m/s | 12.9°C | 76.9% | 0hPa | 2.6V | 06:01:00 | 00:00:00 | 00:00:00 | |
| HASLITAL | 2026-09-05 03:25:48 | 46.77744 | 8.04837 | 0° | 0km/h | 1786m | 0.0m/s | 13.3°C | 73.1% | 0hPa | 2.6V | 06:01:00 | 00:00:00 | 00:00:00 | |
| HASLITAL | 2026-09-05 03:25:27 | 46.77743 | 8.04837 | 0° | 0km/h | 1788m | -0.1m/s | 13.8°C | 70.2% | 0hPa | 2.6V | 06:01:00 | 00:00:00 | 00:00:00 | |
| HASLITAL | 2026-09-05 03:25:07 | 46.77742 | 8.04836 | 0° | 0km/h | 1790m | -0.1m/s | 13.1°C | 74.8% | 0hPa | 2.6V | 06:02:00 | 00:00:00 | 00:00:00 | |
| HASLITAL | 2026-09-05 03:24:47 | 46.77742 | 8.04835 | 0° | 0km/h | 1790m | 0.0m/s | 12.6°C | 78.8% | 0hPa | 2.6V | 06:02:00 | 00:00:00 | 00:00:00 | |
| HASLITAL | 2026-09-05 03:24:26 | 46.77745 | 8.04832 | 0° | 0km/h | 1787m | -0.1m/s | 12.2°C | 82.1% | 0hPa | 2.6V | 06:03:00 | 00:00:00 | 00:00:00 | |
| HASLITAL | 2026-09-05 03:24:06 | 46.77746 | 8.04834 | 0° | 0km/h | 1785m | -0.1m/s | 12.0°C | 85.4% | 0hPa | 2.6V | 06:03:00 | 00:00:00 | 00:00:00 | |
| HASLITAL | 2026-09-05 03:23:46 | 46.77746 | 8.04835 | 0° | 0km/h | 1784m | -0.1m/s | 12.7°C | 80.4% | 0hPa | 2.6V | 06:03:00 | 00:00:00 | 00:00:00 | |
| HASLITAL | 2026-09-05 03:23:25 | 46.77745 | 8.04834 | 0° | 0km/h | 1784m | -0.1m/s | 12.3°C | 84.0% | 0hPa | 2.6V | 06:04:00 | 00:00:00 | 00:00:00 | |
| HASLITAL | 2026-09-05 03:23:04 | 46.77745 | 8.04834 | 0° | 0km/h | 1783m | -0.1m/s | 13.0°C | 78.3% | 0hPa | 2.6V | 06:04:00 | 00:00:00 | 00:00:00 | |
| HASLITAL | 2026-09-05 03:22:43 | 46.77747 | 8.04834 | 0° | 0km/h | 1780m | 0.0m/s | 12.7°C | 81.0% | 0hPa | 2.6V | 06:04:00 | 00:00:00 | 00:00:00 | |
| HASLITAL | 2026-09-05 03:22:22 | 46.77747 | 8.04833 | 0° | 0km/h | 1779m | -0.0m/s | 14.4°C | 66.4% | 0hPa | 2.6V | 06:04:00 | 00:00:00 | 00:00:00 | |
| HASLITAL | 2026-09-05 03:22:01 | 46.77747 | 8.04834 | 0° | 0km/h | 1780m | 0.0m/s | 13.7°C | 70.1% | 0hPa | 2.6V | 06:05:00 | 00:00:00 | 00:00:00 | |
| HASLITAL | 2026-09-05 03:21:41 | 46.77747 | 8.04834 | 0° | 0km/h | 1782m | -0.2m/s | 13.0°C | 75.3% | 0hPa | 2.6V | 06:05:00 | 00:00:00 | 00:00:00 | |
| HASLITAL | 2026-09-05 03:21:21 | 46.77746 | 8.04835 | 0° | 0km/h | 1786m | -0.1m/s | 12.8°C | 76.1% | 0hPa | 2.6V | 06:05:00 | 00:00:00 | 00:00:00 | |
| HASLITAL | 2026-09-05 03:21:00 | 46.77745 | 8.04836 | 0° | 0km/h | 1788m | 0.0m/s | 14.0°C | 68.6% | 0hPa | 2.6V | 06:06:00 | 00:00:00 | 00:00:00 | |
| HASLITAL | 2026-09-05 03:20:40 | 46.77745 | 8.04836 | 0° | 0km/h | 1786m | -0.1m/s | 13.0°C | 74.7% | 0hPa | 2.6V | 06:06:00 | 00:00:00 | 00:00:00 | |
| HASLITAL | 2026-09-05 03:20:19 | 46.77746 | 8.04836 | 0° | 0km/h | 1785m | -0.0m/s | 12.9°C | 75.0% | 0hPa | 2.6V | 06:07:00 | 00:00:00 | 00:00:00 | |
| HASLITAL | 2026-09-05 03:19:59 | 46.77746 | 8.04838 | 0° | 0km/h | 1785m | 0.1m/s | 12.6°C | 77.4% | 0hPa | 2.6V | 06:07:00 | 00:00:00 | 00:00:00 | |
| HASLITAL | 2026-09-05 03:19:38 | 46.77746 | 8.04837 | 0° | 0km/h | 1785m | -0.0m/s | 12.4°C | 79.2% | 0hPa | 2.6V | 06:07:00 | 00:00:00 | 00:00:00 | |
| HASLITAL | 2026-09-05 03:19:17 | 46.77746 | 8.04836 | 0° | 0km/h | 1785m | 0.0m/s | 12.2°C | 81.1% | 0hPa | 2.6V | 06:08:00 | 00:00:00 | 00:00:00 | |
| HASLITAL | 2026-09-05 03:18:56 | 46.77746 | 8.04834 | 0° | 0km/h | 1783m | 0.0m/s | 12.4°C | 79.4% | 0hPa | 2.6V | 06:08:00 | 00:00:00 | 00:00:00 | |
| HASLITAL | 2026-09-05 03:18:36 | 46.77746 | 8.04834 | 0° | 0km/h | 1781m | 0.1m/s | 12.3°C | 80.6% | 0hPa | 2.6V | 06:09:00 | 00:00:00 | 00:00:00 | |
| HASLITAL | 2026-09-05 03:18:15 | 46.77746 | 8.04832 | 0° | 0km/h | 1779m | 0.1m/s | 11.9°C | 83.0% | 0hPa | 2.6V | 06:09:00 | 00:00:00 | 00:00:00 | |
| HASLITAL | 2026-09-05 03:17:54 | 46.77747 | 8.04832 | 0° | 0km/h | 1778m | -0.0m/s | 11.9°C | 83.7% | 0hPa | 2.6V | 06:09:00 | 00:00:00 | 00:00:00 | |
| HASLITAL | 2026-09-05 03:17:33 | 46.77745 | 8.04831 | 0° | 0km/h | 1778m | 0.0m/s | 12.5°C | 78.0% | 0hPa | 2.6V | 06:10:00 | 00:00:00 | 00:00:00 | |
| HASLITAL | 2026-09-05 03:17:12 | 46.77745 | 8.04832 | 0° | 0km/h | 1779m | -0.1m/s | 12.7°C | 76.3% | 0hPa | 2.6V | 06:10:00 | 00:00:00 | 00:00:00 | |
| HASLITAL | 2026-09-05 03:16:52 | 46.77746 | 8.04833 | 0° | 0km/h | 1779m | -0.0m/s | 11.9°C | 82.7% | 0hPa | 2.6V | 06:10:00 | 00:00:00 | 00:00:00 | |
| HASLITAL | 2026-09-05 03:16:31 | 46.77745 | 8.04835 | 0° | 0km/h | 1780m | 0.1m/s | 12.3°C | 80.3% | 0hPa | 2.6V | 06:10:00 | 00:00:00 | 00:00:00 | |
| HASLITAL | 2026-09-05 03:16:11 | 46.77745 | 8.04836 | 0° | 0km/h | 1781m | -0.1m/s | 12.4°C | 78.9% | 0hPa | 2.6V | 06:10:00 | 00:00:00 | 00:00:00 | |
| HASLITAL | 2026-09-05 03:15:50 | 46.77745 | 8.04836 | 0° | 0km/h | 1782m | -0.1m/s | 12.3°C | 78.2% | 0hPa | 2.6V | 06:11:00 | 00:00:00 | 00:00:00 | |
| HASLITAL | 2026-09-05 03:15:30 | 46.77747 | 8.04836 | 0° | 0km/h | 1783m | -0.0m/s | 11.9°C | 83.8% | 0hPa | 2.6V | 06:11:00 | 00:00:00 | 00:00:00 | |
| HASLITAL | 2026-09-05 03:15:10 | 46.77748 | 8.04836 | 0° | 0km/h | 1782m | 0.2m/s | 12.5°C | 78.1% | 0hPa | 2.6V | 06:12:00 | 00:00:00 | 00:00:00 | |
| HASLITAL | 2026-09-05 03:14:49 | 46.77748 | 8.04837 | 0° | 0km/h | 1782m | -0.1m/s | 12.0°C | 82.0% | 0hPa | 2.6V | 06:12:00 | 00:00:00 | 00:00:00 | |
| HASLITAL | 2026-09-05 03:14:28 | 46.77749 | 8.04836 | 0° | 0km/h | 1782m | -0.0m/s | 12.2°C | 80.5% | 0hPa | 2.6V | 06:12:00 | 00:00:00 | 00:00:00 | |
| HASLITAL | 2026-09-05 03:14:08 | 46.77749 | 8.04836 | 0° | 0km/h | 1783m | -0.0m/s | 12.3°C | 79.4% | 0hPa | 2.6V | 06:13:00 | 00:00:00 | 00:00:00 | |
| HASLITAL | 2026-09-05 03:13:47 | 46.77748 | 8.04832 | 0° | 0km/h | 1781m | 0.1m/s | 12.1°C | 82.6% | 0hPa | 2.6V | 06:13:00 | 00:00:00 | 00:00:00 | |
| HASLITAL | 2026-09-05 03:13:26 | 46.77747 | 8.04828 | 0° | 0km/h | 1778m | 0.1m/s | 12.0°C | 81.7% | 0hPa | 2.6V | 06:14:00 | 00:00:00 | 00:00:00 | |
| HASLITAL | 2026-09-05 03:13:05 | 46.77748 | 8.04827 | 0° | 0km/h | 1777m | -0.1m/s | 11.6°C | 86.2% | 0hPa | 2.6V | 06:14:00 | 00:00:00 | 00:00:00 | |
| HASLITAL | 2026-09-05 03:12:44 | 46.77749 | 8.04830 | 0° | 0km/h | 1776m | -0.0m/s | 11.5°C | 87.7% | 0hPa | 2.6V | 06:14:00 | 00:00:00 | 00:00:00 | |
| HASLITAL | 2026-09-05 03:12:23 | 46.77749 | 8.04832 | 0° | 0km/h | 1776m | -0.0m/s | 12.2°C | 80.6% | 0hPa | 2.6V | 06:15:00 | 00:00:00 | 00:00:00 | |
| HASLITAL | 2026-09-05 03:12:02 | 46.77748 | 8.04833 | 0° | 0km/h | 1779m | -0.1m/s | 12.1°C | 82.1% | 0hPa | 2.6V | 06:15:00 | 00:00:00 | 00:00:00 | |
| HASLITAL | 2026-09-05 03:11:42 | 46.77749 | 8.04831 | 0° | 0km/h | 1776m | -0.1m/s | 12.3°C | 79.0% | 0hPa | 2.6V | 06:16:00 | 00:00:00 | 00:00:00 | |
| HASLITAL | 2026-09-05 03:11:21 | 46.77751 | 8.04828 | 0° | 0km/h | 1773m | -0.0m/s | 12.0°C | 81.6% | 0hPa | 2.6V | 06:16:00 | 00:00:00 | 00:00:00 | |
| HASLITAL | 2026-09-05 03:11:00 | 46.77749 | 8.04830 | 0° | 0km/h | 1776m | -0.0m/s | 11.9°C | 83.8% | 0hPa | 2.6V | 06:16:00 | 00:00:00 | 00:00:00 | |
| HASLITAL | 2026-09-05 03:10:40 | 46.77748 | 8.04831 | 0° | 0km/h | 1779m | 0.0m/s | 12.2°C | 79.9% | 0hPa | 2.6V | 06:16:00 | 00:00:00 | 00:00:00 | |
| HASLITAL | 2026-09-05 03:10:19 | 46.77748 | 8.04832 | 0° | 0km/h | 1779m | 0.0m/s | 11.9°C | 82.6% | 0hPa | 2.6V | 06:16:00 | 00:00:00 | 00:00:00 | |
| HASLITAL | 2026-09-05 03:09:59 | 46.77747 | 8.04836 | 0° | 0km/h | 1781m | 0.0m/s | 11.6°C | 87.1% | 0hPa | 2.6V | 06:17:00 | 00:00:00 | 00:00:00 | |
| HASLITAL | 2026-09-05 03:09:38 | 46.77746 | 8.04837 | 0° | 0km/h | 1783m | -0.0m/s | 11.8°C | 83.8% | 0hPa | 2.6V | 06:17:00 | 00:00:00 | 00:00:00 | |
| HASLITAL | 2026-09-05 03:08:56 | 46.77747 | 8.04839 | 0° | 0km/h | 1784m | -0.0m/s | 12.3°C | 78.8% | 0hPa | 2.6V | 06:18:00 | 00:00:00 | 00:00:00 | |
| HASLITAL | 2026-09-05 03:08:36 | 46.77747 | 8.04840 | 0° | 0km/h | 1784m | -0.0m/s | 12.0°C | 81.9% | 0hPa | 2.6V | 06:18:00 | 00:00:00 | 00:00:00 | |
| HASLITAL | 2026-09-05 03:08:15 | 46.77747 | 8.04840 | 0° | 0km/h | 1783m | 0.1m/s | 12.9°C | 75.5% | 0hPa | 2.6V | 06:19:00 | 00:00:00 | 00:00:00 | |
| HASLITAL | 2026-09-05 03:07:55 | 46.77748 | 8.04840 | 0° | 0km/h | 1782m | 0.0m/s | 12.9°C | 75.8% | 0hPa | 2.6V | 06:19:00 | 00:00:00 | 00:00:00 | |
| HASLITAL | 2026-09-05 03:07:34 | 46.77748 | 8.04839 | 0° | 0km/h | 1782m | 0.0m/s | 11.6°C | 86.6% | 0hPa | 2.6V | 06:20:00 | 00:00:00 | 00:00:00 | |
| HASLITAL | 2026-09-05 03:06:53 | 46.77748 | 8.04838 | 0° | 0km/h | 1782m | 0.0m/s | 12.7°C | 76.5% | 0hPa | 2.6V | 06:20:00 | 00:00:00 | 00:00:00 | |
| HASLITAL | 2026-09-05 03:06:33 | 46.77748 | 8.04838 | 0° | 0km/h | 1784m | -0.1m/s | 12.9°C | 75.4% | 0hPa | 2.6V | 06:21:00 | 00:00:00 | 00:00:00 | |
| HASLITAL | 2026-09-05 03:06:12 | 46.77746 | 8.04838 | 0° | 0km/h | 1785m | -0.0m/s | 13.2°C | 73.1% | 0hPa | 2.6V | 06:21:00 | 00:00:00 | 00:00:00 | |
| HASLITAL | 2026-09-05 03:05:52 | 46.77745 | 8.04838 | 0° | 0km/h | 1787m | 0.0m/s | 11.7°C | 86.2% | 0hPa | 2.6V | 06:21:00 | 00:00:00 | 00:00:00 | |
| HASLITAL | 2026-09-05 03:05:31 | 46.77745 | 8.04838 | 0° | 0km/h | 1787m | 0.1m/s | 11.9°C | 83.4% | 0hPa | 2.6V | 06:21:00 | 00:00:00 | 00:00:00 | |
| HASLITAL | 2026-09-05 03:05:10 | 46.77746 | 8.04838 | 0° | 0km/h | 1785m | -0.1m/s | 12.0°C | 82.2% | 0hPa | 2.6V | 06:21:00 | 00:00:00 | 00:00:00 | |
| HASLITAL | 2026-09-05 03:04:49 | 46.77745 | 8.04838 | 0° | 0km/h | 1784m | 0.0m/s | 12.0°C | 81.6% | 0hPa | 2.6V | 06:22:00 | 00:00:00 | 00:00:00 | |
| HASLITAL | 2026-09-05 03:04:29 | 46.77745 | 8.04838 | 0° | 0km/h | 1782m | 0.1m/s | 11.8°C | 84.0% | 0hPa | 2.6V | 06:22:00 | 00:00:00 | 00:00:00 | |
| HASLITAL | 2026-09-05 03:04:08 | 46.77745 | 8.04838 | 0° | 0km/h | 1784m | -0.0m/s | 11.5°C | 86.9% | 0hPa | 2.6V | 06:23:00 | 00:00:00 | 00:00:00 | |
| HASLITAL | 2026-09-05 03:03:48 | 46.77744 | 8.04838 | 0° | 0km/h | 1786m | -0.0m/s | 11.8°C | 84.8% | 0hPa | 2.6V | 06:23:00 | 00:00:00 | 00:00:00 | |
| HASLITAL | 2026-09-05 03:03:27 | 46.77743 | 8.04838 | 0° | 0km/h | 1786m | -0.1m/s | 13.0°C | 76.0% | 0hPa | 2.6V | 06:23:00 | 00:00:00 | 00:00:00 | |
| HASLITAL | 2026-09-05 03:03:07 | 46.77744 | 8.04836 | 0° | 0km/h | 1785m | -0.0m/s | 13.6°C | 70.4% | 0hPa | 2.6V | 06:24:00 | 00:00:00 | 00:00:00 | |
| HASLITAL | 2026-09-05 03:02:47 | 46.77745 | 8.04836 | 0° | 0km/h | 1784m | -0.0m/s | 12.2°C | 80.8% | 0hPa | 2.6V | 06:24:00 | 00:00:00 | 00:00:00 | |
| HASLITAL | 2026-09-05 03:02:26 | 46.77745 | 8.04837 | 0° | 0km/h | 1784m | -0.1m/s | 12.1°C | 82.1% | 0hPa | 2.6V | 06:25:00 | 00:00:00 | 00:00:00 | |
| HASLITAL | 2026-09-05 03:02:05 | 46.77744 | 8.04837 | 0° | 0km/h | 1785m | 0.0m/s | 13.5°C | 71.1% | 0hPa | 2.6V | 06:25:00 | 00:00:00 | 00:00:00 | |
| HASLITAL | 2026-09-05 03:01:44 | 46.77743 | 8.04837 | 0° | 0km/h | 1786m | 0.1m/s | 12.3°C | 80.2% | 0hPa | 2.6V | 06:25:00 | 00:00:00 | 00:00:00 | |
| HASLITAL | 2026-09-05 03:01:24 | 46.77745 | 8.04837 | 0° | 0km/h | 1786m | 0.1m/s | 12.8°C | 75.2% | 0hPa | 2.6V | 06:26:00 | 00:00:00 | 00:00:00 | |
| HASLITAL | 2026-09-05 03:01:04 | 46.77746 | 8.04835 | 0° | 0km/h | 1783m | 0.0m/s | 11.7°C | 84.9% | 0hPa | 2.6V | 06:26:00 | 00:00:00 | 00:00:00 | |
| HASLITAL | 2026-09-05 03:00:43 | 46.77747 | 8.04834 | 0° | 0km/h | 1782m | -0.0m/s | 11.7°C | 85.0% | 0hPa | 2.6V | 06:27:00 | 00:00:00 | 00:00:00 | |
| HASLITAL | 2026-09-05 03:00:23 | 46.77748 | 8.04833 | 0° | 0km/h | 1780m | -0.0m/s | 12.2°C | 80.5% | 0hPa | 2.6V | 06:27:00 | 00:00:00 | 00:00:00 | |
| HASLITAL | 2026-09-05 03:00:03 | 46.77748 | 8.04834 | 0° | 0km/h | 1780m | -0.0m/s | 12.4°C | 77.9% | 0hPa | 2.6V | 06:27:00 | 00:00:00 | 00:00:00 | |
| HASLITAL | 2026-09-05 02:59:42 | 46.77747 | 8.04836 | 0° | 0km/h | 1782m | 0.0m/s | 12.1°C | 80.9% | 0hPa | 2.6V | 06:27:00 | 00:00:00 | 00:00:00 | |
| HASLITAL | 2026-09-05 02:59:21 | 46.77746 | 8.04837 | 0° | 0km/h | 1783m | -0.1m/s | 12.0°C | 82.1% | 0hPa | 2.6V | 06:27:00 | 00:00:00 | 00:00:00 | |
| HASLITAL | 2026-09-05 02:57:59 | 46.77745 | 8.04838 | 0° | 0km/h | 1786m | 0.1m/s | 12.5°C | 77.9% | 0hPa | 2.6V | 06:29:00 | 00:00:00 | 00:00:00 | |
| HASLITAL | 2026-09-05 02:57:38 | 46.77746 | 8.04837 | 0° | 0km/h | 1786m | 0.0m/s | 11.9°C | 83.4% | 0hPa | 2.6V | 06:29:00 | 00:00:00 | 00:00:00 | |
| HASLITAL | 2026-09-05 02:57:18 | 46.77745 | 8.04838 | 0° | 0km/h | 1786m | -0.0m/s | 11.8°C | 84.7% | 0hPa | 2.6V | 06:30:00 | 00:00:00 | 00:00:00 | |
| HASLITAL | 2026-09-05 02:56:57 | 46.77745 | 8.04839 | 0° | 0km/h | 1788m | 0.0m/s | 12.1°C | 82.5% | 0hPa | 2.6V | 06:30:00 | 00:00:00 | 00:00:00 | |
| HASLITAL | 2026-09-05 02:56:37 | 46.77745 | 8.04839 | 0° | 0km/h | 1789m | -0.0m/s | 12.6°C | 77.8% | 0hPa | 2.6V | 06:30:00 | 00:00:00 | 00:00:00 | |
| HASLITAL | 2026-09-05 02:56:16 | 46.77744 | 8.04839 | 0° | 0km/h | 1791m | 0.1m/s | 11.7°C | 85.2% | 0hPa | 2.6V | 06:31:00 | 00:00:00 | 00:00:00 | |
| HASLITAL | 2026-09-05 02:55:55 | 46.77744 | 8.04838 | 0° | 0km/h | 1790m | 0.0m/s | 12.1°C | 80.6% | 0hPa | 2.6V | 06:31:00 | 00:00:00 | 00:00:00 | |
| HASLITAL | 2026-09-05 02:55:35 | 46.77745 | 8.04838 | 0° | 0km/h | 1788m | 0.1m/s | 12.1°C | 80.5% | 0hPa | 2.6V | 06:32:00 | 00:00:00 | 00:00:00 | |
| HASLITAL | 2026-09-05 02:55:14 | 46.77745 | 8.04837 | 0° | 0km/h | 1786m | -0.0m/s | 12.3°C | 79.9% | 0hPa | 2.6V | 06:32:00 | 00:00:00 | 00:00:00 | |
| HASLITAL | 2026-09-05 02:54:53 | 46.77745 | 8.04838 | 0° | 0km/h | 1784m | 0.0m/s | 12.5°C | 77.6% | 0hPa | 2.6V | 06:32:00 | 00:00:00 | 00:00:00 | |
| HASLITAL | 2026-09-05 02:54:32 | 46.77745 | 8.04838 | 0° | 0km/h | 1785m | -0.1m/s | 12.8°C | 77.4% | 0hPa | 2.6V | 06:33:00 | 00:00:00 | 00:00:00 | |
| HASLITAL | 2026-09-05 02:54:11 | 46.77745 | 8.04839 | 0° | 0km/h | 1785m | -0.1m/s | 13.1°C | 75.3% | 0hPa | 2.6V | 06:33:00 | 00:00:00 | 00:00:00 | |
| HASLITAL | 2026-09-05 02:53:51 | 46.77745 | 8.04838 | 0° | 0km/h | 1785m | 0.0m/s | 13.2°C | 73.2% | 0hPa | 2.6V | 06:33:00 | 00:00:00 | 00:00:00 | |
| HASLITAL | 2026-09-05 02:53:30 | 46.77745 | 8.04838 | 0° | 0km/h | 1785m | -0.1m/s | 11.9°C | 83.1% | 0hPa | 2.6V | 06:33:00 | 00:00:00 | 00:00:00 | |
| HASLITAL | 2026-09-05 02:53:10 | 46.77743 | 8.04837 | 0° | 0km/h | 1786m | -0.0m/s | 12.1°C | 79.9% | 0hPa | 2.6V | 06:33:00 | 00:00:00 | 00:00:00 | |
| HASLITAL | 2026-09-05 02:52:49 | 46.77743 | 8.04838 | 0° | 0km/h | 1787m | -0.0m/s | 11.7°C | 85.3% | 0hPa | 2.6V | 06:34:00 | 00:00:00 | 00:00:00 | |
| HASLITAL | 2026-09-05 02:52:07 | 46.77743 | 8.04838 | 0° | 0km/h | 1788m | -0.0m/s | 11.9°C | 83.6% | 0hPa | 2.6V | 06:35:00 | 00:00:00 | 00:00:00 | |
| HASLITAL | 2026-09-05 02:51:46 | 46.77744 | 8.04838 | 0° | 0km/h | 1786m | 0.0m/s | 12.0°C | 82.7% | 0hPa | 2.6V | 06:35:00 | 00:00:00 | 00:00:00 | |
| HASLITAL | 2026-09-05 02:51:26 | 46.77745 | 8.04838 | 0° | 0km/h | 1784m | -0.0m/s | 12.2°C | 80.5% | 0hPa | 2.6V | 06:35:00 | 00:00:00 | 00:00:00 | |
| HASLITAL | 2026-09-05 02:51:05 | 46.77745 | 8.04837 | 0° | 0km/h | 1784m | -0.0m/s | 13.1°C | 73.8% | 0hPa | 2.6V | 06:36:00 | 00:00:00 | 00:00:00 | |
| HASLITAL | 2026-09-05 02:50:44 | 46.77746 | 8.04837 | 0° | 0km/h | 1784m | -0.1m/s | 12.6°C | 77.3% | 0hPa | 2.6V | 06:36:00 | 00:00:00 | 00:00:00 | |
| HASLITAL | 2026-09-05 02:50:24 | 46.77747 | 8.04839 | 0° | 0km/h | 1784m | 0.0m/s | 12.0°C | 80.9% | 0hPa | 2.6V | 06:37:00 | 00:00:00 | 00:00:00 | |
| HASLITAL | 2026-09-05 02:50:04 | 46.77747 | 8.04838 | 0° | 0km/h | 1784m | 0.0m/s | 11.8°C | 83.3% | 0hPa | 2.6V | 06:37:00 | 00:00:00 | 00:00:00 | |
| HASLITAL | 2026-09-05 02:49:22 | 46.77747 | 8.04837 | 0° | 0km/h | 1785m | -0.1m/s | 12.0°C | 80.5% | 0hPa | 2.6V | 06:38:00 | 00:00:00 | 00:00:00 | |
| HASLITAL | 2026-09-05 02:49:02 | 46.77748 | 8.04839 | 0° | 0km/h | 1786m | -0.0m/s | 11.6°C | 85.0% | 0hPa | 2.6V | 06:38:00 | 00:00:00 | 00:00:00 | |
| HASLITAL | 2026-09-05 02:48:41 | 46.77747 | 8.04837 | 0° | 0km/h | 1787m | 0.1m/s | 11.5°C | 85.5% | 0hPa | 2.6V | 06:38:00 | 00:00:00 | 00:00:00 | |
| HASLITAL | 2026-09-05 02:48:21 | 46.77746 | 8.04836 | 0° | 0km/h | 1787m | 0.0m/s | 11.8°C | 83.4% | 0hPa | 2.6V | 06:38:00 | 00:00:00 | 00:00:00 | |
| HASLITAL | 2026-09-05 02:48:01 | 46.77745 | 8.04835 | 0° | 0km/h | 1787m | -0.0m/s | 11.3°C | 87.0% | 0hPa | 2.6V | 06:39:00 | 00:00:00 | 00:00:00 | |
| HASLITAL | 2026-09-05 02:47:40 | 46.77744 | 8.04836 | 0° | 0km/h | 1788m | -0.1m/s | 11.7°C | 83.7% | 0hPa | 2.6V | 06:39:00 | 00:00:00 | 00:00:00 | |
| HASLITAL | 2026-09-05 02:47:20 | 46.77743 | 8.04836 | 0° | 0km/h | 1788m | 0.0m/s | 12.2°C | 79.7% | 0hPa | 2.6V | 06:39:00 | 00:00:00 | 00:00:00 | |
| HASLITAL | 2026-09-05 02:47:00 | 46.77743 | 8.04836 | 0° | 0km/h | 1789m | -0.1m/s | 12.5°C | 79.7% | 0hPa | 2.6V | 06:40:00 | 00:00:00 | 00:00:00 | |
| HASLITAL | 2026-09-05 02:46:40 | 46.77743 | 8.04837 | 0° | 0km/h | 1788m | 0.1m/s | 12.9°C | 75.1% | 0hPa | 2.6V | 06:40:00 | 00:00:00 | 00:00:00 | |
| HASLITAL | 2026-09-05 02:45:59 | 46.77744 | 8.04836 | 0° | 0km/h | 1786m | -0.2m/s | 13.1°C | 73.8% | 0hPa | 2.6V | 06:41:00 | 00:00:00 | 00:00:00 | |
| HASLITAL | 2026-09-05 02:45:38 | 46.77743 | 8.04837 | 0° | 0km/h | 1783m | -0.0m/s | 12.0°C | 81.4% | 0hPa | 2.6V | 06:41:00 | 00:00:00 | 00:00:00 | |
| HASLITAL | 2026-09-05 02:45:17 | 46.77745 | 8.04840 | 0° | 0km/h | 1781m | -0.1m/s | 11.8°C | 85.2% | 0hPa | 2.6V | 06:42:00 | 00:00:00 | 00:00:00 | |
| HASLITAL | 2026-09-05 02:44:57 | 46.77744 | 8.04840 | 0° | 0km/h | 1781m | 0.1m/s | 12.0°C | 83.7% | 0hPa | 2.6V | 06:42:00 | 00:00:00 | 00:00:00 | |
| HASLITAL | 2026-09-05 02:44:36 | 46.77745 | 8.04841 | 0° | 0km/h | 1777m | -0.1m/s | 13.4°C | 72.5% | 0hPa | 2.6V | 06:43:00 | 00:00:00 | 00:00:00 | |
| HASLITAL | 2026-09-05 02:44:16 | 46.77745 | 8.04839 | 0° | 0km/h | 1780m | 0.2m/s | 13.4°C | 71.9% | 0hPa | 2.6V | 06:43:00 | 00:00:00 | 00:00:00 | |
| HASLITAL | 2026-09-05 02:43:56 | 46.77744 | 8.04839 | 0° | 0km/h | 1783m | 0.0m/s | 12.9°C | 74.9% | 0hPa | 2.6V | 06:43:00 | 00:00:00 | 00:00:00 | |
| HASLITAL | 2026-09-05 02:43:35 | 46.77743 | 8.04837 | 0° | 0km/h | 1788m | -0.0m/s | 12.9°C | 73.8% | 0hPa | 2.6V | 06:44:00 | 00:00:00 | 00:00:00 | |
| HASLITAL | 2026-09-05 02:43:14 | 46.77743 | 8.04836 | 0° | 0km/h | 1788m | 0.0m/s | 11.5°C | 86.3% | 0hPa | 2.6V | 06:44:00 | 00:00:00 | 00:00:00 | |
| HASLITAL | 2026-09-05 02:42:54 | 46.77744 | 8.04835 | 0° | 0km/h | 1786m | 0.1m/s | 11.9°C | 80.8% | 0hPa | 2.6V | 06:44:00 | 00:00:00 | 00:00:00 | |
| HASLITAL | 2026-09-05 02:42:33 | 46.77745 | 8.04837 | 0° | 0km/h | 1781m | 0.0m/s | 13.1°C | 74.7% | 0hPa | 2.6V | 06:44:00 | 00:00:00 | 00:00:00 | |
| HASLITAL | 2026-09-05 02:42:12 | 46.77743 | 8.04838 | 0° | 0km/h | 1783m | -0.0m/s | 12.9°C | 74.6% | 0hPa | 2.6V | 06:44:00 | 00:00:00 | 00:00:00 | |
| HASLITAL | 2026-09-05 02:41:51 | 46.77744 | 8.04838 | 0° | 0km/h | 1782m | -0.0m/s | 12.7°C | 76.5% | 0hPa | 2.6V | 06:45:00 | 00:00:00 | 00:00:00 | |
| HASLITAL | 2026-09-05 02:41:30 | 46.77745 | 8.04838 | 0° | 0km/h | 1780m | 0.0m/s | 12.4°C | 78.3% | 0hPa | 2.6V | 06:45:00 | 00:00:00 | 00:00:00 | |
| HASLITAL | 2026-09-05 02:41:10 | 46.77744 | 8.04837 | 0° | 0km/h | 1781m | -0.0m/s | 11.6°C | 85.3% | 0hPa | 2.6V | 06:46:00 | 00:00:00 | 00:00:00 | |
| HASLITAL | 2026-09-05 02:40:50 | 46.77745 | 8.04838 | 0° | 0km/h | 1778m | -0.0m/s | 11.9°C | 82.4% | 0hPa | 2.6V | 06:46:00 | 00:00:00 | 00:00:00 | |
| HASLITAL | 2026-09-05 02:40:29 | 46.77745 | 8.04839 | 0° | 0km/h | 1777m | -0.1m/s | 11.6°C | 85.6% | 0hPa | 2.6V | 06:46:00 | 00:00:00 | 00:00:00 | |
| HASLITAL | 2026-09-05 02:40:08 | 46.77744 | 8.04838 | 0° | 0km/h | 1779m | -0.0m/s | 11.9°C | 82.3% | 0hPa | 2.6V | 06:47:00 | 00:00:00 | 00:00:00 | |
| HASLITAL | 2026-09-05 02:39:48 | 46.77745 | 8.04837 | 0° | 0km/h | 1781m | -0.1m/s | 12.8°C | 75.7% | 0hPa | 2.6V | 06:47:00 | 00:00:00 | 00:00:00 | |
| HASLITAL | 2026-09-05 02:39:27 | 46.77744 | 8.04836 | 0° | 0km/h | 1786m | 0.0m/s | 13.1°C | 73.9% | 0hPa | 2.6V | 06:48:00 | 00:00:00 | 00:00:00 | |
| HASLITAL | 2026-09-05 02:39:07 | 46.77744 | 8.04836 | 0° | 0km/h | 1786m | -0.0m/s | 12.2°C | 80.2% | 0hPa | 2.6V | 06:48:00 | 00:00:00 | 00:00:00 | |
| HASLITAL | 2026-09-05 02:38:46 | 46.77744 | 8.04836 | 0° | 0km/h | 1788m | 0.1m/s | 12.7°C | 77.2% | 0hPa | 2.6V | 06:48:00 | 00:00:00 | 00:00:00 | |
| HASLITAL | 2026-09-05 02:38:26 | 46.77745 | 8.04837 | 0° | 0km/h | 1785m | 0.2m/s | 12.2°C | 80.6% | 0hPa | 2.6V | 06:49:00 | 00:00:00 | 00:00:00 | |
| HASLITAL | 2026-09-05 02:38:05 | 46.77744 | 8.04836 | 0° | 0km/h | 1787m | -0.1m/s | 12.7°C | 77.2% | 0hPa | 2.6V | 06:49:00 | 00:00:00 | 00:00:00 | |
| HASLITAL | 2026-09-05 02:37:44 | 46.77744 | 8.04834 | 0° | 0km/h | 1792m | 0.0m/s | 12.1°C | 80.6% | 0hPa | 2.6V | 06:50:00 | 00:00:00 | 00:00:00 | |
| HASLITAL | 2026-09-05 02:37:24 | 46.77744 | 8.04835 | 0° | 0km/h | 1791m | -0.0m/s | 11.7°C | 83.9% | 0hPa | 2.6V | 06:50:00 | 00:00:00 | 00:00:00 | |
| HASLITAL | 2026-09-05 02:37:03 | 46.77744 | 8.04836 | 0° | 0km/h | 1791m | 0.1m/s | 11.9°C | 82.2% | 0hPa | 2.6V | 06:50:00 | 00:00:00 | 00:00:00 | |
| HASLITAL | 2026-09-05 02:36:43 | 46.77743 | 8.04836 | 0° | 0km/h | 1789m | 0.2m/s | 12.0°C | 82.2% | 0hPa | 2.6V | 06:50:00 | 00:00:00 | 00:00:00 | |
| HASLITAL | 2026-09-05 02:36:22 | 46.77743 | 8.04835 | 0° | 0km/h | 1791m | 0.0m/s | 11.9°C | 83.2% | 0hPa | 2.6V | 06:50:00 | 00:00:00 | 00:00:00 | |
| HASLITAL | 2026-09-05 02:36:01 | 46.77743 | 8.04835 | 0° | 0km/h | 1789m | -0.2m/s | 11.9°C | 83.1% | 0hPa | 2.6V | 06:51:00 | 00:00:00 | 00:00:00 | |
| HASLITAL | 2026-09-05 02:35:41 | 46.77743 | 8.04836 | 0° | 0km/h | 1786m | 0.2m/s | 12.2°C | 80.4% | 0hPa | 2.6V | 06:51:00 | 00:00:00 | 00:00:00 | |
| HASLITAL | 2026-09-05 02:35:20 | 46.77743 | 8.04837 | 0° | 0km/h | 1782m | -0.1m/s | 12.3°C | 78.9% | 0hPa | 2.6V | 06:51:00 | 00:00:00 | 00:00:00 | |
| HASLITAL | 2026-09-05 02:34:59 | 46.77744 | 8.04838 | 0° | 0km/h | 1782m | -0.0m/s | 11.7°C | 83.4% | 0hPa | 2.6V | 06:52:00 | 00:00:00 | 00:00:00 | |
| HASLITAL | 2026-09-05 02:34:38 | 46.77743 | 8.04836 | 0° | 0km/h | 1786m | -0.1m/s | 11.8°C | 84.9% | 0hPa | 2.6V | 06:52:00 | 00:00:00 | 00:00:00 | |
| HASLITAL | 2026-09-05 02:34:17 | 46.77743 | 8.04835 | 0° | 0km/h | 1786m | -0.1m/s | 12.3°C | 80.0% | 0hPa | 2.6V | 06:53:00 | 00:00:00 | 00:00:00 | |
| HASLITAL | 2026-09-05 02:33:56 | 46.77743 | 8.04835 | 0° | 0km/h | 1786m | 0.1m/s | 12.4°C | 78.8% | 0hPa | 2.6V | 06:53:00 | 00:00:00 | 00:00:00 | |
| HASLITAL | 2026-09-05 02:33:35 | 46.77744 | 8.04836 | 0° | 0km/h | 1784m | -0.0m/s | 12.6°C | 76.7% | 0hPa | 2.6V | 06:53:00 | 00:00:00 | 00:00:00 | |
| HASLITAL | 2026-09-05 02:33:14 | 46.77744 | 8.04835 | 0° | 0km/h | 1783m | -0.0m/s | 12.2°C | 79.5% | 0hPa | 2.6V | 06:54:00 | 00:00:00 | 00:00:00 | |
| HASLITAL | 2026-09-05 02:32:53 | 46.77744 | 8.04835 | 0° | 0km/h | 1782m | -0.1m/s | 11.8°C | 83.6% | 0hPa | 2.6V | 06:54:00 | 00:00:00 | 00:00:00 | |
| HASLITAL | 2026-09-05 02:32:32 | 46.77744 | 8.04835 | 0° | 0km/h | 1784m | 0.0m/s | 12.1°C | 80.8% | 0hPa | 2.6V | 06:55:00 | 00:00:00 | 00:00:00 | |
| HASLITAL | 2026-09-05 02:32:12 | 46.77745 | 8.04836 | 0° | 0km/h | 1782m | -0.0m/s | 13.0°C | 75.5% | 0hPa | 2.6V | 06:55:00 | 00:00:00 | 00:00:00 | |
| HASLITAL | 2026-09-05 02:31:51 | 46.77744 | 8.04835 | 0° | 0km/h | 1782m | 0.1m/s | 12.4°C | 78.5% | 0hPa | 2.6V | 06:55:00 | 00:00:00 | 00:00:00 | |
| HASLITAL | 2026-09-05 02:31:31 | 46.77744 | 8.04835 | 0° | 0km/h | 1782m | 0.1m/s | 12.1°C | 81.4% | 0hPa | 2.6V | 06:55:00 | 00:00:00 | 00:00:00 | |
| HASLITAL | 2026-09-05 02:31:10 | 46.77744 | 8.04835 | 0° | 0km/h | 1782m | 0.0m/s | 12.2°C | 80.3% | 0hPa | 2.6V | 06:55:00 | 00:00:00 | 00:00:00 | |
| HASLITAL | 2026-09-05 02:30:50 | 46.77744 | 8.04836 | 0° | 0km/h | 1782m | 0.0m/s | 11.8°C | 83.6% | 0hPa | 2.6V | 06:56:00 | 00:00:00 | 00:00:00 | |
| HASLITAL | 2026-09-05 02:30:29 | 46.77744 | 8.04836 | 0° | 0km/h | 1782m | -0.0m/s | 12.1°C | 80.2% | 0hPa | 2.6V | 06:56:00 | 00:00:00 | 00:00:00 | |
| HASLITAL | 2026-09-05 02:30:09 | 46.77745 | 8.04835 | 0° | 0km/h | 1782m | -0.2m/s | 12.3°C | 80.0% | 0hPa | 2.6V | 06:57:00 | 00:00:00 | 00:00:00 | |
| HASLITAL | 2026-09-05 02:29:48 | 46.77745 | 8.04836 | 0° | 0km/h | 1782m | 0.0m/s | 13.3°C | 72.0% | 0hPa | 2.6V | 06:57:00 | 00:00:00 | 00:00:00 | |
| HASLITAL | 2026-09-05 02:29:28 | 46.77745 | 8.04836 | 0° | 0km/h | 1782m | -0.1m/s | 12.3°C | 79.7% | 0hPa | 2.6V | 06:57:00 | 00:00:00 | 00:00:00 | |
| HASLITAL | 2026-09-05 02:29:07 | 46.77745 | 8.04836 | 0° | 0km/h | 1781m | -0.0m/s | 11.9°C | 82.2% | 0hPa | 2.6V | 06:58:00 | 00:00:00 | 00:00:00 | |
| HASLITAL | 2026-09-05 02:28:46 | 46.77745 | 8.04836 | 0° | 0km/h | 1781m | 0.1m/s | 11.9°C | 82.0% | 0hPa | 2.6V | 06:58:00 | 00:00:00 | 00:00:00 | |
| HASLITAL | 2026-09-05 02:28:26 | 46.77745 | 8.04836 | 0° | 0km/h | 1780m | -0.1m/s | 11.5°C | 86.1% | 0hPa | 2.6V | 06:59:00 | 00:00:00 | 00:00:00 | |
| HASLITAL | 2026-09-05 02:28:06 | 46.77745 | 8.04836 | 0° | 0km/h | 1780m | 0.1m/s | 11.6°C | 85.9% | 0hPa | 2.6V | 06:59:00 | 00:00:00 | 00:00:00 | |
| HASLITAL | 2026-09-05 02:27:45 | 46.77745 | 8.04836 | 0° | 0km/h | 1780m | 0.0m/s | 11.9°C | 83.2% | 0hPa | 2.6V | 06:59:00 | 00:00:00 | 00:00:00 | |
| HASLITAL | 2026-09-05 02:27:24 | 46.77745 | 8.04836 | 0° | 0km/h | 1779m | -0.0m/s | 12.9°C | 74.7% | 0hPa | 2.6V | 07:00:00 | 00:00:00 | 00:00:00 | |
| HASLITAL | 2026-09-05 02:27:03 | 46.77745 | 8.04836 | 0° | 0km/h | 1779m | 0.0m/s | 11.8°C | 84.8% | 0hPa | 2.6V | 07:00:00 | 00:00:00 | 00:00:00 | |
| HASLITAL | 2026-09-05 02:26:43 | 46.77744 | 8.04836 | 0° | 0km/h | 1779m | 0.0m/s | 12.2°C | 80.3% | 0hPa | 2.6V | 07:01:00 | 00:00:00 | 00:00:00 | |
| HASLITAL | 2026-09-05 02:26:22 | 46.77743 | 8.04836 | 0° | 0km/h | 1779m | 0.1m/s | 12.3°C | 80.8% | 0hPa | 2.6V | 07:01:00 | 00:00:00 | 00:00:00 | |
| HASLITAL | 2026-09-05 02:26:01 | 46.77743 | 8.04836 | 0° | 0km/h | 1778m | -0.1m/s | 12.2°C | 80.1% | 0hPa | 2.6V | 07:01:00 | 00:00:00 | 00:00:00 | |
| HASLITAL | 2026-09-05 02:25:40 | 46.77744 | 8.04837 | 0° | 0km/h | 1779m | -0.0m/s | 12.1°C | 83.0% | 0hPa | 2.6V | 07:01:00 | 00:00:00 | 00:00:00 | |
| HASLITAL | 2026-09-05 02:25:20 | 46.77744 | 8.04837 | 0° | 0km/h | 1781m | -0.0m/s | 12.6°C | 79.7% | 0hPa | 2.6V | 07:01:00 | 00:00:00 | 00:00:00 | |
| HASLITAL | 2026-09-05 02:24:59 | 46.77745 | 8.04838 | 0° | 0km/h | 1782m | 0.0m/s | 12.6°C | 80.1% | 0hPa | 2.6V | 07:02:00 | 00:00:00 | 00:00:00 | |
| HASLITAL | 2026-09-05 02:24:38 | 46.77744 | 8.04838 | 0° | 0km/h | 1782m | -0.1m/s | 13.6°C | 72.3% | 0hPa | 2.6V | 07:02:00 | 00:00:00 | 00:00:00 | |
| HASLITAL | 2026-09-05 02:24:17 | 46.77745 | 8.04838 | 0° | 0km/h | 1785m | -0.0m/s | 12.8°C | 77.6% | 0hPa | 2.6V | 07:02:00 | 00:00:00 | 00:00:00 | |
| HASLITAL | 2026-09-05 02:23:57 | 46.77745 | 8.04837 | 0° | 0km/h | 1786m | 0.0m/s | 13.1°C | 74.7% | 0hPa | 2.6V | 07:03:00 | 00:00:00 | 00:00:00 | |
| HASLITAL | 2026-09-05 02:23:37 | 46.77746 | 8.04836 | 0° | 0km/h | 1786m | 0.1m/s | 12.4°C | 80.1% | 0hPa | 2.6V | 07:03:00 | 00:00:00 | 00:00:00 | |
| HASLITAL | 2026-09-05 02:23:16 | 46.77745 | 8.04837 | 0° | 0km/h | 1782m | -0.0m/s | 13.1°C | 75.6% | 0hPa | 2.6V | 07:04:00 | 00:00:00 | 00:00:00 | |
| HASLITAL | 2026-09-05 02:22:56 | 46.77745 | 8.04837 | 0° | 0km/h | 1782m | 0.0m/s | 13.3°C | 73.6% | 0hPa | 2.6V | 07:04:00 | 00:00:00 | 00:00:00 | |
| HASLITAL | 2026-09-05 02:22:35 | 46.77745 | 8.04838 | 0° | 0km/h | 1783m | 0.0m/s | 13.4°C | 73.7% | 0hPa | 2.6V | 07:04:00 | 00:00:00 | 00:00:00 | |
| HASLITAL | 2026-09-05 02:22:14 | 46.77745 | 8.04837 | 0° | 0km/h | 1784m | -0.1m/s | 12.9°C | 76.1% | 0hPa | 2.6V | 07:05:00 | 00:00:00 | 00:00:00 | |
| HASLITAL | 2026-09-05 02:21:53 | 46.77744 | 8.04836 | 0° | 0km/h | 1784m | -0.1m/s | 12.1°C | 81.8% | 0hPa | 2.6V | 07:05:00 | 00:00:00 | 00:00:00 | |
| HASLITAL | 2026-09-05 02:21:32 | 46.77743 | 8.04835 | 0° | 0km/h | 1784m | -0.1m/s | 11.9°C | 84.8% | 0hPa | 2.6V | 07:06:00 | 00:00:00 | 00:00:00 | |
| HASLITAL | 2026-09-05 02:21:11 | 46.77743 | 8.04835 | 0° | 0km/h | 1785m | 0.0m/s | 12.4°C | 80.5% | 0hPa | 2.6V | 07:06:00 | 00:00:00 | 00:00:00 | |
| HASLITAL | 2026-09-05 02:20:51 | 46.77743 | 8.04836 | 0° | 0km/h | 1783m | 0.1m/s | 12.5°C | 80.4% | 0hPa | 2.6V | 07:06:00 | 00:00:00 | 00:00:00 | |
| HASLITAL | 2026-09-05 02:20:30 | 46.77743 | 8.04837 | 0° | 0km/h | 1781m | -0.1m/s | 13.1°C | 75.9% | 0hPa | 2.6V | 07:07:00 | 00:00:00 | 00:00:00 | |
| HASLITAL | 2026-09-05 02:20:09 | 46.77743 | 8.04836 | 0° | 0km/h | 1783m | 0.0m/s | 13.1°C | 74.9% | 0hPa | 2.6V | 07:07:00 | 00:00:00 | 00:00:00 | |
| HASLITAL | 2026-09-05 02:19:49 | 46.77743 | 8.04835 | 0° | 0km/h | 1784m | -0.1m/s | 12.4°C | 80.0% | 0hPa | 2.6V | 07:07:00 | 00:00:00 | 00:00:00 | |
| HASLITAL | 2026-09-05 02:19:28 | 46.77744 | 8.04834 | 0° | 0km/h | 1786m | -0.1m/s | 12.5°C | 79.5% | 0hPa | 2.6V | 07:07:00 | 00:00:00 | 00:00:00 | |
| HASLITAL | 2026-09-05 02:19:07 | 46.77743 | 8.04832 | 0° | 0km/h | 1789m | -0.1m/s | 12.3°C | 81.0% | 0hPa | 2.6V | 07:08:00 | 00:00:00 | 00:00:00 | |
| HASLITAL | 2026-09-05 02:18:47 | 46.77743 | 8.04832 | 0° | 0km/h | 1791m | -0.0m/s | 12.7°C | 78.0% | 0hPa | 2.6V | 07:08:00 | 00:00:00 | 00:00:00 | |
| HASLITAL | 2026-09-05 02:18:26 | 46.77743 | 8.04832 | 0° | 0km/h | 1788m | -0.0m/s | 13.0°C | 75.5% | 0hPa | 2.6V | 07:08:00 | 00:00:00 | 00:00:00 | |
| HASLITAL | 2026-09-05 02:18:06 | 46.77743 | 8.04834 | 0° | 0km/h | 1787m | -0.0m/s | 13.8°C | 70.9% | 0hPa | 2.6V | 07:09:00 | 00:00:00 | 00:00:00 | |
| HASLITAL | 2026-09-05 02:17:46 | 46.77743 | 8.04835 | 0° | 0km/h | 1787m | -0.0m/s | 13.2°C | 74.1% | 0hPa | 2.6V | 07:09:00 | 00:00:00 | 00:00:00 | |
| HASLITAL | 2026-09-05 02:17:25 | 46.77743 | 8.04835 | 0° | 0km/h | 1784m | -0.1m/s | 13.2°C | 74.3% | 0hPa | 2.6V | 07:10:00 | 00:00:00 | 00:00:00 | |
| HASLITAL | 2026-09-05 02:17:04 | 46.77744 | 8.04836 | 0° | 0km/h | 1782m | 0.0m/s | 12.3°C | 79.8% | 0hPa | 2.6V | 07:10:00 | 00:00:00 | 00:00:00 | |
| HASLITAL | 2026-09-05 02:16:43 | 46.77745 | 8.04840 | 0° | 0km/h | 1783m | 0.1m/s | 11.9°C | 86.0% | 0hPa | 2.6V | 07:10:00 | 00:00:00 | 00:00:00 | |
| HASLITAL | 2026-09-05 02:16:22 | 46.77746 | 8.04841 | 0° | 0km/h | 1782m | -0.1m/s | 12.1°C | 82.2% | 0hPa | 2.6V | 07:11:00 | 00:00:00 | 00:00:00 | |
| HASLITAL | 2026-09-05 02:16:01 | 46.77746 | 8.04841 | 0° | 0km/h | 1783m | -0.1m/s | 12.2°C | 81.3% | 0hPa | 2.6V | 07:11:00 | 00:00:00 | 00:00:00 | |
| HASLITAL | 2026-09-05 02:15:40 | 46.77745 | 8.04842 | 0° | 0km/h | 1783m | 0.1m/s | 13.3°C | 73.3% | 0hPa | 2.6V | 07:12:00 | 00:00:00 | 00:00:00 | |
| HASLITAL | 2026-09-05 02:15:19 | 46.77745 | 8.04840 | 0° | 0km/h | 1784m | -0.0m/s | 12.2°C | 82.7% | 0hPa | 2.6V | 07:12:00 | 00:00:00 | 00:00:00 | |
| HASLITAL | 2026-09-05 02:14:59 | 46.77745 | 8.04839 | 0° | 0km/h | 1784m | 0.0m/s | 11.9°C | 84.1% | 0hPa | 2.6V | 07:12:00 | 00:00:00 | 00:00:00 | |
| HASLITAL | 2026-09-05 02:14:39 | 46.77744 | 8.04839 | 0° | 0km/h | 1783m | -0.0m/s | 12.2°C | 82.0% | 0hPa | 2.6V | 07:12:00 | 00:00:00 | 00:00:00 | |
| HASLITAL | 2026-09-05 02:14:18 | 46.77743 | 8.04840 | 0° | 0km/h | 1785m | -0.0m/s | 12.4°C | 79.0% | 0hPa | 2.6V | 07:12:00 | 00:00:00 | 00:00:00 | |
| HASLITAL | 2026-09-05 02:13:57 | 46.77743 | 8.04841 | 0° | 0km/h | 1786m | -0.0m/s | 12.0°C | 83.9% | 0hPa | 2.6V | 07:13:00 | 00:00:00 | 00:00:00 | |
| HASLITAL | 2026-09-05 02:13:37 | 46.77743 | 8.04841 | 0° | 0km/h | 1786m | -0.0m/s | 12.4°C | 81.0% | 0hPa | 2.6V | 07:13:00 | 00:00:00 | 00:00:00 | |
| HASLITAL | 2026-09-05 02:13:16 | 46.77743 | 8.04842 | 0° | 0km/h | 1786m | -0.1m/s | 12.8°C | 77.2% | 0hPa | 2.6V | 07:13:00 | 00:00:00 | 00:00:00 | |
| HASLITAL | 2026-09-05 02:12:56 | 46.77743 | 8.04843 | 0° | 0km/h | 1786m | -0.1m/s | 13.0°C | 76.0% | 0hPa | 2.6V | 07:14:00 | 00:00:00 | 00:00:00 | |
| HASLITAL | 2026-09-05 02:12:35 | 46.77743 | 8.04843 | 0° | 0km/h | 1788m | -0.0m/s | 12.3°C | 81.4% | 0hPa | 2.6V | 07:14:00 | 00:00:00 | 00:00:00 | |
| HASLITAL | 2026-09-05 02:12:15 | 46.77743 | 8.04840 | 0° | 0km/h | 1788m | -0.2m/s | 13.2°C | 74.4% | 0hPa | 2.6V | 07:15:00 | 00:00:00 | 00:00:00 | |
| HASLITAL | 2026-09-05 02:11:55 | 46.77743 | 8.04839 | 0° | 0km/h | 1789m | 0.1m/s | 12.5°C | 79.2% | 0hPa | 2.6V | 07:15:00 | 00:00:00 | 00:00:00 | |
| HASLITAL | 2026-09-05 02:11:34 | 46.77743 | 8.04839 | 0° | 0km/h | 1789m | -0.0m/s | 11.8°C | 85.4% | 0hPa | 2.6V | 07:15:00 | 00:00:00 | 00:00:00 | |
| HASLITAL | 2026-09-05 02:11:14 | 46.77744 | 8.04838 | 0° | 0km/h | 1788m | 0.1m/s | 11.6°C | 85.6% | 0hPa | 2.6V | 07:16:00 | 00:00:00 | 00:00:00 | |
| HASLITAL | 2026-09-05 02:10:53 | 46.77745 | 8.04837 | 0° | 0km/h | 1785m | 0.1m/s | 11.5°C | 87.7% | 0hPa | 2.6V | 07:16:00 | 00:00:00 | 00:00:00 | |
| HASLITAL | 2026-09-05 02:10:32 | 46.77745 | 8.04835 | 0° | 0km/h | 1783m | 0.1m/s | 11.6°C | 85.8% | 0hPa | 2.6V | 07:17:00 | 00:00:00 | 00:00:00 | |
| HASLITAL | 2026-09-05 02:10:12 | 46.77745 | 8.04836 | 0° | 0km/h | 1783m | -0.0m/s | 11.8°C | 85.1% | 0hPa | 2.6V | 07:17:00 | 00:00:00 | 00:00:00 | |
| HASLITAL | 2026-09-05 02:09:51 | 46.77745 | 8.04837 | 0° | 0km/h | 1784m | 0.0m/s | 11.9°C | 84.0% | 0hPa | 2.6V | 07:17:00 | 00:00:00 | 00:00:00 | |
| HASLITAL | 2026-09-05 02:09:30 | 46.77745 | 8.04837 | 0° | 0km/h | 1783m | -0.0m/s | 11.9°C | 84.6% | 0hPa | 2.6V | 07:18:00 | 00:00:00 | 00:00:00 | |
| HASLITAL | 2026-09-05 02:08:50 | 46.77744 | 8.04839 | 0° | 0km/h | 1785m | -0.1m/s | 12.0°C | 82.6% | 0hPa | 2.6V | 07:18:00 | 00:00:00 | 00:00:00 | |
| HASLITAL | 2026-09-05 02:08:29 | 46.77744 | 8.04839 | 0° | 0km/h | 1785m | -0.0m/s | 12.1°C | 82.5% | 0hPa | 2.6V | 07:18:00 | 00:00:00 | 00:00:00 | |
| HASLITAL | 2026-09-05 02:08:09 | 46.77745 | 8.04839 | 0° | 0km/h | 1784m | 0.1m/s | 12.2°C | 82.1% | 0hPa | 2.6V | 07:18:00 | 00:00:00 | 00:00:00 | |
| HASLITAL | 2026-09-05 02:07:49 | 46.77745 | 8.04840 | 0° | 0km/h | 1784m | -0.1m/s | 12.5°C | 79.6% | 0hPa | 2.6V | 07:19:00 | 00:00:00 | 00:00:00 | |
| HASLITAL | 2026-09-05 02:07:28 | 46.77745 | 8.04840 | 0° | 0km/h | 1785m | -0.0m/s | 12.0°C | 83.8% | 0hPa | 2.6V | 07:19:00 | 00:00:00 | 00:00:00 | |
| HASLITAL | 2026-09-05 02:07:08 | 46.77744 | 8.04840 | 0° | 0km/h | 1785m | 0.1m/s | 12.5°C | 80.4% | 0hPa | 2.6V | 07:20:00 | 00:00:00 | 00:00:00 | |
| HASLITAL | 2026-09-05 02:06:47 | 46.77744 | 8.04838 | 0° | 0km/h | 1784m | 0.0m/s | 12.5°C | 79.3% | 0hPa | 2.6V | 07:20:00 | 00:00:00 | 00:00:00 | |
| HASLITAL | 2026-09-05 02:06:26 | 46.77745 | 8.04836 | 0° | 0km/h | 1783m | -0.0m/s | 11.7°C | 87.0% | 0hPa | 2.6V | 07:20:00 | 00:00:00 | 00:00:00 | |
| HASLITAL | 2026-09-05 02:06:05 | 46.77745 | 8.04836 | 0° | 0km/h | 1782m | 0.0m/s | 12.0°C | 83.9% | 0hPa | 2.6V | 07:21:00 | 00:00:00 | 00:00:00 | |
| HASLITAL | 2026-09-05 02:05:44 | 46.77744 | 8.04837 | 0° | 0km/h | 1784m | 0.0m/s | 12.3°C | 81.2% | 0hPa | 2.6V | 07:21:00 | 00:00:00 | 00:00:00 | |
| HASLITAL | 2026-09-05 02:05:24 | 46.77744 | 8.04837 | 0° | 0km/h | 1785m | -0.0m/s | 12.3°C | 81.6% | 0hPa | 2.6V | 07:22:00 | 00:00:00 | 00:00:00 | |
| HASLITAL | 2026-09-05 02:05:03 | 46.77745 | 8.04836 | 0° | 0km/h | 1784m | -0.0m/s | 12.7°C | 77.9% | 0hPa | 2.6V | 07:22:00 | 00:00:00 | 00:00:00 | |
| HASLITAL | 2026-09-05 02:04:42 | 46.77745 | 8.04835 | 0° | 0km/h | 1783m | 0.0m/s | 12.6°C | 78.5% | 0hPa | 2.6V | 07:22:00 | 00:00:00 | 00:00:00 | |
| HASLITAL | 2026-09-05 02:04:21 | 46.77745 | 8.04834 | 0° | 0km/h | 1782m | -0.1m/s | 12.0°C | 82.6% | 0hPa | 2.6V | 07:23:00 | 00:00:00 | 00:00:00 | |
| HASLITAL | 2026-09-05 02:04:01 | 46.77745 | 8.04835 | 0° | 0km/h | 1783m | -0.0m/s | 12.5°C | 79.4% | 0hPa | 2.6V | 07:23:00 | 00:00:00 | 00:00:00 | |
| HASLITAL | 2026-09-05 02:03:41 | 46.77745 | 8.04835 | 0° | 0km/h | 1783m | 0.0m/s | 13.7°C | 71.7% | 0hPa | 2.6V | 07:24:00 | 00:00:00 | 00:00:00 | |
| HASLITAL | 2026-09-05 02:03:20 | 46.77745 | 8.04834 | 0° | 0km/h | 1782m | 0.0m/s | 12.7°C | 78.2% | 0hPa | 2.6V | 07:24:00 | 00:00:00 | 00:00:00 | |
| HASLITAL | 2026-09-05 02:03:00 | 46.77746 | 8.04834 | 0° | 0km/h | 1783m | -0.1m/s | 12.5°C | 80.3% | 0hPa | 2.6V | 07:24:00 | 00:00:00 | 00:00:00 | |
| HASLITAL | 2026-09-05 02:02:39 | 46.77746 | 8.04834 | 0° | 0km/h | 1783m | -0.2m/s | 12.3°C | 81.5% | 0hPa | 2.6V | 07:24:00 | 00:00:00 | 00:00:00 | |
| HASLITAL | 2026-09-05 02:02:18 | 46.77746 | 8.04835 | 0° | 0km/h | 1782m | 0.0m/s | 12.8°C | 77.6% | 0hPa | 2.6V | 07:24:00 | 00:00:00 | 00:00:00 | |
| HASLITAL | 2026-09-05 02:01:58 | 46.77745 | 8.04836 | 0° | 0km/h | 1783m | -0.1m/s | 13.0°C | 76.1% | 0hPa | 2.6V | 07:25:00 | 00:00:00 | 00:00:00 | |
| HASLITAL | 2026-09-05 02:01:37 | 46.77745 | 8.04837 | 0° | 0km/h | 1784m | -0.0m/s | 12.6°C | 79.3% | 0hPa | 2.6V | 07:25:00 | 00:00:00 | 00:00:00 | |
| HASLITAL | 2026-09-05 02:01:17 | 46.77745 | 8.04836 | 0° | 0km/h | 1782m | -0.0m/s | 13.3°C | 74.6% | 0hPa | 2.6V | 07:25:00 | 00:00:00 | 00:00:00 | |
| HASLITAL | 2026-09-05 02:00:56 | 46.77744 | 8.04837 | 0° | 0km/h | 1783m | -0.1m/s | 14.0°C | 69.9% | 0hPa | 2.6V | 07:26:00 | 00:00:00 | 00:00:00 | |
| HASLITAL | 2026-09-05 02:00:36 | 46.77744 | 8.04837 | 0° | 0km/h | 1782m | 0.0m/s | 12.5°C | 78.5% | 0hPa | 2.6V | 07:26:00 | 00:00:00 | 00:00:00 | |
| HASLITAL | 2026-09-05 02:00:15 | 46.77745 | 8.04836 | 0° | 0km/h | 1782m | 0.0m/s | 12.5°C | 79.7% | 0hPa | 2.6V | 07:27:00 | 00:00:00 | 00:00:00 | |
| HASLITAL | 2026-09-05 01:59:54 | 46.77745 | 8.04836 | 0° | 0km/h | 1782m | 0.1m/s | 12.2°C | 81.8% | 0hPa | 2.6V | 07:27:00 | 00:00:00 | 00:00:00 | |
| HASLITAL | 2026-09-05 01:59:34 | 46.77745 | 8.04837 | 0° | 0km/h | 1783m | 0.1m/s | 12.4°C | 82.0% | 0hPa | 2.6V | 07:28:00 | 00:00:00 | 00:00:00 | |
| HASLITAL | 2026-09-05 01:58:53 | 46.77744 | 8.04839 | 0° | 0km/h | 1784m | -0.1m/s | 12.3°C | 81.3% | 0hPa | 2.6V | 07:28:00 | 00:00:00 | 00:00:00 | |
| HASLITAL | 2026-09-05 01:58:32 | 46.77744 | 8.04837 | 0° | 0km/h | 1781m | 0.1m/s | 14.2°C | 69.8% | 0hPa | 2.6V | 07:29:00 | 00:00:00 | 00:00:00 | |
| HASLITAL | 2026-09-05 01:58:11 | 46.77745 | 8.04836 | 0° | 0km/h | 1779m | -0.1m/s | 13.1°C | 75.5% | 0hPa | 2.6V | 07:29:00 | 00:00:00 | 00:00:00 | |
| HASLITAL | 2026-09-05 01:57:50 | 46.77745 | 8.04836 | 0° | 0km/h | 1780m | -0.0m/s | 12.5°C | 79.4% | 0hPa | 2.6V | 07:29:00 | 00:00:00 | 00:00:00 | |
| HASLITAL | 2026-09-05 01:57:29 | 46.77745 | 8.04836 | 0° | 0km/h | 1779m | 0.1m/s | 12.7°C | 78.5% | 0hPa | 2.6V | 07:29:00 | 00:00:00 | 00:00:00 | |
| HASLITAL | 2026-09-05 01:57:09 | 46.77745 | 8.04836 | 0° | 0km/h | 1779m | -0.0m/s | 12.1°C | 82.3% | 0hPa | 2.6V | 07:29:00 | 00:00:00 | 00:00:00 | |
| HASLITAL | 2026-09-05 01:56:48 | 46.77745 | 8.04835 | 0° | 0km/h | 1779m | 0.0m/s | 12.2°C | 82.9% | 0hPa | 2.6V | 07:30:00 | 00:00:00 | 00:00:00 | |
| HASLITAL | 2026-09-05 01:56:28 | 46.77744 | 8.04836 | 0° | 0km/h | 1780m | 0.0m/s | 13.6°C | 72.4% | 0hPa | 2.6V | 07:30:00 | 00:00:00 | 00:00:00 | |
| HASLITAL | 2026-09-05 01:56:07 | 46.77744 | 8.04837 | 0° | 0km/h | 1782m | -0.1m/s | 13.1°C | 75.0% | 0hPa | 2.6V | 07:31:00 | 00:00:00 | 00:00:00 | |
| HASLITAL | 2026-09-05 01:55:46 | 46.77745 | 8.04837 | 0° | 0km/h | 1783m | -0.1m/s | 12.1°C | 84.3% | 0hPa | 2.6V | 07:31:00 | 00:00:00 | 00:00:00 | |
| HASLITAL | 2026-09-05 01:55:26 | 46.77745 | 8.04836 | 0° | 0km/h | 1782m | 0.1m/s | 12.7°C | 78.7% | 0hPa | 2.6V | 07:31:00 | 00:00:00 | 00:00:00 | |
| HASLITAL | 2026-09-05 01:55:05 | 46.77744 | 8.04836 | 0° | 0km/h | 1784m | -0.1m/s | 12.4°C | 80.3% | 0hPa | 2.6V | 07:32:00 | 00:00:00 | 00:00:00 | |
| HASLITAL | 2026-09-05 01:54:44 | 46.77744 | 8.04837 | 0° | 0km/h | 1784m | -0.0m/s | 12.2°C | 82.3% | 0hPa | 2.6V | 07:32:00 | 00:00:00 | 00:00:00 | |
| HASLITAL | 2026-09-05 01:54:23 | 46.77744 | 8.04837 | 0° | 0km/h | 1781m | 0.1m/s | 12.4°C | 81.1% | 0hPa | 2.6V | 07:33:00 | 00:00:00 | 00:00:00 | |
| HASLITAL | 2026-09-05 01:54:03 | 46.77744 | 8.04838 | 0° | 0km/h | 1779m | -0.0m/s | 12.5°C | 81.1% | 0hPa | 2.6V | 07:33:00 | 00:00:00 | 00:00:00 | |
| HASLITAL | 2026-09-05 01:53:21 | 46.77745 | 8.04838 | 0° | 0km/h | 1779m | 0.2m/s | 13.1°C | 76.8% | 0hPa | 2.6V | 07:34:00 | 00:00:00 | 00:00:00 | |
| HASLITAL | 2026-09-05 01:53:00 | 46.77745 | 8.04838 | 0° | 0km/h | 1780m | 0.1m/s | 12.8°C | 79.8% | 0hPa | 2.6V | 07:34:00 | 00:00:00 | 00:00:00 | |
| HASLITAL | 2026-09-05 01:52:40 | 46.77745 | 8.04837 | 0° | 0km/h | 1780m | -0.1m/s | 12.9°C | 76.9% | 0hPa | 2.6V | 07:35:00 | 00:00:00 | 00:00:00 | |
| HASLITAL | 2026-09-05 01:52:20 | 46.77746 | 8.04835 | 0° | 0km/h | 1777m | -0.2m/s | 12.5°C | 80.4% | 0hPa | 2.6V | 07:35:00 | 00:00:00 | 00:00:00 | |
| HASLITAL | 2026-09-05 01:51:59 | 46.77746 | 8.04837 | 0° | 0km/h | 1780m | -0.2m/s | 12.3°C | 83.8% | 0hPa | 2.6V | 07:35:00 | 00:00:00 | 00:00:00 | |
| HASLITAL | 2026-09-05 01:51:39 | 46.77746 | 8.04838 | 0° | 0km/h | 1782m | 0.1m/s | 12.3°C | 84.3% | 0hPa | 2.6V | 07:35:00 | 00:00:00 | 00:00:00 | |
| HASLITAL | 2026-09-05 01:50:58 | 46.77747 | 8.04837 | 0° | 0km/h | 1782m | 0.1m/s | 12.7°C | 81.1% | 0hPa | 2.6V | 07:36:00 | 00:00:00 | 00:00:00 | |
| HASLITAL | 2026-09-05 01:50:37 | 46.77746 | 8.04835 | 0° | 0km/h | 1783m | -0.1m/s | 12.8°C | 78.2% | 0hPa | 2.6V | 07:36:00 | 00:00:00 | 00:00:00 | |
| HASLITAL | 2026-09-05 01:50:16 | 46.77747 | 8.04833 | 0° | 0km/h | 1784m | -0.0m/s | 12.5°C | 83.4% | 0hPa | 2.6V | 07:36:00 | 00:00:00 | 00:00:00 | |
| HASLITAL | 2026-09-05 01:49:55 | 46.77747 | 8.04832 | 0° | 0km/h | 1783m | -0.0m/s | 12.8°C | 79.0% | 0hPa | 2.6V | 07:37:00 | 00:00:00 | 00:00:00 | |
| HASLITAL | 2026-09-05 01:49:35 | 46.77749 | 8.04832 | 0° | 0km/h | 1780m | -0.0m/s | 12.8°C | 78.9% | 0hPa | 2.6V | 07:37:00 | 00:00:00 | 00:00:00 | |
| HASLITAL | 2026-09-05 01:49:15 | 46.77750 | 8.04832 | 0° | 0km/h | 1779m | -0.0m/s | 12.9°C | 78.0% | 0hPa | 2.6V | 07:38:00 | 00:00:00 | 00:00:00 | |
| HASLITAL | 2026-09-05 01:48:55 | 46.77750 | 8.04834 | 0° | 0km/h | 1780m | 0.0m/s | 12.8°C | 79.5% | 0hPa | 2.6V | 07:38:00 | 00:00:00 | 00:00:00 | |
| HASLITAL | 2026-09-05 01:48:34 | 46.77747 | 8.04834 | 0° | 0km/h | 1780m | -0.0m/s | 12.5°C | 81.2% | 0hPa | 2.6V | 07:38:00 | 00:00:00 | 00:00:00 | |
| HASLITAL | 2026-09-05 01:48:13 | 46.77746 | 8.04834 | 0° | 0km/h | 1779m | -0.1m/s | 12.9°C | 78.6% | 0hPa | 2.6V | 07:39:00 | 00:00:00 | 00:00:00 | |
| HASLITAL | 2026-09-05 01:47:52 | 46.77745 | 8.04835 | 0° | 0km/h | 1780m | 0.1m/s | 13.1°C | 75.6% | 0hPa | 2.6V | 07:39:00 | 00:00:00 | 00:00:00 | |
| HASLITAL | 2026-09-05 01:47:32 | 46.77746 | 8.04837 | 0° | 0km/h | 1783m | -0.0m/s | 12.7°C | 80.7% | 0hPa | 2.6V | 07:40:00 | 00:00:00 | 00:00:00 | |
| HASLITAL | 2026-09-05 01:47:11 | 46.77746 | 8.04838 | 0° | 0km/h | 1782m | 0.1m/s | 12.8°C | 80.1% | 0hPa | 2.6V | 07:40:00 | 00:00:00 | 00:00:00 | |
| HASLITAL | 2026-09-05 01:46:50 | 46.77745 | 8.04838 | 0° | 0km/h | 1781m | 0.1m/s | 13.1°C | 76.9% | 0hPa | 2.6V | 07:40:00 | 00:00:00 | 00:00:00 | |
| HASLITAL | 2026-09-05 01:46:30 | 46.77743 | 8.04841 | 0° | 0km/h | 1783m | 0.1m/s | 14.0°C | 69.9% | 0hPa | 2.6V | 07:41:00 | 00:00:00 | 00:00:00 | |
| HASLITAL | 2026-09-05 01:46:09 | 46.77742 | 8.04841 | 0° | 0km/h | 1782m | 0.1m/s | 12.8°C | 81.7% | 0hPa | 2.6V | 07:41:00 | 00:00:00 | 00:00:00 | |
| HASLITAL | 2026-09-05 01:45:48 | 46.77740 | 8.04840 | 0° | 0km/h | 1782m | 0.0m/s | 12.9°C | 81.4% | 0hPa | 2.6V | 07:41:00 | 00:00:00 | 00:00:00 | |
| HASLITAL | 2026-09-05 01:45:27 | 46.77740 | 8.04840 | 0° | 0km/h | 1785m | 0.1m/s | 13.0°C | 79.2% | 0hPa | 2.6V | 07:41:00 | 00:00:00 | 00:00:00 | |
| HASLITAL | 2026-09-05 01:45:06 | 46.77740 | 8.04841 | 0° | 0km/h | 1791m | 0.1m/s | 13.2°C | 78.4% | 0hPa | 2.6V | 07:42:00 | 00:00:00 | 00:00:00 | |
| HASLITAL | 2026-09-05 01:44:46 | 46.77740 | 8.04839 | 0° | 0km/h | 1791m | 0.1m/s | 13.3°C | 78.7% | 0hPa | 2.6V | 07:42:00 | 00:00:00 | 00:00:00 | |
| HASLITAL | 2026-09-05 01:44:25 | 46.77740 | 8.04840 | 0° | 0km/h | 1794m | -0.1m/s | 13.8°C | 73.2% | 0hPa | 2.6V | 07:42:00 | 00:00:00 | 00:00:00 | |
| HASLITAL | 2026-09-05 01:44:04 | 46.77740 | 8.04844 | 0° | 0km/h | 1799m | 0.1m/s | 14.4°C | 68.7% | 0hPa | 2.6V | 07:43:00 | 00:00:00 | 00:00:00 | |
| HASLITAL | 2026-09-05 01:43:44 | 46.77741 | 8.04846 | 0° | 0km/h | 1801m | 0.0m/s | 13.2°C | 77.4% | 0hPa | 2.6V | 07:43:00 | 00:00:00 | 00:00:00 | |
| HASLITAL | 2026-09-05 01:43:23 | 46.77741 | 8.04845 | 0° | 0km/h | 1799m | -0.1m/s | 13.2°C | 80.1% | 0hPa | 2.6V | 07:44:00 | 00:00:00 | 00:00:00 | |
| HASLITAL | 2026-09-05 01:43:03 | 46.77741 | 8.04845 | 0° | 0km/h | 1800m | -0.2m/s | 13.8°C | 72.2% | 0hPa | 2.6V | 07:44:00 | 00:00:00 | 00:00:00 | |
| HASLITAL | 2026-09-05 01:42:42 | 46.77742 | 8.04843 | 0° | 0km/h | 1798m | 0.0m/s | 14.1°C | 69.7% | 0hPa | 2.6V | 07:44:00 | 00:00:00 | 00:00:00 | |
| HASLITAL | 2026-09-05 01:42:21 | 46.77742 | 8.04841 | 0° | 0km/h | 1795m | 0.1m/s | 13.7°C | 73.0% | 0hPa | 2.6V | 07:45:00 | 00:00:00 | 00:00:00 | |
| HASLITAL | 2026-09-05 01:42:00 | 46.77743 | 8.04840 | 0° | 0km/h | 1792m | -0.1m/s | 13.7°C | 73.8% | 0hPa | 2.6V | 07:45:00 | 00:00:00 | 00:00:00 | |
| HASLITAL | 2026-09-05 01:41:40 | 46.77744 | 8.04839 | 0° | 0km/h | 1788m | -0.1m/s | 14.2°C | 68.8% | 0hPa | 2.6V | 07:46:00 | 00:00:00 | 00:00:00 | |
| HASLITAL | 2026-09-05 01:41:19 | 46.77745 | 8.04838 | 0° | 0km/h | 1786m | -0.1m/s | 13.5°C | 74.6% | 0hPa | 2.6V | 07:46:00 | 00:00:00 | 00:00:00 | |
| HASLITAL | 2026-09-05 01:40:18 | 46.77743 | 8.04838 | 0° | 0km/h | 1789m | 0.0m/s | 13.0°C | 79.0% | 0hPa | 2.6V | 07:46:00 | 00:00:00 | 00:00:00 | |
| HASLITAL | 2026-09-05 01:39:57 | 46.77744 | 8.04838 | 0° | 0km/h | 1789m | -0.1m/s | 13.1°C | 79.6% | 0hPa | 2.6V | 07:47:00 | 00:00:00 | 00:00:00 | |
| HASLITAL | 2026-09-05 01:39:36 | 46.77744 | 8.04837 | 0° | 0km/h | 1790m | -0.2m/s | 13.4°C | 75.6% | 0hPa | 2.6V | 07:47:00 | 00:00:00 | 00:00:00 | |
| HASLITAL | 2026-09-05 01:39:15 | 46.77745 | 8.04838 | 0° | 0km/h | 1790m | -0.1m/s | 13.7°C | 73.0% | 0hPa | 2.6V | 07:47:00 | 00:00:00 | 00:00:00 | |
| HASLITAL | 2026-09-05 01:38:34 | 46.77743 | 8.04839 | 0° | 0km/h | 1798m | -0.1m/s | 13.0°C | 78.0% | 0hPa | 2.6V | 07:48:00 | 00:00:00 | 00:00:00 | |
| HASLITAL | 2026-09-05 01:38:13 | 46.77742 | 8.04838 | 0° | 0km/h | 1799m | 0.1m/s | 13.5°C | 73.6% | 0hPa | 2.6V | 07:49:00 | 00:00:00 | 00:00:00 | |
| HASLITAL | 2026-09-05 01:37:53 | 46.77744 | 8.04837 | 0° | 0km/h | 1792m | -0.0m/s | 12.6°C | 80.9% | 0hPa | 2.6V | 07:49:00 | 00:00:00 | 00:00:00 | |
| HASLITAL | 2026-09-05 01:37:33 | 46.77745 | 8.04836 | 0° | 0km/h | 1789m | 0.0m/s | 12.6°C | 81.3% | 0hPa | 2.6V | 07:49:00 | 00:00:00 | 00:00:00 | |
| HASLITAL | 2026-09-05 01:37:13 | 46.77744 | 8.04837 | 0° | 0km/h | 1789m | 0.2m/s | 12.8°C | 80.3% | 0hPa | 2.6V | 07:50:00 | 00:00:00 | 00:00:00 | |
| HASLITAL | 2026-09-05 01:36:52 | 46.77745 | 8.04835 | 0° | 0km/h | 1785m | -0.0m/s | 13.2°C | 76.5% | 0hPa | 2.6V | 07:50:00 | 00:00:00 | 00:00:00 | |
| HASLITAL | 2026-09-05 01:36:32 | 46.77745 | 8.04834 | 0° | 0km/h | 1786m | 0.0m/s | 13.1°C | 76.8% | 0hPa | 2.6V | 07:51:00 | 00:00:00 | 00:00:00 | |
| HASLITAL | 2026-09-05 01:36:12 | 46.77744 | 8.04836 | 0° | 0km/h | 1786m | 0.0m/s | 13.5°C | 72.9% | 0hPa | 2.6V | 07:51:00 | 00:00:00 | 00:00:00 | |
| HASLITAL | 2026-09-05 01:35:51 | 46.77743 | 8.04835 | 0° | 0km/h | 1782m | 0.0m/s | 13.6°C | 75.0% | 0hPa | 2.6V | 07:51:00 | 00:00:00 | 00:00:00 | |
| HASLITAL | 2026-09-05 01:35:31 | 46.77744 | 8.04836 | 0° | 0km/h | 1781m | 0.0m/s | 13.3°C | 74.8% | 0hPa | 2.6V | 07:52:00 | 00:00:00 | 00:00:00 | |
| HASLITAL | 2026-09-05 01:35:11 | 46.77744 | 8.04837 | 0° | 0km/h | 1782m | -0.2m/s | 13.1°C | 77.2% | 0hPa | 2.6V | 07:52:00 | 00:00:00 | 00:00:00 | |
| HASLITAL | 2026-09-05 01:34:51 | 46.77743 | 8.04838 | 0° | 0km/h | 1785m | -0.1m/s | 13.1°C | 77.5% | 0hPa | 2.6V | 07:52:00 | 00:00:00 | 00:00:00 | |
| HASLITAL | 2026-09-05 01:34:30 | 46.77744 | 8.04839 | 0° | 0km/h | 1787m | -0.1m/s | 13.0°C | 81.3% | 0hPa | 2.6V | 07:52:00 | 00:00:00 | 00:00:00 | |
| HASLITAL | 2026-09-05 01:34:10 | 46.77743 | 8.04838 | 0° | 0km/h | 1788m | 0.1m/s | 13.3°C | 77.3% | 0hPa | 2.6V | 07:52:00 | 00:00:00 | 00:00:00 | |
| HASLITAL | 2026-09-05 01:33:50 | 46.77744 | 8.04838 | 0° | 0km/h | 1786m | -0.0m/s | 13.3°C | 78.9% | 0hPa | 2.6V | 07:53:00 | 00:00:00 | 00:00:00 | |
| HASLITAL | 2026-09-05 01:33:29 | 46.77744 | 8.04837 | 0° | 0km/h | 1784m | -0.2m/s | 13.1°C | 81.0% | 0hPa | 2.6V | 07:53:00 | 00:00:00 | 00:00:00 | |
| HASLITAL | 2026-09-05 01:33:08 | 46.77743 | 8.04835 | 0° | 0km/h | 1783m | 0.1m/s | 13.4°C | 76.8% | 0hPa | 2.6V | 07:54:00 | 00:00:00 | 00:00:00 | |
| HASLITAL | 2026-09-05 01:32:48 | 46.77743 | 8.04836 | 0° | 0km/h | 1782m | -0.1m/s | 14.0°C | 72.1% | 0hPa | 2.6V | 07:54:00 | 00:00:00 | 00:00:00 | |
| HASLITAL | 2026-09-05 01:32:28 | 46.77743 | 8.04836 | 0° | 0km/h | 1780m | 0.1m/s | 13.8°C | 73.0% | 0hPa | 2.6V | 07:54:00 | 00:00:00 | 00:00:00 | |
| HASLITAL | 2026-09-05 01:32:08 | 46.77743 | 8.04837 | 0° | 0km/h | 1781m | 0.0m/s | 13.0°C | 79.5% | 0hPa | 2.6V | 07:55:00 | 00:00:00 | 00:00:00 | |
| HASLITAL | 2026-09-05 01:31:47 | 46.77743 | 8.04836 | 0° | 0km/h | 1779m | -0.0m/s | 14.0°C | 72.1% | 0hPa | 2.6V | 07:55:00 | 00:00:00 | 00:00:00 | |
| HASLITAL | 2026-09-05 01:31:26 | 46.77743 | 8.04836 | 0° | 0km/h | 1783m | 0.1m/s | 13.7°C | 72.7% | 0hPa | 2.6V | 07:56:00 | 00:00:00 | 00:00:00 | |
| HASLITAL | 2026-09-05 01:31:05 | 46.77743 | 8.04838 | 0° | 0km/h | 1789m | 0.1m/s | 14.5°C | 67.9% | 0hPa | 2.6V | 07:56:00 | 00:00:00 | 00:00:00 | |
| HASLITAL | 2026-09-05 01:30:45 | 46.77744 | 8.04838 | 0° | 0km/h | 1785m | 0.2m/s | 14.3°C | 70.9% | 0hPa | 2.6V | 07:56:00 | 00:00:00 | 00:00:00 | |
| HASLITAL | 2026-09-05 01:30:25 | 46.77745 | 8.04836 | 0° | 0km/h | 1783m | 0.1m/s | 14.3°C | 69.5% | 0hPa | 2.6V | 07:57:00 | 00:00:00 | 00:00:00 | |
| HASLITAL | 2026-09-05 01:30:05 | 46.77745 | 8.04836 | 0° | 0km/h | 1783m | 0.1m/s | 14.4°C | 69.2% | 0hPa | 2.6V | 07:57:00 | 00:00:00 | 00:00:00 | |
| HASLITAL | 2026-09-05 01:29:44 | 46.77745 | 8.04837 | 0° | 0km/h | 1784m | 0.0m/s | 14.6°C | 67.7% | 0hPa | 2.6V | 07:58:00 | 00:00:00 | 00:00:00 | |
| HASLITAL | 2026-09-05 01:29:23 | 46.77744 | 8.04837 | 0° | 0km/h | 1784m | -0.0m/s | 14.5°C | 67.8% | 0hPa | 2.6V | 07:58:00 | 00:00:00 | 00:00:00 | |
| HASLITAL | 2026-09-05 01:29:03 | 46.77744 | 8.04837 | 0° | 0km/h | 1785m | -0.2m/s | 14.5°C | 68.0% | 0hPa | 2.6V | 07:58:00 | 00:00:00 | 00:00:00 | |
| HASLITAL | 2026-09-05 01:28:42 | 46.77743 | 8.04839 | 0° | 0km/h | 1789m | 0.1m/s | 15.2°C | 63.8% | 0hPa | 2.6V | 07:58:00 | 00:00:00 | 00:00:00 | |
| HASLITAL | 2026-09-05 01:28:21 | 46.77742 | 8.04840 | 0° | 0km/h | 1792m | 0.0m/s | 15.0°C | 65.0% | 0hPa | 2.6V | 07:58:00 | 00:00:00 | 00:00:00 | |
| HASLITAL | 2026-09-05 01:28:01 | 46.77742 | 8.04840 | 0° | 0km/h | 1791m | -0.0m/s | 13.8°C | 75.3% | 0hPa | 2.6V | 07:59:00 | 00:00:00 | 00:00:00 | |
| HASLITAL | 2026-09-05 01:27:40 | 46.77743 | 8.04839 | 0° | 0km/h | 1788m | 0.1m/s | 14.5°C | 68.2% | 0hPa | 2.6V | 07:59:00 | 00:00:00 | 00:00:00 | |
| HASLITAL | 2026-09-05 01:27:20 | 46.77743 | 8.04840 | 0° | 0km/h | 1789m | 0.1m/s | 14.0°C | 72.9% | 0hPa | 2.6V | 07:59:00 | 00:00:00 | 00:00:00 | |
| HASLITAL | 2026-09-05 01:26:59 | 46.77743 | 8.04839 | 0° | 0km/h | 1786m | -0.0m/s | 13.7°C | 73.9% | 0hPa | 2.6V | 08:00:00 | 00:00:00 | 00:00:00 | |
| HASLITAL | 2026-09-05 01:26:17 | 46.77743 | 8.04838 | 0° | 0km/h | 1785m | -0.0m/s | 14.9°C | 65.8% | 0hPa | 2.6V | 08:01:00 | 00:00:00 | 00:00:00 | |
| HASLITAL | 2026-09-05 01:25:37 | 46.77745 | 8.04838 | 0° | 0km/h | 1784m | -0.0m/s | 14.8°C | 67.6% | 0hPa | 2.6V | 08:01:00 | 00:00:00 | 00:00:00 | |
| HASLITAL | 2026-09-05 01:25:16 | 46.77745 | 8.04837 | 0° | 0km/h | 1783m | -0.0m/s | 14.9°C | 65.6% | 0hPa | 2.6V | 08:02:00 | 00:00:00 | 00:00:00 | |
| HASLITAL | 2026-09-05 01:24:55 | 46.77744 | 8.04836 | 0° | 0km/h | 1784m | -0.1m/s | 14.2°C | 70.5% | 0hPa | 2.6V | 08:02:00 | 00:00:00 | 00:00:00 | |
| HASLITAL | 2026-09-05 01:24:35 | 46.77744 | 8.04836 | 0° | 0km/h | 1786m | -0.2m/s | 14.5°C | 67.1% | 0hPa | 2.6V | 08:03:00 | 00:00:00 | 00:00:00 | |
| HASLITAL | 2026-09-05 01:24:14 | 46.77745 | 8.04837 | 0° | 0km/h | 1787m | -0.0m/s | 14.6°C | 67.4% | 0hPa | 2.6V | 08:03:00 | 00:00:00 | 00:00:00 | |
| HASLITAL | 2026-09-05 01:23:54 | 46.77745 | 8.04837 | 0° | 0km/h | 1787m | 0.0m/s | 14.3°C | 70.4% | 0hPa | 2.6V | 08:03:00 | 00:00:00 | 00:00:00 | |
| HASLITAL | 2026-09-05 01:23:33 | 46.77744 | 8.04836 | 0° | 0km/h | 1787m | -0.1m/s | 14.2°C | 69.4% | 0hPa | 2.6V | 08:03:00 | 00:00:00 | 00:00:00 | |
| HASLITAL | 2026-09-05 01:23:12 | 46.77743 | 8.04836 | 0° | 0km/h | 1786m | -0.1m/s | 14.5°C | 68.6% | 0hPa | 2.6V | 08:03:00 | 00:00:00 | 00:00:00 | |
| HASLITAL | 2026-09-05 01:22:52 | 46.77735 | 8.04812 | 64° | 15km/h | 1817m | -5.2m/s | 15.9°C | 58.9% | 0hPa | 2.6V | 08:04:00 | 00:00:00 | 00:00:00 | |
| HASLITAL | 2026-09-05 01:22:32 | 46.77721 | 8.04663 | 87° | 20km/h | 1905m | -5.2m/s | 15.7°C | 58.6% | 0hPa | 2.6V | 08:04:00 | 00:00:00 | 00:00:00 | |
| HASLITAL | 2026-09-05 01:22:12 | 46.77717 | 8.04477 | 88° | 26km/h | 1996m | -4.2m/s | 15.2°C | 59.5% | 0hPa | 2.6V | 08:04:00 | 00:00:00 | 00:00:00 | |
| HASLITAL | 2026-09-05 01:21:51 | 46.77679 | 8.04284 | 63° | 29km/h | 2100m | -6.2m/s | 14.3°C | 62.0% | 0hPa | 2.6V | 08:05:00 | 00:00:00 | 00:00:00 | |
| HASLITAL | 2026-09-05 01:21:30 | 46.77631 | 8.04090 | 70° | 22km/h | 2239m | -7.3m/s | 12.8°C | 66.8% | 0hPa | 2.6V | 08:05:00 | 00:00:00 | 00:00:00 | |
| HASLITAL | 2026-09-05 01:21:09 | 46.77571 | 8.03949 | 50° | 20km/h | 2391m | -5.8m/s | 11.4°C | 72.2% | 0hPa | 2.6V | 08:06:00 | 00:00:00 | 00:00:00 | |
| HASLITAL | 2026-09-05 01:20:48 | 46.77501 | 8.03769 | 64° | 35km/h | 2507m | -5.8m/s | 10.6°C | 73.6% | 0hPa | 2.6V | 08:06:00 | 00:00:00 | 00:00:00 | |
| HASLITAL | 2026-09-05 01:20:27 | 46.77435 | 8.03481 | 71° | 44km/h | 2753m | -13.8m/s | 9.0°C | 76.2% | 0hPa | 2.6V | 08:07:00 | 00:00:00 | 00:00:00 | |
| HASLITAL | 2026-09-05 01:20:07 | 46.77354 | 8.03129 | 73° | 53km/h | 3018m | -13.1m/s | 6.7°C | 80.2% | 0hPa | 2.6V | 08:07:00 | 00:00:00 | 00:00:00 | |
| HASLITAL | 2026-09-05 01:19:46 | 46.77280 | 8.02701 | 79° | 57km/h | 3290m | -12.9m/s | 4.5°C | 75.5% | 0hPa | 2.6V | 08:07:00 | 00:00:00 | 00:00:00 | |
| HASLITAL | 2026-09-05 01:19:26 | 46.77215 | 8.02275 | 80° | 57km/h | 3558m | -14.5m/s | 2.2°C | 72.0% | 0hPa | 2.6V | 08:08:00 | 00:00:00 | 00:00:00 | |
| HASLITAL | 2026-09-05 01:19:05 | 46.77140 | 8.01832 | 80° | 60km/h | 3876m | -15.4m/s | -0.8°C | 87.1% | 0hPa | 2.6V | 08:08:00 | 00:00:00 | 00:00:00 | |
| DB0UT-7 | 2026-09-05 01:18:58 | 46.77117 | 8.01658 | 79° | 66km/h | 3991m | -15.3m/s | -0.8°C | 57.9% | 0hPa | 2.6V | 00:00:00 | 00:00:00 | 00:00:00 | |
| HASLITAL | 2026-09-05 01:18:44 | 46.77094 | 8.01354 | 89° | 68km/h | 4182m | -16.0m/s | -0.0°C | 17.4% | 0hPa | 2.6V | 08:09:00 | 00:00:00 | 00:00:00 | |
| DB0UT-7 | 2026-09-05 01:18:28 | 46.77093 | 8.00922 | 89° | 71km/h | 4421m | -16.0m/s | -1.4°C | 24.7% | 0hPa | 2.6V | 00:00:00 | 02:43:43 | 00:00:00 | |
| HASLITAL | 2026-09-05 01:18:23 | 46.77093 | 8.00817 | 92° | 71km/h | 4482m | -16.0m/s | -1.9°C | 23.8% | 0hPa | 2.6V | 08:09:00 | 00:00:00 | 00:00:00 | |
| HASLITAL | 2026-09-05 01:18:03 | 46.77102 | 8.00291 | 98° | 69km/h | 4770m | -14.5m/s | -4.0°C | 23.0% | 0hPa | 2.6V | 08:09:00 | 00:00:00 | 00:00:00 | |
| DB0UT-7 | 2026-09-05 01:17:58 | 46.77116 | 8.00137 | 97° | 66km/h | 4852m | -14.7m/s | -4.0°C | 19.6% | 0hPa | 2.6V | 00:00:00 | 00:00:00 | 00:00:00 | |
| DF1GD-15 | 2026-09-05 01:17:56 | 46.77119 | 8.00111 | 101° | 69km/h | 4866m | -15.1m/s | -4.1°C | 20.0% | 0hPa | 2.6V | 08:09:00 | 00:00:00 | 00:00:00 | |
| IW2NTF | 2026-09-05 01:17:44 | 46.77154 | 7.99803 | 99° | 60km/h | 5051m | -15m/s | -4.7°C | 19.7% | 0hPa | 2.6V | 08:09:18 | 02:42:59 | 00:00:00 | |
| HASLITAL | 2026-09-05 01:17:43 | 46.77154 | 7.99803 | 100° | 60km/h | 5052m | -15.0m/s | -4.7°C | 19.1% | 0hPa | 2.5V | 08:09:00 | 00:00:00 | 00:00:00 | |
| IW2NTF | 2026-09-05 01:17:39 | 46.77183 | 7.99567 | 100° | 68km/h | 5195m | -16.3m/s | -5.1°C | 9.9% | 0hPa | 2.5V | 08:09:28 | 02:42:49 | 00:00:00 | |
| DF1GD-15 | 2026-09-05 01:17:35 | 46.77177 | 7.99616 | 101° | 64km/h | 5166m | -15.3m/s | -5.0°C | 10.6% | 0hPa | 2.5V | 08:09:00 | 00:00:00 | 00:00:00 | |
| DB0UT-7 | 2026-09-05 01:17:28 | 46.77206 | 7.99419 | 103° | 73km/h | 5284m | -15.3m/s | -5.5°C | 14.9% | 0hPa | 2.5V | 00:00:00 | 02:42:43 | 00:00:00 | |
| IW2NTF | 2026-09-05 01:17:27 | 46.77222 | 7.99316 | 103° | 68km/h | 5343m | -16.4m/s | -6.1°C | 19.6% | 0hPa | 2.5V | 08:09:38 | 02:42:39 | 00:00:00 | |
| HASLITAL | 2026-09-05 01:17:23 | 46.77222 | 7.99316 | 104° | 68km/h | 5343m | -16.4m/s | -6.1°C | 18.9% | 0hPa | 2.6V | 08:09:00 | 00:00:00 | 00:00:00 | |
| IW2NTF | 2026-09-05 01:17:20 | 46.77262 | 7.99058 | 101° | 71km/h | 5494m | -15.8m/s | -7.3°C | 25.4% | 0hPa | 2.6V | 08:09:48 | 02:42:29 | 00:00:00 | |
| DF1GD-15 | 2026-09-05 01:17:14 | 46.77258 | 7.99084 | 104° | 71km/h | 5479m | -15.2m/s | -7.2°C | 24.2% | 0hPa | 2.6V | 08:09:00 | 00:00:00 | 00:00:00 | |
| IW2NTF | 2026-09-05 01:17:08 | 46.77313 | 7.98733 | 99° | 75km/h | 5674m | -16m/s | -8.6°C | 27.5% | 0hPa | 2.6V | 08:10:00 | 02:42:17 | 00:00:00 | |
| HASLITAL | 2026-09-05 01:17:02 | 46.77309 | 7.98760 | 102° | 73km/h | 5659m | -16.4m/s | -8.4°C | 20.0% | 0hPa | 2.6V | 08:10:00 | 00:00:00 | 00:00:00 | |
| DB0UT-7 | 2026-09-05 01:16:58 | 46.77327 | 7.98623 | 102° | 73km/h | 5736m | -15.5m/s | -9.1°C | 29.6% | 0hPa | 2.6V | 08:10:00 | 00:00:00 | 00:00:00 | |
| IW2NTF | 2026-09-05 01:16:56 | 46.77343 | 7.98457 | 99° | 75km/h | 5826m | -15m/s | -9°C | 8.5% | 0hPa | 2.5V | 08:10:10 | 02:42:07 | 00:00:00 | |
| DF1GD-15 | 2026-09-05 01:16:53 | 46.77338 | 7.98513 | 98° | 78km/h | 5797m | -15.7m/s | -9.2°C | 15.9% | 0hPa | 2.5V | 08:10:00 | 00:00:00 | 00:00:00 | |
| IW2NTF | 2026-09-05 01:16:45 | 46.77370 | 7.98185 | 95° | 77km/h | 5980m | -16.7m/s | -10.3°C | 20.6% | 0hPa | 2.5V | 08:10:20 | 02:41:57 | 00:00:00 | |
| HASLITAL | 2026-09-05 01:16:42 | 46.77368 | 7.98213 | 96° | 75km/h | 5965m | -16.6m/s | -10.1°C | 14.0% | 0hPa | 2.5V | 08:10:00 | 00:00:00 | 00:00:00 | |
| IW2NTF | 2026-09-05 01:16:32 | 46.77396 | 7.97914 | 95° | 68km/h | 6137m | -17.6m/s | -11.4°C | 19.8% | 0hPa | 2.5V | 08:10:30 | 02:41:47 | 00:00:00 | |
| DF1GD-15 | 2026-09-05 01:16:32 | 46.77393 | 7.97939 | 99° | 69km/h | 6122m | -16.2m/s | -11.3°C | 17.9% | 0hPa | 2.5V | 08:10:00 | 00:00:00 | 00:00:00 | |
| DB0UT-7 | 2026-09-05 01:16:28 | 46.77403 | 7.97807 | 100° | 73km/h | 6201m | -15.7m/s | -11.7°C | 18.2% | 0hPa | 2.5V | 00:00:00 | 02:41:43 | 00:00:00 | |
| IW2NTF | 2026-09-05 01:16:26 | 46.77422 | 7.97648 | 100° | 77km/h | 6293m | -16.3m/s | -11.7°C | 8.9% | 0hPa | 2.5V | 08:10:40 | 02:41:37 | 00:00:00 | |
| HASLITAL | 2026-09-05 01:16:21 | 46.77421 | 7.97648 | 102° | 77km/h | 6293m | -16.3m/s | -11.7°C | 8.3% | 0hPa | 2.6V | 08:10:00 | 00:00:00 | 00:00:00 | |
| IW2NTF | 2026-09-05 01:16:15 | 46.77462 | 7.97374 | 104° | 75km/h | 6450m | -16.3m/s | -12.8°C | 13.3% | 0hPa | 2.6V | 08:10:50 | 02:41:27 | 00:00:00 | |
| DF1GD-15 | 2026-09-05 01:16:12 | 46.77457 | 7.97401 | 106° | 77km/h | 6435m | -16.5m/s | -12.7°C | 10.4% | 0hPa | 2.6V | 08:11:00 | 00:00:00 | 00:00:00 | |
| IW2NTF | 2026-09-05 01:16:02 | 46.77506 | 7.97055 | 100° | 69km/h | 6633m | -15.3m/s | -14.6°C | 23.6% | 0hPa | 2.6V | 08:11:02 | 02:41:15 | 00:00:00 | |
| HASLITAL | 2026-09-05 01:16:00 | 46.77502 | 7.97082 | 102° | 73km/h | 6618m | -14.9m/s | -14.4°C | 22.3% | 0hPa | 2.5V | 08:11:00 | 00:00:00 | 00:00:00 | |
| DB0UT-7 | 2026-09-05 01:15:58 | 46.77512 | 7.97004 | 101° | 80km/h | 6662m | -14.7m/s | -14.8°C | 24.8% | 0hPa | 2.5V | 00:00:00 | 00:00:00 | 00:00:00 | |
| IW2NTF | 2026-09-05 01:15:55 | 46.77537 | 7.96802 | 99° | 73km/h | 6780m | -15.6m/s | -15.6°C | 19.5% | 0hPa | 2.5V | 08:11:12 | 02:41:05 | 00:00:00 | |
| DF1GD-15 | 2026-09-05 01:15:51 | 46.77531 | 7.96853 | 101° | 68km/h | 6749m | -16.3m/s | -15.3°C | 18.0% | 0hPa | 2.5V | 08:11:00 | 00:00:00 | 00:00:00 | |
| IW2NTF | 2026-09-05 01:15:44 | 46.77573 | 7.96534 | 102° | 71km/h | 6930m | -14.8m/s | -16.9°C | 23.5% | 0hPa | 2.5V | 08:11:22 | 02:40:55 | 00:00:00 | |
| HASLITAL | 2026-09-05 01:15:40 | 46.77569 | 7.96560 | 104° | 71km/h | 6916m | -15.4m/s | -16.7°C | 21.9% | 0hPa | 2.5V | 08:11:00 | 00:00:00 | 00:00:00 | |
| IW2NTF | 2026-09-05 01:15:32 | 46.77613 | 7.96268 | 103° | 75km/h | 7056m | -13.5m/s | -17.9°C | 24.5% | 0hPa | 2.5V | 08:11:32 | 02:40:45 | 00:00:00 | |
| IW2NTF | 2026-09-05 01:15:25 | 46.77649 | 7.95997 | 96° | 77km/h | 7189m | -15.7m/s | -18.4°C | 15.7% | 0hPa | 2.6V | 08:11:42 | 02:40:35 | 00:00:00 | |
| HASLITAL | 2026-09-05 01:15:19 | 46.77649 | 7.95997 | 98° | 77km/h | 7189m | -15.7m/s | -18.4°C | 14.5% | 0hPa | 2.6V | 08:12:00 | 00:00:00 | 00:00:00 | |
| IW2NTF | 2026-09-05 01:15:15 | 46.77678 | 7.95722 | 99° | 78km/h | 7328m | -14.8m/s | -19.3°C | 12.4% | 0hPa | 2.6V | 08:11:52 | 02:40:25 | 00:00:00 | |
| DF1GD-15 | 2026-09-05 01:15:11 | 46.77675 | 7.95750 | 100° | 78km/h | 7315m | -14.8m/s | -19.2°C | 11.4% | 0hPa | 2.6V | 08:12:00 | 00:00:00 | 00:00:00 | |
| IW2NTF | 2026-09-05 01:15:00 | 46.77713 | 7.95437 | 98° | 82km/h | 7468m | -15.4m/s | -20.2°C | 13.9% | 0hPa | 2.6V | 08:12:02 | 02:40:15 | 00:00:00 | |
| HASLITAL | 2026-09-05 01:14:59 | 46.77712 | 7.95437 | 99° | 82km/h | 7468m | -15.4m/s | -20.2°C | 12.7% | 0hPa | 2.6V | 08:12:00 | 00:00:00 | 00:00:00 | |
| IW2NTF | 2026-09-05 01:14:55 | 46.77746 | 7.95144 | 97° | 80km/h | 7608m | -15.9m/s | -21°C | 10.5% | 0hPa | 2.6V | 08:12:12 | 02:40:05 | 00:00:00 | |
| DF1GD-15 | 2026-09-05 01:14:49 | 46.77746 | 7.95144 | 99° | 80km/h | 7608m | -15.9m/s | -21.0°C | 9.5% | 0hPa | 2.6V | 08:12:00 | 00:00:00 | 00:00:00 | |
| IW2NTF | 2026-09-05 01:14:42 | 46.77780 | 7.94849 | 98° | 78km/h | 7750m | -15.7m/s | -21.9°C | 10.5% | 0hPa | 2.6V | 08:12:22 | 02:39:55 | 00:00:00 | |
| HASLITAL | 2026-09-05 01:14:38 | 46.77783 | 7.94819 | 100° | 78km/h | 7764m | -14.8m/s | -22.0°C | 9.4% | 0hPa | 2.6V | 08:12:00 | 00:00:00 | 00:00:00 | |
| IW2NTF | 2026-09-05 01:14:35 | 46.77814 | 7.94554 | 99° | 78km/h | 7893m | -16.5m/s | -22.9°C | 9.3% | 0hPa | 2.6V | 08:12:32 | 02:39:45 | 00:00:00 | |
| DF1GD-15 | 2026-09-05 01:14:28 | 46.77818 | 7.94525 | 100° | 78km/h | 7908m | -16.0m/s | -23.0°C | 7.9% | 0hPa | 2.6V | 08:13:00 | 00:00:00 | 00:00:00 | |
| IW2NTF | 2026-09-05 01:14:24 | 46.77852 | 7.94253 | 102° | 84km/h | 8032m | -14.1m/s | -23.7°C | 7.8% | 0hPa | 2.6V | 08:12:42 | 02:39:35 | 00:00:00 | |
| HASLITAL | 2026-09-05 01:14:17 | 46.77861 | 7.94192 | 103° | 86km/h | 8060m | -14.0m/s | -23.9°C | 6.8% | 0hPa | 2.5V | 08:13:00 | 00:00:00 | 00:00:00 | |
| IW2NTF | 2026-09-05 01:14:10 | 46.77895 | 7.93943 | 100° | 88km/h | 8164m | -14.1m/s | -24.6°C | 7.3% | 0hPa | 2.5V | 08:12:52 | 02:39:25 | 00:00:00 | |
| DF1GD-15 | 2026-09-05 01:14:08 | 46.77899 | 7.93911 | 101° | 88km/h | 8178m | -14.7m/s | -24.7°C | 6.3% | 0hPa | 2.5V | 08:13:00 | 00:00:00 | 00:00:00 | |
| IW2NTF | 2026-09-05 01:14:00 | 46.77928 | 7.93622 | 98° | 84km/h | 8299m | -14.2m/s | -25.4°C | 8.2% | 0hPa | 2.5V | 08:13:02 | 02:39:15 | 00:00:00 | |
| HASLITAL | 2026-09-05 01:13:56 | 46.77937 | 7.93529 | 99° | 84km/h | 8340m | -14.1m/s | -25.7°C | 6.8% | 0hPa | 2.6V | 08:13:00 | 00:00:00 | 00:00:00 | |
| IW2NTF | 2026-09-05 01:13:50 | 46.77970 | 7.93246 | 98° | 88km/h | 8457m | -14.7m/s | -26.5°C | 8.7% | 0hPa | 2.6V | 08:13:14 | 02:39:03 | 00:00:00 | |
| DB0UT-7 | 2026-09-05 01:13:49 | 46.77966 | 7.93278 | 100° | 84km/h | 8443m | -14.4m/s | -26.4°C | 8.5% | 0hPa | 2.5V | 00:00:00 | 02:39:04 | 00:00:00 | |
| DF1GD-15 | 2026-09-05 01:13:47 | 46.77970 | 7.93246 | 99° | 88km/h | 8457m | -14.7m/s | -26.5°C | 7.5% | 0hPa | 2.5V | 08:13:00 | 00:00:00 | 00:00:00 | |
| IW2NTF | 2026-09-05 01:13:40 | 46.78007 | 7.92939 | 101° | 82km/h | 8590m | -13.2m/s | -27.7°C | 8.1% | 0hPa | 2.5V | 08:13:24 | 02:38:53 | 00:00:00 | |
| HASLITAL | 2026-09-05 01:13:35 | 46.78016 | 7.92879 | 102° | 82km/h | 8615m | -14.1m/s | -27.9°C | 6.9% | 0hPa | 2.5V | 08:14:00 | 00:00:00 | 00:00:00 | |
| IW2NTF | 2026-09-05 01:13:30 | 46.78045 | 7.92632 | 97° | 82km/h | 8718m | -14.3m/s | -28.8°C | 9.4% | 0hPa | 2.5V | 08:13:34 | 02:38:43 | 00:00:00 | |
| DF1GD-15 | 2026-09-05 01:13:27 | 46.78045 | 7.92632 | 99° | 82km/h | 8718m | -14.3m/s | -28.8°C | 8.0% | 0hPa | 2.5V | 08:14:00 | 00:00:00 | 00:00:00 | |
| DH7VM-15 | 2026-09-05 01:13:23 | 46.78057 | 7.92512 | 99° | 78km/h | 8770m | -14.3m/s | -29.2°C | 7.8% | 0hPa | 2.5V | 00:00:00 | 00:00:00 | 00:00:00 | |
| IW2NTF | 2026-09-05 01:13:20 | 46.78074 | 7.92331 | 95° | 82km/h | 8849m | -14.4m/s | -29.9°C | 9.4% | 0hPa | 2.5V | 08:13:44 | 02:38:33 | 00:00:00 | |
| DB0UT-7 | 2026-09-05 01:13:19 | 46.78071 | 7.92362 | 96° | 80km/h | 8835m | -14.7m/s | -29.7°C | 9.5% | 0hPa | 2.6V | 00:00:00 | 00:00:00 | 00:00:00 | |
| HASLITAL | 2026-09-05 01:13:14 | 46.78080 | 7.92241 | 99° | 78km/h | 8890m | -14.1m/s | -30.2°C | 7.8% | 0hPa | 2.6V | 08:14:00 | 00:00:00 | 00:00:00 | |
| IW2NTF | 2026-09-05 01:13:10 | 46.78104 | 7.92038 | 102° | 80km/h | 8983m | -13.9m/s | -30.9°C | 8.4% | 0hPa | 2.6V | 08:13:54 | 02:38:23 | 00:00:00 | |
| DF1GD-15 | 2026-09-05 01:13:06 | 46.78108 | 7.92009 | 103° | 80km/h | 8996m | -14.5m/s | -31.0°C | 7.1% | 0hPa | 2.5V | 08:14:00 | 00:00:00 | 00:00:00 | |
| IW2NTF | 2026-09-05 01:13:00 | 46.78145 | 7.91741 | 101° | 78km/h | 9116m | -14.9m/s | -31.7°C | 10.1% | 0hPa | 2.5V | 08:14:04 | 02:38:13 | 00:00:00 | |
| HASLITAL | 2026-09-05 01:12:53 | 46.78164 | 7.91628 | 105° | 80km/h | 9169m | -14.7m/s | -32.2°C | 8.9% | 0hPa | 2.5V | 08:14:00 | 00:00:00 | 00:00:00 | |
| IW2NTF | 2026-09-05 01:12:50 | 46.78190 | 7.91459 | 102° | 78km/h | 9253m | -14.6m/s | -32.7°C | 10% | 0hPa | 2.5V | 08:14:14 | 02:38:03 | 00:00:00 | |
| DB0UT-7 | 2026-09-05 01:12:49 | 46.78186 | 7.91487 | 103° | 69km/h | 9238m | -14.8m/s | -32.6°C | 10.3% | 0hPa | 2.6V | 00:00:00 | 02:38:04 | 00:00:00 | |
| DF1GD-15 | 2026-09-05 01:12:45 | 46.78199 | 7.91405 | 106° | 75km/h | 9281m | -14.1m/s | -32.8°C | 7.8% | 0hPa | 2.6V | 08:15:00 | 00:00:00 | 00:00:00 | |
| DO3MHA-11 | 2026-09-05 01:12:44 | 46.78209 | 7.91354 | 107° | 69km/h | 9307m | -14.2m/s | -32.7°C | 8.9% | 0hPa | 2.6V | 00:00:00 | 02:37:59 | 00:00:00 | |
| IW2NTF | 2026-09-05 01:12:40 | 46.78239 | 7.91208 | 105° | 66km/h | 9387m | -14.9m/s | -32.5°C | 13.8% | 0hPa | 2.6V | 08:14:24 | 02:37:53 | 00:00:00 | |
| IW2NTF | 2026-09-05 01:12:34 | 46.78298 | 7.90982 | 112° | 69km/h | 9524m | -14.9m/s | -33.5°C | 25.4% | 0hPa | 2.5V | 08:14:34 | 02:37:43 | 00:00:00 | |
| HASLITAL | 2026-09-05 01:12:33 | 46.78265 | 7.91095 | 112° | 62km/h | 9455m | -13.7m/s | -32.8°C | 17.5% | 0hPa | 2.6V | 08:15:00 | 00:00:00 | 00:00:00 | |
| DO3MHA-11 | 2026-09-05 01:12:32 | 46.78271 | 7.91073 | 112° | 71km/h | 9469m | -14.5m/s | -32.9°C | 21.0% | 0hPa | 2.6V | 00:00:00 | 02:37:47 | 00:00:00 | |
| DF1GD-15 | 2026-09-05 01:12:25 | 46.78312 | 7.90935 | 113° | 69km/h | 9553m | -15.1m/s | -33.7°C | 23.8% | 0hPa | 2.5V | 08:15:00 | 00:00:00 | 00:00:00 | |
| IW2NTF | 2026-09-05 01:12:23 | 46.78370 | 7.90743 | 116° | 69km/h | 9666m | -14.5m/s | -34.6°C | 31% | 0hPa | 2.5V | 08:14:44 | 02:37:33 | 00:00:00 | |
| DB0UT-7 | 2026-09-05 01:12:19 | 46.78362 | 7.90767 | 116° | 71km/h | 9652m | -13.9m/s | -34.5°C | 30.6% | 0hPa | 2.5V | 00:00:00 | 00:00:00 | 00:00:00 | |
| IW2NTF | 2026-09-05 01:12:13 | 46.78452 | 7.90502 | 112° | 73km/h | 9803m | -14.8m/s | -35.8°C | 32.1% | 0hPa | 2.6V | 08:14:54 | 02:37:23 | 00:00:00 | |
| DO3MHA-11 | 2026-09-05 01:12:12 | 46.78420 | 7.90601 | 117° | 71km/h | 9747m | -15.0m/s | -35.3°C | 32.1% | 0hPa | 2.5V | 00:00:00 | 02:37:27 | 00:00:00 | |
| DF1GD-15 | 2026-09-05 01:12:04 | 46.78473 | 7.90429 | 115° | 68km/h | 9844m | -15.5m/s | -36.2°C | 27.3% | 0hPa | 2.5V | 08:15:00 | 00:00:00 | 00:00:00 | |
| IW2NTF | 2026-09-05 01:12:03 | 46.78525 | 7.90269 | 112° | 71km/h | 9941m | -14.4m/s | -37°C | 31% | 0hPa | 2.5V | 08:15:04 | 02:37:13 | 00:00:00 | |
| DO3MHA-11 | 2026-09-05 01:12:02 | 46.78495 | 7.90360 | 116° | 64km/h | 9887m | -14.6m/s | -36.5°C | 30.8% | 0hPa | 2.5V | 00:00:00 | 02:37:17 | 00:00:00 | |
| IW2NTF | 2026-09-05 01:11:53 | 46.78594 | 7.90033 | 115° | 68km/h | 10074m | -14.2m/s | -38.3°C | 35.8% | 0hPa | 2.5V | 08:15:14 | 02:37:03 | 00:00:00 | |
| HASLITAL | 2026-09-05 01:11:51 | 46.78566 | 7.90124 | 114° | 68km/h | 10021m | -13.8m/s | -37.8°C | 28.4% | 0hPa | 2.6V | 08:15:00 | 00:00:00 | 00:00:00 | |
| DB0UT-7 | 2026-09-05 01:11:49 | 46.78586 | 7.90056 | 115° | 71km/h | 10061m | -14.1m/s | -38.1°C | 34.7% | 0hPa | 2.6V | 00:00:00 | 02:37:04 | 00:00:00 | |
| IW2NTF | 2026-09-05 01:11:43 | 46.78664 | 7.89796 | 114° | 68km/h | 10213m | -14.6m/s | -39.5°C | 39.6% | 0hPa | 2.6V | 08:15:24 | 02:36:53 | 00:00:00 | |
| DF1GD-15 | 2026-09-05 01:11:43 | 46.78623 | 7.89937 | 112° | 71km/h | 10128m | -15.6m/s | -38.7°C | 33.6% | 0hPa | 2.5V | 08:15:00 | 00:00:00 | 00:00:00 | |
| IW2NTF | 2026-09-05 01:11:33 | 46.78737 | 7.89554 | 116° | 69km/h | 10355m | -15.1m/s | -40.9°C | 41.9% | 0hPa | 2.5V | 08:15:34 | 02:36:43 | 00:00:00 | |
| HASLITAL | 2026-09-05 01:11:31 | 46.78708 | 7.89651 | 113° | 73km/h | 10298m | -15.1m/s | -40.3°C | 36.3% | 0hPa | 2.6V | 08:15:00 | 00:00:00 | 00:00:00 | |
| IW2NTF | 2026-09-05 01:11:23 | 46.78826 | 7.89323 | 121° | 75km/h | 10503m | -15.6m/s | -42.2°C | 38% | 0hPa | 2.6V | 08:15:44 | 02:36:33 | 00:00:00 | |
| DB0UT-7 | 2026-09-05 01:11:19 | 46.78816 | 7.89346 | 121° | 75km/h | 10488m | -15.6m/s | -42.0°C | 38.3% | 0hPa | 2.5V | 00:00:00 | 00:00:00 | 00:00:00 | |
| HASLITAL | 2026-09-05 01:11:10 | 46.78893 | 7.89154 | 120° | 75km/h | 10608m | -15.6m/s | -43.1°C | 35.0% | 0hPa | 2.5V | 08:15:00 | 00:00:00 | 00:00:00 | |
| IW2NTF | 2026-09-05 01:11:08 | 46.78922 | 7.89083 | 120° | 73km/h | 10651m | -15.3m/s | -43.5°C | 41.9% | 0hPa | 2.5V | 08:15:54 | 02:36:23 | 00:00:00 | |
| IW2NTF | 2026-09-05 01:11:03 | 46.79023 | 7.88846 | 118° | 77km/h | 10798m | -16.6m/s | -44.9°C | 41.6% | 0hPa | 2.5V | 08:16:04 | 02:36:13 | 00:00:00 | |
| IW2NTF | 2026-09-05 01:10:53 | 46.79120 | 7.88599 | 120° | 77km/h | 10957m | -16.3m/s | -46.4°C | 37.3% | 0hPa | 2.5V | 08:16:14 | 02:36:03 | 00:00:00 | |
| HASLITAL | 2026-09-05 01:10:50 | 46.79090 | 7.88673 | 122° | 75km/h | 10909m | -16.4m/s | -45.9°C | 32.1% | 0hPa | 2.5V | 08:16:00 | 00:00:00 | 00:00:00 | |
| DB0UT-7 | 2026-09-05 01:10:49 | 46.79110 | 7.88624 | 122° | 80km/h | 10941m | -16.6m/s | -46.2°C | 37.6% | 0hPa | 2.5V | 08:16:00 | 02:36:04 | 00:00:00 | |
| IW2NTF | 2026-09-05 01:10:43 | 46.79222 | 7.88346 | 121° | 80km/h | 11113m | -16.4m/s | -47.8°C | 38.5% | 0hPa | 2.5V | 08:16:24 | 02:35:53 | 00:00:00 | |
| DF1GD-15 | 2026-09-05 01:10:42 | 46.79170 | 7.88473 | 122° | 78km/h | 11035m | -16.6m/s | -47.1°C | 31.4% | 0hPa | 2.6V | 08:16:00 | 00:00:00 | 00:00:00 | |
| HASLITAL | 2026-09-05 01:10:29 | 46.79309 | 7.88138 | 121° | 84km/h | 11239m | -15.5m/s | -49.0°C | 35.2% | 0hPa | 2.6V | 08:16:00 | 00:00:00 | 00:00:00 | |
| IW2NTF | 2026-09-05 01:10:28 | 46.79351 | 7.88032 | 117° | 82km/h | 11299m | -16.2m/s | -49.5°C | 43.3% | 0hPa | 2.6V | 08:16:36 | 02:35:41 | 00:00:00 | |
| DF1GD-15 | 2026-09-05 01:10:21 | 46.79389 | 7.87930 | 117° | 77km/h | 11362m | -16.5m/s | -50.0°C | 38.2% | 0hPa | 2.5V | 08:16:00 | 00:00:00 | 00:00:00 | |
| DB0UT-7 | 2026-09-05 01:10:19 | 46.79414 | 7.87856 | 115° | 64km/h | 11410m | -16.8m/s | -50.2°C | 48.4% | 0hPa | 2.5V | 00:00:00 | 00:00:00 | 00:00:00 | |
| IW2NTF | 2026-09-05 01:10:18 | 46.79438 | 7.87784 | 113° | 68km/h | 11458m | -17.2m/s | -50.8°C | 51.1% | 0hPa | 2.5V | 08:16:46 | 02:35:31 | 00:00:00 | |
| HASLITAL | 2026-09-05 01:10:09 | 46.79477 | 7.87650 | 114° | 60km/h | 11556m | -16.5m/s | -51.5°C | 46.9% | 0hPa | 2.5V | 08:17:00 | 00:00:00 | 00:00:00 | |
| IW2NTF | 2026-09-05 01:10:08 | 46.79500 | 7.87566 | 112° | 60km/h | 11621m | -16.4m/s | -52.1°C | 56.7% | 0hPa | 2.5V | 08:16:56 | 02:35:21 | 00:00:00 | |
| DO3MHA-11 | 2026-09-05 01:10:02 | 46.79522 | 7.87483 | 112° | 40km/h | 11684m | -16.3m/s | -52.6°C | 56.1% | 0hPa | 2.5V | 08:17:00 | 02:35:17 | 00:00:00 | |
| DF1GD-15 | 2026-09-05 01:10:01 | 46.79522 | 7.87483 | 113° | 60km/h | 11684m | -16.4m/s | -52.6°C | 47.0% | 0hPa | 2.5V | 08:17:00 | 00:00:00 | 00:00:00 | |
| IW2NTF | 2026-09-05 01:09:58 | 46.79557 | 7.87355 | 109° | 66km/h | 11781m | -16.5m/s | -53.4°C | 53.4% | 0hPa | 2.5V | 08:17:06 | 02:35:11 | 00:00:00 | |
| DB0UT-7 | 2026-09-05 01:09:49 | 46.79592 | 7.87198 | 105° | 55km/h | 11894m | -17.1m/s | -54.3°C | 53.4% | 0hPa | 2.5V | 00:00:00 | 02:35:04 | 00:00:00 | |
| IW2NTF | 2026-09-05 01:09:48 | 46.79604 | 7.87133 | 103° | 58km/h | 11944m | -18.1m/s | -54.6°C | 53.7% | 0hPa | 2.5V | 08:17:16 | 02:35:01 | 00:00:00 | |
| HARRO8 | 2026-09-05 01:09:44 | 46.79611 | 7.87091 | 103° | 57km/h | 11979m | -17.6m/s | -54.9°C | 44.6% | -1.0hPa | 2.5V | 00:00:00 | 00:00:00 | 00:00:00 | |
| DH7VM-15 | 2026-09-05 01:09:43 | 46.79611 | 7.87090 | 105° | 57km/h | 11979m | -17.6m/s | -54.9°C | 44.6% | 0hPa | 2.5V | 00:00:00 | 00:00:00 | 00:00:00 | |
| DF1GD-15 | 2026-09-05 01:09:41 | 46.79618 | 7.87050 | 106° | 55km/h | 12012m | -17.4m/s | -55.2°C | 45.6% | 0hPa | 2.5V | 08:17:00 | 00:00:00 | 00:00:00 | |
| IW2NTF | 2026-09-05 01:09:38 | 46.79640 | 7.86934 | 105° | 53km/h | 12112m | -17m/s | -56.1°C | 56.8% | 0hPa | 2.5V | 08:17:26 | 02:34:51 | 00:00:00 | |
| IN3HCDX | 2026-09-05 01:09:34 | 46.79643 | 7.86915 | 106° | 53km/h | 12129m | -16.7m/s | 0°C | 0% | 0hPa | 2.5V | 00:00:00 | 00:00:00 | 00:00:00 | |
| IW2NTF | 2026-09-05 01:09:28 | 46.79676 | 7.86737 | 100° | 57km/h | 12275m | -17.7m/s | -57.6°C | 54.3% | 0hPa | 2.5V | 08:17:36 | 02:34:41 | 00:00:00 | |
| DF1GD-15 | 2026-09-05 01:09:20 | 46.79689 | 7.86634 | 101° | 53km/h | 12363m | -18.0m/s | -58.2°C | 41.1% | 0hPa | 2.5V | 08:18:00 | 00:00:00 | 00:00:00 | |
| DB0UT-7 | 2026-09-05 01:09:19 | 46.79693 | 7.86595 | 100° | 55km/h | 12399m | -17.6m/s | -58.4°C | 50.3% | 0hPa | 2.5V | 00:00:00 | 00:00:00 | 00:00:00 | |
| IW2NTF | 2026-09-05 01:09:18 | 46.79699 | 7.86536 | 97° | 51km/h | 12451m | -17.2m/s | -59°C | 48.8% | 0hPa | 2.6V | 08:17:46 | 02:34:31 | 00:00:00 | |
| HARRO8 | 2026-09-05 01:09:13 | 46.79705 | 7.86443 | 94° | 49km/h | 12537m | -17.0m/s | -59.7°C | 36.1% | -1.0hPa | 2.5V | 00:00:00 | 00:00:00 | 00:00:00 | |
| IW2NTF | 2026-09-05 01:09:08 | 46.79711 | 7.86350 | 95° | 55km/h | 12624m | -17.4m/s | -60.5°C | 45.1% | 0hPa | 2.5V | 08:17:56 | 02:34:21 | 00:00:00 | |
| DF1GD-15 | 2026-09-05 01:08:59 | 46.79717 | 7.86229 | 93° | 57km/h | 12726m | -18.1m/s | -61.4°C | 31.0% | 0hPa | 2.6V | 08:18:00 | 00:00:00 | 00:00:00 | |
| IW2NTF | 2026-09-05 01:08:58 | 46.79719 | 7.86146 | 89° | 58km/h | 12797m | -18.5m/s | -61.8°C | 36.8% | 0hPa | 2.6V | 08:18:06 | 02:34:11 | 00:00:00 | |
| DB0UT-7 | 2026-09-05 01:08:49 | 46.79714 | 7.85999 | 84° | 69km/h | 12921m | -18.4m/s | -61.8°C | 31.8% | 0hPa | 2.5V | 00:00:00 | 02:34:04 | 00:00:00 | |
| IW2NTF | 2026-09-05 01:08:48 | 46.79710 | 7.85935 | 84° | 57km/h | 12975m | -18.6m/s | -62.3°C | 31.1% | 0hPa | 2.5V | 08:18:16 | 02:34:01 | 00:00:00 | |
| HASLITAL | 2026-09-05 01:08:46 | 46.79712 | 7.85957 | 84° | 57km/h | 12957m | -18.6m/s | -62.2°C | 23.0% | 0hPa | 2.5V | 08:18:00 | 00:00:00 | 00:00:00 | |
| HARRO8 | 2026-09-05 01:08:42 | 46.79706 | 7.85850 | 86° | 57km/h | 13047m | -17.7m/s | -62.7°C | 21.0% | -1.0hPa | 2.5V | 00:00:00 | 00:00:00 | 00:00:00 | |
| DF1GD-15 | 2026-09-05 01:08:39 | 46.79705 | 7.85805 | 88° | 58km/h | 13083m | -17.9m/s | -62.9°C | 20.7% | 0hPa | 2.5V | 08:18:00 | 00:00:00 | 00:00:00 | |
| IW2NTF | 2026-09-05 01:08:38 | 46.79703 | 7.85710 | 88° | 66km/h | 13154m | -18.1m/s | -62.5°C | 25% | 0hPa | 2.5V | 08:18:26 | 02:33:51 | 00:00:00 | |
| IW2NTF | 2026-09-05 01:08:28 | 46.79692 | 7.85431 | 86° | 84km/h | 13335m | -18.3m/s | -62.4°C | 18.8% | 0hPa | 2.6V | 08:18:36 | 02:33:41 | 00:00:00 | |
| HASLITAL | 2026-09-05 01:08:25 | 46.79692 | 7.85431 | 87° | 84km/h | 13335m | -18.3m/s | -62.4°C | 12.5% | 0hPa | 2.5V | 08:19:00 | 00:00:00 | 00:00:00 | |
| IW2NTF | 2026-09-05 01:08:19 | 46.79697 | 7.85120 | 95° | 82km/h | 13516m | -19.3m/s | -62.5°C | 16.7% | 0hPa | 2.5V | 08:18:46 | 02:33:31 | 00:00:00 | |
| HARRO8 | 2026-09-05 01:08:11 | 46.79709 | 7.84968 | 97° | 80km/h | 13610m | -18.3m/s | -63.0°C | 10.0% | -1.0hPa | 2.5V | 00:00:00 | 00:00:00 | 00:00:00 | |
| IW2NTF | 2026-09-05 01:08:08 | 46.79721 | 7.84821 | 96° | 78km/h | 13700m | -19.1m/s | -63.2°C | 15.4% | 0hPa | 2.5V | 08:18:56 | 02:33:21 | 00:00:00 | |
| HASLITAL | 2026-09-05 01:08:04 | 46.79723 | 7.84792 | 97° | 80km/h | 13720m | -18.6m/s | -63.2°C | 9.3% | 0hPa | 2.6V | 08:19:00 | 00:00:00 | 00:00:00 | |
| IW2NTF | 2026-09-05 01:07:58 | 46.79739 | 7.84518 | 94° | 86km/h | 13889m | -19.4m/s | -63.5°C | 13.5% | 0hPa | 2.6V | 08:19:06 | 02:33:11 | 00:00:00 | |
| DF7PN | 2026-09-05 01:07:55 | 46.79742 | 7.84487 | 94° | 86km/h | 13908m | -19.6m/s | -63.6°C | 7.5% | -1.0hPa | 2.5V | 00:00:00 | 00:00:00 | 00:00:00 | |
| DH7VM-15 | 2026-09-05 01:07:52 | 46.79746 | 7.84424 | 97° | 84km/h | 13946m | -20.0m/s | -63.7°C | 7.4% | 0hPa | 2.5V | 00:00:00 | 00:00:00 | 00:00:00 | |
| IW2NTF | 2026-09-05 01:07:51 | 46.79767 | 7.84214 | 97° | 78km/h | 14081m | -19.7m/s | -63.8°C | 12.4% | 0hPa | 2.5V | 08:19:16 | 02:33:01 | 00:00:00 | |
| DB0UT-7 | 2026-09-05 01:07:49 | 46.79757 | 7.84302 | 98° | 82km/h | 14022m | -20.0m/s | -63.7°C | 12.7% | 0hPa | 2.6V | 00:00:00 | 02:33:04 | 00:00:00 | |
| IW2NTF | 2026-09-05 01:07:41 | 46.79782 | 7.83919 | 90° | 82km/h | 14277m | -20.4m/s | -64°C | 11.2% | 0hPa | 2.5V | 08:19:26 | 02:32:51 | 00:00:00 | |
| HARRO8 | 2026-09-05 01:07:40 | 46.79781 | 7.84039 | 92° | 77km/h | 14197m | -20.3m/s | -64.2°C | 6.0% | -1.0hPa | 2.6V | 00:00:00 | 00:00:00 | 00:00:00 | |
| DF1GD-15 | 2026-09-05 01:07:38 | 46.79782 | 7.84010 | 93° | 78km/h | 14217m | -20.7m/s | -64.1°C | 6.1% | 0hPa | 2.6V | 08:20:00 | 00:00:00 | 00:00:00 | |
| DL1ZP-14 | 2026-09-05 01:07:37 | 46.79782 | 7.83950 | 89° | 80km/h | 14257m | -20.5m/s | -63.9°C | 5.5% | -1.0hPa | 2.6V | 00:00:00 | 00:00:00 | 00:00:00 | |
| IW2NTF | 2026-09-05 01:07:31 | 46.79784 | 7.83597 | 92° | 88km/h | 14485m | -19.3m/s | -62.8°C | 9.6% | 0hPa | 2.6V | 08:19:36 | 02:32:41 | 00:00:00 | |
| DF7PN | 2026-09-05 01:07:24 | 46.79786 | 7.83531 | 94° | 86km/h | 14526m | -19.6m/s | -62.5°C | 4.3% | -1.0hPa | 2.5V | 00:00:00 | 00:00:00 | 00:00:00 | |
| HASLITAL | 2026-09-05 01:07:23 | 46.79786 | 7.83531 | 95° | 86km/h | 14526m | -19.6m/s | -62.5°C | 4.6% | 0hPa | 2.5V | 08:20:00 | 00:00:00 | 00:00:00 | |
| IW2NTF | 2026-09-05 01:07:21 | 46.79799 | 7.83278 | 93° | 84km/h | 14686m | -20.3m/s | -62°C | 8.7% | 0hPa | 2.5V | 08:19:46 | 02:32:31 | 00:00:00 | |
| DB0UT-7 | 2026-09-05 01:07:19 | 46.79795 | 7.83372 | 95° | 80km/h | 14626m | -19.8m/s | -62.1°C | 9.0% | 0hPa | 2.5V | 00:00:00 | 00:00:00 | 00:00:00 | |
| DF1GD-15 | 2026-09-05 01:07:17 | 46.79796 | 7.83340 | 96° | 86km/h | 14646m | -19.7m/s | -62.0°C | 4.2% | 0hPa | 2.5V | 08:20:00 | 00:00:00 | 00:00:00 | |
| IW2NTF | 2026-09-05 01:07:11 | 46.79818 | 7.82971 | 94° | 84km/h | 14885m | -21.6m/s | -61.8°C | 8.2% | 0hPa | 2.5V | 08:19:56 | 02:32:21 | 00:00:00 | |
| HARRO8 | 2026-09-05 01:07:09 | 46.79811 | 7.83062 | 94° | 82km/h | 14825m | -20.7m/s | -62.0°C | 3.6% | -1.0hPa | 2.5V | 00:00:00 | 00:00:00 | 00:00:00 | |
| DL1ZP-14 | 2026-09-05 01:07:06 | 46.79818 | 7.82971 | 94° | 82km/h | 14885m | -21.6m/s | -61.8°C | 3.6% | -1.0hPa | 2.5V | 00:00:00 | 00:00:00 | 00:00:00 | |
| HASLITAL | 2026-09-05 01:07:02 | 46.79823 | 7.82881 | 95° | 82km/h | 14948m | -21.6m/s | -61.7°C | 3.8% | 0hPa | 2.6V | 08:20:00 | 00:00:00 | 00:00:00 | |
| IW2NTF | 2026-09-05 01:07:01 | 46.79837 | 7.82677 | 97° | 77km/h | 15092m | -21.4m/s | -61.7°C | 8.1% | 0hPa | 2.6V | 08:20:06 | 02:32:11 | 00:00:00 | |
| DF7PN | 2026-09-05 01:06:53 | 46.79867 | 7.82432 | 102° | 69km/h | 15286m | -21.0m/s | -61.6°C | 3.2% | -1.0hPa | 2.5V | 00:00:00 | 00:00:00 | 00:00:00 | |
| IW2NTF | 2026-09-05 01:06:51 | 46.79871 | 7.82407 | 102° | 69km/h | 15307m | -21m/s | -61.4°C | 7.7% | 0hPa | 2.5V | 08:20:16 | 02:32:01 | 00:00:00 | |
| DB0UT-7 | 2026-09-05 01:06:49 | 46.79860 | 7.82484 | 103° | 57km/h | 15243m | -21.3m/s | -61.6°C | 7.9% | 0hPa | 2.5V | 00:00:00 | 02:32:04 | 00:00:00 | |
| DH7VM-15 | 2026-09-05 01:06:47 | 46.79863 | 7.82458 | 103° | 71km/h | 15265m | -21.4m/s | -61.5°C | 3.4% | 0hPa | 2.5V | 00:00:00 | 00:00:00 | 00:00:00 | |
| IW2NTF | 2026-09-05 01:06:41 | 46.79893 | 7.82186 | 92° | 51km/h | 15523m | -20.6m/s | -60.2°C | 6.6% | 0hPa | 2.5V | 08:20:26 | 02:31:51 | 00:00:00 | |
| HARRO8 | 2026-09-05 01:06:38 | 46.79891 | 7.82225 | 95° | 55km/h | 15480m | -21.1m/s | -60.5°C | 2.7% | -1.0hPa | 2.5V | 00:00:00 | 00:00:00 | 00:00:00 | |
| DL1ZP-14 | 2026-09-05 01:06:35 | 46.79893 | 7.82167 | 90° | 49km/h | 15544m | -20.5m/s | -60.3°C | 2.6% | -1.0hPa | 2.5V | 00:00:00 | 00:00:00 | 00:00:00 | |
| IW2NTF | 2026-09-05 01:06:31 | 46.79890 | 7.82003 | 86° | 51km/h | 15729m | -22.7m/s | -60.6°C | 6.4% | 0hPa | 2.6V | 08:20:36 | 02:31:41 | 00:00:00 | |
| DF7PN | 2026-09-05 01:06:22 | 46.79887 | 7.81930 | 83° | 49km/h | 15818m | -23.4m/s | -60.9°C | 2.4% | -1.0hPa | 2.6V | 00:00:00 | 00:00:00 | 00:00:00 | |
| IW2NTF | 2026-09-05 01:06:21 | 46.79878 | 7.81818 | 81° | 51km/h | 15952m | -23.1m/s | -60.9°C | 6.2% | 0hPa | 2.6V | 08:20:46 | 02:31:31 | 00:00:00 | |
| HASLITAL | 2026-09-05 01:06:20 | 46.79886 | 7.81912 | 84° | 49km/h | 15840m | -23.3m/s | -60.9°C | 2.7% | 0hPa | 2.5V | 08:20:00 | 00:00:00 | 00:00:00 | |
| DB0UT-7 | 2026-09-05 01:06:19 | 46.79883 | 7.81875 | 82° | 55km/h | 15885m | -22.2m/s | -60.5°C | 6.2% | 0hPa | 2.5V | 08:20:00 | 00:00:00 | 00:00:00 | |
| DF1GD-15 | 2026-09-05 01:06:15 | 46.79878 | 7.81818 | 83° | 51km/h | 15952m | -23.1m/s | -60.9°C | 2.5% | 0hPa | 2.5V | 08:20:00 | 00:00:00 | 00:00:00 | |
| IW2NTF | 2026-09-05 01:06:11 | 46.79864 | 7.81613 | 86° | 53km/h | 16179m | -22.7m/s | -62°C | 6.6% | 0hPa | 2.5V | 08:20:56 | 02:31:21 | 00:00:00 | |
| HARRO8 | 2026-09-05 01:06:07 | 46.79864 | 7.81613 | 86° | 51km/h | 16179m | -22.7m/s | -62.1°C | 2.3% | -1.0hPa | 2.6V | 00:00:00 | 00:00:00 | 00:00:00 | |
| DL1ZP-14 | 2026-09-05 01:06:04 | 46.79862 | 7.81574 | 85° | 51km/h | 16225m | -21.7m/s | -62.2°C | 2.3% | -1.0hPa | 2.6V | 00:00:00 | 00:00:00 | 00:00:00 | |
| IW2NTF | 2026-09-05 01:06:01 | 46.79848 | 7.81425 | 81° | 55km/h | 16403m | -23.4m/s | -62.2°C | 7% | 0hPa | 2.5V | 08:21:06 | 02:31:11 | 00:00:00 | |
| HASLITAL | 2026-09-05 01:06:00 | 46.79858 | 7.81517 | 83° | 49km/h | 16290m | -22.1m/s | -62.1°C | 2.5% | 0hPa | 2.5V | 08:21:00 | 00:00:00 | 00:00:00 | |
| DF1GD-15 | 2026-09-05 01:05:54 | 46.79846 | 7.81406 | 84° | 57km/h | 16427m | -22.8m/s | -62.2°C | 2.6% | 0hPa | 2.5V | 08:21:00 | 00:00:00 | 00:00:00 | |
| IW2NTF | 2026-09-05 01:05:51 | 46.79834 | 7.81205 | 85° | 64km/h | 16637m | -24.3m/s | -62.8°C | 7.1% | 0hPa | 2.5V | 08:21:16 | 02:31:01 | 00:00:00 | |
| DF7PN | 2026-09-05 01:05:51 | 46.79838 | 7.81298 | 83° | 60km/h | 16541m | -24.4m/s | -62.3°C | 2.2% | -1.0hPa | 2.6V | 00:00:00 | 00:00:00 | 00:00:00 | |
| DB0UT-7 | 2026-09-05 01:05:49 | 46.79837 | 7.81275 | 85° | 68km/h | 16565m | -24.0m/s | -62.4°C | 7.0% | 0hPa | 2.6V | 00:00:00 | 02:31:04 | 00:00:00 | |
| DH7VM-15 | 2026-09-05 01:05:43 | 46.79831 | 7.81157 | 87° | 66km/h | 16684m | -24.5m/s | -63.0°C | 2.4% | 0hPa | 2.6V | 00:00:00 | 00:00:00 | 00:00:00 | |
| IW2NTF | 2026-09-05 01:05:41 | 46.79827 | 7.80963 | 91° | 64km/h | 16880m | -22.9m/s | -59.8°C | 5.7% | 0hPa | 2.6V | 08:21:26 | 02:30:51 | 00:00:00 | |
| HASLITAL | 2026-09-05 01:05:40 | 46.79829 | 7.81083 | 90° | 64km/h | 16757m | -24.1m/s | -61.5°C | 2.2% | 0hPa | 2.6V | 08:21:00 | 00:00:00 | 00:00:00 | |
| DF1GD-15 | 2026-09-05 01:05:33 | 46.79829 | 7.80915 | 95° | 66km/h | 16926m | -23.2m/s | -60.0°C | 2.0% | 0hPa | 2.6V | 08:21:00 | 00:00:00 | 00:00:00 | |
| IW2NTF | 2026-09-05 01:05:31 | 46.79847 | 7.80710 | 100° | 77km/h | 17114m | -24m/s | -59.9°C | 5.8% | 0hPa | 2.6V | 08:21:36 | 02:30:41 | 00:00:00 | |
| IW2NTF | 2026-09-05 01:05:21 | 46.79889 | 7.80468 | 106° | 53km/h | 17358m | -25.1m/s | -57.8°C | 4.8% | 0hPa | 2.5V | 08:21:46 | 02:30:31 | 00:00:00 | |
| DF7PN | 2026-09-05 01:05:20 | 46.79876 | 7.80529 | 104° | 64km/h | 17283m | -25.5m/s | -58.7°C | 1.4% | -1.0hPa | 2.5V | 00:00:00 | 00:00:00 | 00:00:00 | |
| DB0UT-7 | 2026-09-05 01:05:19 | 46.79875 | 7.80529 | 105° | 47km/h | 17284m | -25.5m/s | -58.6°C | 5.2% | 0hPa | 2.5V | 00:00:00 | 00:00:00 | 00:00:00 | |
| DF1GD-15 | 2026-09-05 01:05:13 | 46.79896 | 7.80434 | 106° | 47km/h | 17407m | -25.3m/s | -57.7°C | 1.5% | 0hPa | 2.5V | 08:21:00 | 00:00:00 | 00:00:00 | |
| IW2NTF | 2026-09-05 01:05:11 | 46.79910 | 7.80318 | 89° | 37km/h | 17607m | -25.6m/s | -57.2°C | 4.5% | 0hPa | 2.5V | 08:21:56 | 02:30:21 | 00:00:00 | |
| HARRO8 | 2026-09-05 01:05:05 | 46.79909 | 7.80304 | 89° | 35km/h | 17632m | -25.8m/s | -57.2°C | 1.2% | -1.0hPa | 2.5V | 00:00:00 | 00:00:00 | 00:00:00 | |
| DL1ZP-14 | 2026-09-05 01:05:02 | 46.79909 | 7.80029 | 100° | 58km/h | 18017m | -25.9m/s | -58.2°C | 1.3% | -1.0hPa | 2.5V | 00:00:00 | 00:00:00 | 00:00:00 | |
| IW2NTF | 2026-09-05 01:05:01 | 46.79903 | 7.80152 | 89° | 53km/h | 17863m | -25.3m/s | -57.8°C | 4.8% | 0hPa | 2.5V | 08:22:06 | 02:30:11 | 00:00:00 | |
| HASLITAL | 2026-09-05 01:04:59 | 46.79906 | 7.80226 | 87° | 46km/h | 17762m | -25.1m/s | -57.5°C | 1.4% | 0hPa | 2.6V | 08:22:00 | 00:00:00 | 00:00:00 | |
| DF1GD-15 | 2026-09-05 01:04:53 | 46.79903 | 7.80112 | 93° | 57km/h | 17915m | -25.5m/s | -58.2°C | 1.5% | 0hPa | 2.6V | 08:22:00 | 00:00:00 | 00:00:00 | |
| IW2NTF | 2026-09-05 01:04:51 | 46.79924 | 7.79953 | 107° | 51km/h | 18119m | -26.7m/s | -57.8°C | 4.9% | 0hPa | 2.6V | 08:22:16 | 02:30:01 | 00:00:00 | |
| DF7PN | 2026-09-05 01:04:49 | 46.79916 | 7.79989 | 105° | 55km/h | 18069m | -25.7m/s | -58.1°C | 1.3% | -1.0hPa | 2.6V | 00:00:00 | 00:00:00 | 00:00:00 | |
| IW2NTF | 2026-09-05 01:04:41 | 46.79949 | 7.79829 | 93° | 27km/h | 18387m | -27m/s | -57.3°C | 4.6% | 0hPa | 2.6V | 08:22:26 | 02:29:51 | 00:00:00 | |
| HASLITAL | 2026-09-05 01:04:38 | 46.79945 | 7.79859 | 100° | 29km/h | 18305m | -27.0m/s | -57.1°C | 1.4% | 0hPa | 2.5V | 08:22:00 | 00:00:00 | 00:00:00 | |
| DH7VM-15 | 2026-09-05 01:04:35 | 46.79949 | 7.79829 | 95° | 27km/h | 18387m | -27.0m/s | -57.3°C | 1.2% | 0hPa | 2.5V | 00:00:00 | 00:00:00 | 00:00:00 | |
| HARRO8 | 2026-09-05 01:04:34 | 46.79951 | 7.79808 | 93° | 29km/h | 18441m | -26.9m/s | -57.5°C | 1.2% | -1.0hPa | 2.5V | 00:00:00 | 00:00:00 | 00:00:00 | |
| DF1GD-15 | 2026-09-05 01:04:30 | 46.79953 | 7.79774 | 100° | 31km/h | 18525m | -27.4m/s | -58.0°C | 1.4% | 0hPa | 2.5V | 08:22:00 | 00:00:00 | 00:00:00 | |
| IW2NTF | 2026-09-05 01:04:22 | 46.80016 | 7.79615 | 140° | 33km/h | 18896m | -26.5m/s | -56.8°C | 4.4% | 0hPa | 2.5V | 08:22:45 | 02:29:32 | 00:00:00 | |
| DB0UT-7 | 2026-09-05 01:04:19 | 46.80003 | 7.79632 | 137° | 22km/h | 18844m | -26.6m/s | -56.8°C | 4.4% | 0hPa | 2.5V | 00:00:00 | 00:00:00 | 00:00:00 | |
| HASLITAL | 2026-09-05 01:04:17 | 46.80010 | 7.79623 | 141° | 37km/h | 18870m | -25.9m/s | -56.8°C | 1.2% | 0hPa | 2.5V | 08:23:00 | 00:00:00 | 00:00:00 | |
| DF1GD-15 | 2026-09-05 01:04:09 | 46.80048 | 7.79569 | 114° | 18km/h | 19084m | -28.3m/s | -57.3°C | 1.3% | 0hPa | 2.5V | 08:23:00 | 00:00:00 | 00:00:00 | |
| IW2NTF | 2026-09-05 01:04:04 | 46.80053 | 7.79519 | 92° | 18km/h | 19281m | -28.2m/s | -57.5°C | 4.7% | 0hPa | 2.5V | 08:22:59 | 02:29:18 | 00:00:00 | |
| HARRO8 | 2026-09-05 01:04:03 | 46.80053 | 7.79519 | 92° | 18km/h | 19281m | -28.2m/s | -57.5°C | 1.1% | -1.0hPa | 2.6V | 00:00:00 | 00:00:00 | 00:00:00 | |
| DL1ZP-14 | 2026-09-05 01:04:00 | 46.80055 | 7.79491 | 105° | 18km/h | 19394m | -27.7m/s | -57.7°C | 1.1% | -1.0hPa | 2.6V | 00:00:00 | 00:00:00 | 00:00:00 | |
| HASLITAL | 2026-09-05 01:03:56 | 46.80059 | 7.79477 | 111° | 18km/h | 19449m | -27.7m/s | -57.3°C | 1.3% | 0hPa | 2.6V | 08:23:00 | 00:00:00 | 00:00:00 | |
| IW2NTF | 2026-09-05 01:03:54 | 46.80064 | 7.79450 | 104° | 18km/h | 19557m | -27.7m/s | -56.5°C | 4.3% | 0hPa | 2.6V | 08:23:09 | 02:29:08 | 00:00:00 | |
| DF7PN | 2026-09-05 01:03:47 | 46.80071 | 7.79414 | 101° | 7km/h | 19753m | -29.2m/s | -56.3°C | 1.0% | -1.0hPa | 2.5V | 00:00:00 | 00:00:00 | 00:00:00 | |
| DF1GD-15 | 2026-09-05 01:03:45 | 46.80071 | 7.79414 | 103° | 7km/h | 19753m | -29.2m/s | -56.3°C | 1.2% | 0hPa | 2.5V | 08:23:00 | 00:00:00 | 00:00:00 | |
| IW2NTF | 2026-09-05 01:03:44 | 46.80074 | 7.79409 | 116° | 4km/h | 19839m | -29.7m/s | -56.4°C | 4.4% | 0hPa | 2.5V | 08:23:19 | 02:28:58 | 00:00:00 | |
| DM7RM-13 | 2026-09-05 01:03:40 | 46.80075 | 7.79406 | 120° | 5km/h | 19898m | -29.3m/s | -56.6°C | 1.2% | 0hPa | 2.5V | 00:00:00 | 00:00:00 | 00:00:00 | |
| HASLITAL | 2026-09-05 01:03:36 | 46.80079 | 7.79395 | 109° | 11km/h | 20013m | -27.9m/s | -57.3°C | 1.3% | 0hPa | 2.5V | 08:23:00 | 00:00:00 | 00:00:00 | |
| IW2NTF | 2026-09-05 01:03:35 | 46.80079 | 7.79374 | 85° | 18km/h | 20121m | -26.2m/s | -56.9°C | 4.6% | 0hPa | 2.5V | 08:23:29 | 02:28:48 | 00:00:00 | |
| HARRO8 | 2026-09-05 01:03:32 | 46.80077 | 7.79361 | 81° | 18km/h | 20175m | -26.1m/s | -57.0°C | 1.0% | -1.0hPa | 2.6V | 00:00:00 | 00:00:00 | 00:00:00 | |
| DH7VM-15 | 2026-09-05 01:03:30 | 46.80077 | 7.79361 | 83° | 20km/h | 20175m | -26.1m/s | -57.0°C | 1.1% | 0hPa | 2.6V | 00:00:00 | 00:00:00 | 00:00:00 | |
| DL1ZP-14 | 2026-09-05 01:03:28 | 46.80073 | 7.79334 | 76° | 27km/h | 20254m | -27.1m/s | -56.5°C | 1.0% | -1.0hPa | 2.6V | 00:00:00 | 00:00:00 | 00:00:00 | |
| IW2NTF | 2026-09-05 01:03:24 | 46.80062 | 7.79281 | 74° | 31km/h | 20385m | -27m/s | -55.1°C | 4% | 0hPa | 2.6V | 08:23:39 | 02:28:38 | 00:00:00 | |
| DB0UT-7 | 2026-09-05 01:03:19 | 46.80055 | 7.79241 | 80° | 20km/h | 20496m | -27.2m/s | -55.5°C | 4.1% | 0hPa | 2.5V | 00:00:00 | 00:00:00 | 00:00:00 | |
| HASLITAL | 2026-09-05 01:03:15 | 46.80056 | 7.79215 | 105° | 26km/h | 20579m | -28.4m/s | -55.7°C | 1.1% | 0hPa | 2.6V | 08:24:00 | 00:00:00 | 00:00:00 | |
| IW2NTF | 2026-09-05 01:03:14 | 46.80063 | 7.79185 | 111° | 33km/h | 20664m | -28.6m/s | -56.2°C | 4.5% | 0hPa | 2.6V | 08:23:49 | 02:28:28 | 00:00:00 | |
| DM0DOS-11 | 2026-09-05 01:03:13 | 46.80079 | 7.79147 | 128° | 27km/h | 20778m | -28.7m/s | -56.3°C | 4.6% | 0hPa | 2.5V | 08:23:53 | 02:28:24 | 00:00:00 | |
| DM7RM-13 | 2026-09-05 01:03:08 | 46.80079 | 7.79147 | 129° | 27km/h | 20778m | -28.7m/s | -56.3°C | 1.2% | 0hPa | 2.5V | 00:00:00 | 00:00:00 | 00:00:00 | |
| DF1GD-15 | 2026-09-05 01:03:04 | 46.80096 | 7.79123 | 134° | 20km/h | 20893m | -29.6m/s | -55.9°C | 1.2% | 0hPa | 2.5V | 08:24:00 | 00:00:00 | 00:00:00 | |
| IW2NTF | 2026-09-05 01:03:04 | 46.80102 | 7.79114 | 113° | 13km/h | 20952m | -30.8m/s | -55.3°C | 4.2% | 0hPa | 2.5V | 08:23:59 | 02:28:18 | 00:00:00 | |
| HARRO8 | 2026-09-05 01:03:01 | 46.80103 | 7.79102 | 84° | 13km/h | 21042m | -29.3m/s | -55.4°C | 0.9% | -1.0hPa | 2.5V | 00:00:00 | 00:00:00 | 00:00:00 | |
| DL1ZP-14 | 2026-09-05 01:02:57 | 46.80100 | 7.79085 | 73° | 15km/h | 21129m | -29.1m/s | -55.9°C | 0.9% | -1.0hPa | 2.5V | 00:00:00 | 00:00:00 | 00:00:00 | |
| IW2NTF | 2026-09-05 01:02:54 | 46.80098 | 7.79063 | 92° | 15km/h | 21245m | -28.5m/s | -55°C | 4.2% | 0hPa | 2.5V | 08:24:09 | 02:28:08 | 00:00:00 | |
| DM0DOS-11 | 2026-09-05 01:02:53 | 46.80100 | 7.79049 | 127° | 9km/h | 21329m | -27.2m/s | -54.3°C | 3.9% | 0hPa | 2.6V | 08:24:12 | 02:28:05 | 00:00:00 | |
| DO3MHA-11 | 2026-09-05 01:02:50 | 46.80100 | 7.79049 | 128° | 9km/h | 21330m | -27.2m/s | -54.3°C | 3.9% | 0hPa | 2.5V | 00:00:00 | 02:28:05 | 00:00:00 | |
| DB0UT-7 | 2026-09-05 01:02:49 | 46.80101 | 7.79046 | 132° | 18km/h | 21357m | -27.7m/s | -54.4°C | 3.9% | 0hPa | 2.5V | 00:00:00 | 02:28:04 | 00:00:00 | |
| DM7RM-13 | 2026-09-05 01:02:46 | 46.80104 | 7.79040 | 127° | 13km/h | 21412m | -27.9m/s | -54.5°C | 1.0% | 0hPa | 2.5V | 00:00:00 | 00:00:00 | 00:00:00 | |
| IW2NTF | 2026-09-05 01:02:44 | 46.80110 | 7.79030 | 110° | 9km/h | 21517m | -27.8m/s | -54.2°C | 3.9% | 0hPa | 2.5V | 08:24:19 | 02:27:58 | 00:00:00 | |
| DM0DOS-11 | 2026-09-05 01:02:43 | 46.80112 | 7.79021 | 84° | 7km/h | 21599m | -27.1m/s | -54.5°C | 4% | 0hPa | 2.6V | 08:24:22 | 02:27:55 | 00:00:00 | |
| IW2NTF | 2026-09-05 01:02:38 | 46.80105 | 7.78999 | 77° | 15km/h | 21791m | -28.8m/s | -54.6°C | 4.1% | 0hPa | 2.5V | 08:24:29 | 02:27:48 | 00:00:00 | |
| DM0DOS-11 | 2026-09-05 01:02:35 | 46.80106 | 7.78976 | 103° | 24km/h | 21880m | -28.5m/s | -54.6°C | 4.2% | 0hPa | 2.6V | 08:24:32 | 02:27:45 | 00:00:00 | |
| HASLITAL | 2026-09-05 01:02:33 | 46.80107 | 7.79004 | 63° | 16km/h | 21762m | -29.1m/s | -54.8°C | 1.0% | 0hPa | 2.5V | 08:25:00 | 00:00:00 | 00:00:00 | |
| HARRO8 | 2026-09-05 01:02:30 | 46.80109 | 7.78966 | 109° | 31km/h | 21907m | -26.5m/s | -54.7°C | 0.9% | -1.0hPa | 2.5V | 00:00:00 | 00:00:00 | 00:00:00 | |
| DL1ZP-14 | 2026-09-05 01:02:26 | 46.80122 | 7.78933 | 133° | 35km/h | 21979m | -21.4m/s | -54.5°C | 0.8% | -1.0hPa | 2.5V | 00:00:00 | 00:00:00 | 00:00:00 | |
| DM0DOS-11 | 2026-09-05 01:02:25 | 46.80165 | 7.78902 | 171° | 22km/h | 22111m | -21.8m/s | -53.7°C | 3.9% | 0hPa | 2.6V | 08:24:42 | 02:27:35 | 00:00:00 | |
| BIOWL1-15 | 2026-09-05 01:02:17 | 46.80172 | 7.78902 | 75° | 13km/h | 22316m | -24.6m/s | -53°C | 0% | 0hPa | 2.5V | 08:25:14 | 02:27:26 | 00:00:00 | |
| IW2NTF | 2026-09-05 01:02:16 | 46.80174 | 7.78907 | 47° | 9km/h | 22269m | -24m/s | -53°C | 3.7% | 0hPa | 2.5V | 08:24:49 | 02:27:28 | 00:00:00 | |
| DM0DOS-11 | 2026-09-05 01:02:15 | 46.80172 | 7.78898 | 91° | 13km/h | 22340m | -23.8m/s | -53°C | 3.7% | 0hPa | 2.6V | 08:24:52 | 02:27:25 | 00:00:00 | |
| BIOWL1-15 | 2026-09-05 01:02:07 | 46.80175 | 7.78886 | 138° | 11km/h | 22410m | -22.7m/s | -53.4°C | 0% | 0hPa | 2.5V | 08:25:14 | 02:27:22 | 00:00:00 | |
| IW2NTF | 2026-09-05 01:02:07 | 46.80182 | 7.78880 | 145° | 5km/h | 22499m | -23.1m/s | -53.1°C | 3.8% | 0hPa | 2.5V | 08:24:59 | 02:27:18 | 00:00:00 | |
| BIOWL1-15 | 2026-09-05 01:01:58 | 46.80172 | 7.78871 | 9° | 9km/h | 22660m | -23.2m/s | -52.9°C | 0% | 0hPa | 2.5V | 08:25:14 | 02:27:11 | 00:00:00 | |
| DM0DOS-11 | 2026-09-05 01:01:57 | 46.80168 | 7.78871 | 5° | 11km/h | 22705m | -23.2m/s | -53°C | 3.8% | 0hPa | 2.6V | 08:25:08 | 02:27:09 | 00:00:00 | |
| IW2NTF | 2026-09-05 01:01:56 | 46.80165 | 7.78870 | 16° | 11km/h | 22727m | -24m/s | -53°C | 3.8% | 0hPa | 2.5V | 08:25:09 | 02:27:08 | 00:00:00 | |
| DL1ZP-14 | 2026-09-05 01:01:55 | 46.80170 | 7.78871 | 359° | 9km/h | 22683m | -22.8m/s | -53.0°C | 0.8% | -1.0hPa | 2.6V | 00:00:00 | 00:00:00 | 00:00:00 | |
| BIOWL9-15 | 2026-09-05 01:01:51 | 46.80159 | 7.78867 | 18° | 15km/h | 22773m | -23.9m/s | -53.1°C | 0.7% | -1.0hPa | 2.6V | 00:00:00 | 00:00:00 | 00:00:00 | |
| DB0UT-7 | 2026-09-05 01:01:49 | 46.80152 | 7.78864 | 14° | 16km/h | 22820m | -24.2m/s | -52.6°C | 3.6% | 0hPa | 2.6V | 08:25:00 | 02:27:04 | 00:00:00 | |
| DM0DOS-11 | 2026-09-05 01:01:47 | 46.80157 | 7.78850 | 146° | 22km/h | 22936m | -23.6m/s | -52.4°C | 3.5% | 0hPa | 2.6V | 08:25:18 | 02:26:59 | 00:00:00 | |
| BIOWL1-15 | 2026-09-05 01:01:47 | 46.80153 | 7.78854 | 141° | 16km/h | 22913m | -24m/s | -52.4°C | 0% | 0hPa | 2.6V | 08:26:05 | 02:27:00 | 00:00:00 | |
| IW2NTF | 2026-09-05 01:01:46 | 46.80162 | 7.78846 | 153° | 24km/h | 22960m | -24.1m/s | -52.5°C | 3.5% | 0hPa | 2.5V | 08:25:19 | 02:26:58 | 00:00:00 | |
| DF1GD-15 | 2026-09-05 01:01:42 | 46.80162 | 7.78846 | 154° | 24km/h | 22960m | -24.1m/s | -52.5°C | 0.8% | 0hPa | 2.5V | 08:26:00 | 00:00:00 | 00:00:00 | |
| DM0DOS-11 | 2026-09-05 01:01:39 | 46.80221 | 7.78865 | 255° | 13km/h | 23198m | -24.1m/s | -52.5°C | 3.5% | 0hPa | 2.5V | 08:25:29 | 02:26:48 | 00:00:00 | |
| DO3MHA-11 | 2026-09-05 01:01:39 | 46.80191 | 7.78839 | 185° | 16km/h | 23054m | -24.2m/s | -52.5°C | 3.5% | 0hPa | 2.5V | 00:00:00 | 02:26:54 | 00:00:00 | |
| IW2NTF | 2026-09-05 01:01:35 | 46.80221 | 7.78865 | 255° | 13km/h | 23198m | -24.1m/s | -52.5°C | 3.5% | 0hPa | 2.5V | 08:25:29 | 02:26:48 | 00:00:00 | |
| BIOWL1-15 | 2026-09-05 01:01:35 | 46.80217 | 7.78854 | 226° | 24km/h | 23150m | -24.1m/s | -52.5°C | 0% | 0hPa | 2.6V | 08:26:05 | 02:26:50 | 00:00:00 | |
| HASLITAL | 2026-09-05 01:01:32 | 46.80221 | 7.78865 | 257° | 13km/h | 23198m | -24.1m/s | -52.5°C | 0.8% | 0hPa | 2.6V | 08:26:00 | 00:00:00 | 00:00:00 | |
| DO3MHA-11 | 2026-09-05 01:01:29 | 46.80217 | 7.78884 | 320° | 9km/h | 23297m | -25.4m/s | -52.7°C | 3.5% | 0hPa | 2.6V | 00:00:00 | 02:26:44 | 00:00:00 | |
| HARRO8 | 2026-09-05 01:01:28 | 46.80213 | 7.78890 | 314° | 13km/h | 23346m | -23.1m/s | -52.9°C | 0.7% | -1.0hPa | 2.5V | 00:00:00 | 00:00:00 | 00:00:00 | |
| IW2NTF | 2026-09-05 01:01:25 | 46.80205 | 7.78897 | 339° | 9km/h | 23441m | -24.7m/s | -52.8°C | 3.6% | 0hPa | 2.5V | 08:25:39 | 02:26:38 | 00:00:00 | |
| BIOWL1-15 | 2026-09-05 01:01:24 | 46.80207 | 7.78896 | 336° | 9km/h | 23416m | -24.3m/s | -52.9°C | 0% | 0hPa | 2.6V | 08:26:05 | 02:26:39 | 00:00:00 | |
| DF1GD-15 | 2026-09-05 01:01:21 | 46.80203 | 7.78898 | 320° | 7km/h | 23466m | -24.4m/s | -52.9°C | 0.8% | 0hPa | 2.5V | 08:26:00 | 00:00:00 | 00:00:00 | |
| BIOWL9-15 | 2026-09-05 01:01:20 | 46.80202 | 7.78903 | 288° | 5km/h | 23515m | -24.0m/s | -52.9°C | 0.7% | -1.0hPa | 2.5V | 00:00:00 | 00:00:00 | 00:00:00 | |
| DO3MHA-11 | 2026-09-05 01:01:19 | 46.80202 | 7.78905 | 268° | 5km/h | 23540m | -24.4m/s | -52.9°C | 3.5% | 0hPa | 2.5V | 00:00:00 | 02:26:34 | 00:00:00 | |
| IW2NTF | 2026-09-05 01:01:15 | 46.80206 | 7.78905 | 194° | 7km/h | 23690m | -25.1m/s | -53°C | 3.5% | 0hPa | 2.5V | 08:25:49 | 02:26:28 | 00:00:00 | |
| BIOWL1-15 | 2026-09-05 01:01:13 | 46.80206 | 7.78905 | 194° | 7km/h | 23690m | -25.1m/s | -53°C | 0% | 0hPa | 2.5V | 08:26:05 | 02:26:28 | 00:00:00 | |
| DF7PN | 2026-09-05 01:01:11 | 46.80210 | 7.78906 | 195° | 9km/h | 23740m | -23.9m/s | -53.3°C | 0.7% | -1.0hPa | 2.6V | 00:00:00 | 00:00:00 | 00:00:00 | |
| DO3MHA-11 | 2026-09-05 01:01:09 | 46.80216 | 7.78908 | 187° | 7km/h | 23789m | -24.8m/s | -53.4°C | 3.6% | 0hPa | 2.6V | 00:00:00 | 02:26:24 | 00:00:00 | |
| IW2NTF | 2026-09-05 01:01:05 | 46.80228 | 7.78915 | 209° | 7km/h | 23941m | -26.6m/s | -54.2°C | 3.9% | 0hPa | 2.6V | 08:25:59 | 02:26:18 | 00:00:00 | |
| BIOWL1-15 | 2026-09-05 01:01:03 | 46.80228 | 7.78915 | 209° | 7km/h | 23941m | -26.6m/s | -54.2°C | 0% | 0hPa | 2.6V | 08:26:05 | 02:26:18 | 00:00:00 | |
| DF1GD-15 | 2026-09-05 01:01:00 | 46.80231 | 7.78916 | 128° | 4km/h | 23993m | -24.9m/s | -54.3°C | 0.9% | 0hPa | 2.5V | 08:26:00 | 00:00:00 | 00:00:00 | |
| DO3MHA-11 | 2026-09-05 01:00:59 | 46.80232 | 7.78913 | 75° | 18km/h | 24041m | -23.4m/s | -54.4°C | 4.1% | 0hPa | 2.5V | 08:26:00 | 02:26:14 | 00:00:00 | |
| DM0DOS-11 | 2026-09-05 01:00:58 | 46.80216 | 7.78891 | 24° | 22km/h | 24178m | -24.8m/s | -54.2°C | 4.1% | 0hPa | 2.5V | 08:26:09 | 02:26:08 | 00:00:00 | |
| BIOWL1-15 | 2026-09-05 01:00:53 | 46.80204 | 7.78880 | 37° | 18km/h | 24250m | -23.3m/s | -54.1°C | 0.2% | 0hPa | 2.6V | 08:26:56 | 02:26:05 | 00:00:00 | |
| BIOWL9-15 | 2026-09-05 01:00:49 | 46.80201 | 7.78877 | 50° | 13km/h | 24274m | -22.7m/s | -54.1°C | 0.8% | -1.0hPa | 2.5V | 00:00:00 | 00:00:00 | 00:00:00 | |
| DL6DJ-15 | 2026-09-05 01:00:46 | 46.80205 | 7.78859 | 116° | 22km/h | 24367m | -24.7m/s | -53.6°C | 0.7% | -1.0hPa | 2.5V | 00:00:00 | 00:00:00 | 00:00:00 | |
| IW2NTF | 2026-09-05 01:00:43 | 46.80209 | 7.78846 | 107° | 18km/h | 24416m | -25.3m/s | -53.5°C | 4% | 0hPa | 2.5V | 08:26:19 | 02:25:58 | 00:00:00 | |
| BIOWL1-15 | 2026-09-05 01:00:40 | 46.80215 | 7.78809 | 134° | 9km/h | 24612m | -35.7m/s | -53°C | 0.1% | 0hPa | 2.5V | 08:26:56 | 02:25:51 | 00:00:00 | |
| DF7PN | 2026-09-05 01:00:40 | 46.80212 | 7.78828 | 92° | 16km/h | 24491m | -26.4m/s | -53.4°C | 0.7% | -1.0hPa | 2.5V | 00:00:00 | 00:00:00 | 00:00:00 | |
| DO3MHA-11 | 2026-09-05 01:00:39 | 46.80212 | 7.78822 | 97° | 13km/h | 24518m | -27.7m/s | -53.3°C | 4.0% | 0hPa | 2.5V | 00:00:00 | 02:25:54 | 00:00:00 | |
| IW2NTF | 2026-09-05 01:00:35 | 46.80225 | 7.78810 | 184° | 11km/h | 24756m | -35.9m/s | -51.6°C | 3.5% | 0hPa | 2.5V | 08:26:30 | 02:25:47 | 00:00:00 | |
| DM7RM-13 | 2026-09-05 01:00:33 | 46.80219 | 7.78808 | 189° | 11km/h | 24684m | -35.9m/s | -52.1°C | 0.8% | 0hPa | 2.6V | 08:26:00 | 00:00:00 | 00:00:00 | |
| HASLITAL | 2026-09-05 01:00:30 | 46.80228 | 7.78810 | 195° | 13km/h | 24790m | -33.8m/s | -51.8°C | 0.8% | 0hPa | 2.6V | 08:26:00 | 00:00:00 | 00:00:00 | |
| DO3MHA-11 | 2026-09-05 01:00:28 | 46.80237 | 7.78817 | 224° | 13km/h | 24884m | -28.8m/s | -52.2°C | 3.8% | 0hPa | 2.6V | 00:00:00 | 02:25:43 | 00:00:00 | |
| HARRO8 | 2026-09-05 01:00:26 | 46.80243 | 7.78829 | 260° | 11km/h | 24969m | -30.1m/s | -52.0°C | 0.7% | -1.0hPa | 2.6V | 00:00:00 | 00:00:00 | 00:00:00 | |
| IW2NTF | 2026-09-05 01:00:24 | 46.80242 | 7.78841 | 298° | 13km/h | 25065m | -34.9m/s | -51.5°C | 3.6% | 0hPa | 2.6V | 08:26:40 | 02:25:37 | 00:00:00 | |
| BIOWL1-15 | 2026-09-05 01:00:15 | 46.80213 | 7.78865 | 330° | 15km/h | 25464m | -42.8m/s | -50.5°C | 0% | 0hPa | 2.5V | 08:26:56 | 02:25:27 | 00:00:00 | |
| IW2NTF | 2026-09-05 01:00:13 | 46.80213 | 7.78865 | 329° | 15km/h | 25464m | -42.8m/s | -50.5°C | 3.4% | 0hPa | 2.5V | 08:26:50 | 02:25:27 | 00:00:00 | |
| BIOWL1-15 | 2026-09-05 01:00:04 | 46.80176 | 7.78872 | 57° | 4km/h | 26049m | -42.1m/s | -49.7°C | 0% | 0hPa | 2.6V | 08:28:38 | 02:25:13 | 00:00:00 | |
| IW2NTF | 2026-09-05 01:00:03 | 46.80180 | 7.78879 | 1° | 7km/h | 25883m | -40.7m/s | -50.1°C | 3.4% | 0hPa | 2.6V | 08:27:00 | 02:25:17 | 00:00:00 | |
| BIOWL1-15 | 2026-09-05 00:59:56 | 46.80179 | 7.78868 | 184° | 9km/h | 26223m | -43.7m/s | -49.3°C | 0% | 0hPa | 2.5V | 08:28:38 | 02:25:09 | 00:00:00 | |
| DM0DOS-11 | 2026-09-05 00:59:55 | 46.80190 | 7.78870 | 175° | 11km/h | 26386m | -35.8m/s | -49.1°C | 3.3% | 0hPa | 2.5V | 08:27:12 | 02:25:05 | 00:00:00 | |
| HARRO8 | 2026-09-05 00:59:54 | 46.80179 | 7.78868 | 184° | 7km/h | 26223m | -43.7m/s | -49.3°C | 0.5% | -1.0hPa | 2.6V | 00:00:00 | 00:00:00 | 00:00:00 | |
| IW2NTF | 2026-09-05 00:59:53 | 46.80184 | 7.78869 | 190° | 11km/h | 26308m | -41.7m/s | -49.2°C | 3.3% | 0hPa | 2.6V | 08:27:10 | 02:25:07 | 00:00:00 | |
| DL1ZP-14 | 2026-09-05 00:59:51 | 46.80187 | 7.78870 | 203° | 9km/h | 26348m | -39.1m/s | -49.2°C | 0.5% | -1.0hPa | 2.5V | 00:00:00 | 00:00:00 | 00:00:00 | |
| BIOWL9-15 | 2026-09-05 00:59:47 | 46.80199 | 7.78873 | 190° | 11km/h | 26490m | -33.9m/s | -48.4°C | 0.5% | -1.0hPa | 2.6V | 00:00:00 | 00:00:00 | 00:00:00 | |
| IW2NTF | 2026-09-05 00:59:43 | 46.80214 | 7.78871 | 145° | 11km/h | 26678m | -39.7m/s | -47.3°C | 2.8% | 0hPa | 2.6V | 08:27:20 | 02:24:57 | 00:00:00 | |
| DM0DOS-11 | 2026-09-05 00:59:43 | 46.80219 | 7.78867 | 149° | 11km/h | 26757m | -41.3m/s | -47.2°C | 2.8% | 0hPa | 2.5V | 08:27:22 | 02:24:55 | 00:00:00 | |
| BIOWL1-15 | 2026-09-05 00:59:43 | 46.80212 | 7.78872 | 167° | 11km/h | 26637m | -40.7m/s | -47.3°C | 0% | 0hPa | 2.6V | 08:28:38 | 02:24:58 | 00:00:00 | |
| DF7PN | 2026-09-05 00:59:38 | 46.80225 | 7.78865 | 180° | 11km/h | 26841m | -39.7m/s | -46.9°C | 0.4% | -1.0hPa | 2.6V | 00:00:00 | 00:00:00 | 00:00:00 | |
| IW2NTF | 2026-09-05 00:59:37 | 46.80244 | 7.78879 | 235° | 15km/h | 27074m | -38.9m/s | -46.5°C | 2.6% | 0hPa | 2.6V | 08:27:30 | 02:24:47 | 00:00:00 | |
| DM0DOS-11 | 2026-09-05 00:59:36 | 46.80248 | 7.78888 | 250° | 13km/h | 27147m | -39.1m/s | -46.7°C | 2.6% | 0hPa | 2.5V | 08:27:32 | 02:24:45 | 00:00:00 | |
| BIOWL1-15 | 2026-09-05 00:59:33 | 46.80246 | 7.78884 | 230° | 16km/h | 27111m | -34.8m/s | -46.7°C | 0% | 0hPa | 2.6V | 08:28:38 | 02:24:46 | 00:00:00 | |
| DM7RM-13 | 2026-09-05 00:59:31 | 46.80244 | 7.78879 | 236° | 15km/h | 27075m | -38.9m/s | -46.5°C | 0.5% | 0hPa | 2.6V | 08:27:00 | 00:00:00 | 00:00:00 | |
| HASLITAL | 2026-09-05 00:59:30 | 46.80246 | 7.78884 | 231° | 16km/h | 27111m | -34.8m/s | -46.7°C | 0.5% | 0hPa | 2.6V | 08:27:00 | 00:00:00 | 00:00:00 | |
| IW2NTF | 2026-09-05 00:59:27 | 46.80231 | 7.78900 | 357° | 16km/h | 27447m | -43.2m/s | -47.1°C | 2.7% | 0hPa | 2.6V | 08:27:40 | 02:24:37 | 00:00:00 | |
| DM0DOS-11 | 2026-09-05 00:59:23 | 46.80225 | 7.78901 | 9° | 7km/h | 27526m | -40.7m/s | -47.3°C | 2.8% | 0hPa | 2.5V | 08:27:42 | 02:24:35 | 00:00:00 | |
| BIOWL1-15 | 2026-09-05 00:59:20 | 46.80225 | 7.78901 | 10° | 7km/h | 27526m | -40.7m/s | -47.3°C | 0% | 0hPa | 2.5V | 08:28:38 | 02:24:35 | 00:00:00 | |
| DB0UT-7 | 2026-09-05 00:59:19 | 46.80224 | 7.78901 | 7° | 11km/h | 27567m | -41.9m/s | -47.2°C | 2.8% | 0hPa | 2.6V | 00:00:00 | 00:00:00 | 00:00:00 | |
| IW2NTF | 2026-09-05 00:59:17 | 46.80231 | 7.78891 | 134° | 11km/h | 27872m | -43.8m/s | -48.1°C | 3.2% | 0hPa | 2.6V | 08:27:50 | 02:24:27 | 00:00:00 | |
| DF1GD-15 | 2026-09-05 00:59:17 | 46.80223 | 7.78901 | 324° | 2km/h | 27609m | -42.9m/s | -47.4°C | 0.5% | 0hPa | 2.5V | 08:27:00 | 00:00:00 | 00:00:00 | |
| BIOWL9-15 | 2026-09-05 00:59:16 | 46.80232 | 7.78891 | 134° | 9km/h | 27872m | -43.8m/s | -48.1°C | 0.5% | -1.0hPa | 2.5V | 00:00:00 | 00:00:00 | 00:00:00 | |
| DM0DOS-11 | 2026-09-05 00:59:15 | 46.80234 | 7.78884 | 111° | 7km/h | 27964m | -46.2m/s | -48.2°C | 3.2% | 0hPa | 2.5V | 08:27:52 | 02:24:25 | 00:00:00 | |
| BIOWL1-15 | 2026-09-05 00:59:11 | 46.80234 | 7.78874 | 122° | 7km/h | 28103m | -46m/s | -47.8°C | 0% | 0hPa | 2.6V | 08:28:38 | 02:24:22 | 00:00:00 | |
| DM7RM-13 | 2026-09-05 00:59:10 | 46.80233 | 7.78887 | 100° | 11km/h | 27918m | -45.6m/s | -48.2°C | 0.6% | 0hPa | 2.5V | 08:28:00 | 00:00:00 | 00:00:00 | |
| HASLITAL | 2026-09-05 00:59:09 | 46.80234 | 7.78884 | 112° | 7km/h | 27964m | -46.2m/s | -48.2°C | 0.6% | 0hPa | 2.5V | 08:28:00 | 00:00:00 | 00:00:00 | |
| IW2NTF | 2026-09-05 00:59:07 | 46.80243 | 7.78862 | 147° | 9km/h | 28347m | -50.7m/s | -47°C | 3.1% | 0hPa | 2.5V | 08:28:00 | 02:24:17 | 00:00:00 | |
| DK5PH-5 | 2026-09-05 00:59:07 | 46.80234 | 7.78874 | 122° | 20km/h | 28104m | -45.9m/s | -47.8°C | 3.2% | 0hPa | 2.6V | 00:00:00 | 02:24:22 | 00:00:00 | |
| DH7VM-15 | 2026-09-05 00:59:05 | 46.80235 | 7.78872 | 122° | 9km/h | 28150m | -47.0m/s | -47.7°C | 0.5% | 0hPa | 2.6V | 00:00:00 | 00:00:00 | 00:00:00 | |
| DM0DOS-11 | 2026-09-05 00:59:03 | 46.80246 | 7.78857 | 104° | 11km/h | 28448m | -49.9m/s | -46.5°C | 3% | 0hPa | 2.6V | 08:28:02 | 02:24:15 | 00:00:00 | |
| IW2NTF | 2026-09-05 00:58:58 | 46.80229 | 7.78825 | 40° | 13km/h | 28850m | -51.9m/s | -44.3°C | 2.6% | 0hPa | 2.5V | 08:28:10 | 02:24:07 | 00:00:00 | |
| DM0DOS-11 | 2026-09-05 00:58:55 | 46.80226 | 7.78816 | 72° | 13km/h | 28956m | -51.2m/s | -43.8°C | 2.4% | 0hPa | 2.6V | 08:28:12 | 02:24:05 | 00:00:00 | |
| BIOWL1-15 | 2026-09-05 00:58:50 | 46.80226 | 7.78816 | 72° | 13km/h | 28956m | -51.2m/s | -43.8°C | 0% | 0hPa | 2.6V | 08:28:38 | 02:24:05 | 00:00:00 | |
| HASLITAL | 2026-09-05 00:58:50 | 46.80226 | 7.78816 | 73° | 13km/h | 28956m | -51.2m/s | -43.8°C | 0.4% | 0hPa | 2.5V | 08:28:00 | 00:00:00 | 00:00:00 | |
| DB0UT-7 | 2026-09-05 00:58:49 | 46.80225 | 7.78812 | 75° | 16km/h | 29007m | -51.1m/s | -43.6°C | 2.4% | 0hPa | 2.5V | 00:00:00 | 02:24:04 | 00:00:00 | |
| IW2NTF | 2026-09-05 00:58:47 | 46.80238 | 7.78795 | 209° | 7km/h | 29366m | -50.9m/s | -43.1°C | 2.3% | 0hPa | 2.5V | 08:28:20 | 02:23:57 | 00:00:00 | |
| BIOWL9-15 | 2026-09-05 00:58:45 | 46.80231 | 7.78798 | 140° | 9km/h | 29217m | -53.5m/s | -43.7°C | 0.3% | -1.0hPa | 2.6V | 00:00:00 | 00:00:00 | 00:00:00 | |
| DM0DOS-11 | 2026-09-05 00:58:43 | 46.80240 | 7.78797 | 269° | 7km/h | 29466m | -52.5m/s | -43°C | 2.3% | 0hPa | 2.6V | 08:28:22 | 02:23:55 | 00:00:00 | |
| BIOWL1-15 | 2026-09-05 00:58:39 | 46.80236 | 7.78809 | 304° | 20km/h | 29620m | -54m/s | -42.8°C | 0% | 0hPa | 2.5V | 08:28:38 | 02:23:52 | 00:00:00 | |
| DF1GD-15 | 2026-09-05 00:58:37 | 46.80238 | 7.78804 | 305° | 15km/h | 29568m | -51.5m/s | -42.8°C | 0.3% | 0hPa | 2.5V | 08:28:00 | 00:00:00 | 00:00:00 | |
| DF7PN | 2026-09-05 00:58:36 | 46.80233 | 7.78815 | 310° | 22km/h | 29672m | -52.9m/s | -42.8°C | 0.3% | -1.0hPa | 2.5V | 00:00:00 | 00:00:00 | 00:00:00 | |
| DM0DOS-11 | 2026-09-05 00:58:35 | 46.80203 | 7.78835 | 2° | 18km/h | 30003m | -55.8m/s | -42.5°C | 2.3% | 0hPa | 2.5V | 08:28:32 | 02:23:45 | 00:00:00 | |
| BIOWL1-15 | 2026-09-05 00:58:27 | 46.80191 | 7.78828 | 52° | 13km/h | 30169m | -56.6m/s | -42.1°C | 0% | 0hPa | 2.6V | 08:28:38 | 02:23:42 | 00:00:00 | |
| DM0DOS-11 | 2026-09-05 00:58:24 | 46.80199 | 7.78778 | 124° | 15km/h | 30616m | -54.9m/s | -41.7°C | 2.2% | 0hPa | 2.6V | 08:30:00 | 02:23:34 | 00:00:00 | |
| HARRO8 | 2026-09-05 00:58:21 | 46.80195 | 7.78789 | 119° | 16km/h | 30506m | -56.2m/s | -42.0°C | 0.3% | -1.0hPa | 2.5V | 00:00:00 | 00:00:00 | 00:00:00 | |
| DL1ZP-14 | 2026-09-05 00:58:19 | 46.80203 | 7.78770 | 104° | 9km/h | 30728m | -56.8m/s | -41.6°C | 0.2% | -1.0hPa | 2.5V | 00:00:00 | 00:00:00 | 00:00:00 | |
| BIOWL1-15 | 2026-09-05 00:58:19 | 46.80202 | 7.78766 | 58° | 13km/h | 30784m | -57.3m/s | -41.6°C | 0% | 0hPa | 2.5V | 08:29:29 | 02:23:31 | 00:00:00 | |
| IW2NTF | 2026-09-05 00:58:18 | 46.80190 | 7.78756 | 16° | 24km/h | 31000m | -52.7m/s | -41.1°C | 2.2% | 0hPa | 2.6V | 08:30:00 | 02:23:27 | 00:00:00 | |
| DF1GD-15 | 2026-09-05 00:58:17 | 46.80201 | 7.78774 | 121° | 13km/h | 30672m | -56.9m/s | -41.6°C | 0.3% | 0hPa | 2.5V | 08:29:00 | 00:00:00 | 00:00:00 | |
| BIOWL9-15 | 2026-09-05 00:58:14 | 46.80198 | 7.78760 | 27° | 13km/h | 30895m | -54.1m/s | -41.5°C | 0.2% | -1.0hPa | 2.5V | 00:00:00 | 00:00:00 | 00:00:00 | |
| DM0DOS-11 | 2026-09-05 00:58:13 | 46.80172 | 7.78745 | 28° | 22km/h | 31162m | -59.3m/s | -40.2°C | 2% | 0hPa | 2.5V | 08:30:00 | 02:23:24 | 00:00:00 | |
| DL6DJ-15 | 2026-09-05 00:58:10 | 46.80168 | 7.78740 | 40° | 18km/h | 31222m | -59.5m/s | -40.3°C | 0.2% | -1.0hPa | 2.5V | 00:00:00 | 00:00:00 | 00:00:00 | |
| IW2NTF | 2026-09-05 00:58:08 | 46.80155 | 7.78696 | 92° | 16km/h | 31570m | -61.5m/s | -39.9°C | 2% | 0hPa | 2.5V | 08:30:00 | 02:23:17 | 00:00:00 | |
| BIOWL1-15 | 2026-09-05 00:58:06 | 46.80161 | 7.78728 | 57° | 20km/h | 31336m | -56.7m/s | -40.3°C | 0% | 0hPa | 2.6V | 08:29:29 | 02:23:21 | 00:00:00 | |
| DF7PN | 2026-09-05 00:58:05 | 46.80158 | 7.78720 | 71° | 22km/h | 31394m | -59.4m/s | -40.3°C | 0.2% | -1.0hPa | 2.6V | 00:00:00 | 00:00:00 | 00:00:00 | |
| DM0DOS-11 | 2026-09-05 00:58:04 | 46.80156 | 7.78676 | 92° | 18km/h | 31751m | -61.3m/s | -39.6°C | 2% | 0hPa | 2.6V | 08:30:00 | 02:23:14 | 00:00:00 | |
| DH7VM-15 | 2026-09-05 00:58:00 | 46.80155 | 7.78690 | 100° | 16km/h | 31632m | -61.6m/s | -39.8°C | 0.2% | 0hPa | 2.6V | 00:00:00 | 00:00:00 | 00:00:00 | |
| IW2NTF | 2026-09-05 00:57:57 | 46.80159 | 7.78616 | 96° | 26km/h | 32140m | -52.9m/s | -38.9°C | 2% | 0hPa | 2.6V | 08:30:00 | 02:23:07 | 00:00:00 | |
| DO3MHA-11 | 2026-09-05 00:57:56 | 46.80157 | 7.78652 | 97° | 26km/h | 31925m | -56.0m/s | -39.8°C | 2.1% | 0hPa | 2.5V | 00:00:00 | 02:23:11 | 00:00:00 | |
| DM0DOS-11 | 2026-09-05 00:57:54 | 46.80169 | 7.78590 | 140° | 26km/h | 32304m | -55m/s | -38.1°C | 1.9% | 0hPa | 2.5V | 08:30:00 | 02:23:04 | 00:00:00 | |
| BIOWL1-15 | 2026-09-05 00:57:51 | 46.80161 | 7.78607 | 116° | 27km/h | 32194m | -55.6m/s | -38.4°C | 0% | 0hPa | 2.5V | 08:29:29 | 02:23:06 | 00:00:00 | |
| HARRO8 | 2026-09-05 00:57:50 | 46.80164 | 7.78598 | 123° | 26km/h | 32249m | -54.5m/s | -38.3°C | 0.2% | -1.0hPa | 2.6V | 00:00:00 | 00:00:00 | 00:00:00 | |
| DB0UT-7 | 2026-09-05 00:57:49 | 46.80169 | 7.78590 | 141° | 24km/h | 32304m | -54.9m/s | -38.1°C | 1.9% | 0hPa | 2.6V | 00:00:00 | 02:23:04 | 00:00:00 | |
| IW2NTF | 2026-09-05 00:57:48 | 46.80217 | 7.78559 | 167° | 33km/h | 32698m | -59.3m/s | -37.4°C | 1.8% | 0hPa | 2.6V | 08:30:00 | 02:22:57 | 00:00:00 | |
| DL1ZP-14 | 2026-09-05 00:57:47 | 46.80186 | 7.78574 | 155° | 29km/h | 32467m | -57.2m/s | -37.8°C | 0.2% | -1.0hPa | 2.5V | 00:00:00 | 00:00:00 | 00:00:00 | |
| DO3MHA-11 | 2026-09-05 00:57:46 | 46.80186 | 7.78573 | 156° | 29km/h | 32467m | -57.2m/s | -37.8°C | 1.9% | 0hPa | 2.5V | 00:00:00 | 02:23:01 | 00:00:00 | |
| DM0DOS-11 | 2026-09-05 00:57:44 | 46.80239 | 7.78548 | 158° | 24km/h | 32885m | -66m/s | -37.4°C | 1.8% | 0hPa | 2.5V | 08:30:00 | 02:22:54 | 00:00:00 | |
| BIOWL1-15 | 2026-09-05 00:57:40 | 46.80233 | 7.78552 | 156° | 31km/h | 32821m | -64.1m/s | -37.4°C | 0% | 0hPa | 2.5V | 08:29:29 | 02:22:55 | 00:00:00 | |
| IW2NTF | 2026-09-05 00:57:38 | 46.80268 | 7.78533 | 175° | 15km/h | 33379m | -72.9m/s | -36.4°C | 1.8% | 0hPa | 2.5V | 08:30:00 | 02:22:47 | 00:00:00 | |
| DO3MHA-11 | 2026-09-05 00:57:36 | 46.80253 | 7.78538 | 155° | 18km/h | 33091m | -72.3m/s | -37.2°C | 1.9% | 0hPa | 2.5V | 00:00:00 | 02:22:51 | 00:00:00 | |
| DF1GD-15 | 2026-09-05 00:57:35 | 46.80253 | 7.78538 | 155° | 15km/h | 33091m | -72.4m/s | -37.3°C | 0.2% | 0hPa | 2.5V | 08:29:00 | 00:00:00 | 00:00:00 | |
| DM0DOS-11 | 2026-09-05 00:57:34 | 46.80283 | 7.78539 | 205° | 22km/h | 33595m | -71.8m/s | -35.7°C | 1.7% | 0hPa | 2.5V | 08:30:00 | 02:22:44 | 00:00:00 | |
| BIOWL1-15 | 2026-09-05 00:57:30 | 46.80277 | 7.78536 | 203° | 22km/h | 33524m | -71.8m/s | -36°C | 0% | 0hPa | 2.5V | 18:12:15 | 02:22:45 | 00:00:00 | |
| IW2NTF | 2026-09-05 00:57:27 | 46.80309 | 7.78591 | 256° | 24km/h | 34090m | -70.3m/s | -33.7°C | 1.4% | 0hPa | 2.5V | 08:30:00 | 02:22:37 | 00:00:00 | |
| HASLITAL | 2026-09-05 00:57:26 | 46.80293 | 7.78548 | 222° | 24km/h | 33739m | -72.7m/s | -34.7°C | 0.2% | 0hPa | 2.6V | 00:00:00 | 00:00:00 | 00:00:00 | |
| DO3MHA-12 | 2026-09-05 00:57:24 | 46.80305 | 7.78572 | 240° | 18km/h | 33953m | -69.0m/s | -34.0°C | 1.5% | 0hPa | 2.6V | 00:00:00 | 02:22:39 | 00:00:00 | |
| DM0DOS-11 | 2026-09-05 00:57:23 | 46.80311 | 7.78615 | 275° | 18km/h | 34298m | -69.5m/s | -33.5°C | 1.4% | 0hPa | 2.6V | 08:30:00 | 02:22:34 | 00:00:00 | |
| BIOWL1-15 | 2026-09-05 00:57:20 | 46.80311 | 7.78608 | 264° | 22km/h | 34229m | -70.1m/s | -33.5°C | 0% | 0hPa | 2.6V | 18:12:15 | 02:22:35 | 00:00:00 | |
| DB0UT-7 | 2026-09-05 00:57:19 | 46.80311 | 7.78615 | 276° | 20km/h | 34299m | -69.5m/s | -33.4°C | 1.4% | 0hPa | 2.6V | 00:00:00 | 00:00:00 | 08:30:00 | |
| IW2NTF | 2026-09-05 00:57:18 | 46.80297 | 7.78651 | 320° | 11km/h | 34773m | -69.8m/s | -33.3°C | 1.4% | 0hPa | 2.5V | 08:30:00 | 02:22:27 | 00:00:00 | |
| DO3MHA-11 | 2026-09-05 00:57:17 | 46.80306 | 7.78634 | 307° | 18km/h | 34503m | -66.4m/s | -32.8°C | 1.3% | 0hPa | 2.6V | 00:00:00 | 02:22:31 | 00:00:00 | |
| DF1GD-15 | 2026-09-05 00:57:16 | 46.80306 | 7.78634 | 308° | 18km/h | 34503m | -66.4m/s | -32.8°C | 0.1% | 0hPa | 2.6V | 00:00:00 | 00:00:00 | 00:00:00 | |
| BIOWL9-15 | 2026-09-05 00:57:12 | 46.80295 | 7.78654 | 299° | 11km/h | 34842m | -68.2m/s | -33.5°C | 0.1% | -1.0hPa | 2.6V | 00:00:00 | 00:00:00 | 00:00:00 | |
| DM0DOS-11 | 2026-09-05 00:57:11 | 46.80290 | 7.78660 | 321° | 16km/h | 34973m | -67m/s | -33.2°C | 1.4% | 0hPa | 2.6V | 08:30:00 | 02:22:24 | 00:00:00 | |
| BIOWL1-15 | 2026-09-05 00:57:09 | 46.80283 | 7.78668 | 323° | 18km/h | 35101m | -61.7m/s | -33.3°C | 0% | 0hPa | 2.6V | 18:12:15 | 02:22:22 | 00:00:00 | |
| IW2NTF | 2026-09-05 00:57:08 | 46.80254 | 7.78694 | 323° | 38km/h | 35389m | -55.2m/s | -33.2°C | 1.4% | 0hPa | 2.6V | 08:30:00 | 02:22:17 | 00:00:00 | |
| DO3MHA-11 | 2026-09-05 00:57:06 | 46.80278 | 7.78673 | 328° | 31km/h | 35161m | -59.3m/s | -33.2°C | 1.4% | 0hPa | 2.6V | 00:00:00 | 02:22:21 | 00:00:00 | |
| DM7RM-13 | 2026-09-05 00:57:05 | 46.80278 | 7.78673 | 329° | 24km/h | 35161m | -59.3m/s | -33.3°C | 0.1% | 0hPa | 2.6V | 00:00:00 | 00:00:00 | 00:00:00 | |
| DF7PN | 2026-09-05 00:57:03 | 46.80254 | 7.78694 | 323° | 38km/h | 35389m | -55.3m/s | -33.2°C | 0.1% | -1.0hPa | 2.6V | 00:00:00 | 00:00:00 | 00:00:00 | |
| DM0DOS-11 | 2026-09-05 00:56:59 | 46.80217 | 7.78734 | 310° | 11km/h | 35727m | -57.7m/s | -33.6°C | 1.4% | 0hPa | 2.6V | 08:30:00 | 02:22:11 | 00:00:00 | |
| BIOWL1-15 | 2026-09-05 00:56:59 | 46.80230 | 7.78719 | 324° | 35km/h | 35552m | -55.4m/s | -33.3°C | 0% | 0hPa | 2.5V | 18:12:15 | 02:22:14 | 00:00:00 | |
| IW2NTF | 2026-09-05 00:56:56 | 46.80211 | 7.78735 | 61° | 13km/h | 36053m | -64.7m/s | -33.1°C | 1.3% | 0hPa | 2.6V | 08:30:00 | 02:22:05 | 00:00:00 | |
| DH7VM-15 | 2026-09-05 00:56:55 | 46.80217 | 7.78734 | 311° | 11km/h | 35727m | -57.7m/s | -33.6°C | 0.1% | 0hPa | 2.6V | 00:00:00 | 00:00:00 | 00:00:00 | |
| DF1GD-15 | 2026-09-05 00:56:54 | 46.80215 | 7.78737 | 321° | 9km/h | 35783m | -53.6m/s | -33.7°C | 0.1% | 0hPa | 2.6V | 00:00:00 | 00:00:00 | 00:00:00 | |
| DM0DOS-11 | 2026-09-05 00:56:49 | 46.80204 | 7.78722 | 15° | 11km/h | 36267m | -40.8m/s | -33.8°C | 1.4% | 0hPa | 2.6V | 08:30:00 | 02:22:01 | 00:00:00 | |
| BIOWL1-15 | 2026-09-05 00:56:49 | 46.80210 | 7.78731 | 59° | 13km/h | 36115m | -60.6m/s | -33.3°C | 0% | 0hPa | 2.5V | 18:12:15 | 02:22:04 | 00:00:00 | |
| HARRO8 | 2026-09-05 00:56:48 | 46.80208 | 7.78727 | 52° | 13km/h | 36173m | -54.8m/s | -33.4°C | 0.1% | -1.0hPa | 2.6V | 00:00:00 | 00:00:00 | 00:00:00 | |
| IW2NTF | 2026-09-05 00:56:46 | 46.80157 | 7.78801 | 298° | 108km/h | 36416m | -26m/s | -33.8°C | 1.3% | 0hPa | 2.6V | 08:30:00 | 02:21:55 | 00:00:00 | |
| DL1ZP-14 | 2026-09-05 00:56:44 | 46.80196 | 7.78723 | 333° | 20km/h | 36335m | -27.0m/s | -33.9°C | 0.1% | -1.0hPa | 2.5V | 00:00:00 | 00:00:00 | 00:00:00 | |
| BIOWL1-15 | 2026-09-05 00:56:38 | 46.80138 | 7.78856 | 300° | 42km/h | 36486m | -42.5m/s | -34.2°C | 0% | 0hPa | 2.5V | 18:12:15 | 02:21:53 | 00:00:00 | |
| DM0DOS-11 | 2026-09-05 00:56:37 | 46.80131 | 7.78868 | 15° | 7km/h | 36562m | -31.9m/s | -34.7°C | 1.5% | 0hPa | 2.6V | 08:30:00 | 02:21:51 | 00:00:00 | |
| DF1GD-15 | 2026-09-05 00:56:34 | 46.80131 | 7.78861 | 93° | 33km/h | 36591m | -25.5m/s | -34.9°C | 0.2% | 0hPa | 2.5V | 00:00:00 | 00:00:00 | 00:00:00 | |
| DF7PN | 2026-09-05 00:56:32 | 46.80123 | 7.78768 | 29° | 53km/h | 36617m | 4.7m/s | -34.9°C | 0.1% | -1.0hPa | 2.5V | 00:00:00 | 00:00:00 | 00:00:00 | |
| DM0DOS-11 | 2026-09-05 00:56:25 | 46.80052 | 7.78849 | 205° | 22km/h | 36576m | 7.1m/s | -34.6°C | 1.5% | 0hPa | 2.5V | 08:30:00 | 02:21:36 | 00:00:00 | |
| DO3MHA-11 | 2026-09-05 00:56:24 | 46.80052 | 7.78809 | 296° | 57km/h | 36589m | 2.0m/s | -34.7°C | 1.5% | 0hPa | 2.5V | 00:00:00 | 02:21:39 | 00:00:00 | |
| BIOWL1-15 | 2026-09-05 00:56:24 | 46.80048 | 7.78828 | 277° | 47km/h | 36586m | 2.7m/s | -34.7°C | 0% | 0hPa | 2.5V | 18:12:15 | 02:21:38 | 00:00:00 | |
| DM7RM-13 | 2026-09-05 00:56:23 | 46.80053 | 7.78809 | 296° | 62km/h | 36589m | 2.1m/s | -34.7°C | 0.2% | 0hPa | 2.5V | 00:00:00 | 00:00:00 | 00:00:00 | |
| DB0UT-7 | 2026-09-05 00:56:19 | 46.80062 | 7.78839 | 113° | 46km/h | 36562m | 6.2m/s | -34.5°C | 1.5% | 0hPa | 2.5V | 00:00:00 | 00:00:00 | 00:00:00 | |
| HARRO8 | 2026-09-05 00:56:18 | 46.80060 | 7.78808 | 61° | 47km/h | 36554m | 2.6m/s | -34.5°C | 0.1% | -1.0hPa | 2.5V | 00:00:00 | 00:00:00 | 00:00:00 | |
| IW2NTF | 2026-09-05 00:56:14 | 46.79985 | 7.78875 | 261° | 44km/h | 36514m | 3.5m/s | -34.4°C | 1.5% | 0hPa | 2.5V | 08:30:00 | 02:21:24 | 00:00:00 | |
| DF1GD-15 | 2026-09-05 00:56:14 | 46.80040 | 7.78787 | 12° | 55km/h | 36548m | 4.4m/s | -34.5°C | 0.1% | 0hPa | 2.5V | 00:00:00 | 00:00:00 | 00:00:00 | |
| DM0DOS-11 | 2026-09-05 00:56:13 | 46.79990 | 7.78834 | 293° | 69km/h | 36521m | 4.5m/s | -34.4°C | 1.5% | 0hPa | 2.5V | 08:30:00 | 02:21:26 | 00:00:00 | |
| BIOWL1-15 | 2026-09-05 00:56:13 | 46.80012 | 7.78796 | 329° | 68km/h | 36534m | 7.9m/s | -34.4°C | 0% | 0hPa | 2.6V | 18:12:15 | 02:21:28 | 00:00:00 | |
| BIOWL9-15 | 2026-09-05 00:56:10 | 46.79985 | 7.78875 | 261° | 44km/h | 36514m | 3.5m/s | -34.4°C | 0.1% | -1.0hPa | 2.5V | 00:00:00 | 00:00:00 | 00:00:00 | |
| DO3MHA-11 | 2026-09-05 00:56:09 | 46.79985 | 7.78875 | 262° | 53km/h | 36514m | 3.4m/s | -34.3°C | 1.5% | 0hPa | 2.5V | 00:00:00 | 02:21:24 | 00:00:00 | |
| DL6DJ-15 | 2026-09-05 00:56:06 | 46.79996 | 7.78869 | 70° | 40km/h | 36483m | 4.7m/s | -34.2°C | 0.1% | -1.0hPa | 2.5V | 00:00:00 | 00:00:00 | 00:00:00 | |
| IW2NTF | 2026-09-05 00:56:04 | 46.79942 | 7.78857 | 320° | 62km/h | 36457m | 7m/s | -34°C | 1.5% | 0hPa | 2.5V | 08:30:00 | 02:21:14 | 00:00:00 | |
| DM0DOS-11 | 2026-09-05 00:56:03 | 46.79969 | 7.78842 | 359° | 53km/h | 36470m | 5m/s | -34.1°C | 1.5% | 0hPa | 2.6V | 08:30:00 | 02:21:16 | 00:00:00 | |
| BIOWL1-15 | 2026-09-05 00:56:03 | 46.79991 | 7.78855 | 47° | 46km/h | 36478m | 3.5m/s | -34.1°C | 0% | 0hPa | 2.5V | 18:12:15 | 02:21:18 | 00:00:00 | |
| DF7PN | 2026-09-05 00:56:01 | 46.79955 | 7.78846 | 339° | 57km/h | 36465m | 6.6m/s | -34.1°C | 0.1% | -1.0hPa | 2.6V | 00:00:00 | 00:00:00 | 00:00:00 | |
| HASLITAL | 2026-09-05 00:55:58 | 46.79942 | 7.78857 | 322° | 62km/h | 36458m | 7.0m/s | -34.0°C | 0.1% | 0hPa | 2.6V | 00:00:00 | 00:00:00 | 00:00:00 | |
| DO3MHA-11 | 2026-09-05 00:55:55 | 46.79921 | 7.78933 | 261° | 31km/h | 36436m | 4.4m/s | -33.9°C | 1.4% | 0hPa | 2.6V | 00:00:00 | 02:21:10 | 00:00:00 | |
| IW2NTF | 2026-09-05 00:55:54 | 46.79924 | 7.78924 | 41° | 37km/h | 36400m | 4.4m/s | -33.9°C | 1.4% | 0hPa | 2.6V | 08:30:00 | 02:21:04 | 00:00:00 | |
| BIOWL1-15 | 2026-09-05 00:55:54 | 46.79930 | 7.78950 | 132° | 15km/h | 36418m | 7.3m/s | -33.9°C | 0% | 0hPa | 2.5V | 18:12:15 | 02:21:07 | 00:00:00 | |
| DM0DOS-11 | 2026-09-05 00:55:53 | 46.79932 | 7.78943 | 88° | 24km/h | 36410m | 6.7m/s | -33.9°C | 1.4% | 0hPa | 2.5V | 08:30:00 | 02:21:06 | 00:00:00 | |
| HARRO8 | 2026-09-05 00:55:46 | 46.79894 | 7.78919 | 338° | 47km/h | 36386m | 5.7m/s | -33.9°C | 0.1% | -1.0hPa | 2.5V | 00:00:00 | 00:00:00 | 00:00:00 | |
| DM0DOS-11 | 2026-09-05 00:55:45 | 46.79864 | 7.78995 | 265° | 40km/h | 36356m | 4.8m/s | -33.9°C | 1.4% | 0hPa | 2.5V | 08:30:00 | 02:20:56 | 00:00:00 | |
| IW2NTF | 2026-09-05 00:55:45 | 46.79868 | 7.79016 | 232° | 18km/h | 36345m | 6.3m/s | -33.9°C | 1.4% | 0hPa | 2.5V | 08:30:00 | 02:20:54 | 00:00:00 | |
| BIOWL1-15 | 2026-09-05 00:55:42 | 46.79864 | 7.78995 | 266° | 40km/h | 36356m | 4.9m/s | -33.9°C | 0% | 0hPa | 2.5V | 18:12:15 | 02:20:56 | 00:00:00 | |
| DM7RM-13 | 2026-09-05 00:55:38 | 46.79868 | 7.79016 | 234° | 18km/h | 36345m | 6.3m/s | -33.9°C | 0.1% | 0hPa | 2.5V | 00:00:00 | 00:00:00 | 00:00:00 | |
| HASLITAL | 2026-09-05 00:55:37 | 46.79871 | 7.79019 | 190° | 9km/h | 36339m | 6.8m/s | -34.0°C | 0.1% | 0hPa | 2.5V | 00:00:00 | 00:00:00 | 00:00:00 | |
| DL6DJ-15 | 2026-09-05 00:55:35 | 46.79867 | 7.79005 | 17° | 18km/h | 36315m | 5.2m/s | -34.1°C | 0.1% | -1.0hPa | 2.5V | 00:00:00 | 00:00:00 | 00:00:00 | |
| IW2NTF | 2026-09-05 00:55:34 | 46.79840 | 7.79044 | 292° | 46km/h | 36284m | 5.2m/s | -34°C | 1.4% | 0hPa | 2.5V | 08:30:00 | 02:20:44 | 00:00:00 | |
| DM0DOS-11 | 2026-09-05 00:55:33 | 46.79850 | 7.79018 | 309° | 37km/h | 36296m | 6.7m/s | -34°C | 1.4% | 0hPa | 2.6V | 08:30:00 | 02:20:46 | 00:00:00 | |
| BIOWL1-15 | 2026-09-05 00:55:29 | 46.79840 | 7.79044 | 292° | 46km/h | 36284m | 5.2m/s | -34°C | 0% | 0hPa | 2.5V | 18:12:15 | 02:20:44 | 00:00:00 | |
| DM0DOS-11 | 2026-09-05 00:55:25 | 46.79831 | 7.79086 | 45° | 2km/h | 36235m | 4.5m/s | -33.9°C | 1.4% | 0hPa | 2.6V | 08:30:00 | 02:20:35 | 00:00:00 | |
| BIOWL1-15 | 2026-09-05 00:55:17 | 46.79824 | 7.79112 | 295° | 38km/h | 36210m | 5.8m/s | -34°C | 0% | 0hPa | 2.5V | 18:12:15 | 02:20:31 | 00:00:00 | |
| HASLITAL | 2026-09-05 00:55:16 | 46.79827 | 7.79101 | 291° | 31km/h | 36217m | 6.6m/s | -34.0°C | 0.1% | 0hPa | 2.5V | 00:00:00 | 00:00:00 | 00:00:00 | |
| HARRO8 | 2026-09-05 00:55:15 | 46.79819 | 7.79125 | 301° | 40km/h | 36205m | 4.7m/s | -34.0°C | 0.1% | -1.0hPa | 2.5V | 00:00:00 | 00:00:00 | 00:00:00 | |
| DO3MHA-11 | 2026-09-05 00:55:14 | 46.79813 | 7.79137 | 312° | 24km/h | 36201m | 4.0m/s | -33.9°C | 1.5% | 0hPa | 2.5V | 00:00:00 | 02:20:29 | 00:00:00 | |
| DM0DOS-11 | 2026-09-05 00:55:13 | 46.79788 | 7.79149 | 38° | 22km/h | 36176m | 6.5m/s | -34.1°C | 1.5% | 0hPa | 2.5V | 08:30:00 | 02:20:25 | 00:00:00 | |
| IW2NTF | 2026-09-05 00:55:12 | 46.79786 | 7.79134 | 149° | 9km/h | 36161m | 4.3m/s | -34.1°C | 1.4% | 0hPa | 2.6V | 08:30:00 | 02:20:22 | 00:00:00 | |
| BIOWL1-15 | 2026-09-05 00:55:07 | 46.79792 | 7.79165 | 278° | 46km/h | 36137m | 5.5m/s | -34.1°C | 0% | 0hPa | 2.6V | 18:12:15 | 02:20:18 | 00:00:00 | |
| DM0DOS-11 | 2026-09-05 00:55:05 | 46.79774 | 7.79209 | 326° | 47km/h | 36123m | 6.1m/s | -34.1°C | 1.4% | 0hPa | 2.5V | 08:30:00 | 02:20:15 | 00:00:00 | |
| DO3MHA-11 | 2026-09-05 00:55:04 | 46.79793 | 7.79150 | 263° | 40km/h | 36144m | 6.7m/s | -34.1°C | 1.4% | 0hPa | 2.5V | 00:00:00 | 02:20:19 | 00:00:00 | |
| DL6DJ-15 | 2026-09-05 00:55:03 | 46.79732 | 7.79190 | 116° | 9km/h | 36088m | 5.9m/s | -34.0°C | 0.1% | -1.0hPa | 2.6V | 00:00:00 | 00:00:00 | 00:00:00 | |
| IW2NTF | 2026-09-05 00:55:00 | 46.79733 | 7.79195 | 70° | 20km/h | 36093m | 4.5m/s | -34°C | 1.4% | 0hPa | 2.6V | 08:30:00 | 02:20:10 | 00:00:00 | |
| BIOWL1-15 | 2026-09-05 00:54:53 | 46.79734 | 7.79189 | 201° | 15km/h | 36081m | 6.9m/s | -34°C | 0% | 0hPa | 2.5V | 18:12:15 | 02:20:08 | 00:00:00 | |
| DM0DOS-11 | 2026-09-05 00:54:53 | 46.79742 | 7.79219 | 272° | 44km/h | 36064m | 4.2m/s | -34°C | 1.4% | 0hPa | 2.6V | 08:30:00 | 02:20:05 | 00:00:00 | |
| DF1GD-15 | 2026-09-05 00:54:51 | 46.79738 | 7.79194 | 236° | 27km/h | 36075m | 6.5m/s | -34.0°C | 0.1% | 0hPa | 2.6V | 00:00:00 | 00:00:00 | 00:00:00 | |
| DO3MHA-12 | 2026-09-05 00:54:50 | 46.79742 | 7.79219 | 273° | 26km/h | 36064m | 4.2m/s | -33.9°C | 1.4% | 0hPa | 2.6V | 00:00:00 | 02:20:05 | 00:00:00 | |
| DB0UT-7 | 2026-09-05 00:54:49 | 46.79740 | 7.79235 | 291° | 33km/h | 36060m | 4.5m/s | -33.9°C | 1.5% | 0hPa | 2.6V | 00:00:00 | 02:20:04 | 00:00:00 | |
| DM0DOS-11 | 2026-09-05 00:54:44 | 46.79671 | 7.79250 | 246° | 22km/h | 36000m | 7.5m/s | -34.1°C | 1.5% | 0hPa | 2.6V | 08:30:00 | 02:19:54 | 00:00:00 | |
| BIOWL1-15 | 2026-09-05 00:54:42 | 46.79673 | 7.79260 | 253° | 35km/h | 35993m | 6.4m/s | -34.1°C | 0% | 0hPa | 2.6V | 18:12:15 | 02:19:53 | 00:00:00 | |
| DH7VM-15 | 2026-09-05 00:54:41 | 46.79673 | 7.79249 | 40° | 24km/h | 36019m | 4.1m/s | -34.1°C | 0.1% | 0hPa | 2.5V | 00:00:00 | 00:00:00 | 00:00:00 | |
| IW2NTF | 2026-09-05 00:54:40 | 46.79673 | 7.79300 | 295° | 35km/h | 35980m | 4.3m/s | -34.1°C | 1.5% | 0hPa | 2.5V | 08:30:00 | 02:19:50 | 00:00:00 | |
| DO3MHA-12 | 2026-09-05 00:54:36 | 46.79675 | 7.79287 | 278° | 31km/h | 35984m | 3.5m/s | -34.1°C | 1.4% | 0hPa | 2.6V | 00:00:00 | 02:19:51 | 00:00:00 | |
| DO3MHA-11 | 2026-09-05 00:54:34 | 46.79668 | 7.79310 | 320° | 29km/h | 35975m | 5.8m/s | -34.1°C | 1.5% | 0hPa | 2.6V | 00:00:00 | 02:19:49 | 00:00:00 | |
| DM0DOS-11 | 2026-09-05 00:54:33 | 46.79625 | 7.79300 | 24° | 31km/h | 35943m | 4m/s | -34°C | 1.4% | 0hPa | 2.5V | 08:30:00 | 02:19:44 | 00:00:00 | |
| BIOWL1-15 | 2026-09-05 00:54:31 | 46.79625 | 7.79300 | 24° | 31km/h | 35943m | 4m/s | -34.1°C | 0% | 0hPa | 2.5V | 18:12:15 | 02:19:44 | 00:00:00 | |
| IW2NTF | 2026-09-05 00:54:29 | 46.79612 | 7.79312 | 270° | 29km/h | 35919m | 6.8m/s | -34°C | 1.4% | 0hPa | 2.5V | 08:30:00 | 02:19:40 | 00:00:00 | |
| DF7PN | 2026-09-05 00:54:27 | 46.79615 | 7.79298 | 329° | 13km/h | 35933m | 6.6m/s | -34.0°C | 0.1% | -1.0hPa | 2.6V | 00:00:00 | 00:00:00 | 00:00:00 | |
| DO3MHA-12 | 2026-09-05 00:54:26 | 46.79612 | 7.79303 | 285° | 29km/h | 35926m | 7.3m/s | -34.0°C | 1.4% | 0hPa | 2.6V | 00:00:00 | 02:19:41 | 00:00:00 | |
| DO3MHA-11 | 2026-09-05 00:54:23 | 46.79612 | 7.79335 | 274° | 24km/h | 35908m | 4.4m/s | -33.9°C | 1.4% | 0hPa | 2.5V | 00:00:00 | 02:19:38 | 00:00:00 | |
| DM0DOS-11 | 2026-09-05 00:54:21 | 46.79599 | 7.79360 | 8° | 24km/h | 35885m | 6.9m/s | -34°C | 1.4% | 0hPa | 2.5V | 08:30:00 | 02:19:34 | 00:00:00 | |
| BIOWL1-15 | 2026-09-05 00:54:18 | 46.79593 | 7.79357 | 23° | 29km/h | 35878m | 6.2m/s | -34°C | 0% | 0hPa | 2.5V | 18:12:15 | 02:19:33 | 00:00:00 | |
| IW2NTF | 2026-09-05 00:54:17 | 46.79575 | 7.79347 | 359° | 20km/h | 35864m | 5.4m/s | -34°C | 1.5% | 0hPa | 2.5V | 08:30:00 | 02:19:30 | 00:00:00 | |
| DO3MHA-12 | 2026-09-05 00:54:16 | 46.79580 | 7.79349 | 20° | 26km/h | 35869m | 4.1m/s | -34.0°C | 1.5% | 0hPa | 2.6V | 00:00:00 | 02:19:31 | 00:00:00 | |
| DM0DOS-11 | 2026-09-05 00:54:14 | 46.79557 | 7.79403 | 296° | 33km/h | 35829m | 4.6m/s | -34.1°C | 1.5% | 0hPa | 2.6V | 08:30:00 | 02:19:24 | 00:00:00 | |
| BIOWL1-15 | 2026-09-05 00:54:07 | 46.79541 | 7.79420 | 2° | 27km/h | 35810m | 7.2m/s | -34.2°C | 0% | 0hPa | 2.5V | 18:12:15 | 02:19:21 | 00:00:00 | |
| IW2NTF | 2026-09-05 00:54:07 | 46.79533 | 7.79418 | 18° | 29km/h | 35803m | 6.4m/s | -34.2°C | 1.5% | 0hPa | 2.6V | 08:30:00 | 02:19:20 | 00:00:00 | |
| BIOWL9-15 | 2026-09-05 00:54:05 | 46.79533 | 7.79418 | 18° | 29km/h | 35804m | 6.4m/s | -34.3°C | 0.1% | -1.0hPa | 2.6V | 00:00:00 | 00:00:00 | 00:00:00 | |
| DM0DOS-11 | 2026-09-05 00:54:04 | 46.79517 | 7.79420 | 260° | 26km/h | 35769m | 6m/s | -34.2°C | 1.5% | 0hPa | 2.6V | 08:30:00 | 02:19:14 | 00:00:00 | |
| DO3MHA-11 | 2026-09-05 00:54:03 | 46.79521 | 7.79409 | 30° | 22km/h | 35794m | 3.9m/s | -34.2°C | 1.5% | 0hPa | 2.5V | 00:00:00 | 02:19:18 | 08:30:00 | |
| DL6DJ-15 | 2026-09-05 00:54:02 | 46.79516 | 7.79407 | 299° | 5km/h | 35783m | 7.3m/s | -34.3°C | 0.1% | -1.0hPa | 2.5V | 00:00:00 | 00:00:00 | 00:00:00 | |
| IW2NTF | 2026-09-05 00:53:57 | 46.79511 | 7.79458 | 322° | 26km/h | 35749m | 6.5m/s | -34.2°C | 1.5% | 0hPa | 2.5V | 08:30:00 | 02:19:10 | 00:00:00 | |
| BIOWL1-15 | 2026-09-05 00:53:56 | 46.79511 | 7.79458 | 323° | 26km/h | 35749m | 6.5m/s | -34.2°C | 0% | 0hPa | 2.5V | 18:12:15 | 02:19:10 | 00:00:00 | |
| DO3MHA-11 | 2026-09-05 00:53:53 | 46.79497 | 7.79461 | 10° | 26km/h | 35735m | 7.5m/s | -34.1°C | 1.5% | 0hPa | 2.5V | 00:00:00 | 02:19:08 | 00:00:00 | |
| DM0DOS-11 | 2026-09-05 00:53:52 | 46.79467 | 7.79444 | 13° | 15km/h | 35716m | 5.4m/s | -34.1°C | 1.5% | 0hPa | 2.5V | 08:30:00 | 02:19:04 | 00:00:00 | |
| DF1GD-15 | 2026-09-05 00:53:50 | 46.79480 | 7.79452 | 27° | 37km/h | 35724m | 3.4m/s | -34.2°C | 0.1% | 0hPa | 2.5V | 00:00:00 | 00:00:00 | 00:00:00 | |
| DO3MHA-12 | 2026-09-05 00:53:49 | 46.79468 | 7.79444 | 14° | 22km/h | 35716m | 5.3m/s | -34.1°C | 1.5% | 0hPa | 2.5V | 00:00:00 | 02:19:04 | 00:00:00 | |
| IW2NTF | 2026-09-05 00:53:47 | 46.79469 | 7.79467 | 252° | 31km/h | 35689m | 4.1m/s | -34°C | 1.5% | 0hPa | 2.5V | 08:30:00 | 02:19:00 | 00:00:00 | |
| BIOWL1-15 | 2026-09-05 00:53:46 | 46.79470 | 7.79478 | 264° | 27km/h | 35686m | 3.3m/s | -34°C | 0% | 0hPa | 2.5V | 18:12:15 | 02:18:59 | 00:00:00 | |
| DO3MHA-11 | 2026-09-05 00:53:42 | 46.79468 | 7.79492 | 323° | 29km/h | 35677m | 6.4m/s | -33.9°C | 1.5% | 0hPa | 2.5V | 00:00:00 | 02:18:57 | 00:00:00 | |
| DM0DOS-11 | 2026-09-05 00:53:41 | 46.79446 | 7.79488 | 22° | 44km/h | 35654m | 5.8m/s | -34°C | 1.5% | 0hPa | 2.5V | 08:30:00 | 02:18:54 | 00:00:00 | |
| DL1ZP-14 | 2026-09-05 00:53:38 | 46.79436 | 7.79483 | 22° | 40km/h | 35650m | 3.3m/s | -34.0°C | 0.1% | -1.0hPa | 2.5V | 00:00:00 | 00:00:00 | 00:00:00 | |
| IW2NTF | 2026-09-05 00:53:37 | 46.79416 | 7.79477 | 320° | 15km/h | 35636m | 7.2m/s | -34°C | 1.4% | 0hPa | 2.6V | 08:30:00 | 02:18:50 | 00:00:00 | |
| BIOWL1-15 | 2026-09-05 00:53:34 | 46.79415 | 7.79483 | 272° | 20km/h | 35629m | 8.1m/s | -34°C | 0% | 0hPa | 2.5V | 18:12:15 | 02:18:49 | 00:00:00 | |
| HASLITAL | 2026-09-05 00:53:33 | 46.79415 | 7.79483 | 273° | 20km/h | 35629m | 8.1m/s | -34.0°C | 0.2% | 0hPa | 2.5V | 00:00:00 | 00:00:00 | 00:00:00 | |
| DO3MHA-12 | 2026-09-05 00:53:32 | 46.79418 | 7.79503 | 254° | 31km/h | 35615m | 5.1m/s | -34.0°C | 1.5% | 0hPa | 2.5V | 00:00:00 | 02:18:47 | 00:00:00 | |
| BIOWL7-15 | 2026-09-05 00:53:31 | 46.79418 | 7.79504 | 255° | 37km/h | 35615m | 5.2m/s | 0°C | 0% | 0hPa | 2.5V | 00:00:00 | 00:00:00 | 00:00:00 | |
| DM0DOS-11 | 2026-09-05 00:53:30 | 46.79419 | 7.79535 | 301° | 22km/h | 35601m | 5.1m/s | -34°C | 1.5% | 0hPa | 2.5V | 08:30:00 | 02:18:44 | 00:00:00 | |
| DO3MHA-11 | 2026-09-05 00:53:30 | 46.79420 | 7.79527 | 273° | 26km/h | 35606m | 4.4m/s | -34.0°C | 1.5% | 0hPa | 2.6V | 00:00:00 | 02:18:45 | 00:00:00 | |
| IW2NTF | 2026-09-05 00:53:27 | 46.79391 | 7.79540 | 11° | 37km/h | 35575m | 5.8m/s | -34.1°C | 1.5% | 0hPa | 2.6V | 08:30:00 | 02:18:40 | 00:00:00 | |
| BIOWL1-15 | 2026-09-05 00:53:24 | 46.79383 | 7.79537 | 13° | 31km/h | 35570m | 5m/s | -34.1°C | 0% | 0hPa | 2.5V | 18:12:15 | 02:18:39 | 00:00:00 | |
| DO3MHA-12 | 2026-09-05 00:53:22 | 46.79371 | 7.79535 | 356° | 26km/h | 35560m | 5.5m/s | -34.0°C | 1.5% | 0hPa | 2.6V | 00:00:00 | 02:18:37 | 00:00:00 | |
| DO3MHA-11 | 2026-09-05 00:53:20 | 46.79367 | 7.79540 | 289° | 24km/h | 35548m | 5.9m/s | -34.0°C | 1.5% | 0hPa | 2.6V | 00:00:00 | 02:18:35 | 00:00:00 | |
| DB0UT-7 | 2026-09-05 00:53:19 | 46.79366 | 7.79544 | 280° | 24km/h | 35542m | 5.6m/s | -33.9°C | 1.5% | 0hPa | 2.6V | 00:00:00 | 00:00:00 | 00:00:00 | |
| IW2NTF | 2026-09-05 00:53:17 | 46.79356 | 7.79567 | 322° | 27km/h | 35519m | 5.9m/s | -33.9°C | 1.4% | 0hPa | 2.6V | 08:30:00 | 02:18:30 | 00:00:00 | |
| BIOWL1-15 | 2026-09-05 00:53:16 | 46.79349 | 7.79573 | 328° | 31km/h | 35513m | 5.9m/s | -33.8°C | 0% | 0hPa | 2.6V | 18:12:15 | 02:18:29 | 00:00:00 | |
| DM0DOS-11 | 2026-09-05 00:53:13 | 46.79317 | 7.79596 | 351° | 15km/h | 35486m | 5.2m/s | -33.6°C | 1.4% | 0hPa | 2.6V | 08:30:00 | 02:18:24 | 00:00:00 | |
| HASLITAL | 2026-09-05 00:53:12 | 46.79342 | 7.79579 | 333° | 35km/h | 35508m | 6.0m/s | -33.8°C | 0.1% | 0hPa | 2.5V | 00:00:00 | 00:00:00 | 00:00:00 | |
| HARRO8 | 2026-09-05 00:53:11 | 46.79328 | 7.79590 | 334° | 29km/h | 35496m | 5.1m/s | -33.7°C | 0.1% | -1.0hPa | 2.5V | 00:00:00 | 00:00:00 | 00:00:00 | |
| DO3MHA-11 | 2026-09-05 00:53:10 | 46.79322 | 7.79594 | 340° | 26km/h | 35492m | 4.9m/s | -33.6°C | 1.4% | 0hPa | 2.5V | 00:00:00 | 02:18:25 | 00:00:00 | |
| IW2NTF | 2026-09-05 00:53:07 | 46.79311 | 7.79586 | 95° | 7km/h | 35463m | 3.9m/s | -33.5°C | 1.4% | 0hPa | 2.5V | 08:30:00 | 02:18:20 | 00:00:00 | |
| BIOWL1-15 | 2026-09-05 00:53:04 | 46.79312 | 7.79587 | 273° | 13km/h | 35455m | 4.8m/s | -33.5°C | 0% | 0hPa | 2.6V | 18:12:15 | 02:18:18 | 00:00:00 | |
| DM0DOS-11 | 2026-09-05 00:53:03 | 46.79303 | 7.79633 | 296° | 46km/h | 35430m | 3.8m/s | -33.6°C | 1.4% | 0hPa | 2.6V | 08:30:00 | 02:18:14 | 00:00:00 | |
| IW2NTF | 2026-09-05 00:52:57 | 46.79279 | 7.79658 | 28° | 22km/h | 35412m | 8m/s | -33.7°C | 1.4% | 0hPa | 2.5V | 08:30:00 | 02:18:10 | 00:00:00 | |
| BIOWL1-15 | 2026-09-05 00:52:56 | 46.79276 | 7.79632 | 118° | 27km/h | 35395m | 2.7m/s | -33.7°C | 0% | 0hPa | 2.5V | 18:12:15 | 02:18:07 | 00:00:00 | |
| DF7PN | 2026-09-05 00:52:54 | 46.79275 | 7.79652 | 67° | 26km/h | 35405m | 7.2m/s | -33.7°C | 0.1% | -1.0hPa | 2.5V | 00:00:00 | 00:00:00 | 00:00:00 | |
| DM0DOS-11 | 2026-09-05 00:52:53 | 46.79290 | 7.79630 | 233° | 29km/h | 35381m | 7m/s | -33.8°C | 1.4% | 0hPa | 2.5V | 08:30:00 | 02:18:04 | 00:00:00 | |
| HASLITAL | 2026-09-05 00:52:51 | 46.79276 | 7.79632 | 119° | 27km/h | 35395m | 2.7m/s | -33.7°C | 0.1% | 0hPa | 2.5V | 00:00:00 | 00:00:00 | 00:00:00 | |
| DB0UT-7 | 2026-09-05 00:52:49 | 46.79290 | 7.79630 | 234° | 38km/h | 35382m | 7.0m/s | -33.7°C | 1.4% | 0hPa | 2.5V | 00:00:00 | 02:18:04 | 08:30:00 | |
| DO3MHA-11 | 2026-09-05 00:52:48 | 46.79293 | 7.79642 | 256° | 40km/h | 35374m | 7.5m/s | -33.7°C | 1.4% | 0hPa | 2.6V | 00:00:00 | 02:18:03 | 00:00:00 | |
| IW2NTF | 2026-09-05 00:52:47 | 46.79287 | 7.79695 | 300° | 49km/h | 35358m | 3.3m/s | -33.8°C | 1.4% | 0hPa | 2.5V | 08:30:00 | 02:18:00 | 00:00:00 | |
| DO3MHA-12 | 2026-09-05 00:52:46 | 46.79292 | 7.79677 | 286° | 38km/h | 35363m | 4.1m/s | -33.7°C | 1.4% | 0hPa | 2.5V | 00:00:00 | 02:18:01 | 00:00:00 | |
| DM0DOS-11 | 2026-09-05 00:52:43 | 46.79262 | 7.79690 | 121° | 27km/h | 35326m | 3.7m/s | -33.8°C | 1.5% | 0hPa | 2.5V | 08:30:00 | 02:17:54 | 00:00:00 | |
| BIOWL1-15 | 2026-09-05 00:52:42 | 46.79266 | 7.79714 | 18° | 26km/h | 35343m | 7.1m/s | -33.8°C | 0% | 0hPa | 2.6V | 18:12:15 | 02:17:57 | 00:00:00 | |
| HARRO8 | 2026-09-05 00:52:40 | 46.79260 | 7.79699 | 92° | 27km/h | 35331m | 5.1m/s | -33.8°C | 0.1% | -1.0hPa | 2.6V | 00:00:00 | 00:00:00 | 00:00:00 | |
| DO3MHA-11 | 2026-09-05 00:52:38 | 46.79266 | 7.79684 | 157° | 24km/h | 35322m | 3.5m/s | -33.8°C | 1.4% | 0hPa | 2.6V | 00:00:00 | 02:17:53 | 00:00:00 | |
| DL1ZP-14 | 2026-09-05 00:52:36 | 46.79277 | 7.79690 | 235° | 31km/h | 35313m | 6.1m/s | -33.9°C | 0.1% | -1.0hPa | 2.6V | 00:00:00 | 00:00:00 | 00:00:00 | |
| DM0DOS-11 | 2026-09-05 00:52:34 | 46.79232 | 7.79775 | 12° | 38km/h | 35275m | 5.3m/s | -33.8°C | 1.5% | 0hPa | 2.5V | 08:30:00 | 02:17:44 | 00:00:00 | |
| BIOWL1-15 | 2026-09-05 00:52:31 | 46.79225 | 7.79769 | 42° | 27km/h | 35269m | 5.5m/s | -33.8°C | 0% | 0hPa | 2.5V | 18:12:15 | 02:17:43 | 00:00:00 | |
| DM7RM-13 | 2026-09-05 00:52:31 | 46.79266 | 7.79756 | 316° | 60km/h | 35289m | 4.5m/s | 0°C | 0% | 0hPa | 2.5V | 00:00:00 | 00:00:00 | 00:00:00 | |
| HASLITAL | 2026-09-05 00:52:30 | 46.79255 | 7.79768 | 333° | 55km/h | 35285m | 4.3m/s | -33.8°C | 0.2% | 0hPa | 2.5V | 00:00:00 | 00:00:00 | 00:00:00 | |
| IW2NTF | 2026-09-05 00:52:27 | 46.79227 | 7.79753 | 182° | 22km/h | 35253m | 5m/s | -33.7°C | 1.4% | 0hPa | 2.5V | 08:30:00 | 02:17:40 | 00:00:00 | |
| DF1GD-15 | 2026-09-05 00:52:27 | 46.79222 | 7.79762 | 83° | 22km/h | 35264m | 5.4m/s | -33.8°C | 0.2% | 0hPa | 2.5V | 00:00:00 | 00:00:00 | 00:00:00 | |
| DO3MHA-11 | 2026-09-05 00:52:24 | 46.79233 | 7.79757 | 222° | 47km/h | 35249m | 4.9m/s | -33.7°C | 1.4% | 0hPa | 2.5V | 00:00:00 | 02:17:39 | 00:00:00 | |
| DF7PN | 2026-09-05 00:52:23 | 46.79237 | 7.79768 | 250° | 38km/h | 35243m | 5.3m/s | -33.8°C | 0.1% | -1.0hPa | 2.5V | 00:00:00 | 00:00:00 | 00:00:00 | |
| DM0DOS-11 | 2026-09-05 00:52:22 | 46.79216 | 7.79841 | 324° | 69km/h | 35220m | 5.3m/s | -33.8°C | 1.4% | 0hPa | 2.5V | 08:30:00 | 02:17:34 | 00:00:00 | |
| BIOWL1-15 | 2026-09-05 00:52:19 | 46.79216 | 7.79841 | 325° | 69km/h | 35220m | 5.3m/s | -33.8°C | 0% | 0hPa | 2.5V | 18:12:15 | 02:17:34 | 00:00:00 | |
| DB0UT-7 | 2026-09-05 00:52:19 | 46.79216 | 7.79840 | 325° | 53km/h | 35220m | 5.3m/s | -33.7°C | 1.4% | 0hPa | 2.5V | 00:00:00 | 00:00:00 | 00:00:00 | |
| IW2NTF | 2026-09-05 00:52:17 | 46.79162 | 7.79850 | 32° | 33km/h | 35200m | 5.4m/s | -33.8°C | 1.5% | 0hPa | 2.5V | 08:30:00 | 02:17:30 | 00:00:00 | |
| DO3MHA-11 | 2026-09-05 00:52:13 | 46.79157 | 7.79839 | 141° | 33km/h | 35190m | 5.2m/s | -33.7°C | 1.4% | 0hPa | 2.5V | 00:00:00 | 02:17:28 | 08:30:00 | |
| DM0DOS-11 | 2026-09-05 00:52:12 | 46.79164 | 7.79882 | 284° | 60km/h | 35170m | 5.3m/s | -33.8°C | 1.4% | 0hPa | 2.5V | 08:30:00 | 02:17:24 | 00:00:00 | |
| BIOWL1-15 | 2026-09-05 00:52:08 | 46.79158 | 7.79904 | 301° | 71km/h | 35164m | 5.9m/s | -33.8°C | 0% | 0hPa | 2.5V | 18:12:15 | 02:17:23 | 00:00:00 | |
| IW2NTF | 2026-09-05 00:52:06 | 46.79111 | 7.79950 | 347° | 77km/h | 35147m | 4.8m/s | -33.9°C | 1.4% | 0hPa | 2.5V | 08:30:00 | 02:17:20 | 00:00:00 | |
| DF1GD-15 | 2026-09-05 00:52:06 | 46.79146 | 7.79924 | 318° | 77km/h | 35158m | 5.9m/s | -33.8°C | 0.2% | 0hPa | 2.5V | 00:00:00 | 00:00:00 | 00:00:00 | |
| DL1ZP-14 | 2026-09-05 00:52:05 | 46.79093 | 7.79953 | 1° | 66km/h | 35143m | 4.8m/s | -33.9°C | 0.1% | -1.0hPa | 2.5V | 00:00:00 | 00:00:00 | 00:00:00 | |
| DM0DOS-11 | 2026-09-05 00:52:02 | 46.79061 | 7.79937 | 239° | 16km/h | 35114m | 5.1m/s | -34°C | 1.5% | 0hPa | 2.5V | 08:30:00 | 02:17:14 | 00:00:00 | |
| IW2NTF | 2026-09-05 00:52:01 | 46.79049 | 7.79998 | 310° | 71km/h | 35093m | 6m/s | -34.1°C | 1.5% | 0hPa | 2.5V | 08:30:00 | 02:17:10 | 00:00:00 | |
| BIOWL1-15 | 2026-09-05 00:51:57 | 46.79062 | 7.79959 | 280° | 47km/h | 35104m | 4.7m/s | -34.1°C | 0% | 0hPa | 2.6V | 18:12:15 | 02:17:12 | 00:00:00 | |
| DM0DOS-11 | 2026-09-05 00:51:52 | 46.78948 | 7.80038 | 15° | 42km/h | 35061m | 5.4m/s | -34°C | 1.5% | 0hPa | 2.5V | 08:30:00 | 02:17:04 | 00:00:00 | |
| IW2NTF | 2026-09-05 00:51:51 | 46.78933 | 7.80050 | 278° | 38km/h | 35037m | 5.5m/s | -34°C | 1.5% | 0hPa | 2.5V | 08:30:00 | 02:17:00 | 00:00:00 | |
| BIOWL1-15 | 2026-09-05 00:51:46 | 46.78934 | 7.80039 | 277° | 22km/h | 35043m | 5.7m/s | -34°C | 0% | 0hPa | 2.6V | 18:12:15 | 02:17:01 | 00:00:00 | |
| DF1GD-15 | 2026-09-05 00:51:45 | 46.78934 | 7.80039 | 278° | 22km/h | 35043m | 5.7m/s | -34.0°C | 0.2% | 0hPa | 2.5V | 00:00:00 | 00:00:00 | 00:00:00 | |
| DM0DOS-11 | 2026-09-05 00:51:43 | 46.78870 | 7.80148 | 344° | 68km/h | 35004m | 5.6m/s | -33.9°C | 1.5% | 0hPa | 2.5V | 08:30:00 | 02:16:54 | 00:00:00 | |
| DO3MHA-11 | 2026-09-05 00:51:43 | 46.78925 | 7.80086 | 299° | 58km/h | 35027m | 5.5m/s | -33.9°C | 1.4% | 0hPa | 2.5V | 00:00:00 | 02:16:58 | 00:00:00 | |
| DK5PH-5 | 2026-09-05 00:51:41 | 46.78902 | 7.80125 | 322° | 37km/h | 35015m | 5.6m/s | -33.9°C | 1.5% | 0hPa | 2.5V | 00:00:00 | 02:16:56 | 00:00:00 | |
| IW2NTF | 2026-09-05 00:51:40 | 46.78829 | 7.80148 | 11° | 13km/h | 34980m | 5.6m/s | -34°C | 1.4% | 0hPa | 2.5V | 08:30:00 | 02:16:50 | 00:00:00 | |
| BIOWL1-15 | 2026-09-05 00:51:36 | 46.78834 | 7.80150 | 15° | 29km/h | 34986m | 5.9m/s | -34°C | 0% | 0hPa | 2.6V | 18:12:15 | 02:16:51 | 00:00:00 | |
| DL1ZP-14 | 2026-09-05 00:51:34 | 46.78827 | 7.80155 | 266° | 22km/h | 34969m | 5.8m/s | -34.0°C | 0.1% | -1.0hPa | 2.5V | 00:00:00 | 00:00:00 | 00:00:00 | |
| DM0DOS-11 | 2026-09-05 00:51:33 | 46.78814 | 7.80218 | 303° | 60km/h | 34944m | 5.9m/s | -34.1°C | 1.4% | 0hPa | 2.5V | 08:30:00 | 02:16:44 | 00:00:00 | |
| DO3MHA-11 | 2026-09-05 00:51:33 | 46.78827 | 7.80155 | 267° | 27km/h | 34969m | 5.8m/s | -34.0°C | 1.5% | 0hPa | 2.5V | 00:00:00 | 02:16:48 | 00:00:00 | |
| IW2NTF | 2026-09-05 00:51:30 | 46.78772 | 7.80266 | 340° | 42km/h | 34921m | 5.5m/s | -34.2°C | 1.5% | 0hPa | 2.5V | 08:30:00 | 02:16:40 | 00:00:00 | |
| BIOWL1-15 | 2026-09-05 00:51:28 | 46.78782 | 7.80259 | 333° | 51km/h | 34927m | 5.3m/s | -34.2°C | 0% | 0hPa | 2.6V | 18:12:15 | 02:16:41 | 00:00:00 | |
| DF1GD-15 | 2026-09-05 00:51:24 | 46.78772 | 7.80266 | 342° | 42km/h | 34922m | 5.5m/s | -34.2°C | 0.2% | 0hPa | 2.5V | 00:00:00 | 00:00:00 | 00:00:00 | |
| DM0DOS-11 | 2026-09-05 00:51:23 | 46.78752 | 7.80298 | 269° | 31km/h | 34886m | 5.3m/s | -34.3°C | 1.5% | 0hPa | 2.5V | 08:30:00 | 02:16:34 | 00:00:00 | |
| DF7PN | 2026-09-05 00:51:21 | 46.78752 | 7.80280 | 275° | 15km/h | 34897m | 6.0m/s | -34.3°C | 0.1% | -1.0hPa | 2.5V | 00:00:00 | 00:00:00 | 00:00:00 | |
| IW2NTF | 2026-09-05 00:51:20 | 46.78739 | 7.80352 | 305° | 46km/h | 34861m | 6.5m/s | -34.5°C | 1.5% | 0hPa | 2.5V | 08:30:00 | 02:16:30 | 00:00:00 | |
| BIOWL1-15 | 2026-09-05 00:51:16 | 46.78714 | 7.80474 | 292° | 27km/h | 34795m | 6.8m/s | -34.6°C | 0% | 0hPa | 2.5V | 18:12:15 | 02:16:19 | 00:00:00 | |
| DO3MHA-11 | 2026-09-05 00:51:14 | 46.78732 | 7.80365 | 310° | 33km/h | 34855m | 5.4m/s | -34.5°C | 1.5% | 0hPa | 2.5V | 00:00:00 | 02:16:29 | 00:00:00 | |
| DM0DOS-11 | 2026-09-05 00:51:13 | 46.78711 | 7.80424 | 266° | 29km/h | 34825m | 7.1m/s | -34.6°C | 1.6% | 0hPa | 2.5V | 08:30:00 | 02:16:24 | 00:00:00 | |
| IW2NTF | 2026-09-05 00:51:10 | 46.78716 | 7.80465 | 274° | 26km/h | 34802m | 6.2m/s | -34.6°C | 1.5% | 0hPa | 2.5V | 08:30:00 | 02:16:20 | 00:00:00 | |
| BIOWL1-15 | 2026-09-05 00:51:04 | 46.78706 | 7.80493 | 308° | 35km/h | 34783m | 5.5m/s | -34.5°C | 0% | 0hPa | 2.6V | 18:12:15 | 02:16:17 | 00:00:00 | |
| DO3MHA-11 | 2026-09-05 00:51:04 | 46.78714 | 7.80474 | 292° | 29km/h | 34796m | 6.7m/s | -34.5°C | 1.5% | 0hPa | 2.6V | 00:00:00 | 02:16:19 | 00:00:00 | |
| DL1ZP-14 | 2026-09-05 00:51:03 | 46.78706 | 7.80493 | 307° | 33km/h | 34783m | 5.5m/s | -34.5°C | 0.1% | -1.0hPa | 2.6V | 00:00:00 | 00:00:00 | 00:00:00 | |
| IW2NTF | 2026-09-05 00:51:00 | 46.78702 | 7.80561 | 225° | 22km/h | 34740m | 7.1m/s | -34.3°C | 1.5% | 0hPa | 2.5V | 08:30:00 | 02:16:10 | 00:00:00 | |
| BIOWL9-15 | 2026-09-05 00:50:59 | 46.78694 | 7.80526 | 281° | 31km/h | 34766m | 6.5m/s | -34.4°C | 0.1% | -1.0hPa | 2.5V | 00:00:00 | 00:00:00 | 00:00:00 | |
| DM0DOS-11 | 2026-09-05 00:50:58 | 46.78709 | 7.80570 | 218° | 15km/h | 34726m | 5.7m/s | -34.2°C | 1.5% | 0hPa | 2.5V | 08:30:00 | 02:16:08 | 00:00:00 | |
| BIOWL1-15 | 2026-09-05 00:50:52 | 46.78711 | 7.80573 | 229° | 15km/h | 34721m | 5m/s | -34.1°C | 0% | 0hPa | 2.6V | 18:12:15 | 02:16:07 | 00:00:00 | |
| IW2NTF | 2026-09-05 00:50:50 | 46.78719 | 7.80651 | 276° | 38km/h | 34679m | 4.9m/s | -33.9°C | 1.5% | 0hPa | 2.5V | 08:30:00 | 02:16:00 | 00:00:00 | |
| DB0UT-7 | 2026-09-05 00:50:49 | 46.78717 | 7.80595 | 258° | 31km/h | 34704m | 7.2m/s | -33.9°C | 1.5% | 0hPa | 2.5V | 00:00:00 | 02:16:04 | 00:00:00 | |
| HASLITAL | 2026-09-05 00:50:46 | 46.78720 | 7.80621 | 267° | 40km/h | 34691m | 5.9m/s | -33.9°C | 0.2% | 0hPa | 2.5V | 00:00:00 | 00:00:00 | 00:00:00 | |
| DO3MHA-11 | 2026-09-05 00:50:44 | 46.78718 | 7.80664 | 284° | 26km/h | 34674m | 5.7m/s | -33.8°C | 1.5% | 0hPa | 2.5V | 00:00:00 | 02:15:59 | 00:00:00 | |
| DF1GD-15 | 2026-09-05 00:50:43 | 46.78718 | 7.80664 | 284° | 33km/h | 34674m | 5.8m/s | -33.9°C | 0.2% | 0hPa | 2.6V | 00:00:00 | 00:00:00 | 00:00:00 | |
| DM0DOS-11 | 2026-09-05 00:50:42 | 46.78712 | 7.80685 | 279° | 7km/h | 34655m | 5.5m/s | -33.8°C | 1.5% | 0hPa | 2.6V | 08:30:00 | 02:15:56 | 00:00:00 | |
| BIOWL1-15 | 2026-09-05 00:50:42 | 46.78713 | 7.80688 | 216° | 9km/h | 34649m | 5.1m/s | -33.7°C | 0% | 0hPa | 2.5V | 18:12:15 | 02:15:55 | 00:00:00 | |
| IW2NTF | 2026-09-05 00:50:40 | 46.78745 | 7.80723 | 234° | 46km/h | 34619m | 5.1m/s | -33.7°C | 1.4% | 0hPa | 2.5V | 08:30:00 | 02:15:50 | 00:00:00 | |
| HARRO8 | 2026-09-05 00:50:36 | 46.78745 | 7.80723 | 234° | 44km/h | 34619m | 5.1m/s | -33.7°C | 0.1% | -1.0hPa | 2.6V | 00:00:00 | 00:00:00 | 00:00:00 | |
| DO3MHA-11 | 2026-09-05 00:50:34 | 46.78750 | 7.80737 | 247° | 40km/h | 34613m | 6.6m/s | -33.7°C | 1.5% | 0hPa | 2.6V | 00:00:00 | 02:15:49 | 00:00:00 | |
| DM0DOS-11 | 2026-09-05 00:50:32 | 46.78752 | 7.80779 | 286° | 37km/h | 34592m | 6.1m/s | -33.7°C | 1.4% | 0hPa | 2.6V | 08:30:00 | 02:15:46 | 00:00:00 | |
| BIOWL1-15 | 2026-09-05 00:50:31 | 46.78752 | 7.80779 | 286° | 37km/h | 34592m | 6.1m/s | -33.7°C | 0% | 0hPa | 2.6V | 18:12:15 | 02:15:46 | 00:00:00 | |
| IW2NTF | 2026-09-05 00:50:30 | 46.78759 | 7.80835 | 210° | 35km/h | 34555m | 6.3m/s | -33.7°C | 1.4% | 0hPa | 2.5V | 08:30:00 | 02:15:40 | 00:00:00 | |
| BIOWL9-15 | 2026-09-05 00:50:28 | 46.78746 | 7.80811 | 267° | 24km/h | 34575m | 6.2m/s | -33.7°C | 0.1% | -1.0hPa | 2.6V | 00:00:00 | 00:00:00 | 00:00:00 | |
| DK5PH-5 | 2026-09-05 00:50:27 | 46.78748 | 7.80820 | 243° | 35km/h | 34569m | 6.6m/s | -33.6°C | 1.4% | 0hPa | 2.6V | 00:00:00 | 02:15:42 | 08:30:00 | |
| HASLITAL | 2026-09-05 00:50:25 | 46.78752 | 7.80828 | 223° | 31km/h | 34562m | 6.8m/s | -33.7°C | 0.2% | 0hPa | 2.5V | 00:00:00 | 00:00:00 | 00:00:00 | |
| DL6DJ-15 | 2026-09-05 00:50:24 | 46.78776 | 7.80847 | 202° | 35km/h | 34544m | 5.5m/s | -33.7°C | 0.1% | -1.0hPa | 2.5V | 00:00:00 | 00:00:00 | 00:00:00 | |
| DM0DOS-11 | 2026-09-05 00:50:22 | 46.78794 | 7.80861 | 231° | 20km/h | 34524m | 6.2m/s | -34°C | 1.4% | 0hPa | 2.5V | 08:30:00 | 02:15:35 | 00:00:00 | |
| BIOWL1-15 | 2026-09-05 00:50:21 | 46.78789 | 7.80856 | 212° | 26km/h | 34530m | 6.6m/s | -33.9°C | 0% | 0hPa | 2.6V | 18:12:15 | 02:15:36 | 00:00:00 | |
| IW2NTF | 2026-09-05 00:50:20 | 46.78804 | 7.80915 | 246° | 44km/h | 34493m | 6.2m/s | -34.3°C | 1.5% | 0hPa | 2.5V | 08:30:00 | 02:15:30 | 00:00:00 | |
| DB0UT-7 | 2026-09-05 00:50:19 | 46.78796 | 7.80868 | 254° | 33km/h | 34519m | 5.7m/s | -34.0°C | 1.4% | 0hPa | 2.5V | 00:00:00 | 00:00:00 | 00:00:00 | |
| LOEBOVI | 2026-09-05 00:50:15 | 46.78800 | 7.80901 | 256° | 38km/h | 34500m | 6.7m/s | 0°C | 0% | 0hPa | 2.5V | 00:00:00 | 00:00:00 | 00:00:00 | |
| DM0DOS-11 | 2026-09-05 00:50:12 | 46.78837 | 7.80962 | 188° | 26km/h | 34463m | 7.6m/s | -34.7°C | 1.5% | 0hPa | 2.5V | 08:30:00 | 02:15:25 | 00:00:00 | |
| IW2NTF | 2026-09-05 00:50:10 | 46.78871 | 7.80958 | 194° | 35km/h | 34434m | 6.9m/s | -35.1°C | 1.5% | 0hPa | 2.5V | 08:30:00 | 02:15:20 | 00:00:00 | |
| BIOWL1-15 | 2026-09-05 00:50:10 | 46.78849 | 7.80959 | 164° | 26km/h | 34450m | 5.3m/s | -34.9°C | 0% | 0hPa | 2.5V | 18:12:15 | 02:15:23 | 00:00:00 | |
| DO3MHA-11 | 2026-09-05 00:50:08 | 46.78849 | 7.80959 | 164° | 38km/h | 34451m | 5.3m/s | -34.9°C | 1.5% | 0hPa | 2.5V | 00:00:00 | 02:15:23 | 08:30:00 | |
| HARRO8 | 2026-09-05 00:50:05 | 46.78880 | 7.80963 | 206° | 42km/h | 34427m | 7.2m/s | -35.1°C | 0.1% | -1.0hPa | 2.5V | 00:00:00 | 00:00:00 | 00:00:00 | |
| DH7VM-15 | 2026-09-05 00:50:04 | 46.78880 | 7.80963 | 207° | 42km/h | 34427m | 7.2m/s | -35.1°C | 0.2% | 0hPa | 2.5V | 00:00:00 | 00:00:00 | 00:00:00 | |
| DM0DOS-11 | 2026-09-05 00:50:01 | 46.78919 | 7.81003 | 217° | 38km/h | 34405m | 4.9m/s | -35.2°C | 1.6% | 0hPa | 2.5V | 08:30:00 | 02:15:15 | 00:00:00 | |
| IW2NTF | 2026-09-05 00:50:00 | 46.78941 | 7.81010 | 150° | 16km/h | 34374m | 4.6m/s | -35.2°C | 1.6% | 0hPa | 2.5V | 08:30:00 | 02:15:10 | 00:00:00 | |
| BIOWL1-15 | 2026-09-05 00:49:59 | 46.78931 | 7.81014 | 200° | 18km/h | 34392m | 7.4m/s | -35.2°C | 0% | 0hPa | 2.5V | 18:12:15 | 02:15:13 | 00:00:00 | |
| BIOWL9-15 | 2026-09-05 00:49:57 | 46.78935 | 7.81015 | 169° | 13km/h | 34385m | 6.6m/s | -35.2°C | 0.2% | -1.0hPa | 2.5V | 00:00:00 | 00:00:00 | 00:00:00 | |
| DM0DOS-11 | 2026-09-05 00:49:55 | 46.78974 | 7.81027 | 223° | 44km/h | 34345m | 5.2m/s | -35.4°C | 1.6% | 0hPa | 2.5V | 08:30:00 | 02:15:05 | 00:00:00 | |
| DK5PH-5 | 2026-09-05 00:49:55 | 46.78941 | 7.81010 | 151° | 29km/h | 34374m | 4.6m/s | -35.2°C | 1.6% | 0hPa | 2.5V | 00:00:00 | 02:15:10 | 00:00:00 | |
| IW2NTF | 2026-09-05 00:49:50 | 46.78991 | 7.81072 | 299° | 5km/h | 34316m | 6.4m/s | -35.6°C | 1.6% | 0hPa | 2.5V | 08:30:00 | 02:15:00 | 00:00:00 | |
| BIOWL1-15 | 2026-09-05 00:49:48 | 46.78990 | 7.81060 | 252° | 27km/h | 34329m | 6.5m/s | -35.5°C | 0% | 0hPa | 2.6V | 18:12:15 | 02:15:02 | 00:00:00 | |
| DO3MHA-12 | 2026-09-05 00:49:48 | 46.78986 | 7.81050 | 241° | 33km/h | 34335m | 5.4m/s | -35.4°C | 1.6% | 0hPa | 2.5V | 00:00:00 | 02:15:03 | 00:00:00 | |
| DM0DOS-11 | 2026-09-05 00:49:44 | 46.79025 | 7.81063 | 197° | 38km/h | 34274m | 4.6m/s | -35.6°C | 1.6% | 0hPa | 2.5V | 08:30:00 | 02:14:53 | 00:00:00 | |
| HASLITAL | 2026-09-05 00:49:43 | 46.78990 | 7.81072 | 75° | 4km/h | 34310m | 5.5m/s | -35.7°C | 0.2% | 0hPa | 2.5V | 00:00:00 | 00:00:00 | 00:00:00 | |
| IW2NTF | 2026-09-05 00:49:41 | 46.79043 | 7.81081 | 243° | 20km/h | 34258m | 6.7m/s | -35.5°C | 1.6% | 0hPa | 2.5V | 08:30:00 | 02:14:50 | 00:00:00 | |
| BIOWL1-15 | 2026-09-05 00:49:38 | 46.79040 | 7.81074 | 221° | 27km/h | 34264m | 5.9m/s | -35.5°C | 0% | 0hPa | 2.6V | 18:12:15 | 02:14:51 | 00:00:00 | |
| DO3MHA-12 | 2026-09-05 00:49:38 | 46.79025 | 7.81063 | 198° | 22km/h | 34275m | 4.6m/s | -35.5°C | 1.6% | 0hPa | 2.5V | 00:00:00 | 02:14:53 | 00:00:00 | |
| HARRO8 | 2026-09-05 00:49:33 | 46.79043 | 7.81092 | 304° | 16km/h | 34245m | 5.5m/s | -35.5°C | 0.2% | -1.0hPa | 2.5V | 00:00:00 | 00:00:00 | 00:00:00 | |
| DM0DOS-11 | 2026-09-05 00:49:31 | 46.79044 | 7.81112 | 205° | 24km/h | 34217m | 6.2m/s | -35.5°C | 1.6% | 0hPa | 2.5V | 08:30:00 | 02:14:43 | 00:00:00 | |
| IW2NTF | 2026-09-05 00:49:30 | 46.79063 | 7.81122 | 197° | 26km/h | 34200m | 5.6m/s | -35.6°C | 1.5% | 0hPa | 2.5V | 08:30:00 | 02:14:40 | 00:00:00 | |
| BIOWL1-15 | 2026-09-05 00:49:27 | 46.79057 | 7.81119 | 199° | 29km/h | 34206m | 5.7m/s | -35.6°C | 0% | 0hPa | 2.6V | 18:12:15 | 02:14:41 | 00:00:00 | |
| BIOWL9-15 | 2026-09-05 00:49:26 | 46.79063 | 7.81122 | 197° | 24km/h | 34200m | 5.6m/s | -35.6°C | 0.1% | -1.0hPa | 2.5V | 00:00:00 | 00:00:00 | 00:00:00 | |
| DK5PH-5 | 2026-09-05 00:49:24 | 46.79069 | 7.81125 | 199° | 20km/h | 34195m | 5.8m/s | -35.6°C | 1.6% | 0hPa | 2.5V | 00:00:00 | 02:14:39 | 00:00:00 | |
| HASLITAL | 2026-09-05 00:49:21 | 46.79075 | 7.81129 | 225° | 7km/h | 34183m | 5.6m/s | -35.7°C | 0.2% | 0hPa | 2.5V | 00:00:00 | 00:00:00 | 00:00:00 | |
| IW2NTF | 2026-09-05 00:49:20 | 46.79082 | 7.81160 | 249° | 18km/h | 34143m | 5.4m/s | -36°C | 1.6% | 0hPa | 2.5V | 08:30:00 | 02:14:30 | 00:00:00 | |
| DF1GD-15 | 2026-09-05 00:49:20 | 46.79075 | 7.81130 | 259° | 5km/h | 34177m | 5.2m/s | -35.8°C | 0.2% | 0hPa | 2.5V | 00:00:00 | 00:00:00 | 00:00:00 | |
| DM0DOS-11 | 2026-09-05 00:49:19 | 46.79077 | 7.81142 | 251° | 15km/h | 34159m | 6.1m/s | -35.9°C | 1.6% | 0hPa | 2.5V | 08:30:00 | 02:14:33 | 00:00:00 | |
| BIOWL1-15 | 2026-09-05 00:49:16 | 46.79080 | 7.81154 | 247° | 20km/h | 34148m | 5.1m/s | -36°C | 0% | 0hPa | 2.6V | 18:12:15 | 02:14:31 | 00:00:00 | |
| DM0DOS-11 | 2026-09-05 00:49:13 | 46.79100 | 7.81205 | 224° | 27km/h | 34096m | 5.1m/s | -36.2°C | 1.6% | 0hPa | 2.6V | 08:30:00 | 02:14:22 | 00:00:00 | |
| IW2NTF | 2026-09-05 00:49:09 | 46.79108 | 7.81219 | 239° | 22km/h | 34085m | 5.4m/s | -36.2°C | 1.6% | 0hPa | 2.5V | 08:30:00 | 02:14:20 | 00:00:00 | |
| BIOWL1-15 | 2026-09-05 00:49:07 | 46.79108 | 7.81249 | 267° | 16km/h | 34057m | 5.4m/s | -36.2°C | 0% | 0hPa | 2.5V | 18:12:15 | 02:14:15 | 00:00:00 | |
| HARRO8 | 2026-09-05 00:49:02 | 46.79108 | 7.81243 | 283° | 15km/h | 34063m | 4.4m/s | -36.2°C | 0.2% | -1.0hPa | 2.5V | 00:00:00 | 00:00:00 | 00:00:00 | |
| DM0DOS-11 | 2026-09-05 00:49:01 | 46.79112 | 7.81262 | 227° | 26km/h | 34045m | 6.4m/s | -36.2°C | 1.7% | 0hPa | 2.5V | 08:30:00 | 02:14:13 | 00:00:00 | |
| HASLITAL | 2026-09-05 00:49:00 | 46.79108 | 7.81243 | 285° | 16km/h | 34063m | 4.4m/s | -36.2°C | 0.2% | 0hPa | 2.5V | 00:00:00 | 00:00:00 | 00:00:00 | |
| IW2NTF | 2026-09-05 00:48:59 | 46.79131 | 7.81282 | 214° | 31km/h | 34028m | 5m/s | -36.1°C | 1.6% | 0hPa | 2.5V | 08:30:00 | 02:14:10 | 00:00:00 | |
| BIOWL1-15 | 2026-09-05 00:48:53 | 46.79141 | 7.81293 | 219° | 18km/h | 34017m | 6.5m/s | -36.1°C | 0% | 0hPa | 2.5V | 18:12:15 | 02:14:08 | 00:00:00 | |
| DL6DJ-15 | 2026-09-05 00:48:51 | 46.79155 | 7.81315 | 225° | 16km/h | 33982m | 4.9m/s | -36.1°C | 0.1% | -1.0hPa | 2.5V | 00:00:00 | 00:00:00 | 00:00:00 | |
| IW2NTF | 2026-09-05 00:48:49 | 46.79160 | 7.81325 | 235° | 18km/h | 33971m | 5.9m/s | -36.1°C | 1.6% | 0hPa | 2.5V | 08:30:00 | 02:14:00 | 00:00:00 | |
| DM0DOS-11 | 2026-09-05 00:48:49 | 46.79152 | 7.81310 | 224° | 15km/h | 33987m | 5.5m/s | -36.1°C | 1.6% | 0hPa | 2.5V | 08:30:00 | 02:14:03 | 00:00:00 | |
| DF7PN | 2026-09-05 00:48:46 | 46.79160 | 7.81325 | 235° | 16km/h | 33972m | 5.9m/s | -36.1°C | 0.2% | -1.0hPa | 2.5V | 00:00:00 | 00:00:00 | 00:00:00 | |
| DM0DOS-11 | 2026-09-05 00:48:43 | 46.79187 | 7.81356 | 190° | 29km/h | 33930m | 5m/s | -36.5°C | 1.6% | 0hPa | 2.5V | 08:30:00 | 02:13:53 | 00:00:00 | |
| BIOWL1-15 | 2026-09-05 00:48:41 | 46.79170 | 7.81346 | 220° | 20km/h | 33948m | 5.4m/s | -36.4°C | 0% | 0hPa | 2.6V | 18:12:15 | 02:13:56 | 00:00:00 | |
| HASLITAL | 2026-09-05 00:48:40 | 46.79170 | 7.81345 | 221° | 20km/h | 33949m | 5.4m/s | -36.4°C | 0.2% | 0hPa | 2.5V | 00:00:00 | 00:00:00 | 00:00:00 | |
| IW2NTF | 2026-09-05 00:48:39 | 46.79205 | 7.81356 | 166° | 15km/h | 33914m | 7m/s | -36.7°C | 1.6% | 0hPa | 2.5V | 08:30:00 | 02:13:50 | 00:00:00 | |
| DF1GD-15 | 2026-09-05 00:48:39 | 46.79174 | 7.81350 | 209° | 24km/h | 33943m | 6.6m/s | -36.4°C | 0.2% | 0hPa | 2.5V | 00:00:00 | 00:00:00 | 00:00:00 | |
| DO3MHA-12 | 2026-09-05 00:48:38 | 46.79188 | 7.81356 | 191° | 15km/h | 33931m | 4.9m/s | -36.5°C | 1.6% | 0hPa | 2.5V | 00:00:00 | 02:13:53 | 00:00:00 | |
| LOEBOVI | 2026-09-05 00:48:37 | 46.79187 | 7.81356 | 191° | 29km/h | 33931m | 5.0m/s | 0°C | 0% | 0hPa | 2.5V | 00:00:00 | 00:00:00 | 00:00:00 | |
| HARRO8 | 2026-09-05 00:48:32 | 46.79211 | 7.81356 | 232° | 9km/h | 33891m | 5.7m/s | -37.0°C | 0.2% | -1.0hPa | 2.5V | 00:00:00 | 00:00:00 | 00:00:00 | |
| DM0DOS-11 | 2026-09-05 00:48:31 | 46.79222 | 7.81371 | 216° | 27km/h | 33873m | 5.3m/s | -37.4°C | 1.7% | 0hPa | 2.5V | 08:30:00 | 02:13:43 | 00:00:00 | |
| BIOWL1-15 | 2026-09-05 00:48:31 | 46.79211 | 7.81356 | 232° | 9km/h | 33891m | 5.7m/s | -37°C | 0% | 0hPa | 2.6V | 18:12:15 | 02:13:46 | 00:00:00 | |
| IW2NTF | 2026-09-05 00:48:29 | 46.79238 | 7.81382 | 184° | 18km/h | 33857m | 6.3m/s | -37.7°C | 1.7% | 0hPa | 2.5V | 08:30:00 | 02:13:40 | 00:00:00 | |
| BIOWL1-15 | 2026-09-05 00:48:21 | 46.79262 | 7.81352 | 151° | 22km/h | 33816m | 5.4m/s | -38°C | 0% | 0hPa | 2.6V | 18:12:15 | 02:13:33 | 00:00:00 | |
| IW2NTF | 2026-09-05 00:48:20 | 46.79275 | 7.81341 | 143° | 18km/h | 33798m | 6.5m/s | -38.1°C | 1.8% | 0hPa | 2.5V | 08:30:00 | 02:13:30 | 00:00:00 | |
| DM0DOS-11 | 2026-09-05 00:48:19 | 46.79262 | 7.81352 | 151° | 22km/h | 33816m | 5.4m/s | -38°C | 1.8% | 0hPa | 2.6V | 08:30:00 | 02:13:33 | 00:00:00 | |
| DB0UT-7 | 2026-09-05 00:48:19 | 46.79257 | 7.81356 | 144° | 18km/h | 33822m | 5.7m/s | -37.9°C | 1.8% | 0hPa | 2.6V | 00:00:00 | 00:00:00 | 08:30:00 | |
| DO3MHA-12 | 2026-09-05 00:48:18 | 46.79262 | 7.81352 | 152° | 20km/h | 33816m | 5.4m/s | -38.0°C | 1.8% | 0hPa | 2.6V | 00:00:00 | 02:13:33 | 00:00:00 | |
| DF7PN | 2026-09-05 00:48:15 | 46.79278 | 7.81337 | 139° | 16km/h | 33793m | 5.7m/s | -38.2°C | 0.2% | -1.0hPa | 2.6V | 00:00:00 | 00:00:00 | 00:00:00 | |
| DM0DOS-11 | 2026-09-05 00:48:13 | 46.79308 | 7.81318 | 159° | 26km/h | 33758m | 5.1m/s | -38.3°C | 1.8% | 0hPa | 2.6V | 08:30:00 | 02:13:23 | 00:00:00 | |
| IW2NTF | 2026-09-05 00:48:08 | 46.79324 | 7.81290 | 108° | 16km/h | 33729m | 4.6m/s | -38.5°C | 1.8% | 0hPa | 2.6V | 08:30:00 | 02:13:18 | 00:00:00 | |
| BIOWL1-15 | 2026-09-05 00:48:07 | 46.79313 | 7.81314 | 151° | 24km/h | 33753m | 5.2m/s | -38.4°C | 0% | 0hPa | 2.5V | 18:12:15 | 02:13:22 | 00:00:00 | |
| DM0DOS-11 | 2026-09-05 00:48:01 | 46.79354 | 7.81293 | 211° | 18km/h | 33689m | 6.8m/s | -38.7°C | 1.8% | 0hPa | 2.5V | 08:30:00 | 02:13:11 | 00:00:00 | |
| HARRO8 | 2026-09-05 00:48:00 | 46.79333 | 7.81281 | 179° | 18km/h | 33712m | 7.0m/s | -38.6°C | 0.2% | -1.0hPa | 2.6V | 00:00:00 | 00:00:00 | 00:00:00 | |
| IW2NTF | 2026-09-05 00:47:58 | 46.79361 | 7.81298 | 180° | 4km/h | 33670m | 5.1m/s | -38.7°C | 1.8% | 0hPa | 2.6V | 08:30:00 | 02:13:08 | 00:00:00 | |
| BIOWL1-15 | 2026-09-05 00:47:57 | 46.79350 | 7.81289 | 208° | 24km/h | 33695m | 5.4m/s | -38.7°C | 0% | 0hPa | 2.5V | 18:12:15 | 02:13:12 | 00:00:00 | |
| DL1ZP-14 | 2026-09-05 00:47:56 | 46.79355 | 7.81293 | 211° | 18km/h | 33689m | 6.8m/s | -38.7°C | 0.2% | -1.0hPa | 2.5V | 00:00:00 | 00:00:00 | 00:00:00 | |
| BIOWL9-15 | 2026-09-05 00:47:53 | 46.79362 | 7.81298 | 154° | 4km/h | 33665m | 5.0m/s | -38.7°C | 0.2% | -1.0hPa | 2.6V | 00:00:00 | 00:00:00 | 00:00:00 | |
| DH7VM-15 | 2026-09-05 00:47:50 | 46.79363 | 7.81297 | 166° | 9km/h | 33660m | 6.1m/s | -38.7°C | 0.2% | 0hPa | 2.6V | 00:00:00 | 00:00:00 | 00:00:00 | |
| DB0UT-7 | 2026-09-05 00:47:49 | 46.79371 | 7.81295 | 178° | 16km/h | 33647m | 6.5m/s | -38.7°C | 1.8% | 0hPa | 2.6V | 00:00:00 | 02:13:04 | 00:00:00 | |
| IW2NTF | 2026-09-05 00:47:48 | 46.79400 | 7.81298 | 216° | 5km/h | 33609m | 5.8m/s | -38.9°C | 1.9% | 0hPa | 2.6V | 08:30:00 | 02:12:58 | 00:00:00 | |
| DM0DOS-11 | 2026-09-05 00:47:48 | 46.79390 | 7.81296 | 183° | 22km/h | 33629m | 5.5m/s | -38.8°C | 1.9% | 0hPa | 2.5V | 08:30:00 | 02:13:01 | 00:00:00 | |
| BIOWL1-15 | 2026-09-05 00:47:47 | 46.79401 | 7.81300 | 235° | 7km/h | 33604m | 5.2m/s | -38.9°C | 0% | 0hPa | 2.5V | 18:12:15 | 02:12:57 | 00:00:00 | |
| DF7PN | 2026-09-05 00:47:44 | 46.79400 | 7.81298 | 216° | 5km/h | 33610m | 5.8m/s | -38.9°C | 0.2% | -1.0hPa | 2.6V | 00:00:00 | 00:00:00 | 00:00:00 | |
| DO3MHA-11 | 2026-09-05 00:47:38 | 46.79413 | 7.81314 | 206° | 20km/h | 33580m | 5.4m/s | -39.0°C | 1.9% | 0hPa | 2.6V | 00:00:00 | 02:12:53 | 00:00:00 | |
| DM0DOS-11 | 2026-09-05 00:47:37 | 46.79424 | 7.81318 | 184° | 22km/h | 33568m | 6.6m/s | -39.1°C | 1.9% | 0hPa | 2.5V | 08:30:00 | 02:12:51 | 00:00:00 | |
| BIOWL1-15 | 2026-09-05 00:47:33 | 46.79442 | 7.81314 | 174° | 16km/h | 33543m | 6.1m/s | -39°C | 0% | 0hPa | 2.6V | 18:12:15 | 02:12:47 | 00:00:00 | |
| HARRO8 | 2026-09-05 00:47:29 | 46.79456 | 7.81319 | 210° | 20km/h | 33524m | 5.0m/s | -39.1°C | 0.2% | -1.0hPa | 2.5V | 00:00:00 | 00:00:00 | 00:00:00 | |
| IW2NTF | 2026-09-05 00:47:28 | 46.79469 | 7.81321 | 109° | 15km/h | 33488m | 5.5m/s | -39.2°C | 1.9% | 0hPa | 2.5V | 08:30:00 | 02:12:38 | 00:00:00 | |
| DO3MHA-11 | 2026-09-05 00:47:28 | 46.79460 | 7.81323 | 215° | 16km/h | 33519m | 4.6m/s | -39.0°C | 1.9% | 0hPa | 2.6V | 00:00:00 | 02:12:43 | 00:00:00 | |
| DM0DOS-11 | 2026-09-05 00:47:27 | 46.79466 | 7.81328 | 198° | 7km/h | 33508m | 6.9m/s | -39.1°C | 1.8% | 0hPa | 2.6V | 08:30:00 | 02:12:41 | 00:00:00 | |
| BIOWL1-15 | 2026-09-05 00:47:22 | 46.79497 | 7.81302 | 173° | 18km/h | 33453m | 5.7m/s | -39.4°C | 0% | 0hPa | 2.5V | 18:12:15 | 02:12:32 | 00:00:00 | |
| BIOWL9-15 | 2026-09-05 00:47:21 | 46.79479 | 7.81307 | 160° | 24km/h | 33470m | 6.5m/s | -39.2°C | 0.2% | -1.0hPa | 2.5V | 00:00:00 | 00:00:00 | 00:00:00 | |
| IW2NTF | 2026-09-05 00:47:19 | 46.79503 | 7.81293 | 75° | 11km/h | 33427m | 5.8m/s | -39.4°C | 1.9% | 0hPa | 2.5V | 08:30:00 | 02:12:28 | 00:00:00 | |
| DO3MHA-11 | 2026-09-05 00:47:18 | 46.79491 | 7.81303 | 176° | 15km/h | 33459m | 4.5m/s | -39.3°C | 1.9% | 0hPa | 2.6V | 00:00:00 | 02:12:33 | 00:00:00 | |
| DM0DOS-11 | 2026-09-05 00:47:17 | 46.79501 | 7.81301 | 162° | 13km/h | 33447m | 7m/s | -39.4°C | 1.9% | 0hPa | 2.6V | 08:30:00 | 02:12:31 | 00:00:00 | |
| BIOWL1-15 | 2026-09-05 00:47:13 | 46.79503 | 7.81284 | 107° | 13km/h | 33415m | 6.7m/s | -39.5°C | 0% | 0hPa | 2.6V | 18:12:15 | 02:12:26 | 00:00:00 | |
| DF7PN | 2026-09-05 00:47:12 | 46.79502 | 7.81289 | 86° | 11km/h | 33421m | 6.3m/s | -39.4°C | 0.2% | -1.0hPa | 2.5V | 00:00:00 | 00:00:00 | 00:00:00 | |
| IW2NTF | 2026-09-05 00:47:09 | 46.79523 | 7.81234 | 109° | 13km/h | 33366m | 5.2m/s | -39.6°C | 1.9% | 0hPa | 2.5V | 08:30:00 | 02:12:18 | 00:00:00 | |
| BIOWL1-15 | 2026-09-05 00:47:03 | 46.79526 | 7.81230 | 183° | 7km/h | 33354m | 7.2m/s | -39.7°C | 0% | 0hPa | 2.6V | 18:12:15 | 02:12:16 | 00:00:00 | |
| DO3MHA-11 | 2026-09-05 00:46:58 | 46.79532 | 7.81234 | 202° | 18km/h | 33336m | 5.2m/s | -39.8°C | 2.0% | 0hPa | 2.5V | 00:00:00 | 02:12:13 | 00:00:00 | |
| IW2NTF | 2026-09-05 00:46:57 | 46.79535 | 7.81216 | 103° | 20km/h | 33305m | 4.8m/s | -39.9°C | 2% | 0hPa | 2.5V | 08:30:00 | 02:12:08 | 00:00:00 | |
| BIOWL1-15 | 2026-09-05 00:46:52 | 46.79547 | 7.81198 | 159° | 31km/h | 33287m | 7.1m/s | -39.9°C | 0% | 0hPa | 2.6V | 18:12:15 | 02:12:05 | 00:00:00 | |
| BIOWL9-15 | 2026-09-05 00:46:50 | 46.79547 | 7.81198 | 158° | 29km/h | 33287m | 7.1m/s | -39.9°C | 0.3% | -1.0hPa | 2.6V | 00:00:00 | 00:00:00 | 00:00:00 | |
| DB0UT-7 | 2026-09-05 00:46:49 | 46.79555 | 7.81194 | 168° | 24km/h | 33281m | 5.7m/s | -39.9°C | 2.0% | 0hPa | 2.6V | 00:00:00 | 02:12:04 | 00:00:00 | |
| DO3MHA-11 | 2026-09-05 00:46:48 | 46.79564 | 7.81191 | 169° | 22km/h | 33275m | 5.4m/s | -39.9°C | 2.0% | 0hPa | 2.5V | 00:00:00 | 02:12:03 | 00:00:00 | |
| DM0DOS-11 | 2026-09-05 00:46:47 | 46.79579 | 7.81185 | 156° | 27km/h | 33263m | 6.7m/s | -39.9°C | 2% | 0hPa | 2.5V | 08:30:00 | 02:12:01 | 00:00:00 | |
| IW2NTF | 2026-09-05 00:46:47 | 46.79589 | 7.81169 | 101° | 18km/h | 33245m | 5.3m/s | -39.9°C | 2% | 0hPa | 2.6V | 08:30:00 | 02:11:58 | 00:00:00 | |
| DL6DJ-15 | 2026-09-05 00:46:47 | 46.79589 | 7.81169 | 101° | 16km/h | 33245m | 5.3m/s | -39.9°C | 0.2% | -1.0hPa | 2.5V | 00:00:00 | 00:00:00 | 00:00:00 | |
| DM0DOS-11 | 2026-09-05 00:46:42 | 46.79609 | 7.81133 | 137° | 29km/h | 33203m | 7m/s | -39.9°C | 2% | 0hPa | 2.5V | 08:30:00 | 02:11:51 | 00:00:00 | |
| BIOWL1-15 | 2026-09-05 00:46:40 | 46.79592 | 7.81153 | 129° | 15km/h | 33227m | 6.3m/s | -39.9°C | 0% | 0hPa | 2.5V | 18:12:15 | 02:11:55 | 00:00:00 | |
| DO3MHA-11 | 2026-09-05 00:46:38 | 46.79599 | 7.81145 | 148° | 26km/h | 33216m | 5.4m/s | -39.9°C | 2.0% | 0hPa | 2.6V | 00:00:00 | 02:11:53 | 00:00:00 | |
| DO3MHA-12 | 2026-09-05 00:46:37 | 46.79604 | 7.81140 | 144° | 24km/h | 33210m | 5.7m/s | -39.9°C | 2.0% | 0hPa | 2.6V | 00:00:00 | 02:11:52 | 00:00:00 | |
| IW2NTF | 2026-09-05 00:46:36 | 46.79625 | 7.81108 | 127° | 31km/h | 33184m | 5m/s | -39.9°C | 2% | 0hPa | 2.6V | 08:30:00 | 02:11:48 | 00:00:00 | |
| HASLITAL | 2026-09-05 00:46:36 | 46.79604 | 7.81140 | 144° | 26km/h | 33210m | 5.7m/s | -39.9°C | 0.3% | 0hPa | 2.5V | 00:00:00 | 00:00:00 | 00:00:00 | |
| DM0DOS-11 | 2026-09-05 00:46:31 | 46.79656 | 7.81080 | 130° | 18km/h | 33144m | 6.8m/s | -39.7°C | 1.9% | 0hPa | 2.5V | 08:30:00 | 02:11:41 | 00:00:00 | |
| BIOWL1-15 | 2026-09-05 00:46:29 | 46.79644 | 7.81087 | 169° | 20km/h | 33160m | 6m/s | -39.8°C | 0% | 0hPa | 2.5V | 18:12:15 | 02:11:44 | 00:00:00 | |
| DO3MHA-11 | 2026-09-05 00:46:28 | 46.79649 | 7.81086 | 169° | 22km/h | 33155m | 4.8m/s | -39.7°C | 1.9% | 0hPa | 2.6V | 00:00:00 | 02:11:43 | 00:00:00 | |
| DO3MHA-12 | 2026-09-05 00:46:27 | 46.79653 | 7.81084 | 154° | 22km/h | 33150m | 4.9m/s | -39.7°C | 2.0% | 0hPa | 2.6V | 00:00:00 | 02:11:42 | 00:00:00 | |
| IW2NTF | 2026-09-05 00:46:26 | 46.79662 | 7.81056 | 105° | 27km/h | 33124m | 5.1m/s | -39.6°C | 1.9% | 0hPa | 2.6V | 08:30:00 | 02:11:38 | 00:00:00 | |
| DL1ZP-14 | 2026-09-05 00:46:23 | 46.79664 | 7.81046 | 113° | 26km/h | 33120m | 4.8m/s | -39.6°C | 0.2% | -1.0hPa | 2.6V | 00:00:00 | 00:00:00 | 00:00:00 | |
| DM0DOS-11 | 2026-09-05 00:46:21 | 46.79725 | 7.81015 | 154° | 22km/h | 33045m | 6.2m/s | -39.6°C | 1.9% | 0hPa | 2.6V | 08:30:00 | 02:11:25 | 00:00:00 | |
| BIOWL1-15 | 2026-09-05 00:46:19 | 46.79706 | 7.81032 | 156° | 22km/h | 33069m | 5.9m/s | -39.6°C | 0% | 0hPa | 2.5V | 18:12:15 | 02:11:29 | 00:00:00 | |
| DO3MHA-11 | 2026-09-05 00:46:18 | 46.79683 | 7.81032 | 189° | 24km/h | 33094m | 5.9m/s | -39.5°C | 1.9% | 0hPa | 2.5V | 00:00:00 | 02:11:33 | 00:00:00 | |
| DO3MHA-12 | 2026-09-05 00:46:17 | 46.79689 | 7.81033 | 190° | 33km/h | 33088m | 5.8m/s | -39.5°C | 1.9% | 0hPa | 2.5V | 00:00:00 | 02:11:32 | 00:00:00 | |
| IW2NTF | 2026-09-05 00:46:16 | 46.79711 | 7.81028 | 147° | 22km/h | 33063m | 5.3m/s | -39.6°C | 1.9% | 0hPa | 2.5V | 08:30:00 | 02:11:28 | 00:00:00 | |
| BIOWL1-15 | 2026-09-05 00:46:08 | 46.79735 | 7.81008 | 152° | 20km/h | 33033m | 5.3m/s | -39.7°C | 0% | 0hPa | 2.5V | 18:12:15 | 02:11:23 | 00:00:00 | |
| DM0DOS-11 | 2026-09-05 00:46:02 | 46.79813 | 7.81014 | 162° | 20km/h | 32964m | 7.5m/s | -39.7°C | 2% | 0hPa | 2.5V | 08:30:00 | 02:11:11 | 00:00:00 | |
| BIOWL1-15 | 2026-09-05 00:45:57 | 46.79816 | 7.81010 | 129° | 16km/h | 32957m | 7.3m/s | -39.7°C | 0% | 0hPa | 2.6V | 18:12:15 | 02:11:10 | 00:00:00 | |
| DO3MHA-12 | 2026-09-05 00:45:57 | 46.79807 | 7.81015 | 184° | 26km/h | 32971m | 5.7m/s | -39.6°C | 1.9% | 0hPa | 2.5V | 00:00:00 | 02:11:12 | 00:00:00 | |
| IW2NTF | 2026-09-05 00:45:56 | 46.79821 | 7.80995 | 139° | 11km/h | 32942m | 3.9m/s | -39.6°C | 2% | 0hPa | 2.5V | 08:30:00 | 02:11:07 | 00:00:00 | |
| HARRO8 | 2026-09-05 00:45:56 | 46.79819 | 7.80999 | 106° | 13km/h | 32946m | 3.7m/s | -39.7°C | 0.2% | -1.0hPa | 2.5V | 00:00:00 | 00:00:00 | 00:00:00 | |
| DL1ZP-14 | 2026-09-05 00:45:52 | 46.79824 | 7.80994 | 182° | 15km/h | 32937m | 5.9m/s | -39.6°C | 0.2% | -1.0hPa | 2.5V | 00:00:00 | 00:00:00 | 00:00:00 | |
| DM0DOS-11 | 2026-09-05 00:45:49 | 46.79874 | 7.81016 | 186° | 51km/h | 32908m | 4.5m/s | -39.6°C | 2% | 0hPa | 2.5V | 08:30:00 | 02:11:01 | 00:00:00 | |
| BIOWL9-15 | 2026-09-05 00:45:49 | 46.79848 | 7.81007 | 199° | 51km/h | 32917m | 5.3m/s | -39.6°C | 0.2% | -1.0hPa | 2.5V | 00:00:00 | 00:00:00 | 00:00:00 | |
| DO3MHA-11 | 2026-09-05 00:45:48 | 46.79848 | 7.81007 | 200° | 37km/h | 32917m | 5.2m/s | -39.6°C | 1.9% | 0hPa | 2.5V | 00:00:00 | 02:11:03 | 00:00:00 | |
| DO3MHA-12 | 2026-09-05 00:45:47 | 46.79861 | 7.81012 | 195° | 35km/h | 32913m | 3.7m/s | -39.6°C | 2.0% | 0hPa | 2.5V | 00:00:00 | 02:11:02 | 00:00:00 | |
| IW2NTF | 2026-09-05 00:45:46 | 46.79907 | 7.80997 | 115° | 29km/h | 32883m | 6.4m/s | -39.6°C | 2% | 0hPa | 2.6V | 08:30:00 | 02:10:57 | 00:00:00 | |
| BIOWL1-15 | 2026-09-05 00:45:46 | 46.79874 | 7.81016 | 187° | 51km/h | 32908m | 4.5m/s | -39.6°C | 0% | 0hPa | 2.5V | 18:12:15 | 02:11:01 | 00:00:00 | |
| DL6DJ-15 | 2026-09-05 00:45:44 | 46.79911 | 7.80979 | 108° | 18km/h | 32872m | 5.5m/s | -39.5°C | 0.2% | -1.0hPa | 2.5V | 00:00:00 | 00:00:00 | 00:00:00 | |
| DF7PN | 2026-09-05 00:45:39 | 46.79914 | 7.80974 | 137° | 15km/h | 32866m | 5.6m/s | -39.5°C | 0.2% | -1.0hPa | 2.5V | 00:00:00 | 00:00:00 | 00:00:00 | |
| DO3MHA-11 | 2026-09-05 00:45:38 | 46.79917 | 7.80972 | 174° | 46km/h | 32860m | 5.9m/s | -39.4°C | 1.9% | 0hPa | 2.5V | 00:00:00 | 02:10:53 | 08:30:00 | |
| DM0DOS-11 | 2026-09-05 00:45:37 | 46.79933 | 7.80973 | 184° | 42km/h | 32848m | 6m/s | -39.4°C | 1.9% | 0hPa | 2.6V | 08:30:00 | 02:10:51 | 00:00:00 | |
| DO3MHA-12 | 2026-09-05 00:45:37 | 46.79924 | 7.80972 | 186° | 37km/h | 32854m | 6.1m/s | -39.4°C | 1.9% | 0hPa | 2.6V | 00:00:00 | 02:10:52 | 00:00:00 | |
| IW2NTF | 2026-09-05 00:45:36 | 46.79987 | 7.80959 | 154° | 58km/h | 32824m | 5.2m/s | -39.4°C | 1.9% | 0hPa | 2.6V | 08:30:00 | 02:10:47 | 00:00:00 | |
| BIOWL1-15 | 2026-09-05 00:45:36 | 46.79959 | 7.80972 | 172° | 58km/h | 32836m | 6.4m/s | -39.4°C | 0% | 0hPa | 2.5V | 18:12:15 | 02:10:49 | 00:00:00 | |
| DF1GD-15 | 2026-09-05 00:45:35 | 46.79933 | 7.80973 | 186° | 42km/h | 32848m | 6.0m/s | -39.4°C | 0.3% | 0hPa | 2.5V | 00:00:00 | 00:00:00 | 00:00:00 | |
| HASLITAL | 2026-09-05 00:45:34 | 46.79945 | 7.80973 | 180° | 51km/h | 32843m | 6.2m/s | -39.4°C | 0.3% | 0hPa | 2.5V | 00:00:00 | 00:00:00 | 00:00:00 | |
| DM0DOS-11 | 2026-09-05 00:45:31 | 46.80039 | 7.80902 | 157° | 29km/h | 32786m | 5.8m/s | -39.5°C | 1.9% | 0hPa | 2.5V | 08:30:00 | 02:10:40 | 00:00:00 | |
| BIOWL1-15 | 2026-09-05 00:45:26 | 46.80039 | 7.80902 | 158° | 29km/h | 32786m | 5.8m/s | -39.5°C | 0% | 0hPa | 2.5V | 18:12:15 | 02:10:40 | 00:00:00 | |
| IW2NTF | 2026-09-05 00:45:25 | 46.80068 | 7.80885 | 156° | 51km/h | 32768m | 5.7m/s | -39.6°C | 1.9% | 0hPa | 2.6V | 08:30:00 | 02:10:37 | 00:00:00 | |
| DO3MHA-12 | 2026-09-05 00:45:24 | 46.80047 | 7.80897 | 161° | 47km/h | 32780m | 5.9m/s | -39.5°C | 1.9% | 0hPa | 2.5V | 00:00:00 | 02:10:39 | 00:00:00 | |
| DL1ZP-14 | 2026-09-05 00:45:21 | 46.80092 | 7.80869 | 153° | 53km/h | 32757m | 5.5m/s | -39.7°C | 0.2% | -1.0hPa | 2.5V | 00:00:00 | 00:00:00 | 00:00:00 | |
| DM0DOS-11 | 2026-09-05 00:45:19 | 46.80145 | 7.80829 | 147° | 42km/h | 32728m | 5m/s | -40°C | 2% | 0hPa | 2.6V | 08:30:00 | 02:10:30 | 00:00:00 | |
| BIOWL1-15 | 2026-09-05 00:45:15 | 46.80144 | 7.80829 | 147° | 42km/h | 32729m | 5m/s | -40°C | 0% | 0hPa | 2.6V | 18:12:15 | 02:10:30 | 00:00:00 | |
| IW2NTF | 2026-09-05 00:45:15 | 46.80172 | 7.80795 | 134° | 55km/h | 32711m | 6.5m/s | -40°C | 2% | 0hPa | 2.5V | 08:30:00 | 02:10:27 | 00:00:00 | |
| DO3MHA-12 | 2026-09-05 00:45:14 | 46.80153 | 7.80819 | 143° | 46km/h | 32724m | 5.6m/s | -39.9°C | 2.0% | 0hPa | 2.6V | 00:00:00 | 02:10:29 | 08:30:00 | |
| DL6DJ-15 | 2026-09-05 00:45:13 | 46.80163 | 7.80808 | 137° | 49km/h | 32718m | 6.3m/s | -40.0°C | 0.3% | -1.0hPa | 2.5V | 00:00:00 | 00:00:00 | 00:00:00 | |
| HASLITAL | 2026-09-05 00:45:12 | 46.80162 | 7.80808 | 139° | 49km/h | 32718m | 6.3m/s | -40.0°C | 0.3% | 0hPa | 2.5V | 00:00:00 | 00:00:00 | 00:00:00 | |
| DM0DOS-11 | 2026-09-05 00:45:09 | 46.80234 | 7.80718 | 153° | 27km/h | 32671m | 5.1m/s | -40°C | 2% | 0hPa | 2.5V | 08:30:00 | 02:10:20 | 00:00:00 | |
| BIOWL1-15 | 2026-09-05 00:45:07 | 46.80234 | 7.80718 | 154° | 27km/h | 32671m | 5.1m/s | -40°C | 0% | 0hPa | 2.5V | 18:12:15 | 02:10:20 | 00:00:00 | |
| IW2NTF | 2026-09-05 00:45:05 | 46.80251 | 7.80696 | 124° | 38km/h | 32655m | 6.8m/s | -39.9°C | 2% | 0hPa | 2.5V | 08:30:00 | 02:10:17 | 00:00:00 | |
| DO3MHA-12 | 2026-09-05 00:45:04 | 46.80240 | 7.80713 | 146° | 42km/h | 32667m | 4.4m/s | -39.9°C | 2.0% | 0hPa | 2.5V | 00:00:00 | 02:10:19 | 00:00:00 | |
| DM0DOS-11 | 2026-09-05 00:44:59 | 46.80290 | 7.80591 | 131° | 29km/h | 32615m | 6.1m/s | -40°C | 2% | 0hPa | 2.5V | 08:30:00 | 02:10:10 | 00:00:00 | |
| BIOWL1-15 | 2026-09-05 00:44:56 | 46.80295 | 7.80584 | 140° | 26km/h | 32609m | 5.3m/s | -40°C | 0% | 0hPa | 2.5V | 18:12:15 | 02:10:09 | 00:00:00 | |
| IW2NTF | 2026-09-05 00:44:54 | 46.80305 | 7.80572 | 139° | 29km/h | 32598m | 6m/s | -39.9°C | 2% | 0hPa | 2.6V | 08:30:00 | 02:10:07 | 00:00:00 | |
| DL1ZP-14 | 2026-09-05 00:44:50 | 46.80320 | 7.80540 | 112° | 40km/h | 32580m | 5.4m/s | -39.9°C | 0.3% | -1.0hPa | 2.5V | 00:00:00 | 00:00:00 | 00:00:00 | |
| DB0UT-7 | 2026-09-05 00:44:49 | 46.80320 | 7.80540 | 113° | 31km/h | 32581m | 5.3m/s | -39.8°C | 2.0% | 0hPa | 2.6V | 00:00:00 | 02:10:04 | 00:00:00 | |
| DM0DOS-11 | 2026-09-05 00:44:48 | 46.80325 | 7.80482 | 81° | 33km/h | 32557m | 6.4m/s | -39.8°C | 2% | 0hPa | 2.6V | 08:30:00 | 02:10:00 | 00:00:00 | |
| IW2NTF | 2026-09-05 00:44:48 | 46.80323 | 7.80456 | 104° | 20km/h | 32540m | 4.7m/s | -39.8°C | 1.9% | 0hPa | 2.5V | 08:30:00 | 02:09:57 | 00:00:00 | |
| BIOWL9-15 | 2026-09-05 00:44:47 | 46.80326 | 7.80495 | 87° | 37km/h | 32564m | 6.5m/s | -39.8°C | 0.2% | -1.0hPa | 2.5V | 00:00:00 | 00:00:00 | 00:00:00 | |
| BIOWL1-15 | 2026-09-05 00:44:43 | 46.80323 | 7.80463 | 86° | 22km/h | 32545m | 5.2m/s | -39.8°C | 0% | 0hPa | 2.5V | 18:12:15 | 02:09:58 | 00:00:00 | |
| DL6DJ-15 | 2026-09-05 00:44:42 | 46.80329 | 7.80441 | 131° | 29km/h | 32529m | 7.1m/s | -39.8°C | 0.2% | -1.0hPa | 2.5V | 00:00:00 | 00:00:00 | 00:00:00 | |
| DO3MHA-11 | 2026-09-05 00:44:38 | 46.80342 | 7.80421 | 136° | 37km/h | 32517m | 4.3m/s | -39.8°C | 2.0% | 0hPa | 2.5V | 00:00:00 | 02:09:53 | 00:00:00 | |
| DF7PN | 2026-09-05 00:44:37 | 46.80349 | 7.80410 | 130° | 38km/h | 32513m | 3.3m/s | -39.9°C | 0.2% | -1.0hPa | 2.6V | 00:00:00 | 00:00:00 | 00:00:00 | |
| DM0DOS-11 | 2026-09-05 00:44:36 | 46.80358 | 7.80390 | 104° | 27km/h | 32503m | 6.5m/s | -39.9°C | 2% | 0hPa | 2.6V | 08:30:00 | 02:09:50 | 00:00:00 | |
| DO3MHA-12 | 2026-09-05 00:44:34 | 46.80358 | 7.80380 | 76° | 37km/h | 32497m | 7.2m/s | -39.9°C | 2.0% | 0hPa | 2.5V | 00:00:00 | 02:09:49 | 00:00:00 | |
| DF1GD-15 | 2026-09-05 00:44:33 | 46.80358 | 7.80380 | 77° | 26km/h | 32497m | 7.3m/s | -39.9°C | 0% | 0hPa | 2.5V | 00:00:00 | 00:00:00 | 00:00:00 | |
| IW2NTF | 2026-09-05 00:44:32 | 46.80342 | 7.80352 | 48° | 42km/h | 32478m | 4.5m/s | -39.9°C | 1.9% | 0hPa | 2.5V | 08:30:00 | 02:09:46 | 00:00:00 | |
| BIOWL1-15 | 2026-09-05 00:44:32 | 46.80349 | 7.80363 | 46° | 37km/h | 32483m | 5.3m/s | -39.9°C | 0% | 0hPa | 2.5V | 18:12:15 | 02:09:47 | 00:00:00 | |
| HASLITAL | 2026-09-05 00:44:30 | 46.80342 | 7.80352 | 50° | 42km/h | 32479m | 4.5m/s | -39.9°C | 0.3% | 0hPa | 2.5V | 00:00:00 | 00:00:00 | 00:00:00 | |
| DM0DOS-11 | 2026-09-05 00:44:30 | 46.80342 | 7.80274 | 151° | 16km/h | 32441m | 5.7m/s | -40.1°C | 2% | 0hPa | 2.5V | 08:30:00 | 02:09:39 | 00:00:00 | |
| DO3MHA-11 | 2026-09-05 00:44:28 | 46.80330 | 7.80311 | 88° | 22km/h | 32463m | 5.5m/s | -40.0°C | 2.0% | 0hPa | 2.5V | 00:00:00 | 02:09:43 | 00:00:00 | |
| DO3MHA-12 | 2026-09-05 00:44:24 | 46.80342 | 7.80274 | 152° | 24km/h | 32441m | 5.7m/s | -40.1°C | 2.0% | 0hPa | 2.5V | 00:00:00 | 02:09:39 | 00:00:00 | |
| HARRO8 | 2026-09-05 00:44:23 | 46.80345 | 7.80272 | 171° | 5km/h | 32436m | 5.7m/s | -40.2°C | 0.3% | -1.0hPa | 2.5V | 00:00:00 | 00:00:00 | 00:00:00 | |
| IW2NTF | 2026-09-05 00:44:22 | 46.80343 | 7.80272 | 9° | 15km/h | 32424m | 5.3m/s | -40.2°C | 2% | 0hPa | 2.5V | 08:30:00 | 02:09:36 | 00:00:00 | |
| BIOWL1-15 | 2026-09-05 00:44:21 | 46.80324 | 7.80246 | 67° | 35km/h | 32402m | 5.6m/s | -40.3°C | 0% | 0hPa | 2.6V | 18:12:15 | 02:09:32 | 00:00:00 | |
| DM0DOS-11 | 2026-09-05 00:44:19 | 46.80320 | 7.80212 | 93° | 22km/h | 32386m | 5.6m/s | -40.3°C | 2% | 0hPa | 2.5V | 08:30:00 | 02:09:29 | 00:00:00 | |
| DB0UT-7 | 2026-09-05 00:44:19 | 46.80334 | 7.80265 | 41° | 18km/h | 32414m | 5.4m/s | -40.2°C | 2.0% | 0hPa | 2.5V | 00:00:00 | 00:00:00 | 00:00:00 | |
| DO3MHA-11 | 2026-09-05 00:44:18 | 46.80328 | 7.80256 | 54° | 20km/h | 32408m | 5.7m/s | -40.2°C | 2.0% | 0hPa | 2.5V | 00:00:00 | 02:09:33 | 00:00:00 | |
| BIOWL9-15 | 2026-09-05 00:44:15 | 46.80320 | 7.80222 | 86° | 29km/h | 32391m | 5.4m/s | -40.3°C | 0.3% | -1.0hPa | 2.5V | 00:00:00 | 00:00:00 | 00:00:00 | |
| DO3MHA-12 | 2026-09-05 00:44:14 | 46.80320 | 7.80212 | 94° | 15km/h | 32386m | 5.5m/s | -40.3°C | 2.0% | 0hPa | 2.5V | 00:00:00 | 02:09:29 | 00:00:00 | |
| DF1GD-15 | 2026-09-05 00:44:13 | 46.80320 | 7.80212 | 94° | 22km/h | 32386m | 5.6m/s | -40.3°C | 0% | 0hPa | 2.5V | 00:00:00 | 00:00:00 | 00:00:00 | |
| IW2NTF | 2026-09-05 00:44:12 | 46.80320 | 7.80201 | 14° | 5km/h | 32369m | 5.6m/s | -40.4°C | 2% | 0hPa | 2.5V | 08:30:00 | 02:09:26 | 00:00:00 | |
| DL6DJ-15 | 2026-09-05 00:44:11 | 46.80318 | 7.80200 | 359° | 7km/h | 32363m | 5.4m/s | -40.4°C | 0.2% | -1.0hPa | 2.5V | 00:00:00 | 00:00:00 | 00:00:00 | |
| DM0DOS-11 | 2026-09-05 00:44:09 | 46.80309 | 7.80175 | 79° | 15km/h | 32322m | 5.9m/s | -40.6°C | 2% | 0hPa | 2.5V | 08:30:00 | 02:09:18 | 00:00:00 | |
| BIOWL1-15 | 2026-09-05 00:44:08 | 46.80311 | 7.80196 | 59° | 13km/h | 32346m | 5.9m/s | -40.5°C | 0% | 0hPa | 2.6V | 18:12:15 | 02:09:22 | 00:00:00 | |
| DO3MHA-11 | 2026-09-05 00:44:08 | 46.80313 | 7.80199 | 34° | 15km/h | 32352m | 5.8m/s | -40.4°C | 2.0% | 0hPa | 2.5V | 00:00:00 | 02:09:23 | 08:30:00 | |
| DF7PN | 2026-09-05 00:44:06 | 46.80310 | 7.80191 | 74° | 13km/h | 32340m | 5.7m/s | -40.5°C | 0.3% | -1.0hPa | 2.5V | 00:00:00 | 00:00:00 | 00:00:00 | |
| DO3MHA-12 | 2026-09-05 00:44:04 | 46.80309 | 7.80180 | 84° | 18km/h | 32329m | 6.0m/s | -40.5°C | 2.0% | 0hPa | 2.5V | 00:00:00 | 02:09:19 | 00:00:00 | |
| DH7VM-15 | 2026-09-05 00:44:03 | 46.80309 | 7.80180 | 85° | 15km/h | 32329m | 6.1m/s | -40.6°C | 0.3% | 0hPa | 2.5V | 00:00:00 | 00:00:00 | 00:00:00 | |
| IW2NTF | 2026-09-05 00:44:02 | 46.80306 | 7.80165 | 69° | 16km/h | 32312m | 5m/s | -40.6°C | 2% | 0hPa | 2.5V | 08:30:00 | 02:09:16 | 00:00:00 | |
| DM0DOS-11 | 2026-09-05 00:43:58 | 46.80306 | 7.80120 | 198° | 15km/h | 32266m | 8.1m/s | -41°C | 2% | 0hPa | 2.5V | 08:30:00 | 02:09:08 | 00:00:00 | |
| BIOWL1-15 | 2026-09-05 00:43:57 | 46.80300 | 7.80127 | 94° | 18km/h | 32283m | 4.4m/s | -40.8°C | 0% | 0hPa | 2.5V | 18:12:15 | 02:09:11 | 00:00:00 | |
| DK5PH-5 | 2026-09-05 00:43:53 | 46.80306 | 7.80119 | 199° | 31km/h | 32266m | 8.1m/s | -40.9°C | 2.0% | 0hPa | 2.5V | 00:00:00 | 02:09:08 | 08:30:00 | |
| IW2NTF | 2026-09-05 00:43:52 | 46.80315 | 7.80126 | 204° | 24km/h | 32252m | 4.5m/s | -41°C | 2% | 0hPa | 2.5V | 08:30:00 | 02:09:06 | 00:00:00 | |
| BIOWL1-15 | 2026-09-05 00:43:46 | 46.80343 | 7.80079 | 104° | 29km/h | 32211m | 6.3m/s | -41.2°C | 0% | 0hPa | 2.6V | 18:12:15 | 02:08:59 | 00:00:00 | |
| BIOWL9-15 | 2026-09-05 00:43:44 | 46.80343 | 7.80079 | 104° | 29km/h | 32211m | 6.3m/s | -41.2°C | 0.3% | -1.0hPa | 2.5V | 00:00:00 | 00:00:00 | 00:00:00 | |
| DM0DOS-11 | 2026-09-05 00:43:43 | 46.80345 | 7.80070 | 112° | 24km/h | 32205m | 5.7m/s | -41.3°C | 2.1% | 0hPa | 2.5V | 08:30:00 | 02:08:58 | 00:00:00 | |
| BIOWL1-15 | 2026-09-05 00:43:35 | 46.80417 | 7.80016 | 129° | 37km/h | 32135m | 6.1m/s | -41.6°C | 0% | 0hPa | 2.5V | 18:12:15 | 02:08:46 | 00:00:00 | |
| DF7PN | 2026-09-05 00:43:35 | 46.80393 | 7.80039 | 165° | 27km/h | 32157m | 6.1m/s | -41.5°C | 0.3% | -1.0hPa | 2.6V | 00:00:00 | 00:00:00 | 00:00:00 | |
| DM0DOS-11 | 2026-09-05 00:43:33 | 46.80405 | 7.80032 | 148° | 27km/h | 32145m | 5m/s | -41.5°C | 2.2% | 0hPa | 2.6V | 08:30:00 | 02:08:48 | 00:00:00 | |
| HASLITAL | 2026-09-05 00:43:29 | 46.80423 | 7.80005 | 127° | 44km/h | 32128m | 7.6m/s | -41.6°C | 0.3% | 0hPa | 2.6V | 00:00:00 | 00:00:00 | 00:00:00 | |
| DM0DOS-11 | 2026-09-05 00:43:28 | 46.80463 | 7.79923 | 150° | 15km/h | 32084m | 6.4m/s | -41.5°C | 2.2% | 0hPa | 2.6V | 08:30:00 | 02:08:38 | 00:00:00 | |
| BIOWL1-15 | 2026-09-05 00:43:25 | 46.80455 | 7.79935 | 126° | 31km/h | 32099m | 7.3m/s | -41.6°C | 0% | 0hPa | 2.5V | 18:12:15 | 02:08:40 | 00:00:00 | |
| IW2NTF | 2026-09-05 00:43:23 | 46.80471 | 7.79920 | 164° | 20km/h | 32073m | 5.3m/s | -41.5°C | 2.2% | 0hPa | 2.5V | 08:30:00 | 02:08:36 | 00:00:00 | |
| HARRO8 | 2026-09-05 00:43:21 | 46.80471 | 7.79920 | 164° | 18km/h | 32073m | 5.3m/s | -41.5°C | 0.3% | -1.0hPa | 2.6V | 00:00:00 | 00:00:00 | 00:00:00 | |
| DB0UT-7 | 2026-09-05 00:43:19 | 46.80482 | 7.79911 | 145° | 29km/h | 32062m | 5.9m/s | -41.4°C | 2.2% | 0hPa | 2.6V | 00:00:00 | 00:00:00 | 00:00:00 | |
| DM0DOS-11 | 2026-09-05 00:43:18 | 46.80511 | 7.79828 | 96° | 38km/h | 32025m | 5.1m/s | -41.4°C | 2.2% | 0hPa | 2.6V | 08:30:00 | 02:08:28 | 00:00:00 | |
| BIOWL1-15 | 2026-09-05 00:43:15 | 46.80507 | 7.79859 | 108° | 46km/h | 32037m | 6.9m/s | -41.5°C | 0% | 0hPa | 2.5V | 18:12:15 | 02:08:30 | 00:00:00 | |
| BIOWL9-15 | 2026-09-05 00:43:13 | 46.80511 | 7.79828 | 96° | 38km/h | 32025m | 5.1m/s | -41.4°C | 0.3% | -1.0hPa | 2.5V | 00:00:00 | 00:00:00 | 00:00:00 | |
| IW2NTF | 2026-09-05 00:43:12 | 46.80514 | 7.79803 | 105° | 31km/h | 32014m | 6.1m/s | -41.4°C | 2.1% | 0hPa | 2.5V | 08:30:00 | 02:08:26 | 00:00:00 | |
| DL6DJ-15 | 2026-09-05 00:43:09 | 46.80526 | 7.79778 | 141° | 26km/h | 31994m | 6.2m/s | -41.3°C | 0.3% | -1.0hPa | 2.6V | 00:00:00 | 00:00:00 | 00:00:00 | |
| DO3MHA-11 | 2026-09-05 00:43:08 | 46.80526 | 7.79778 | 142° | 26km/h | 31994m | 6.1m/s | -41.3°C | 2.2% | 0hPa | 2.6V | 00:00:00 | 02:08:23 | 00:00:00 | |
| DM0DOS-11 | 2026-09-05 00:43:07 | 46.80541 | 7.79748 | 95° | 24km/h | 31963m | 5.3m/s | -41.2°C | 2.1% | 0hPa | 2.6V | 08:30:00 | 02:08:18 | 00:00:00 | |
| BIOWL1-15 | 2026-09-05 00:43:04 | 46.80540 | 7.79756 | 102° | 20km/h | 31968m | 6.1m/s | -41.2°C | 0% | 0hPa | 2.5V | 18:12:15 | 02:08:19 | 00:00:00 | |
| IW2NTF | 2026-09-05 00:43:03 | 46.80543 | 7.79728 | 102° | 31km/h | 31951m | 7.2m/s | -41.1°C | 2.1% | 0hPa | 2.5V | 08:30:00 | 02:08:16 | 00:00:00 | |
| DO3MHA-11 | 2026-09-05 00:42:58 | 46.80551 | 7.79691 | 108° | 22km/h | 31932m | 5.5m/s | -41.0°C | 2.1% | 0hPa | 2.5V | 00:00:00 | 02:08:13 | 00:00:00 | |
| DM0DOS-11 | 2026-09-05 00:42:57 | 46.80556 | 7.79649 | 106° | 15km/h | 31901m | 7m/s | -40.9°C | 2.1% | 0hPa | 2.5V | 08:30:00 | 02:08:08 | 00:00:00 | |
| BIOWL1-15 | 2026-09-05 00:42:54 | 46.80556 | 7.79655 | 97° | 16km/h | 31907m | 5.6m/s | -40.9°C | 0% | 0hPa | 2.5V | 18:12:15 | 02:08:09 | 00:00:00 | |
| IW2NTF | 2026-09-05 00:42:52 | 46.80560 | 7.79639 | 121° | 16km/h | 31888m | 5.7m/s | -40.9°C | 2.1% | 0hPa | 2.5V | 08:30:00 | 02:08:06 | 00:00:00 | |
| HARRO8 | 2026-09-05 00:42:50 | 46.80562 | 7.79634 | 112° | 18km/h | 31882m | 5.3m/s | -40.9°C | 0.3% | -1.0hPa | 2.5V | 00:00:00 | 00:00:00 | 00:00:00 | |
| DB0UT-7 | 2026-09-05 00:42:49 | 46.80563 | 7.79627 | 97° | 27km/h | 31877m | 6.1m/s | -40.9°C | 2.1% | 0hPa | 2.5V | 00:00:00 | 02:08:04 | 00:00:00 | |
| DO3MHA-11 | 2026-09-05 00:42:48 | 46.80563 | 7.79618 | 82° | 29km/h | 31870m | 7.4m/s | -40.9°C | 2.1% | 0hPa | 2.5V | 00:00:00 | 02:08:03 | 00:00:00 | |
| DM0DOS-11 | 2026-09-05 00:42:47 | 46.80555 | 7.79561 | 94° | 33km/h | 31838m | 6.9m/s | -41°C | 2.1% | 0hPa | 2.5V | 08:30:00 | 02:07:58 | 00:00:00 | |
| BIOWL1-15 | 2026-09-05 00:42:44 | 46.80555 | 7.79573 | 85° | 35km/h | 31845m | 6.9m/s | -41°C | 0% | 0hPa | 2.6V | 18:12:15 | 02:07:59 | 00:00:00 | |
| IW2NTF | 2026-09-05 00:42:43 | 46.80558 | 7.79539 | 105° | 26km/h | 31826m | 5.5m/s | -41°C | 2.1% | 0hPa | 2.5V | 08:30:00 | 02:07:56 | 00:00:00 | |
| BIOWL9-15 | 2026-09-05 00:42:42 | 46.80556 | 7.79550 | 102° | 29km/h | 31832m | 5.9m/s | -41.0°C | 0.3% | -1.0hPa | 2.5V | 00:00:00 | 00:00:00 | 00:00:00 | |
| OE9MKV-15 | 2026-09-05 00:42:41 | 46.80558 | 7.79539 | 106° | 26km/h | 31826m | 5.5m/s | -41.0°C | 2.1% | 0hPa | 2.5V | 00:00:00 | 02:07:56 | 00:00:00 | |
| DL6DJ-15 | 2026-09-05 00:42:38 | 46.80556 | 7.79510 | 53° | 20km/h | 31802m | 5.2m/s | -41.1°C | 0.3% | -1.0hPa | 2.5V | 00:00:00 | 00:00:00 | 00:00:00 | |
| DM0DOS-11 | 2026-09-05 00:42:37 | 46.80545 | 7.79484 | 75° | 22km/h | 31778m | 6.1m/s | -41.1°C | 2.1% | 0hPa | 2.5V | 08:30:00 | 02:07:48 | 00:00:00 | |
| BIOWL1-15 | 2026-09-05 00:42:34 | 46.80544 | 7.79476 | 78° | 26km/h | 31772m | 5.6m/s | -41.2°C | 0% | 0hPa | 2.5V | 18:12:15 | 02:07:47 | 00:00:00 | |
| IW2NTF | 2026-09-05 00:42:32 | 46.80542 | 7.79466 | 74° | 29km/h | 31767m | 5.3m/s | -41.2°C | 2.1% | 0hPa | 2.5V | 08:30:00 | 02:07:46 | 00:00:00 | |
| DH7VM-15 | 2026-09-05 00:42:29 | 46.80540 | 7.79455 | 69° | 33km/h | 31761m | 5.9m/s | -41.3°C | 0.3% | 0hPa | 2.6V | 00:00:00 | 00:00:00 | 00:00:00 | |
| DO3MHA-11 | 2026-09-05 00:42:28 | 46.80530 | 7.79431 | 55° | 29km/h | 31747m | 6.7m/s | -41.3°C | 2.1% | 0hPa | 2.6V | 00:00:00 | 02:07:43 | 00:00:00 | |
| HASLITAL | 2026-09-05 00:42:27 | 46.80530 | 7.79431 | 55° | 42km/h | 31747m | 6.8m/s | -41.3°C | 0.3% | 0hPa | 2.6V | 00:00:00 | 00:00:00 | 00:00:00 | |
| DM0DOS-11 | 2026-09-05 00:42:24 | 46.80505 | 7.79381 | 60° | 20km/h | 31716m | 6m/s | -41.2°C | 2.1% | 0hPa | 2.6V | 08:30:00 | 02:07:38 | 00:00:00 | |
| BIOWL1-15 | 2026-09-05 00:42:23 | 46.80505 | 7.79381 | 60° | 20km/h | 31716m | 6m/s | -41.2°C | 0% | 0hPa | 2.6V | 18:12:15 | 02:07:38 | 00:00:00 | |
| IW2NTF | 2026-09-05 00:42:22 | 46.80499 | 7.79371 | 38° | 18km/h | 31704m | 6.5m/s | -41.1°C | 2.1% | 0hPa | 2.5V | 08:30:00 | 02:07:36 | 00:00:00 | |
| DB0UT-7 | 2026-09-05 00:42:19 | 46.80489 | 7.79362 | 30° | 31km/h | 31692m | 5.6m/s | -41.0°C | 2.1% | 0hPa | 2.6V | 00:00:00 | 00:00:00 | 00:00:00 | |
| DM0DOS-11 | 2026-09-05 00:42:18 | 46.80454 | 7.79308 | 52° | 37km/h | 31654m | 5.2m/s | -41.3°C | 2.2% | 0hPa | 2.6V | 08:30:00 | 02:07:28 | 00:00:00 | |
| DO3MHA-11 | 2026-09-05 00:42:18 | 46.80483 | 7.79356 | 34° | 35km/h | 31686m | 5.4m/s | -41.0°C | 2.1% | 0hPa | 2.6V | 00:00:00 | 02:07:33 | 00:00:00 | |
| DL1ZP-14 | 2026-09-05 00:42:14 | 46.80459 | 7.79319 | 55° | 35km/h | 31660m | 5.5m/s | -41.3°C | 0.3% | -1.0hPa | 2.6V | 00:00:00 | 00:00:00 | 00:00:00 | |
| IW2NTF | 2026-09-05 00:42:13 | 46.80441 | 7.79290 | 34° | 37km/h | 31642m | 6.7m/s | -41.3°C | 2.1% | 0hPa | 2.5V | 08:30:00 | 02:07:26 | 00:00:00 | |
| BIOWL1-15 | 2026-09-05 00:42:13 | 46.80370 | 7.79230 | 29° | 44km/h | 31574m | 4.9m/s | -41.2°C | 0% | 0hPa | 2.5V | 18:12:15 | 02:07:15 | 00:00:00 | |
| BIOWL9-15 | 2026-09-05 00:42:11 | 46.80441 | 7.79290 | 34° | 35km/h | 31642m | 6.7m/s | -41.3°C | 0.3% | -1.0hPa | 2.6V | 00:00:00 | 00:00:00 | 00:00:00 | |
| DO3MHA-11 | 2026-09-05 00:42:08 | 46.80419 | 7.79275 | 17° | 31km/h | 31625m | 6.3m/s | -41.3°C | 2.1% | 0hPa | 2.6V | 00:00:00 | 02:07:23 | 00:00:00 | |
| DL6DJ-15 | 2026-09-05 00:42:07 | 46.80408 | 7.79270 | 30° | 18km/h | 31611m | 6.1m/s | -41.3°C | 0.3% | -1.0hPa | 2.5V | 00:00:00 | 00:00:00 | 00:00:00 | |
| IW2NTF | 2026-09-05 00:42:06 | 46.80379 | 7.79238 | 30° | 42km/h | 31580m | 6m/s | -41.2°C | 2.1% | 0hPa | 2.5V | 08:30:00 | 02:07:16 | 00:00:00 | |
| HASLITAL | 2026-09-05 00:42:06 | 46.80413 | 7.79273 | 20° | 22km/h | 31618m | 7.2m/s | -41.3°C | 0.3% | 0hPa | 2.6V | 00:00:00 | 00:00:00 | 00:00:00 | |
| DM0DOS-11 | 2026-09-05 00:42:05 | 46.80395 | 7.79253 | 38° | 31km/h | 31593m | 7m/s | -41.2°C | 2.1% | 0hPa | 2.6V | 08:30:00 | 02:07:18 | 00:00:00 | |
| BIOWL1-15 | 2026-09-05 00:42:01 | 46.80360 | 7.79223 | 29° | 42km/h | 31569m | 4.7m/s | -41.2°C | 0% | 0hPa | 2.5V | 18:12:15 | 02:07:14 | 00:00:00 | |
| DM0DOS-11 | 2026-09-05 00:41:58 | 46.80326 | 7.79195 | 9° | 20km/h | 31533m | 6.5m/s | -41.4°C | 2.1% | 0hPa | 2.6V | 08:30:00 | 02:07:08 | 00:00:00 | |
| DO3MHA-11 | 2026-09-05 00:41:58 | 46.80351 | 7.79215 | 31° | 26km/h | 31564m | 5.8m/s | -41.2°C | 2.1% | 0hPa | 2.5V | 00:00:00 | 02:07:13 | 00:00:00 | |
| IW2NTF | 2026-09-05 00:41:53 | 46.80313 | 7.79192 | 7° | 31km/h | 31520m | 6m/s | -41.4°C | 2.2% | 0hPa | 2.5V | 08:30:00 | 02:07:06 | 00:00:00 | |
| BIOWL1-15 | 2026-09-05 00:41:48 | 46.80289 | 7.79183 | 25° | 33km/h | 31501m | 7m/s | -41.5°C | 0% | 0hPa | 2.5V | 18:12:15 | 02:07:03 | 00:00:00 | |
| DO3MHA-11 | 2026-09-05 00:41:48 | 46.80289 | 7.79183 | 25° | 31km/h | 31502m | 7.0m/s | -41.5°C | 2.2% | 0hPa | 2.6V | 00:00:00 | 02:07:03 | 00:00:00 | |
| IW2NTF | 2026-09-05 00:41:46 | 46.80242 | 7.79148 | 3° | 24km/h | 31459m | 5.7m/s | -41.2°C | 2.1% | 0hPa | 2.6V | 08:30:00 | 02:06:56 | 00:00:00 | |
| HASLITAL | 2026-09-05 00:41:45 | 46.80276 | 7.79171 | 39° | 31km/h | 31489m | 5.7m/s | -41.5°C | 0.4% | 0hPa | 2.5V | 00:00:00 | 00:00:00 | 00:00:00 | |
| DM0DOS-11 | 2026-09-05 00:41:44 | 46.80256 | 7.79153 | 22° | 31km/h | 31470m | 5.8m/s | -41.4°C | 2.1% | 0hPa | 2.5V | 08:30:00 | 02:06:58 | 00:00:00 | |
| BIOWL1-15 | 2026-09-05 00:41:38 | 46.80167 | 7.79124 | 359° | 26km/h | 31367m | 7.3m/s | -41.2°C | 0% | 0hPa | 2.6V | 18:12:15 | 02:06:41 | 00:00:00 | |
| DM0DOS-11 | 2026-09-05 00:41:37 | 46.80198 | 7.79154 | 21° | 29km/h | 31410m | 5.2m/s | -41.2°C | 2.1% | 0hPa | 2.5V | 08:30:00 | 02:06:48 | 00:00:00 | |
| DL6DJ-15 | 2026-09-05 00:41:35 | 46.80198 | 7.79154 | 21° | 27km/h | 31410m | 5.2m/s | -41.2°C | 0.3% | -1.0hPa | 2.6V | 00:00:00 | 00:00:00 | 00:00:00 | |
| IW2NTF | 2026-09-05 00:41:33 | 46.80186 | 7.79143 | 44° | 24km/h | 31397m | 6.9m/s | -41.2°C | 2.1% | 0hPa | 2.6V | 08:30:00 | 02:06:46 | 00:00:00 | |
| DF7PN | 2026-09-05 00:41:31 | 46.80183 | 7.79137 | 53° | 20km/h | 31391m | 6.0m/s | -41.2°C | 0.3% | -1.0hPa | 2.6V | 00:00:00 | 00:00:00 | 00:00:00 | |
| OE9MKV-15 | 2026-09-05 00:41:28 | 46.80177 | 7.79127 | 35° | 18km/h | 31380m | 4.7m/s | -41.2°C | 2.2% | 0hPa | 2.6V | 00:00:00 | 02:06:43 | 00:00:00 | |
| IW2NTF | 2026-09-05 00:41:26 | 46.80133 | 7.79136 | 345° | 16km/h | 31337m | 6.3m/s | -41.1°C | 2.1% | 0hPa | 2.6V | 08:30:00 | 02:06:36 | 00:00:00 | |
| HASLITAL | 2026-09-05 00:41:25 | 46.80167 | 7.79124 | 360° | 26km/h | 31368m | 7.3m/s | -41.2°C | 0.3% | 0hPa | 2.5V | 00:00:00 | 00:00:00 | 00:00:00 | |
| DM0DOS-11 | 2026-09-05 00:41:24 | 46.80145 | 7.79131 | 342° | 29km/h | 31349m | 5.2m/s | -41.1°C | 2.1% | 0hPa | 2.5V | 08:30:00 | 02:06:38 | 00:00:00 | |
| BIOWL1-15 | 2026-09-05 00:41:24 | 46.80152 | 7.79127 | 345° | 33km/h | 31355m | 5.4m/s | -41.2°C | 0% | 0hPa | 2.5V | 18:12:15 | 02:06:39 | 00:00:00 | |
| DB0UT-7 | 2026-09-05 00:41:19 | 46.80127 | 7.79136 | 22° | 18km/h | 31326m | 5.4m/s | -41.0°C | 2.1% | 0hPa | 2.5V | 00:00:00 | 00:00:00 | 00:00:00 | |
| DM0DOS-11 | 2026-09-05 00:41:17 | 46.80101 | 7.79118 | 9° | 15km/h | 31291m | 6.6m/s | -41.1°C | 2.1% | 0hPa | 2.5V | 08:30:00 | 02:06:28 | 00:00:00 | |
| BIOWL1-15 | 2026-09-05 00:41:14 | 46.80105 | 7.79120 | 20° | 20km/h | 31297m | 5.2m/s | -41.1°C | 0% | 0hPa | 2.5V | 18:12:15 | 02:06:29 | 00:00:00 | |
| IW2NTF | 2026-09-05 00:41:13 | 46.80095 | 7.79121 | 306° | 15km/h | 31279m | 5.7m/s | -41.1°C | 2.1% | 0hPa | 2.5V | 08:30:00 | 02:06:26 | 00:00:00 | |
| DL1ZP-14 | 2026-09-05 00:41:12 | 46.80098 | 7.79118 | 337° | 11km/h | 31285m | 6.2m/s | -41.1°C | 0.3% | -1.0hPa | 2.5V | 00:00:00 | 00:00:00 | 00:00:00 | |
| BIOWL9-15 | 2026-09-05 00:41:09 | 46.80085 | 7.79143 | 309° | 29km/h | 31261m | 6.0m/s | -41.2°C | 0.3% | -1.0hPa | 2.5V | 00:00:00 | 00:00:00 | 00:00:00 | |
| IW2NTF | 2026-09-05 00:41:06 | 46.80064 | 7.79152 | 73° | 18km/h | 31220m | 5.7m/s | -41.2°C | 2.1% | 0hPa | 2.5V | 08:30:00 | 02:06:16 | 00:00:00 | |
| DM0DOS-11 | 2026-09-05 00:41:04 | 46.80066 | 7.79163 | 58° | 11km/h | 31232m | 6.4m/s | -41.2°C | 2.1% | 0hPa | 2.5V | 08:30:00 | 02:06:18 | 00:00:00 | |
| BIOWL1-15 | 2026-09-05 00:41:03 | 46.80066 | 7.79163 | 59° | 11km/h | 31232m | 6.4m/s | -41.2°C | 0% | 0hPa | 2.5V | 18:12:15 | 02:06:18 | 00:00:00 | |
| DF7PN | 2026-09-05 00:41:00 | 46.80060 | 7.79142 | 41° | 11km/h | 31210m | 4.8m/s | -41.2°C | 0.3% | -1.0hPa | 2.6V | 00:00:00 | 00:00:00 | 00:00:00 | |
| DM0DOS-11 | 2026-09-05 00:40:58 | 46.80059 | 7.79176 | 260° | 29km/h | 31175m | 4.1m/s | -41.3°C | 2.1% | 0hPa | 2.6V | 08:30:00 | 02:06:08 | 00:00:00 | |
| OE9MKV-15 | 2026-09-05 00:40:54 | 46.80057 | 7.79165 | 257° | 16km/h | 31180m | 5.1m/s | -41.3°C | 2.1% | 0hPa | 2.5V | 00:00:00 | 02:06:09 | 00:00:00 | |
| IW2NTF | 2026-09-05 00:40:53 | 46.80059 | 7.79193 | 281° | 18km/h | 31165m | 6m/s | -41.3°C | 2.1% | 0hPa | 2.5V | 08:30:00 | 02:06:06 | 00:00:00 | |
| BIOWL1-15 | 2026-09-05 00:40:53 | 46.80059 | 7.79185 | 268° | 26km/h | 31170m | 4.9m/s | -41.3°C | 0% | 0hPa | 2.5V | 18:12:15 | 02:06:07 | 00:00:00 | |
| DB0UT-7 | 2026-09-05 00:40:49 | 46.80055 | 7.79200 | 4° | 13km/h | 31154m | 5.3m/s | -41.4°C | 2.1% | 0hPa | 2.6V | 00:00:00 | 02:06:04 | 00:00:00 | |
| IW2NTF | 2026-09-05 00:40:46 | 46.80056 | 7.79176 | 309° | 13km/h | 31108m | 6.1m/s | -41.6°C | 2.1% | 0hPa | 2.5V | 08:30:00 | 02:05:56 | 00:00:00 | |
| HARRO8 | 2026-09-05 00:40:46 | 46.80055 | 7.79183 | 111° | 16km/h | 31130m | 4.2m/s | -41.5°C | 0.3% | -1.0hPa | 2.6V | 00:00:00 | 00:00:00 | 00:00:00 | |
| DM0DOS-11 | 2026-09-05 00:40:44 | 46.80057 | 7.79175 | 109° | 5km/h | 31121m | 5.4m/s | -41.5°C | 2.1% | 0hPa | 2.6V | 08:30:00 | 02:05:58 | 00:00:00 | |
| BIOWL1-15 | 2026-09-05 00:40:41 | 46.80056 | 7.79176 | 310° | 13km/h | 31108m | 6.1m/s | -41.6°C | 0% | 0hPa | 2.5V | 18:12:15 | 02:05:56 | 00:00:00 | |
| DL1ZP-14 | 2026-09-05 00:40:41 | 46.80056 | 7.79176 | 309° | 11km/h | 31108m | 6.1m/s | -41.6°C | 0.3% | -1.0hPa | 2.5V | 00:00:00 | 00:00:00 | 00:00:00 | |
| DM0DOS-11 | 2026-09-05 00:40:38 | 46.80068 | 7.79205 | 145° | 16km/h | 31068m | 4.5m/s | -41.8°C | 2.1% | 0hPa | 2.6V | 08:30:00 | 02:05:48 | 00:00:00 | |
| BIOWL9-15 | 2026-09-05 00:40:38 | 46.80052 | 7.79200 | 242° | 16km/h | 31088m | 5.7m/s | -41.7°C | 0.3% | -1.0hPa | 2.5V | 00:00:00 | 00:00:00 | 00:00:00 | |
| IW2NTF | 2026-09-05 00:40:33 | 46.80070 | 7.79197 | 67° | 13km/h | 31056m | 6.4m/s | -41.9°C | 2.2% | 0hPa | 2.5V | 08:30:00 | 02:05:46 | 00:00:00 | |
| BIOWL1-15 | 2026-09-05 00:40:31 | 46.80065 | 7.79189 | 29° | 18km/h | 31045m | 4.5m/s | -41.9°C | 0% | 0hPa | 2.5V | 18:12:15 | 02:05:44 | 00:00:00 | |
| DF7PN | 2026-09-05 00:40:29 | 46.80061 | 7.79186 | 26° | 15km/h | 31041m | 5.0m/s | -42.0°C | 0.3% | -1.0hPa | 2.6V | 00:00:00 | 00:00:00 | 00:00:00 | |
| IW2NTF | 2026-09-05 00:40:26 | 46.80072 | 7.79175 | 154° | 9km/h | 31002m | 5.8m/s | -42.2°C | 2.2% | 0hPa | 2.6V | 08:30:00 | 02:05:36 | 00:00:00 | |
| DM0DOS-11 | 2026-09-05 00:40:24 | 46.80066 | 7.79178 | 165° | 16km/h | 31012m | 5.1m/s | -42.1°C | 2.2% | 0hPa | 2.5V | 08:30:00 | 02:05:38 | 00:00:00 | |
| BIOWL1-15 | 2026-09-05 00:40:20 | 46.80074 | 7.79173 | 124° | 5km/h | 30996m | 5.8m/s | -42.2°C | 0% | 0hPa | 2.5V | 18:12:15 | 02:05:35 | 00:00:00 | |
| DB0UT-7 | 2026-09-05 00:40:19 | 46.80074 | 7.79171 | 72° | 20km/h | 30990m | 5.4m/s | -42.2°C | 2.2% | 0hPa | 2.5V | 00:00:00 | 00:00:00 | 00:00:00 | |
| DM0DOS-11 | 2026-09-05 00:40:18 | 46.80077 | 7.79151 | 108° | 20km/h | 30955m | 5.4m/s | -42.5°C | 2.2% | 0hPa | 2.5V | 08:30:00 | 02:05:28 | 00:00:00 | |
| HARRO8 | 2026-09-05 00:40:15 | 46.80075 | 7.79158 | 113° | 15km/h | 30961m | 5.1m/s | -42.5°C | 0.3% | -1.0hPa | 2.6V | 00:00:00 | 00:00:00 | 00:00:00 | |
| IW2NTF | 2026-09-05 00:40:14 | 46.80079 | 7.79135 | 94° | 26km/h | 30943m | 6.6m/s | -42.5°C | 2.2% | 0hPa | 2.6V | 08:30:00 | 02:05:26 | 00:00:00 | |
| BIOWL1-15 | 2026-09-05 00:40:11 | 46.80080 | 7.79116 | 100° | 26km/h | 30932m | 4.9m/s | -42.6°C | 0% | 0hPa | 2.5V | 18:12:15 | 02:05:24 | 00:00:00 | |
| DL1ZP-14 | 2026-09-05 00:40:10 | 46.80079 | 7.79126 | 93° | 26km/h | 30937m | 5.3m/s | -42.6°C | 0.3% | -1.0hPa | 2.5V | 00:00:00 | 00:00:00 | 00:00:00 | |
| DM0DOS-11 | 2026-09-05 00:40:08 | 46.80096 | 7.79081 | 102° | 9km/h | 30898m | 6.5m/s | -42.7°C | 2.3% | 0hPa | 2.5V | 08:30:00 | 02:05:18 | 00:00:00 | |
| BIOWL9-15 | 2026-09-05 00:40:07 | 46.80088 | 7.79093 | 134° | 20km/h | 30914m | 5.6m/s | -42.6°C | 0.3% | -1.0hPa | 2.6V | 00:00:00 | 00:00:00 | 00:00:00 | |
| IW2NTF | 2026-09-05 00:40:06 | 46.80093 | 7.79073 | 54° | 18km/h | 30886m | 4.6m/s | -42.7°C | 2.3% | 0hPa | 2.6V | 08:30:00 | 02:05:16 | 00:00:00 | |
| DB0ND-19 | 2026-09-05 00:40:04 | 46.80094 | 7.79084 | 132° | 11km/h | 30904m | 5.1m/s | 0°C | -1.0% | -1.0hPa | 2.5V | 00:00:00 | 00:00:00 | 00:00:00 | |
| DL6DJ-15 | 2026-09-05 00:40:02 | 46.80095 | 7.79077 | 59° | 11km/h | 30892m | 5.9m/s | -42.7°C | 0.3% | -1.0hPa | 2.5V | 00:00:00 | 00:00:00 | 00:00:00 | |
| HASLITAL | 2026-09-05 00:40:01 | 46.80095 | 7.79077 | 60° | 13km/h | 30892m | 5.9m/s | -42.7°C | 0.4% | 0hPa | 2.5V | 00:00:00 | 00:00:00 | 00:00:00 | |
| DM0DOS-11 | 2026-09-05 00:39:58 | 46.80098 | 7.78983 | 96° | 31km/h | 30841m | 5.8m/s | -42.8°C | 2.3% | 0hPa | 2.5V | 08:30:00 | 02:05:08 | 00:00:00 | |
| BIOWL1-15 | 2026-09-05 00:39:58 | 46.80098 | 7.78973 | 88° | 24km/h | 30835m | 5.8m/s | -42.8°C | 0% | 0hPa | 2.5V | 18:12:15 | 02:05:07 | 00:00:00 | |
| DF7PN | 2026-09-05 00:39:58 | 46.80089 | 7.79036 | 101° | 35km/h | 30864m | 6.6m/s | -42.7°C | 0.3% | -1.0hPa | 2.5V | 00:00:00 | 00:00:00 | 00:00:00 | |
| IW2NTF | 2026-09-05 00:39:53 | 46.80098 | 7.78965 | 79° | 18km/h | 30829m | 6m/s | -42.8°C | 2.3% | 0hPa | 2.5V | 08:30:00 | 02:05:06 | 00:00:00 | |
| OE9MKV-15 | 2026-09-05 00:39:50 | 46.80097 | 7.78959 | 73° | 24km/h | 30823m | 7.0m/s | -42.7°C | 2.3% | 0hPa | 2.5V | 00:00:00 | 02:05:05 | 00:00:00 | |
| DM0DOS-11 | 2026-09-05 00:39:47 | 46.80076 | 7.78914 | 78° | 31km/h | 30778m | 4.9m/s | -42.9°C | 2.3% | 0hPa | 2.5V | 08:30:00 | 02:04:57 | 00:00:00 | |
| IW2NTF | 2026-09-05 00:39:46 | 46.80075 | 7.78902 | 93° | 33km/h | 30772m | 6.9m/s | -42.9°C | 2.3% | 0hPa | 2.5V | 08:30:00 | 02:04:56 | 00:00:00 | |
| BIOWL1-15 | 2026-09-05 00:39:42 | 46.80090 | 7.78828 | 64° | 27km/h | 30731m | 5.6m/s | -42.8°C | 0% | 0hPa | 2.6V | 18:12:15 | 02:04:49 | 00:00:00 | |
| HASLITAL | 2026-09-05 00:39:41 | 46.80076 | 7.78914 | 80° | 31km/h | 30779m | 4.9m/s | -42.9°C | 0.4% | 0hPa | 2.6V | 00:00:00 | 00:00:00 | 00:00:00 | |
| DL1ZP-14 | 2026-09-05 00:39:39 | 46.80081 | 7.78878 | 119° | 35km/h | 30759m | 5.7m/s | -42.9°C | 0.3% | -1.0hPa | 2.6V | 00:00:00 | 00:00:00 | 00:00:00 | |
| BIOWL9-15 | 2026-09-05 00:39:36 | 46.80092 | 7.78837 | 80° | 26km/h | 30738m | 6.1m/s | -42.8°C | 0.3% | -1.0hPa | 2.5V | 00:00:00 | 00:00:00 | 00:00:00 | |
| DM0DOS-11 | 2026-09-05 00:39:35 | 46.80083 | 7.78811 | 56° | 26km/h | 30720m | 6.2m/s | -42.8°C | 2.3% | 0hPa | 2.5V | 08:30:00 | 02:04:47 | 00:00:00 | |
| BIOWL1-15 | 2026-09-05 00:39:34 | 46.80083 | 7.78811 | 57° | 26km/h | 30720m | 6.2m/s | -42.8°C | 0% | 0hPa | 2.5V | 18:12:15 | 02:04:47 | 00:00:00 | |
| IW2NTF | 2026-09-05 00:39:34 | 46.80080 | 7.78804 | 63° | 24km/h | 30714m | 6.1m/s | -42.8°C | 2.2% | 0hPa | 2.5V | 08:30:00 | 02:04:46 | 00:00:00 | |
| DL6DJ-15 | 2026-09-05 00:39:31 | 46.80080 | 7.78804 | 63° | 22km/h | 30714m | 6.1m/s | -42.8°C | 0.3% | -1.0hPa | 2.5V | 00:00:00 | 00:00:00 | 00:00:00 | |
| DF7PN | 2026-09-05 00:39:26 | 46.80077 | 7.78763 | 90° | 24km/h | 30685m | 5.5m/s | -42.9°C | 0.4% | -1.0hPa | 2.5V | 00:00:00 | 00:00:00 | 00:00:00 | |
| DM0DOS-11 | 2026-09-05 00:39:25 | 46.80082 | 7.78735 | 119° | 15km/h | 30662m | 6.4m/s | -43°C | 2.3% | 0hPa | 2.5V | 08:30:00 | 02:04:37 | 00:00:00 | |
| IW2NTF | 2026-09-05 00:39:24 | 46.80083 | 7.78730 | 116° | 11km/h | 30656m | 5.1m/s | -43.1°C | 2.3% | 0hPa | 2.5V | 08:30:00 | 02:04:36 | 00:00:00 | |
| BIOWL1-15 | 2026-09-05 00:39:23 | 46.80083 | 7.78730 | 116° | 11km/h | 30656m | 5.1m/s | -43.1°C | 0% | 0hPa | 2.5V | 18:12:15 | 02:04:36 | 00:00:00 | |
| HASLITAL | 2026-09-05 00:39:20 | 46.80083 | 7.78730 | 117° | 11km/h | 30657m | 5.1m/s | -43.1°C | 0.4% | 0hPa | 2.5V | 00:00:00 | 00:00:00 | 00:00:00 | |
| DB0UT-7 | 2026-09-05 00:39:19 | 46.80082 | 7.78723 | 55° | 22km/h | 30646m | 6.6m/s | -43.1°C | 2.3% | 0hPa | 2.5V | 00:00:00 | 00:00:00 | 08:30:00 | |
| IW2NTF | 2026-09-05 00:39:16 | 46.80062 | 7.78679 | 97° | 9km/h | 30600m | 4.6m/s | -43.2°C | 2.3% | 0hPa | 2.5V | 08:30:00 | 02:04:26 | 00:00:00 | |
| DM0DOS-11 | 2026-09-05 00:39:15 | 46.80061 | 7.78682 | 96° | 11km/h | 30605m | 5.1m/s | -43.2°C | 2.3% | 0hPa | 2.6V | 08:30:00 | 02:04:27 | 00:00:00 | |
| BIOWL1-15 | 2026-09-05 00:39:10 | 46.80062 | 7.78675 | 83° | 11km/h | 30595m | 5.7m/s | -43.3°C | 0% | 0hPa | 2.5V | 18:12:15 | 02:04:25 | 00:00:00 | |
| DL1ZP-14 | 2026-09-05 00:39:08 | 46.80055 | 7.78661 | 43° | 20km/h | 30579m | 4.8m/s | -43.3°C | 0.4% | -1.0hPa | 2.6V | 00:00:00 | 00:00:00 | 00:00:00 | |
| DM0DOS-11 | 2026-09-05 00:39:05 | 46.80038 | 7.78630 | 70° | 27km/h | 30551m | 6.1m/s | -43.3°C | 2.4% | 0hPa | 2.6V | 08:30:00 | 02:04:17 | 00:00:00 | |
| BIOWL9-15 | 2026-09-05 00:39:04 | 46.80044 | 7.78645 | 53° | 18km/h | 30563m | 5.5m/s | -43.3°C | 0.4% | -1.0hPa | 2.6V | 00:00:00 | 00:00:00 | 00:00:00 | |
| IW2NTF | 2026-09-05 00:39:03 | 46.80036 | 7.78619 | 72° | 31km/h | 30545m | 6.7m/s | -43.3°C | 2.4% | 0hPa | 2.6V | 08:30:00 | 02:04:16 | 00:00:00 | |
| BIOWL1-15 | 2026-09-05 00:38:59 | 46.80025 | 7.78581 | 50° | 18km/h | 30524m | 7m/s | -43.4°C | 0% | 0hPa | 2.6V | 18:12:15 | 02:04:12 | 00:00:00 | |
| DF7PN | 2026-09-05 00:38:55 | 46.80018 | 7.78577 | 2° | 18km/h | 30512m | 5.2m/s | -43.4°C | 0.4% | -1.0hPa | 2.6V | 00:00:00 | 00:00:00 | 00:00:00 | |
| IW2NTF | 2026-09-05 00:38:54 | 46.79994 | 7.78564 | 44° | 35km/h | 30489m | 5.6m/s | -43.3°C | 2.4% | 0hPa | 2.6V | 08:30:00 | 02:04:06 | 00:00:00 | |
| DM0DOS-11 | 2026-09-05 00:38:54 | 46.80000 | 7.78571 | 28° | 29km/h | 30496m | 6m/s | -43.3°C | 2.3% | 0hPa | 2.6V | 08:30:00 | 02:04:07 | 00:00:00 | |
| DB0UT-7 | 2026-09-05 00:38:49 | 46.79985 | 7.78542 | 71° | 18km/h | 30481m | 4.1m/s | -43.2°C | 2.3% | 0hPa | 2.5V | 00:00:00 | 02:04:04 | 00:00:00 | |
| DM0DOS-11 | 2026-09-05 00:38:47 | 46.79980 | 7.78506 | 15° | 15km/h | 30442m | 5.6m/s | -43.3°C | 2.3% | 0hPa | 2.5V | 08:30:00 | 02:03:57 | 00:00:00 | |
| IW2NTF | 2026-09-05 00:38:46 | 46.79976 | 7.78504 | 27° | 22km/h | 30436m | 6m/s | -43.4°C | 2.3% | 0hPa | 2.6V | 08:30:00 | 02:03:56 | 00:00:00 | |
| HARRO8 | 2026-09-05 00:38:41 | 46.79976 | 7.78504 | 27° | 20km/h | 30437m | 6.0m/s | -43.4°C | 0.3% | -1.0hPa | 2.5V | 00:00:00 | 00:00:00 | 00:00:00 | |
| HASLITAL | 2026-09-05 00:38:40 | 46.79975 | 7.78504 | 29° | 22km/h | 30437m | 6.0m/s | -43.4°C | 0.4% | 0hPa | 2.5V | 00:00:00 | 00:00:00 | 00:00:00 | |
| DL1ZP-14 | 2026-09-05 00:38:37 | 46.79950 | 7.78470 | 45° | 20km/h | 30410m | 6.3m/s | -43.5°C | 0.4% | -1.0hPa | 2.5V | 00:00:00 | 00:00:00 | 00:00:00 | |
| DH7VM-15 | 2026-09-05 00:38:34 | 46.79947 | 7.78465 | 40° | 15km/h | 30404m | 6.0m/s | -43.5°C | 0.4% | 0hPa | 2.5V | 00:00:00 | 00:00:00 | 00:00:00 | |
| IW2NTF | 2026-09-05 00:38:33 | 46.79937 | 7.78456 | 45° | 13km/h | 30382m | 5.6m/s | -43.5°C | 2.4% | 0hPa | 2.5V | 08:30:00 | 02:03:46 | 00:00:00 | |
| BIOWL1-15 | 2026-09-05 00:38:28 | 46.79928 | 7.78437 | 49° | 13km/h | 30361m | 6.4m/s | -43.5°C | 0% | 0hPa | 2.5V | 18:12:15 | 02:03:42 | 00:00:00 | |
| IW2NTF | 2026-09-05 00:38:26 | 46.79904 | 7.78431 | 6° | 24km/h | 30325m | 5.1m/s | -43.4°C | 2.3% | 0hPa | 2.5V | 08:30:00 | 02:03:36 | 00:00:00 | |
| DF7PN | 2026-09-05 00:38:24 | 46.79919 | 7.78433 | 359° | 13km/h | 30343m | 5.3m/s | -43.4°C | 0.4% | -1.0hPa | 2.5V | 00:00:00 | 00:00:00 | 00:00:00 | |
| DM0DOS-11 | 2026-09-05 00:38:23 | 46.79910 | 7.78432 | 5° | 22km/h | 30331m | 6.2m/s | -43.4°C | 2.4% | 0hPa | 2.5V | 08:30:00 | 02:03:37 | 00:00:00 | |
| DB0UT-7 | 2026-09-05 00:38:19 | 46.79894 | 7.78430 | 359° | 16km/h | 30315m | 6.6m/s | -43.4°C | 2.4% | 0hPa | 2.5V | 00:00:00 | 00:00:00 | 00:00:00 | |
| DM0DOS-11 | 2026-09-05 00:38:17 | 46.79881 | 7.78425 | 30° | 9km/h | 30274m | 5m/s | -43.4°C | 2.4% | 0hPa | 2.5V | 08:30:00 | 02:03:27 | 00:00:00 | |
| IW2NTF | 2026-09-05 00:38:16 | 46.79879 | 7.78425 | 0° | 7km/h | 30268m | 6.5m/s | -43.4°C | 2.4% | 0hPa | 2.5V | 08:30:00 | 02:03:26 | 00:00:00 | |
| BIOWL1-15 | 2026-09-05 00:38:16 | 46.79887 | 7.78432 | 358° | 4km/h | 30297m | 4.8m/s | -43.4°C | 0% | 0hPa | 2.5V | 18:12:15 | 02:03:31 | 00:00:00 | |
| HARRO8 | 2026-09-05 00:38:10 | 46.79876 | 7.78426 | 325° | 9km/h | 30262m | 6.5m/s | -43.4°C | 0.4% | -1.0hPa | 2.5V | 00:00:00 | 00:00:00 | 00:00:00 | |
| DL1ZP-14 | 2026-09-05 00:38:06 | 46.79858 | 7.78447 | 332° | 22km/h | 30233m | 4.7m/s | -43.4°C | 0.4% | -1.0hPa | 2.5V | 00:00:00 | 00:00:00 | 00:00:00 | |
| IW2NTF | 2026-09-05 00:38:05 | 46.79840 | 7.78469 | 306° | 15km/h | 30205m | 4.7m/s | -43.5°C | 2.4% | 0hPa | 2.5V | 08:30:00 | 02:03:15 | 00:00:00 | |
| BIOWL1-15 | 2026-09-05 00:38:03 | 46.79845 | 7.78460 | 313° | 18km/h | 30216m | 6.7m/s | -43.5°C | 0% | 0hPa | 2.6V | 18:12:15 | 02:03:17 | 00:00:00 | |
| DM0DOS-11 | 2026-09-05 00:38:03 | 46.79845 | 7.78460 | 312° | 18km/h | 30216m | 6.7m/s | -43.4°C | 2.3% | 0hPa | 2.6V | 08:30:00 | 02:03:17 | 00:00:00 | |
| BIOWL9-15 | 2026-09-05 00:38:02 | 46.79845 | 7.78460 | 312° | 16km/h | 30217m | 6.7m/s | -43.5°C | 0.4% | -1.0hPa | 2.6V | 00:00:00 | 00:00:00 | 00:00:00 | |
| DL6DJ-15 | 2026-09-05 00:37:58 | 46.79835 | 7.78475 | 343° | 13km/h | 30194m | 6.7m/s | -43.5°C | 0.4% | -1.0hPa | 2.6V | 00:00:00 | 00:00:00 | 00:00:00 | |
| DM0DOS-11 | 2026-09-05 00:37:57 | 46.79807 | 7.78486 | 303° | 22km/h | 30160m | 6.4m/s | -43.7°C | 2.4% | 0hPa | 2.6V | 08:30:00 | 02:03:07 | 00:00:00 | |
| DF7PN | 2026-09-05 00:37:55 | 46.79811 | 7.78481 | 324° | 20km/h | 30167m | 7.0m/s | -43.6°C | 0.4% | -1.0hPa | 2.5V | 00:00:00 | 00:00:00 | 00:00:00 | |
| IW2NTF | 2026-09-05 00:37:53 | 46.79803 | 7.78501 | 289° | 22km/h | 30149m | 5m/s | -43.8°C | 2.4% | 0hPa | 2.5V | 08:30:00 | 02:03:05 | 00:00:00 | |
| BIOWL1-15 | 2026-09-05 00:37:45 | 46.79760 | 7.78556 | 301° | 29km/h | 30063m | 6.8m/s | -44.1°C | 0% | 0hPa | 2.6V | 18:12:15 | 02:02:50 | 00:00:00 | |
| IW2NTF | 2026-09-05 00:37:43 | 46.79783 | 7.78527 | 323° | 18km/h | 30092m | 6.7m/s | -44°C | 2.5% | 0hPa | 2.6V | 08:30:00 | 02:02:55 | 00:00:00 | |
| DM0DOS-11 | 2026-09-05 00:37:43 | 46.79789 | 7.78519 | 308° | 11km/h | 30104m | 5.1m/s | -44°C | 2.4% | 0hPa | 2.5V | 08:30:00 | 02:02:57 | 00:00:00 | |
| BIOWL1-15 | 2026-09-05 00:37:39 | 46.79754 | 7.78575 | 291° | 24km/h | 30051m | 4.6m/s | -44.1°C | 0% | 0hPa | 2.5V | 18:12:15 | 02:02:48 | 00:00:00 | |
| HASLITAL | 2026-09-05 00:37:37 | 46.79774 | 7.78535 | 328° | 24km/h | 30080m | 4.7m/s | -44.1°C | 0.5% | 0hPa | 2.5V | 00:00:00 | 00:00:00 | 00:00:00 | |
| DM0DOS-11 | 2026-09-05 00:37:36 | 46.79752 | 7.78582 | 295° | 18km/h | 30046m | 5.7m/s | -44.1°C | 2.4% | 0hPa | 2.5V | 08:30:00 | 02:02:47 | 00:00:00 | |
| DL1ZP-14 | 2026-09-05 00:37:34 | 46.79757 | 7.78566 | 293° | 27km/h | 30057m | 5.6m/s | -44.1°C | 0.4% | -1.0hPa | 2.5V | 00:00:00 | 00:00:00 | 00:00:00 | |
| IW2NTF | 2026-09-05 00:37:33 | 46.79749 | 7.78587 | 14° | 5km/h | 30033m | 6.2m/s | -44.2°C | 2.5% | 0hPa | 2.6V | 08:30:00 | 02:02:45 | 00:00:00 | |
| BIOWL9-15 | 2026-09-05 00:37:31 | 46.79747 | 7.78583 | 95° | 7km/h | 30023m | 5.0m/s | -44.3°C | 0.4% | -1.0hPa | 2.5V | 00:00:00 | 00:00:00 | 00:00:00 | |
| DL6DJ-15 | 2026-09-05 00:37:27 | 46.79748 | 7.78580 | 128° | 5km/h | 30017m | 6.5m/s | -44.3°C | 0.4% | -1.0hPa | 2.5V | 00:00:00 | 00:00:00 | 00:00:00 | |
| DM0DOS-11 | 2026-09-05 00:37:23 | 46.79745 | 7.78601 | 301° | 26km/h | 29986m | 6m/s | -44.3°C | 2.4% | 0hPa | 2.5V | 08:30:00 | 02:02:37 | 00:00:00 | |
| IW2NTF | 2026-09-05 00:37:22 | 46.79738 | 7.78619 | 300° | 31km/h | 29974m | 6m/s | -44.3°C | 2.5% | 0hPa | 2.6V | 08:30:00 | 02:02:35 | 00:00:00 | |
| BIOWL1-15 | 2026-09-05 00:37:22 | 46.79746 | 7.78601 | 302° | 26km/h | 29986m | 6m/s | -44.3°C | 0% | 0hPa | 2.5V | 18:12:15 | 02:02:37 | 00:00:00 | |
| DB0UT-7 | 2026-09-05 00:37:19 | 46.79734 | 7.78629 | 294° | 18km/h | 29969m | 6.1m/s | -44.3°C | 2.4% | 0hPa | 2.5V | 00:00:00 | 00:00:00 | 00:00:00 | |
| OE9MKV-15 | 2026-09-05 00:37:17 | 46.79731 | 7.78644 | 275° | 18km/h | 29957m | 5.4m/s | -44.4°C | 2.5% | 0hPa | 2.5V | 00:00:00 | 02:02:32 | 00:00:00 | |
| DM0DOS-11 | 2026-09-05 00:37:16 | 46.79731 | 7.78640 | 70° | 4km/h | 29927m | 4.3m/s | -44.5°C | 2.5% | 0hPa | 2.5V | 08:30:00 | 02:02:27 | 00:00:00 | |
| BIOWL1-15 | 2026-09-05 00:37:11 | 46.79731 | 7.78640 | 292° | 4km/h | 29922m | 6.3m/s | -44.5°C | 0% | 0hPa | 2.5V | 18:12:15 | 02:02:26 | 00:00:00 | |
| HARRO8 | 2026-09-05 00:37:08 | 46.79729 | 7.78661 | 276° | 31km/h | 29903m | 5.5m/s | -44.5°C | 0.4% | -1.0hPa | 2.6V | 00:00:00 | 00:00:00 | 00:00:00 | |
| DM0DOS-11 | 2026-09-05 00:37:03 | 46.79727 | 7.78711 | 224° | 13km/h | 29867m | 7.4m/s | -44.6°C | 2.5% | 0hPa | 2.6V | 08:30:00 | 02:02:17 | 00:00:00 | |
| IW2NTF | 2026-09-05 00:37:02 | 46.79734 | 7.78715 | 197° | 15km/h | 29855m | 5.2m/s | -44.6°C | 2.5% | 0hPa | 2.5V | 08:30:00 | 02:02:15 | 00:00:00 | |
| BIOWL1-15 | 2026-09-05 00:37:00 | 46.79734 | 7.78734 | 289° | 26km/h | 29819m | 6.9m/s | -44.6°C | 0% | 0hPa | 2.5V | 18:12:15 | 02:02:09 | 00:00:00 | |
| DL6DJ-15 | 2026-09-05 00:36:56 | 46.79739 | 7.78721 | 305° | 11km/h | 29831m | 5.3m/s | -44.6°C | 0.4% | -1.0hPa | 2.6V | 00:00:00 | 00:00:00 | 00:00:00 | |
| DM0DOS-11 | 2026-09-05 00:36:53 | 46.79732 | 7.78756 | 271° | 33km/h | 29806m | 4.9m/s | -44.6°C | 2.5% | 0hPa | 2.6V | 08:30:00 | 02:02:07 | 00:00:00 | |
| IW2NTF | 2026-09-05 00:36:52 | 46.79733 | 7.78778 | 261° | 24km/h | 29798m | 5m/s | -44.6°C | 2.5% | 0hPa | 2.5V | 08:30:00 | 02:02:05 | 00:00:00 | |
| DF7PN | 2026-09-05 00:36:51 | 46.79732 | 7.78768 | 264° | 29km/h | 29802m | 4.1m/s | -44.6°C | 0.4% | -1.0hPa | 2.6V | 00:00:00 | 00:00:00 | 00:00:00 | |
| DB0UT-7 | 2026-09-05 00:36:49 | 46.79734 | 7.78785 | 260° | 13km/h | 29792m | 6.4m/s | -44.6°C | 2.5% | 0hPa | 2.6V | 00:00:00 | 02:02:04 | 00:00:00 | |
| DM0DOS-11 | 2026-09-05 00:36:48 | 46.79731 | 7.78790 | 292° | 15km/h | 29749m | 5.4m/s | -44.7°C | 2.5% | 0hPa | 2.6V | 08:30:00 | 02:01:57 | 00:00:00 | |
| BIOWL1-15 | 2026-09-05 00:36:44 | 46.79735 | 7.78838 | 181° | 16km/h | 29693m | 4.5m/s | -44.9°C | 0% | 0hPa | 2.5V | 18:12:15 | 02:01:47 | 00:00:00 | |
| OE9MKV-15 | 2026-09-05 00:36:43 | 46.79733 | 7.78786 | 295° | 15km/h | 29755m | 5.6m/s | -44.6°C | 2.5% | 0hPa | 2.5V | 00:00:00 | 02:01:58 | 00:00:00 | |
| IW2NTF | 2026-09-05 00:36:42 | 46.79727 | 7.78803 | 299° | 22km/h | 29738m | 6.6m/s | -44.8°C | 2.5% | 0hPa | 2.5V | 08:30:00 | 02:01:55 | 00:00:00 | |
| DM0DOS-11 | 2026-09-05 00:36:37 | 46.79735 | 7.78838 | 181° | 16km/h | 29692m | 4.5m/s | -44.9°C | 2.5% | 0hPa | 2.5V | 08:30:00 | 02:01:47 | 00:00:00 | |
| HASLITAL | 2026-09-05 00:36:35 | 46.79721 | 7.78827 | 252° | 13km/h | 29716m | 5.5m/s | -44.8°C | 0.5% | 0hPa | 2.6V | 00:00:00 | 00:00:00 | 00:00:00 | |
| IW2NTF | 2026-09-05 00:36:32 | 46.79740 | 7.78836 | 113° | 7km/h | 29681m | 6.9m/s | -45°C | 2.5% | 0hPa | 2.6V | 08:30:00 | 02:01:45 | 00:00:00 | |
| BIOWL9-15 | 2026-09-05 00:36:29 | 46.79740 | 7.78834 | 52° | 9km/h | 29675m | 6.0m/s | -45.0°C | 0.5% | -1.0hPa | 2.5V | 00:00:00 | 00:00:00 | 00:00:00 | |
| DM0DOS-11 | 2026-09-05 00:36:27 | 46.79746 | 7.78842 | 194° | 26km/h | 29635m | 5.4m/s | -45.2°C | 2.6% | 0hPa | 2.5V | 08:30:00 | 02:01:37 | 00:00:00 | |
| BIOWL1-15 | 2026-09-05 00:36:23 | 46.79757 | 7.78845 | 188° | 16km/h | 29625m | 5.1m/s | -45.3°C | 0% | 0hPa | 2.6V | 18:12:15 | 02:01:35 | 00:00:00 | |
| IW2NTF | 2026-09-05 00:36:22 | 46.79757 | 7.78845 | 188° | 16km/h | 29625m | 5.1m/s | -45.2°C | 2.6% | 0hPa | 2.6V | 08:30:00 | 02:01:35 | 00:00:00 | |
| DF7PN | 2026-09-05 00:36:20 | 46.79757 | 7.78845 | 188° | 16km/h | 29625m | 5.1m/s | -45.3°C | 0.5% | -1.0hPa | 2.6V | 00:00:00 | 00:00:00 | 00:00:00 | |
| DB0UT-7 | 2026-09-05 00:36:19 | 46.79760 | 7.78845 | 192° | 11km/h | 29620m | 6.0m/s | -45.2°C | 2.6% | 0hPa | 2.6V | 00:00:00 | 00:00:00 | 00:00:00 | |
| DM0DOS-11 | 2026-09-05 00:36:17 | 46.79761 | 7.78845 | 165° | 13km/h | 29578m | 5.4m/s | -45.3°C | 2.6% | 0hPa | 2.5V | 08:30:00 | 02:01:27 | 00:00:00 | |
| HASLITAL | 2026-09-05 00:36:14 | 46.79758 | 7.78848 | 10° | 5km/h | 29597m | 4.9m/s | -45.3°C | 0.5% | 0hPa | 2.5V | 00:00:00 | 00:00:00 | 00:00:00 | |
| IW2NTF | 2026-09-05 00:36:12 | 46.79768 | 7.78844 | 181° | 15km/h | 29566m | 6.6m/s | -45.3°C | 2.6% | 0hPa | 2.5V | 08:30:00 | 02:01:25 | 00:00:00 | |
| BIOWL1-15 | 2026-09-05 00:36:11 | 46.79764 | 7.78844 | 174° | 15km/h | 29573m | 5.6m/s | -45.3°C | 0% | 0hPa | 2.5V | 18:12:15 | 02:01:26 | 00:00:00 | |
| DM0DOS-11 | 2026-09-05 00:36:06 | 46.79780 | 7.78826 | 48° | 9km/h | 29517m | 6.9m/s | -45.2°C | 2.6% | 0hPa | 2.6V | 08:30:00 | 02:01:17 | 00:00:00 | |
| IW2NTF | 2026-09-05 00:36:02 | 46.79778 | 7.78824 | 37° | 2km/h | 29507m | 4.3m/s | -45.2°C | 2.6% | 0hPa | 2.5V | 08:30:00 | 02:01:15 | 00:00:00 | |
| BIOWL1-15 | 2026-09-05 00:36:00 | 46.79778 | 7.78824 | 37° | 2km/h | 29507m | 4.3m/s | -45.2°C | 0% | 0hPa | 2.5V | 18:12:15 | 02:01:15 | 00:00:00 | |
| BIOWL9-15 | 2026-09-05 00:35:58 | 46.79780 | 7.78822 | 165° | 11km/h | 29495m | 7.4m/s | -45.2°C | 0.4% | -1.0hPa | 2.6V | 00:00:00 | 00:00:00 | 00:00:00 | |
| DM0DOS-11 | 2026-09-05 00:35:56 | 46.79802 | 7.78817 | 102° | 4km/h | 29460m | 5.1m/s | -45.4°C | 2.6% | 0hPa | 2.6V | 08:30:00 | 02:01:07 | 00:00:00 | |
| DL6DJ-15 | 2026-09-05 00:35:54 | 46.79800 | 7.78818 | 168° | 7km/h | 29465m | 5.4m/s | -45.3°C | 0.4% | -1.0hPa | 2.5V | 00:00:00 | 00:00:00 | 00:00:00 | |
| IW2NTF | 2026-09-05 00:35:52 | 46.79800 | 7.78809 | 67° | 18km/h | 29449m | 5.9m/s | -45.4°C | 2.6% | 0hPa | 2.5V | 08:30:00 | 02:01:05 | 00:00:00 | |
| BIOWL1-15 | 2026-09-05 00:35:50 | 46.79798 | 7.78802 | 72° | 24km/h | 29442m | 7.6m/s | -45.4°C | 0% | 0hPa | 2.5V | 18:12:15 | 02:01:04 | 00:00:00 | |
| DB0UT-7 | 2026-09-05 00:35:49 | 46.79797 | 7.78802 | 72° | 18km/h | 29442m | 7.5m/s | -45.4°C | 2.6% | 0hPa | 2.5V | 00:00:00 | 02:01:04 | 00:00:00 | |
| DM0DOS-11 | 2026-09-05 00:35:46 | 46.79797 | 7.78756 | 164° | 7km/h | 29400m | 5.8m/s | -45.6°C | 2.7% | 0hPa | 2.5V | 08:30:00 | 02:00:57 | 00:00:00 | |
| IW2NTF | 2026-09-05 00:35:42 | 46.79800 | 7.78753 | 129° | 9km/h | 29389m | 4.9m/s | -45.7°C | 2.7% | 0hPa | 2.6V | 08:30:00 | 02:00:55 | 00:00:00 | |
| BIOWL1-15 | 2026-09-05 00:35:40 | 46.79800 | 7.78753 | 130° | 9km/h | 29389m | 4.9m/s | -45.7°C | 0% | 0hPa | 2.6V | 18:12:15 | 02:00:55 | 00:00:00 | |
| OE9MKV-15 | 2026-09-05 00:35:38 | 46.79801 | 7.78745 | 66° | 18km/h | 29380m | 4.9m/s | -45.6°C | 2.7% | 0hPa | 2.5V | 00:00:00 | 02:00:53 | 00:00:00 | |
| HARRO8 | 2026-09-05 00:35:35 | 46.79784 | 7.78721 | 44° | 29km/h | 29356m | 4.9m/s | -45.6°C | 0.5% | -1.0hPa | 2.6V | 00:00:00 | 00:00:00 | 00:00:00 | |
| IW2NTF | 2026-09-05 00:35:32 | 46.79773 | 7.78688 | 87° | 20km/h | 29332m | 5.1m/s | -45.5°C | 2.7% | 0hPa | 2.6V | 08:30:00 | 02:00:45 | 00:00:00 | |
| BIOWL1-15 | 2026-09-05 00:35:29 | 46.79773 | 7.78681 | 83° | 16km/h | 29326m | 6.7m/s | -45.5°C | 0% | 0hPa | 2.6V | 18:12:15 | 02:00:44 | 00:00:00 | |
| BIOWL9-15 | 2026-09-05 00:35:27 | 46.79770 | 7.78672 | 39° | 11km/h | 29314m | 5.5m/s | -45.5°C | 0.5% | -1.0hPa | 2.5V | 00:00:00 | 00:00:00 | 00:00:00 | |
| DL6DJ-15 | 2026-09-05 00:35:23 | 46.79756 | 7.78654 | 59° | 16km/h | 29285m | 5.4m/s | -45.5°C | 0.5% | -1.0hPa | 2.5V | 00:00:00 | 00:00:00 | 00:00:00 | |
| IW2NTF | 2026-09-05 00:35:22 | 46.79752 | 7.78643 | 53° | 16km/h | 29274m | 6m/s | -45.4°C | 2.7% | 0hPa | 2.5V | 08:30:00 | 02:00:35 | 00:00:00 | |
| BIOWL1-15 | 2026-09-05 00:35:21 | 46.79739 | 7.78630 | 38° | 16km/h | 29251m | 5.2m/s | -45.3°C | 0% | 0hPa | 2.5V | 18:12:15 | 02:00:31 | 00:00:00 | |
| DB0UT-7 | 2026-09-05 00:35:19 | 46.79749 | 7.78639 | 41° | 13km/h | 29268m | 6.4m/s | -45.3°C | 2.6% | 0hPa | 2.5V | 00:00:00 | 00:00:00 | 00:00:00 | |
| DF7PN | 2026-09-05 00:35:18 | 46.79746 | 7.78636 | 29° | 15km/h | 29261m | 6.1m/s | -45.3°C | 0.4% | -1.0hPa | 2.5V | 00:00:00 | 00:00:00 | 00:00:00 | |
| DM0DOS-11 | 2026-09-05 00:35:16 | 46.79729 | 7.78607 | 58° | 20km/h | 29226m | 5.3m/s | -45.2°C | 2.6% | 0hPa | 2.5V | 08:30:00 | 02:00:27 | 00:00:00 | |
| IW2NTF | 2026-09-05 00:35:12 | 46.79722 | 7.78597 | 33° | 18km/h | 29214m | 5.9m/s | -45.2°C | 2.6% | 0hPa | 2.5V | 08:30:00 | 02:00:25 | 00:00:00 | |
| OE9MKV-15 | 2026-09-05 00:35:07 | 46.79713 | 7.78589 | 46° | 7km/h | 29199m | 6.2m/s | -45.2°C | 2.6% | 0hPa | 2.6V | 00:00:00 | 02:00:22 | 00:00:00 | |
| DM0DOS-11 | 2026-09-05 00:35:06 | 46.79706 | 7.78566 | 48° | 16km/h | 29167m | 6.1m/s | -45.3°C | 2.6% | 0hPa | 2.6V | 08:30:00 | 02:00:17 | 00:00:00 | |
| BIOWL1-15 | 2026-09-05 00:35:06 | 46.79712 | 7.78586 | 70° | 11km/h | 29192m | 6.8m/s | -45.3°C | 0% | 0hPa | 2.5V | 18:12:15 | 02:00:21 | 00:00:00 | |
| HARRO8 | 2026-09-05 00:35:04 | 46.79710 | 7.78576 | 72° | 15km/h | 29180m | 5.5m/s | -45.3°C | 0.5% | -1.0hPa | 2.5V | 00:00:00 | 00:00:00 | 00:00:00 | |
| IW2NTF | 2026-09-05 00:35:02 | 46.79700 | 7.78559 | 39° | 15km/h | 29156m | 5.5m/s | -45.2°C | 2.6% | 0hPa | 2.5V | 08:30:00 | 02:00:15 | 00:00:00 | |
| BIOWL1-15 | 2026-09-05 00:34:59 | 46.79696 | 7.78550 | 18° | 4km/h | 29129m | 6.1m/s | -45.1°C | 0% | 0hPa | 2.5V | 18:12:15 | 02:00:10 | 00:00:00 | |
| DL1ZP-14 | 2026-09-05 00:34:59 | 46.79698 | 7.78556 | 44° | 9km/h | 29150m | 6.4m/s | -45.2°C | 0.4% | -1.0hPa | 2.5V | 00:00:00 | 00:00:00 | 00:00:00 | |
| BIOWL9-15 | 2026-09-05 00:34:56 | 46.79696 | 7.78551 | 67° | 2km/h | 29134m | 4.3m/s | -45.1°C | 0.5% | -1.0hPa | 2.5V | 00:00:00 | 00:00:00 | 00:00:00 | |
| IW2NTF | 2026-09-05 00:34:52 | 46.79686 | 7.78544 | 54° | 7km/h | 29098m | 6.5m/s | -45°C | 2.6% | 0hPa | 2.5V | 08:30:00 | 02:00:05 | 00:00:00 | |
| DL6DJ-15 | 2026-09-05 00:34:52 | 46.79688 | 7.78547 | 36° | 9km/h | 29105m | 6.8m/s | -45.0°C | 0.5% | -1.0hPa | 2.5V | 00:00:00 | 00:00:00 | 00:00:00 | |
| DF7PN | 2026-09-05 00:34:47 | 46.79683 | 7.78540 | 358° | 5km/h | 29081m | 6.5m/s | -45.0°C | 0.4% | -1.0hPa | 2.5V | 00:00:00 | 00:00:00 | 00:00:00 | |
| DM0DOS-11 | 2026-09-05 00:34:46 | 46.79673 | 7.78552 | 287° | 5km/h | 29052m | 6.8m/s | -45.2°C | 2.6% | 0hPa | 2.5V | 08:30:00 | 01:59:57 | 00:00:00 | |
| BIOWL1-15 | 2026-09-05 00:34:45 | 46.79668 | 7.78552 | 342° | 11km/h | 29018m | 4.4m/s | -45.2°C | 0% | 0hPa | 2.5V | 18:12:15 | 01:59:51 | 00:00:00 | |
| IW2NTF | 2026-09-05 00:34:42 | 46.79673 | 7.78553 | 137° | 4km/h | 29040m | 5.5m/s | -45.2°C | 2.6% | 0hPa | 2.6V | 08:30:00 | 01:59:55 | 00:00:00 | |
| DM0DOS-11 | 2026-09-05 00:34:36 | 46.79663 | 7.78559 | 282° | 4km/h | 28994m | 5.1m/s | -45.4°C | 2.6% | 0hPa | 2.5V | 08:30:00 | 01:59:47 | 00:00:00 | |
| OE9MKV-15 | 2026-09-05 00:34:36 | 46.79668 | 7.78551 | 342° | 5km/h | 29018m | 4.4m/s | -45.2°C | 2.6% | 0hPa | 2.6V | 00:00:00 | 01:59:51 | 00:00:00 | |
| HARRO8 | 2026-09-05 00:34:33 | 46.79663 | 7.78557 | 291° | 4km/h | 29000m | 6.1m/s | -45.3°C | 0.4% | -1.0hPa | 2.6V | 00:00:00 | 00:00:00 | 00:00:00 | |
| HASLITAL | 2026-09-05 00:34:32 | 46.79663 | 7.78557 | 293° | 5km/h | 29001m | 6.1m/s | -45.3°C | 0.5% | 0hPa | 2.6V | 00:00:00 | 00:00:00 | 00:00:00 | |
| IW2NTF | 2026-09-05 00:34:31 | 46.79662 | 7.78561 | 338° | 5km/h | 28984m | 6.4m/s | -45.3°C | 2.6% | 0hPa | 2.6V | 08:30:00 | 01:59:45 | 00:00:00 | |
| BIOWL1-15 | 2026-09-05 00:34:30 | 46.79651 | 7.78553 | 85° | 11km/h | 28955m | 7m/s | -45.4°C | 0% | 0hPa | 2.5V | 18:12:15 | 01:59:40 | 00:00:00 | |
| DL1ZP-14 | 2026-09-05 00:34:28 | 46.79657 | 7.78561 | 11° | 11km/h | 28972m | 5.0m/s | -45.3°C | 0.4% | -1.0hPa | 2.5V | 00:00:00 | 00:00:00 | 00:00:00 | |
| BIOWL9-15 | 2026-09-05 00:34:25 | 46.79651 | 7.78553 | 85° | 11km/h | 28955m | 7.0m/s | -45.4°C | 0.4% | -1.0hPa | 2.5V | 00:00:00 | 00:00:00 | 00:00:00 | |
| DM0DOS-11 | 2026-09-05 00:34:23 | 46.79654 | 7.78541 | 109° | 7km/h | 28938m | 5.8m/s | -45.5°C | 2.6% | 0hPa | 2.5V | 08:30:00 | 01:59:37 | 00:00:00 | |
| IW2NTF | 2026-09-05 00:34:20 | 46.79654 | 7.78539 | 324° | 4km/h | 28926m | 5.3m/s | -45.6°C | 2.6% | 0hPa | 2.5V | 08:30:00 | 01:59:35 | 00:00:00 | |
| DB0UT-7 | 2026-09-05 00:34:19 | 46.79652 | 7.78540 | 306° | 9km/h | 28921m | 5.3m/s | -45.6°C | 2.6% | 0hPa | 2.5V | 00:00:00 | 00:00:00 | 00:00:00 | |
| DM0DOS-11 | 2026-09-05 00:34:16 | 46.79651 | 7.78542 | 63° | 4km/h | 28872m | 4.4m/s | -45.9°C | 2.7% | 0hPa | 2.5V | 08:30:00 | 01:59:25 | 00:00:00 | |
| BIOWL1-15 | 2026-09-05 00:34:16 | 46.79652 | 7.78550 | 191° | 4km/h | 28898m | 5m/s | -45.8°C | 0% | 0hPa | 2.5V | 18:12:15 | 01:59:30 | 00:00:00 | |
| IW2NTF | 2026-09-05 00:34:11 | 46.79651 | 7.78542 | 63° | 4km/h | 28872m | 4.4m/s | -45.9°C | 2.7% | 0hPa | 2.5V | 08:30:00 | 01:59:25 | 00:00:00 | |
| OE9MKV-15 | 2026-09-05 00:34:06 | 46.79659 | 7.78544 | 204° | 15km/h | 28849m | 4.6m/s | -45.9°C | 2.7% | 0hPa | 2.5V | 00:00:00 | 01:59:21 | 08:30:00 | |
| DM0DOS-11 | 2026-09-05 00:34:05 | 46.79667 | 7.78547 | 115° | 9km/h | 28815m | 6.7m/s | -45.9°C | 2.7% | 0hPa | 2.5V | 08:30:00 | 01:59:15 | 00:00:00 | |
| BIOWL1-15 | 2026-09-05 00:34:04 | 46.79675 | 7.78531 | 137° | 11km/h | 28792m | 6.3m/s | -45.9°C | 0% | 0hPa | 2.6V | 18:12:15 | 01:59:11 | 00:00:00 | |
| HARRO8 | 2026-09-05 00:34:02 | 46.79666 | 7.78550 | 78° | 0km/h | 28826m | 5.1m/s | -45.9°C | 0.5% | -1.0hPa | 2.6V | 00:00:00 | 00:00:00 | 00:00:00 | |
| DL1ZP-14 | 2026-09-05 00:33:57 | 46.79673 | 7.78534 | 133° | 15km/h | 28798m | 5.0m/s | -45.9°C | 0.5% | -1.0hPa | 2.6V | 00:00:00 | 00:00:00 | 00:00:00 | |
| BIOWL9-15 | 2026-09-05 00:33:54 | 46.79682 | 7.78530 | 200° | 11km/h | 28777m | 5.5m/s | -45.8°C | 0.5% | -1.0hPa | 2.6V | 00:00:00 | 00:00:00 | 00:00:00 | |
| DH7VM-15 | 2026-09-05 00:33:52 | 46.79682 | 7.78530 | 202° | 13km/h | 28777m | 5.5m/s | -45.8°C | 0.5% | 0hPa | 2.6V | 00:00:00 | 00:00:00 | 00:00:00 | |
| HASLITAL | 2026-09-05 00:33:51 | 46.79685 | 7.78531 | 202° | 16km/h | 28771m | 6.4m/s | -45.8°C | 0.6% | 0hPa | 2.6V | 00:00:00 | 00:00:00 | 00:00:00 | |
| IW2NTF | 2026-09-05 00:33:50 | 46.79694 | 7.78536 | 194° | 20km/h | 28759m | 4.9m/s | -45.8°C | 2.7% | 0hPa | 2.6V | 08:30:00 | 01:59:05 | 00:00:00 | |
| BIOWL1-15 | 2026-09-05 00:33:48 | 46.79701 | 7.78538 | 184° | 11km/h | 28748m | 6.5m/s | 0°C | 0% | 0hPa | 2.5V | 18:12:15 | 01:59:03 | 00:00:00 | |
| DF7PN | 2026-09-05 00:33:45 | 46.79705 | 7.78530 | 119° | 11km/h | 28726m | 6.3m/s | -45.7°C | 0.5% | -1.0hPa | 2.6V | 00:00:00 | 00:00:00 | 00:00:00 | |
| IW2NTF | 2026-09-05 00:33:41 | 46.79719 | 7.78520 | 180° | 15km/h | 28703m | 5.8m/s | -45.7°C | 2.6% | 0hPa | 2.6V | 08:30:00 | 01:58:55 | 00:00:00 | |
| BIOWL1-15 | 2026-09-05 00:33:39 | 46.79728 | 7.78526 | 216° | 13km/h | 28686m | 5m/s | 0°C | 0% | 0hPa | 2.5V | 18:12:15 | 01:58:52 | 00:00:00 | |
| DM0DOS-11 | 2026-09-05 00:33:35 | 46.79744 | 7.78529 | 170° | 4km/h | 28647m | 5m/s | -45.7°C | 2.6% | 0hPa | 2.5V | 08:30:00 | 01:58:45 | 00:00:00 | |
| BIOWL1-15 | 2026-09-05 00:33:27 | 46.79752 | 7.78528 | 181° | 16km/h | 28629m | 5.7m/s | 0°C | 0% | 0hPa | 2.5V | 18:12:15 | 01:58:42 | 00:00:00 | |
| DL1ZP-14 | 2026-09-05 00:33:26 | 46.79757 | 7.78528 | 186° | 18km/h | 28624m | 4.7m/s | -45.7°C | 0.5% | -1.0hPa | 2.5V | 00:00:00 | 00:00:00 | 00:00:00 | |
| BIOWL9-15 | 2026-09-05 00:33:23 | 46.79771 | 7.78534 | 191° | 9km/h | 28603m | 4.6m/s | -45.7°C | 0% | -1.0hPa | 2.5V | 00:00:00 | 00:00:00 | 00:00:00 | |
| IW2NTF | 2026-09-05 00:33:21 | 46.79777 | 7.78533 | 156° | 15km/h | 28591m | 6.5m/s | -45.8°C | 2.6% | 0hPa | 2.5V | 08:30:00 | 01:58:35 | 00:00:00 | |
| DB0UT-7 | 2026-09-05 00:33:19 | 46.79781 | 7.78530 | 149° | 16km/h | 28585m | 5.5m/s | -45.8°C | 2.6% | 0hPa | 2.5V | 00:00:00 | 00:00:00 | 00:00:00 | |
| DL6DJ-15 | 2026-09-05 00:33:18 | 46.79785 | 7.78526 | 145° | 18km/h | 28580m | 4.9m/s | -45.9°C | 0.5% | -1.0hPa | 2.5V | 00:00:00 | 00:00:00 | 00:00:00 | |
| DF7PN | 2026-09-05 00:33:14 | 46.79798 | 7.78517 | 177° | 11km/h | 28553m | 5.3m/s | -46.1°C | 0.5% | -1.0hPa | 2.5V | 00:00:00 | 00:00:00 | 00:00:00 | |
| IW2NTF | 2026-09-05 00:33:12 | 46.79811 | 7.78513 | 156° | 20km/h | 28535m | 5.2m/s | -46.2°C | 2.7% | 0hPa | 2.5V | 08:30:00 | 01:58:25 | 00:00:00 | |
| HASLITAL | 2026-09-05 00:33:11 | 46.79802 | 7.78517 | 173° | 16km/h | 28547m | 6.3m/s | -46.2°C | 0.6% | 0hPa | 2.5V | 00:00:00 | 00:00:00 | 00:00:00 | |
| OE9MKV-15 | 2026-09-05 00:33:03 | 46.79834 | 7.78484 | 145° | 15km/h | 28496m | 5.5m/s | -46.3°C | 2.8% | 0hPa | 2.5V | 00:00:00 | 01:58:18 | 00:00:00 | |
| IW2NTF | 2026-09-05 00:33:01 | 46.79848 | 7.78474 | 163° | 16km/h | 28480m | 6.5m/s | -46.5°C | 2.8% | 0hPa | 2.5V | 08:30:00 | 01:58:15 | 00:00:00 | |
| HARRO8 | 2026-09-05 00:33:00 | 46.79849 | 7.78474 | 163° | 16km/h | 28480m | 6.5m/s | -46.5°C | 0.5% | -1.0hPa | 2.6V | 00:00:00 | 00:00:00 | 00:00:00 | |
| DL1ZP-14 | 2026-09-05 00:32:55 | 46.79862 | 7.78464 | 125° | 16km/h | 28452m | 6.0m/s | -46.6°C | 0.5% | -1.0hPa | 2.6V | 00:00:00 | 00:00:00 | 00:00:00 | |
| IW2NTF | 2026-09-05 00:32:51 | 46.79867 | 7.78437 | 84° | 9km/h | 28424m | 4.9m/s | -46.7°C | 2.8% | 0hPa | 2.6V | 08:30:00 | 01:58:05 | 00:00:00 | |
| DL6DJ-15 | 2026-09-05 00:32:47 | 46.79870 | 7.78426 | 131° | 13km/h | 28408m | 6.3m/s | -46.7°C | 0.5% | -1.0hPa | 2.6V | 00:00:00 | 00:00:00 | 00:00:00 | |
| DF7PN | 2026-09-05 00:32:42 | 46.79884 | 7.78414 | 156° | 7km/h | 28379m | 4.8m/s | -46.8°C | 0.5% | -1.0hPa | 2.6V | 00:00:00 | 00:00:00 | 00:00:00 | |
| IW2NTF | 2026-09-05 00:32:41 | 46.79888 | 7.78409 | 131° | 13km/h | 28367m | 6.6m/s | -46.9°C | 2.8% | 0hPa | 2.6V | 08:30:00 | 01:57:55 | 00:00:00 | |
| OE9MKV-15 | 2026-09-05 00:32:32 | 46.79896 | 7.78380 | 154° | 15km/h | 28323m | 6.3m/s | -46.9°C | 2.8% | 0hPa | 2.5V | 00:00:00 | 01:57:47 | 00:00:00 | |
| IW2NTF | 2026-09-05 00:32:31 | 46.79905 | 7.78376 | 173° | 18km/h | 28312m | 4.8m/s | -47°C | 2.8% | 0hPa | 2.5V | 08:30:00 | 01:57:45 | 00:00:00 | |
| HASLITAL | 2026-09-05 00:32:30 | 46.79900 | 7.78377 | 165° | 18km/h | 28317m | 5.2m/s | -47.0°C | 0.6% | 0hPa | 2.6V | 00:00:00 | 00:00:00 | 00:00:00 | |
| HARRO8 | 2026-09-05 00:32:29 | 46.79909 | 7.78376 | 183° | 16km/h | 28306m | 6.4m/s | -47.0°C | 0.5% | -1.0hPa | 2.6V | 00:00:00 | 00:00:00 | 00:00:00 | |
| DL1ZP-14 | 2026-09-05 00:32:24 | 46.79924 | 7.78370 | 116° | 15km/h | 28273m | 4.9m/s | -47.0°C | 0.5% | -1.0hPa | 2.6V | 00:00:00 | 00:00:00 | 00:00:00 | |
| IW2NTF | 2026-09-05 00:32:21 | 46.79927 | 7.78358 | 105° | 7km/h | 28256m | 6m/s | -47°C | 2.8% | 0hPa | 2.5V | 08:30:00 | 01:57:35 | 00:00:00 | |
| DB0UT-7 | 2026-09-05 00:32:19 | 46.79928 | 7.78356 | 135° | 11km/h | 28251m | 5.2m/s | -47.0°C | 2.9% | 0hPa | 2.5V | 00:00:00 | 00:00:00 | 00:00:00 | |
| DL6DJ-15 | 2026-09-05 00:32:16 | 46.79935 | 7.78352 | 159° | 15km/h | 28233m | 5.7m/s | -47.1°C | 0.5% | -1.0hPa | 2.5V | 00:00:00 | 00:00:00 | 00:00:00 | |
| DM0DOS-11 | 2026-09-05 00:32:14 | 46.79948 | 7.78334 | 93° | 13km/h | 28194m | 6.8m/s | -47.2°C | 2.9% | 0hPa | 2.5V | 08:30:00 | 01:57:24 | 00:00:00 | |
| IW2NTF | 2026-09-05 00:32:11 | 46.79948 | 7.78338 | 94° | 11km/h | 28201m | 5.8m/s | -47.2°C | 2.9% | 0hPa | 2.5V | 08:30:00 | 01:57:25 | 00:00:00 | |
| HASLITAL | 2026-09-05 00:32:09 | 46.79948 | 7.78338 | 95° | 11km/h | 28201m | 5.9m/s | -47.2°C | 0.6% | 0hPa | 2.5V | 00:00:00 | 00:00:00 | 00:00:00 | |
| DM0DOS-11 | 2026-09-05 00:32:04 | 46.79949 | 7.78308 | 59° | 4km/h | 28136m | 6.2m/s | -47.5°C | 2.9% | 0hPa | 2.5V | 08:30:00 | 01:57:14 | 00:00:00 | |
| OE9MKV-15 | 2026-09-05 00:32:02 | 46.79947 | 7.78311 | 143° | 11km/h | 28154m | 7.0m/s | -47.3°C | 2.8% | 0hPa | 2.6V | 00:00:00 | 01:57:17 | 00:00:00 | |
| IW2NTF | 2026-09-05 00:32:01 | 46.79949 | 7.78309 | 113° | 4km/h | 28142m | 5m/s | -47.4°C | 2.9% | 0hPa | 2.6V | 08:30:00 | 01:57:15 | 00:00:00 | |
| HARRO8 | 2026-09-05 00:31:58 | 46.79946 | 7.78304 | 51° | 11km/h | 28125m | 4.4m/s | -47.5°C | 0.5% | -1.0hPa | 2.6V | 00:00:00 | 00:00:00 | 00:00:00 | |
| DM0DOS-11 | 2026-09-05 00:31:54 | 46.79947 | 7.78252 | 142° | 7km/h | 28081m | 5.3m/s | -47.5°C | 2.9% | 0hPa | 2.6V | 08:30:00 | 01:57:04 | 00:00:00 | |
| DL1ZP-14 | 2026-09-05 00:31:53 | 46.79944 | 7.78267 | 99° | 22km/h | 28098m | 4.5m/s | -47.5°C | 0.5% | -1.0hPa | 2.5V | 00:00:00 | 00:00:00 | 00:00:00 | |
| IW2NTF | 2026-09-05 00:31:51 | 46.79945 | 7.78255 | 111° | 11km/h | 28086m | 5.7m/s | -47.5°C | 2.9% | 0hPa | 2.6V | 08:30:00 | 01:57:05 | 00:00:00 | |
| DL6DJ-15 | 2026-09-05 00:31:45 | 46.79957 | 7.78252 | 195° | 9km/h | 28058m | 4.9m/s | -47.6°C | 0.5% | -1.0hPa | 2.6V | 00:00:00 | 00:00:00 | 00:00:00 | |
| DM0DOS-11 | 2026-09-05 00:31:44 | 46.79954 | 7.78242 | 76° | 18km/h | 28023m | 6m/s | -47.7°C | 2.9% | 0hPa | 2.6V | 08:30:00 | 01:56:54 | 00:00:00 | |
| IW2NTF | 2026-09-05 00:31:41 | 46.79955 | 7.78247 | 67° | 15km/h | 28029m | 6.8m/s | -47.6°C | 2.9% | 0hPa | 2.5V | 08:30:00 | 01:56:55 | 00:00:00 | |
| IW2NTF | 2026-09-05 00:31:35 | 46.79946 | 7.78223 | 207° | 5km/h | 27972m | 5.2m/s | -47.8°C | 2.9% | 0hPa | 2.5V | 08:30:00 | 01:56:45 | 00:00:00 | |
| DM0DOS-11 | 2026-09-05 00:31:34 | 46.79947 | 7.78225 | 220° | 4km/h | 27967m | 6.3m/s | -47.8°C | 2.9% | 0hPa | 2.5V | 08:30:00 | 01:56:44 | 00:00:00 | |
| OE9MKV-15 | 2026-09-05 00:31:32 | 46.79944 | 7.78221 | 229° | 7km/h | 27984m | 6.2m/s | -47.8°C | 3.0% | 0hPa | 2.5V | 00:00:00 | 01:56:47 | 00:00:00 | |
| HASLITAL | 2026-09-05 00:31:28 | 46.79947 | 7.78225 | 222° | 4km/h | 27967m | 6.4m/s | -47.8°C | 0.6% | 0hPa | 2.5V | 00:00:00 | 00:00:00 | 00:00:00 | |
| HARRO8 | 2026-09-05 00:31:27 | 46.79947 | 7.78224 | 61° | 7km/h | 27950m | 5.1m/s | -47.9°C | 0.5% | -1.0hPa | 2.5V | 00:00:00 | 00:00:00 | 00:00:00 | |
| DM0DOS-11 | 2026-09-05 00:31:24 | 46.79939 | 7.78197 | 16° | 4km/h | 27911m | 4.6m/s | -48°C | 3% | 0hPa | 2.5V | 08:30:00 | 01:56:34 | 00:00:00 | |
| IW2NTF | 2026-09-05 00:31:22 | 46.79940 | 7.78198 | 31° | 7km/h | 27916m | 5m/s | -48°C | 3% | 0hPa | 2.5V | 08:30:00 | 01:56:35 | 00:00:00 | |
| DL1ZP-14 | 2026-09-05 00:31:22 | 46.79941 | 7.78200 | 54° | 11km/h | 27922m | 6.2m/s | -48.0°C | 0.5% | -1.0hPa | 2.6V | 00:00:00 | 00:00:00 | 00:00:00 | |
| DB0UT-7 | 2026-09-05 00:31:19 | 46.79938 | 7.78197 | 17° | 9km/h | 27911m | 4.6m/s | -48.0°C | 3.0% | 0hPa | 2.6V | 00:00:00 | 00:00:00 | 00:00:00 | |
| IW2NTF | 2026-09-05 00:31:15 | 46.79948 | 7.78186 | 52° | 5km/h | 27861m | 6.1m/s | -48.2°C | 3% | 0hPa | 2.6V | 08:30:00 | 01:56:25 | 00:00:00 | |
| DL6DJ-15 | 2026-09-05 00:31:14 | 46.79947 | 7.78193 | 147° | 9km/h | 27884m | 4.8m/s | -48.2°C | 0.6% | -1.0hPa | 2.5V | 00:00:00 | 00:00:00 | 00:00:00 | |
| DM0DOS-11 | 2026-09-05 00:31:13 | 46.79947 | 7.78184 | 68° | 7km/h | 27855m | 6.1m/s | -48.1°C | 3% | 0hPa | 2.5V | 08:30:00 | 01:56:24 | 00:00:00 | |
| HASLITAL | 2026-09-05 00:31:07 | 46.79947 | 7.78181 | 73° | 9km/h | 27850m | 5.0m/s | -48.1°C | 0.6% | 0hPa | 2.5V | 00:00:00 | 00:00:00 | 00:00:00 | |
| IW2NTF | 2026-09-05 00:31:05 | 46.79937 | 7.78154 | 82° | 5km/h | 27804m | 5.2m/s | -48.1°C | 3% | 0hPa | 2.5V | 08:30:00 | 01:56:15 | 00:00:00 | |
| OE9MKV-15 | 2026-09-05 00:31:01 | 46.79936 | 7.78156 | 90° | 11km/h | 27810m | 5.6m/s | -48.1°C | 3.0% | 0hPa | 2.5V | 00:00:00 | 01:56:16 | 00:00:00 | |
| DM0DOS-11 | 2026-09-05 00:31:00 | 46.79936 | 7.78152 | 31° | 5km/h | 27798m | 6m/s | -48.1°C | 3% | 0hPa | 2.6V | 08:30:00 | 01:56:14 | 00:00:00 | |
| HARRO8 | 2026-09-05 00:30:56 | 46.79924 | 7.78152 | 2° | 13km/h | 27776m | 6.2m/s | -48.3°C | 0.6% | -1.0hPa | 2.5V | 00:00:00 | 00:00:00 | 00:00:00 | |
| IW2NTF | 2026-09-05 00:30:53 | 46.79907 | 7.78145 | 15° | 18km/h | 27747m | 5.9m/s | -48.4°C | 3.1% | 0hPa | 2.5V | 08:30:00 | 01:56:05 | 00:00:00 | |
| DL1ZP-14 | 2026-09-05 00:30:51 | 46.79907 | 7.78145 | 15° | 18km/h | 27748m | 5.9m/s | -48.4°C | 0.6% | -1.0hPa | 2.5V | 00:00:00 | 00:00:00 | 00:00:00 | |
| DM0DOS-11 | 2026-09-05 00:30:50 | 46.79902 | 7.78143 | 15° | 18km/h | 27742m | 5.2m/s | -48.4°C | 3.1% | 0hPa | 2.5V | 08:30:00 | 01:56:04 | 00:00:00 | |
| DB0UT-7 | 2026-09-05 00:30:49 | 46.79902 | 7.78143 | 16° | 16km/h | 27742m | 5.1m/s | -48.3°C | 3.1% | 0hPa | 2.5V | 00:00:00 | 01:56:04 | 00:00:00 | |
| HASLITAL | 2026-09-05 00:30:47 | 46.79898 | 7.78141 | 20° | 15km/h | 27737m | 5.8m/s | -48.4°C | 0.7% | 0hPa | 2.5V | 00:00:00 | 00:00:00 | 00:00:00 | |
| IW2NTF | 2026-09-05 00:30:45 | 46.79872 | 7.78133 | 1° | 16km/h | 27690m | 6.7m/s | -48.2°C | 3.1% | 0hPa | 2.5V | 08:30:00 | 01:55:55 | 00:00:00 | |
| DL6DJ-15 | 2026-09-05 00:30:43 | 46.79885 | 7.78134 | 6° | 15km/h | 27708m | 6.4m/s | -48.3°C | 0.6% | -1.0hPa | 2.5V | 00:00:00 | 00:00:00 | 00:00:00 | |
| DM0DOS-11 | 2026-09-05 00:30:40 | 46.79869 | 7.78133 | 2° | 15km/h | 27684m | 5.7m/s | -48.2°C | 3.1% | 0hPa | 2.5V | 08:30:00 | 01:55:54 | 00:00:00 | |
| DF7PN | 2026-09-05 00:30:38 | 46.79853 | 7.78131 | 7° | 16km/h | 27662m | 4.7m/s | -48.2°C | 0.6% | -1.0hPa | 2.6V | 00:00:00 | 00:00:00 | 00:00:00 | |
| IW2NTF | 2026-09-05 00:30:35 | 46.79837 | 7.78126 | 359° | 15km/h | 27634m | 5.3m/s | -48.2°C | 3.1% | 0hPa | 2.6V | 08:30:00 | 01:55:45 | 00:00:00 | |
| DM0DOS-11 | 2026-09-05 00:30:30 | 46.79833 | 7.78126 | 353° | 18km/h | 27628m | 6.6m/s | -48.2°C | 3.1% | 0hPa | 2.5V | 08:30:00 | 01:55:44 | 00:00:00 | |
| HASLITAL | 2026-09-05 00:30:28 | 46.79827 | 7.78128 | 349° | 24km/h | 27623m | 5.3m/s | -48.2°C | 0.7% | 0hPa | 2.6V | 00:00:00 | 00:00:00 | 00:00:00 | |
| IW2NTF | 2026-09-05 00:30:26 | 46.79787 | 7.78137 | 354° | 22km/h | 27579m | 5.3m/s | -48°C | 3% | 0hPa | 2.6V | 08:30:00 | 01:55:35 | 00:00:00 | |
| BIOWL1-15 | 2026-09-05 00:30:25 | 46.79793 | 7.78137 | 355° | 20km/h | 27584m | 6.3m/s | -48°C | 0% | 0hPa | 2.5V | 18:12:15 | 01:55:36 | 00:00:00 | |
| HARRO8 | 2026-09-05 00:30:25 | 46.79806 | 7.78135 | 349° | 16km/h | 27601m | 5.7m/s | -48.1°C | 0.6% | -1.0hPa | 2.6V | 00:00:00 | 00:00:00 | 00:00:00 | |
| BIOWL1-15 | 2026-09-05 00:30:12 | 46.79709 | 7.78161 | 315° | 24km/h | 27487m | 5.1m/s | -47.8°C | 0% | 0hPa | 2.6V | 18:12:15 | 01:55:18 | 00:00:00 | |
| DM0DOS-11 | 2026-09-05 00:30:12 | 46.79739 | 7.78150 | 5° | 18km/h | 27518m | 5.8m/s | -47.8°C | 3% | 0hPa | 2.6V | 08:30:00 | 01:55:24 | 00:00:00 | |
| DL6DJ-15 | 2026-09-05 00:30:12 | 46.79755 | 7.78148 | 348° | 22km/h | 27535m | 5.2m/s | -47.8°C | 0.6% | -1.0hPa | 2.5V | 00:00:00 | 00:00:00 | 00:00:00 | |
| DF7PN | 2026-09-05 00:30:07 | 46.79730 | 7.78149 | 2° | 18km/h | 27508m | 4.4m/s | -47.8°C | 0.6% | -1.0hPa | 2.5V | 00:00:00 | 00:00:00 | 00:00:00 | |
| DM0DOS-11 | 2026-09-05 00:30:00 | 46.79699 | 7.78184 | 311° | 15km/h | 27465m | 5m/s | -47.8°C | 3% | 0hPa | 2.5V | 08:30:00 | 01:55:14 | 00:00:00 | |
| BIOWL1-15 | 2026-09-05 00:29:56 | 46.79676 | 7.78193 | 346° | 18km/h | 27437m | 6.5m/s | -47.8°C | 0% | 0hPa | 2.5V | 18:12:15 | 01:55:09 | 00:00:00 | |
| DM0DOS-11 | 2026-09-05 00:29:55 | 46.79659 | 7.78216 | 308° | 22km/h | 27408m | 5.5m/s | -47.6°C | 3% | 0hPa | 2.5V | 08:30:00 | 01:55:04 | 00:00:00 | |
| HARRO8 | 2026-09-05 00:29:54 | 46.79672 | 7.78195 | 330° | 16km/h | 27431m | 5.8m/s | -47.8°C | 0.6% | -1.0hPa | 2.5V | 00:00:00 | 00:00:00 | 00:00:00 | |
| DL1ZP-14 | 2026-09-05 00:29:48 | 46.79655 | 7.78222 | 310° | 20km/h | 27403m | 4.2m/s | -47.6°C | 0.6% | -1.0hPa | 2.5V | 00:00:00 | 00:00:00 | 00:00:00 | |
| HASLITAL | 2026-09-05 00:29:46 | 46.79652 | 7.78228 | 309° | 20km/h | 27399m | 4.0m/s | -47.6°C | 0.6% | 0hPa | 2.6V | 00:00:00 | 00:00:00 | 00:00:00 | |
| IW2NTF | 2026-09-05 00:29:45 | 46.79634 | 7.78262 | 324° | 16km/h | 27360m | 4.3m/s | -47.6°C | 3% | 0hPa | 2.6V | 08:30:00 | 01:54:55 | 00:00:00 | |
| BIOWL1-15 | 2026-09-05 00:29:44 | 46.79646 | 7.78244 | 293° | 15km/h | 27382m | 5.3m/s | -47.5°C | 0% | 0hPa | 2.5V | 18:12:15 | 01:54:59 | 00:00:00 | |
| DL6DJ-15 | 2026-09-05 00:29:41 | 46.79638 | 7.78258 | 324° | 18km/h | 27365m | 4.9m/s | -47.6°C | 0.5% | -1.0hPa | 2.5V | 00:00:00 | 00:00:00 | 00:00:00 | |
| DF7PN | 2026-09-05 00:29:36 | 46.79628 | 7.78276 | 271° | 11km/h | 27338m | 5.2m/s | -47.7°C | 0.6% | -1.0hPa | 2.5V | 00:00:00 | 00:00:00 | 00:00:00 | |
| IW2NTF | 2026-09-05 00:29:35 | 46.79626 | 7.78314 | 266° | 22km/h | 27304m | 5.8m/s | -47.7°C | 3% | 0hPa | 2.5V | 08:30:00 | 01:54:45 | 00:00:00 | |
| DM0DOS-11 | 2026-09-05 00:29:34 | 46.79626 | 7.78323 | 272° | 24km/h | 27298m | 5.1m/s | -47.7°C | 3% | 0hPa | 2.6V | 08:30:00 | 01:54:44 | 00:00:00 | |
| BIOWL1-15 | 2026-09-05 00:29:34 | 46.79627 | 7.78286 | 282° | 15km/h | 27326m | 5.2m/s | -47.7°C | 0% | 0hPa | 2.6V | 18:12:15 | 01:54:49 | 00:00:00 | |
| BIOWL1-15 | 2026-09-05 00:29:27 | 46.79617 | 7.78367 | 265° | 16km/h | 27264m | 6.3m/s | -47.7°C | 0% | 0hPa | 2.6V | 18:12:15 | 01:54:38 | 00:00:00 | |
| HASLITAL | 2026-09-05 00:29:26 | 46.79623 | 7.78339 | 291° | 24km/h | 27287m | 6.3m/s | -47.7°C | 0.7% | 0hPa | 2.5V | 00:00:00 | 00:00:00 | 00:00:00 | |
| IW2NTF | 2026-09-05 00:29:25 | 46.79620 | 7.78383 | 255° | 11km/h | 27247m | 6.2m/s | -47.6°C | 2.9% | 0hPa | 2.5V | 08:30:00 | 01:54:35 | 00:00:00 | |
| DM0DOS-11 | 2026-09-05 00:29:24 | 46.79621 | 7.78387 | 269° | 11km/h | 27242m | 5.5m/s | -47.5°C | 3% | 0hPa | 2.5V | 08:30:00 | 01:54:34 | 00:00:00 | |
| OE9MKV-15 | 2026-09-05 00:29:22 | 46.79618 | 7.78373 | 254° | 15km/h | 27259m | 5.5m/s | -47.6°C | 3.0% | 0hPa | 2.5V | 00:00:00 | 01:54:37 | 08:30:00 | |
| DB0UT-7 | 2026-09-05 00:29:19 | 46.79621 | 7.78387 | 270° | 15km/h | 27242m | 5.5m/s | -47.5°C | 3.0% | 0hPa | 2.6V | 00:00:00 | 00:00:00 | 00:00:00 | |
| DL1ZP-14 | 2026-09-05 00:29:17 | 46.79621 | 7.78394 | 269° | 9km/h | 27232m | 5.4m/s | -47.5°C | 0.6% | -1.0hPa | 2.6V | 00:00:00 | 00:00:00 | 00:00:00 | |
| IW2NTF | 2026-09-05 00:29:15 | 46.79616 | 7.78428 | 316° | 16km/h | 27192m | 4.5m/s | -47.5°C | 3% | 0hPa | 2.5V | 08:30:00 | 01:54:25 | 00:00:00 | |
| BIOWL9-15 | 2026-09-05 00:29:14 | 46.79622 | 7.78409 | 266° | 15km/h | 27214m | 4.8m/s | -47.5°C | 0.5% | -1.0hPa | 2.5V | 00:00:00 | 00:00:00 | 00:00:00 | |
| DM0DOS-11 | 2026-09-05 00:29:13 | 46.79613 | 7.78433 | 307° | 16km/h | 27187m | 4.9m/s | -47.5°C | 3% | 0hPa | 2.5V | 08:30:00 | 01:54:24 | 00:00:00 | |
| BIOWL1-15 | 2026-09-05 00:29:12 | 46.79616 | 7.78428 | 317° | 16km/h | 27192m | 4.5m/s | -47.5°C | 0% | 0hPa | 2.5V | 18:12:15 | 01:54:25 | 00:00:00 | |
| DL6DJ-15 | 2026-09-05 00:29:10 | 46.79616 | 7.78428 | 316° | 16km/h | 27192m | 4.5m/s | -47.5°C | 0.6% | -1.0hPa | 2.6V | 00:00:00 | 00:00:00 | 00:00:00 | |
| IW2NTF | 2026-09-05 00:29:05 | 46.79617 | 7.78480 | 249° | 9km/h | 27138m | 5.9m/s | -47.2°C | 2.9% | 0hPa | 2.6V | 08:30:00 | 01:54:15 | 00:00:00 | |
| BIOWL1-15 | 2026-09-05 00:29:03 | 46.79616 | 7.78477 | 257° | 9km/h | 27143m | 5m/s | -47.2°C | 0% | 0hPa | 2.6V | 18:12:15 | 01:54:16 | 00:00:00 | |
| DM0DOS-11 | 2026-09-05 00:28:58 | 46.79620 | 7.78494 | 260° | 16km/h | 27121m | 4.7m/s | -47.2°C | 2.8% | 0hPa | 2.5V | 08:30:00 | 01:54:12 | 00:00:00 | |
| DM0DOS-11 | 2026-09-05 00:28:53 | 46.79618 | 7.78538 | 307° | 4km/h | 27063m | 5.4m/s | -47.4°C | 2.9% | 0hPa | 2.5V | 08:30:00 | 01:54:02 | 00:00:00 | |
| BIOWL1-15 | 2026-09-05 00:28:51 | 46.79616 | 7.78526 | 258° | 13km/h | 27086m | 5.7m/s | -47.2°C | 0% | 0hPa | 2.5V | 18:12:15 | 01:54:06 | 00:00:00 | |
| IW2NTF | 2026-09-05 00:28:50 | 46.79617 | 7.78530 | 247° | 11km/h | 27081m | 5.5m/s | -47.2°C | 2.9% | 0hPa | 2.6V | 08:30:00 | 01:54:05 | 00:00:00 | |
| DL1ZP-14 | 2026-09-05 00:28:46 | 46.79618 | 7.78539 | 316° | 5km/h | 27058m | 4.5m/s | -47.4°C | 0.6% | -1.0hPa | 2.5V | 00:00:00 | 00:00:00 | 00:00:00 | |
| IW2NTF | 2026-09-05 00:28:45 | 46.79616 | 7.78557 | 293° | 11km/h | 27022m | 6.1m/s | -47.8°C | 2.9% | 0hPa | 2.5V | 08:30:00 | 01:53:55 | 00:00:00 | |
| BIOWL1-15 | 2026-09-05 00:28:41 | 46.79611 | 7.78573 | 289° | 4km/h | 26994m | 4.9m/s | -47.9°C | 0% | 0hPa | 2.5V | 18:12:15 | 01:53:50 | 00:00:00 | |
| DL6DJ-15 | 2026-09-05 00:28:39 | 46.79614 | 7.78560 | 300° | 11km/h | 27017m | 4.9m/s | -47.8°C | 0.6% | -1.0hPa | 2.5V | 00:00:00 | 00:00:00 | 00:00:00 | |
| IW2NTF | 2026-09-05 00:28:35 | 46.79609 | 7.78569 | 153° | 4km/h | 26965m | 6.6m/s | -48°C | 3% | 0hPa | 2.5V | 08:30:00 | 01:53:45 | 00:00:00 | |
| BIOWL1-15 | 2026-09-05 00:28:30 | 46.79611 | 7.78570 | 239° | 7km/h | 26954m | 4.9m/s | -48°C | 0% | 0hPa | 2.5V | 18:12:15 | 01:53:43 | 00:00:00 | |
| IW2NTF | 2026-09-05 00:28:26 | 46.79605 | 7.78597 | 245° | 9km/h | 26910m | 5.3m/s | -48.2°C | 3% | 0hPa | 2.6V | 08:30:00 | 01:53:35 | 00:00:00 | |
| BIOWL1-15 | 2026-09-05 00:28:17 | 46.79615 | 7.78597 | 68° | 2km/h | 26857m | 6.4m/s | -48.4°C | 0% | 0hPa | 2.5V | 18:12:15 | 01:53:26 | 00:00:00 | |
| IW2NTF | 2026-09-05 00:28:15 | 46.79614 | 7.78597 | 18° | 2km/h | 26851m | 5m/s | -48.4°C | 3% | 0hPa | 2.6V | 08:30:00 | 01:53:25 | 00:00:00 | |
| BIOWL1-15 | 2026-09-05 00:28:07 | 46.79615 | 7.78598 | 213° | 5km/h | 26834m | 5.4m/s | -48.5°C | 0% | 0hPa | 2.5V | 18:12:15 | 01:53:22 | 00:00:00 | |
| BIOWL1-15 | 2026-09-05 00:27:57 | 46.79623 | 7.78605 | 181° | 4km/h | 26778m | 6.4m/s | -48.6°C | 0% | 0hPa | 2.5V | 18:12:15 | 01:53:12 | 00:00:00 | |
| IW2NTF | 2026-09-05 00:27:55 | 46.79627 | 7.78596 | 113° | 7km/h | 26738m | 6.1m/s | -48.5°C | 3.1% | 0hPa | 2.5V | 08:30:00 | 01:53:05 | 00:00:00 | |
| DM0DOS-11 | 2026-09-05 00:27:51 | 46.79626 | 7.78587 | 64° | 2km/h | 26716m | 6.4m/s | -48.5°C | 3.1% | 0hPa | 2.6V | 08:30:00 | 01:53:01 | 00:00:00 | |
| BIOWL1-15 | 2026-09-05 00:27:46 | 46.79627 | 7.78589 | 226° | 7km/h | 26704m | 5.1m/s | -48.6°C | 0% | 0hPa | 2.5V | 18:12:15 | 01:52:59 | 00:00:00 | |
| IW2NTF | 2026-09-05 00:27:45 | 46.79631 | 7.78592 | 106° | 4km/h | 26682m | 5.5m/s | -48.6°C | 3% | 0hPa | 2.5V | 08:30:00 | 01:52:55 | 00:00:00 | |
| DL1ZP-14 | 2026-09-05 00:27:44 | 46.79627 | 7.78589 | 226° | 5km/h | 26704m | 5.1m/s | -48.6°C | 0.6% | -1.0hPa | 2.5V | 00:00:00 | 00:00:00 | 00:00:00 | |
| BIOWL9-15 | 2026-09-05 00:27:41 | 46.79630 | 7.78593 | 175° | 2km/h | 26688m | 6.0m/s | -48.6°C | 0.6% | -1.0hPa | 2.6V | 00:00:00 | 00:00:00 | 00:00:00 | |
| DL6DJ-15 | 2026-09-05 00:27:37 | 46.79632 | 7.78591 | 245° | 4km/h | 26660m | 5.5m/s | -48.8°C | 0.6% | -1.0hPa | 2.6V | 00:00:00 | 00:00:00 | 00:00:00 | |
| IW2NTF | 2026-09-05 00:27:35 | 46.79625 | 7.78600 | 311° | 11km/h | 26627m | 7m/s | -49.1°C | 3.1% | 0hPa | 2.6V | 08:30:00 | 01:52:45 | 00:00:00 | |
| BIOWL1-15 | 2026-09-05 00:27:34 | 46.79630 | 7.78596 | 343° | 5km/h | 26643m | 6.1m/s | -49°C | 0% | 0hPa | 2.5V | 18:12:15 | 01:52:48 | 00:00:00 | |
| DF7PN | 2026-09-05 00:27:32 | 46.79629 | 7.78596 | 347° | 7km/h | 26638m | 4.8m/s | -49.0°C | 0.6% | -1.0hPa | 2.5V | 00:00:00 | 00:00:00 | 00:00:00 | |
| DM0DOS-11 | 2026-09-05 00:27:31 | 46.79619 | 7.78619 | 298° | 15km/h | 26602m | 6.7m/s | -49.3°C | 3.1% | 0hPa | 2.5V | 08:30:00 | 01:52:41 | 00:00:00 | |
| IW2NTF | 2026-09-05 00:27:25 | 46.79606 | 7.78643 | 293° | 16km/h | 26568m | 5.3m/s | -49.7°C | 3.2% | 0hPa | 2.5V | 08:30:00 | 01:52:35 | 00:00:00 | |
| BIOWL1-15 | 2026-09-05 00:27:22 | 46.79606 | 7.78643 | 293° | 16km/h | 26568m | 5.3m/s | -49.7°C | 0% | 0hPa | 2.5V | 18:12:15 | 01:52:35 | 00:00:00 | |
| DM0DOS-11 | 2026-09-05 00:27:21 | 46.79597 | 7.78659 | 323° | 15km/h | 26546m | 4.8m/s | -49.8°C | 3.2% | 0hPa | 2.5V | 08:30:00 | 01:52:31 | 00:00:00 | |
| BIOWL1-15 | 2026-09-05 00:27:12 | 46.79580 | 7.78690 | 321° | 7km/h | 26503m | 5m/s | -50.1°C | 0% | 0hPa | 2.6V | 18:12:15 | 01:52:23 | 00:00:00 | |
| DM0DOS-11 | 2026-09-05 00:27:11 | 46.79578 | 7.78695 | 278° | 9km/h | 26491m | 5.9m/s | -50.1°C | 3.3% | 0hPa | 2.5V | 08:30:00 | 01:52:21 | 00:00:00 | |
| BIOWL9-15 | 2026-09-05 00:27:10 | 46.79584 | 7.78687 | 316° | 11km/h | 26513m | 5.8m/s | -50.1°C | 0.6% | -1.0hPa | 2.5V | 00:00:00 | 00:00:00 | 00:00:00 | |
| DL6DJ-15 | 2026-09-05 00:27:06 | 46.79578 | 7.78699 | 260° | 7km/h | 26486m | 4.8m/s | -50.2°C | 0.7% | -1.0hPa | 2.5V | 00:00:00 | 00:00:00 | 00:00:00 | |
| IW2NTF | 2026-09-05 00:27:05 | 46.79585 | 7.78704 | 189° | 7km/h | 26458m | 5.5m/s | -50.3°C | 3.4% | 0hPa | 2.5V | 08:30:00 | 01:52:15 | 00:00:00 | |
| HASLITAL | 2026-09-05 00:27:03 | 46.79579 | 7.78701 | 242° | 7km/h | 26481m | 5.3m/s | -50.2°C | 0.8% | 0hPa | 2.6V | 00:00:00 | 00:00:00 | 00:00:00 | |
| DM0DOS-11 | 2026-09-05 00:27:01 | 46.79588 | 7.78707 | 93° | 2km/h | 26436m | 6.2m/s | -50.3°C | 3.3% | 0hPa | 2.6V | 08:30:00 | 01:52:11 | 00:00:00 | |
| BIOWL1-15 | 2026-09-05 00:26:58 | 46.79588 | 7.78703 | 92° | 9km/h | 26423m | 5.3m/s | 0°C | 0% | 0hPa | 2.5V | 18:12:15 | 01:52:09 | 00:00:00 | |
| IW2NTF | 2026-09-05 00:26:55 | 46.79589 | 7.78690 | 107° | 9km/h | 26400m | 4.9m/s | -50.2°C | 3.3% | 0hPa | 2.6V | 08:30:00 | 01:52:05 | 00:00:00 | |
| DM0DOS-11 | 2026-09-05 00:26:51 | 46.79593 | 7.78672 | 108° | 11km/h | 26377m | 6m/s | -50.2°C | 3.3% | 0hPa | 2.5V | 08:30:00 | 01:52:01 | 00:00:00 | |
| HARRO8 | 2026-09-05 00:26:47 | 46.79592 | 7.78677 | 107° | 13km/h | 26383m | 5.1m/s | -50.2°C | 0.6% | -1.0hPa | 2.5V | 00:00:00 | 00:00:00 | 00:00:00 | |
| IW2NTF | 2026-09-05 00:26:45 | 46.79597 | 7.78645 | 97° | 22km/h | 26343m | 5.3m/s | -50.3°C | 3.2% | 0hPa | 2.5V | 08:30:00 | 01:51:55 | 00:00:00 | |
| BIOWL1-15 | 2026-09-05 00:26:45 | 46.79595 | 7.78663 | 107° | 11km/h | 26361m | 4.7m/s | 0°C | 0% | 0hPa | 2.5V | 18:12:15 | 01:51:58 | 00:00:00 | |
| DH7VM-15 | 2026-09-05 00:26:44 | 46.79593 | 7.78669 | 111° | 9km/h | 26371m | 5.9m/s | -50.3°C | 0.7% | 0hPa | 2.5V | 00:00:00 | 00:00:00 | 00:00:00 | |
| DL1ZP-14 | 2026-09-05 00:26:42 | 46.79596 | 7.78659 | 102° | 13km/h | 26355m | 6.2m/s | -50.3°C | 0.7% | -1.0hPa | 2.5V | 00:00:00 | 00:00:00 | 00:00:00 | |
| BIOWL9-15 | 2026-09-05 00:26:39 | 46.79598 | 7.78637 | 96° | 22km/h | 26338m | 5.1m/s | -50.3°C | 0.6% | -1.0hPa | 2.5V | 00:00:00 | 00:00:00 | 00:00:00 | |
| IW2NTF | 2026-09-05 00:26:35 | 46.79588 | 7.78578 | 64° | 18km/h | 26287m | 6.6m/s | -50.8°C | 3.4% | 0hPa | 2.5V | 08:30:00 | 01:51:45 | 00:00:00 | |
| BIOWL1-15 | 2026-09-05 00:26:33 | 46.79586 | 7.78572 | 70° | 15km/h | 26281m | 5.8m/s | 0°C | 0% | 0hPa | 2.5V | 18:12:15 | 01:51:44 | 00:00:00 | |
| DF7PN | 2026-09-05 00:26:30 | 46.79586 | 7.78572 | 69° | 13km/h | 26281m | 5.8m/s | -50.8°C | 0.7% | -1.0hPa | 2.5V | 00:00:00 | 00:00:00 | 00:00:00 | |
| IW2NTF | 2026-09-05 00:26:25 | 46.79568 | 7.78514 | 59° | 22km/h | 26231m | 4.8m/s | -51.1°C | 3.5% | 0hPa | 2.5V | 08:30:00 | 01:51:35 | 00:00:00 | |
| HASLITAL | 2026-09-05 00:26:21 | 46.79574 | 7.78527 | 59° | 22km/h | 26242m | 6.4m/s | -51.1°C | 0.8% | 0hPa | 2.5V | 00:00:00 | 00:00:00 | 00:00:00 | |
| DB0UT-7 | 2026-09-05 00:26:19 | 46.79565 | 7.78506 | 62° | 18km/h | 26226m | 6.2m/s | -51.1°C | 3.5% | 0hPa | 2.5V | 00:00:00 | 00:00:00 | 00:00:00 | |
| OE9MKV-15 | 2026-09-05 00:26:18 | 46.79562 | 7.78498 | 63° | 18km/h | 26220m | 5.0m/s | -51.1°C | 3.5% | 0hPa | 2.5V | 00:00:00 | 01:51:33 | 00:00:00 | |
| HARRO8 | 2026-09-05 00:26:16 | 46.79556 | 7.78483 | 57° | 18km/h | 26210m | 5.5m/s | -51.2°C | 0.7% | -1.0hPa | 2.6V | 00:00:00 | 00:00:00 | 00:00:00 | |
| IW2NTF | 2026-09-05 00:26:15 | 46.79537 | 7.78467 | 27° | 22km/h | 26175m | 4.6m/s | -51.2°C | 3.5% | 0hPa | 2.6V | 08:30:00 | 01:51:25 | 00:00:00 | |
| DL1ZP-14 | 2026-09-05 00:26:11 | 46.79541 | 7.78470 | 22° | 16km/h | 26181m | 5.9m/s | -51.2°C | 0.7% | -1.0hPa | 2.5V | 00:00:00 | 00:00:00 | 00:00:00 | |
| IW2NTF | 2026-09-05 00:26:05 | 46.79488 | 7.78441 | 16° | 11km/h | 26123m | 6.3m/s | -51°C | 3.5% | 0hPa | 2.5V | 08:30:00 | 01:51:15 | 00:00:00 | |
| DL6DJ-15 | 2026-09-05 00:26:04 | 46.79499 | 7.78449 | 23° | 20km/h | 26138m | 5.7m/s | -51.1°C | 0.7% | -1.0hPa | 2.5V | 00:00:00 | 00:00:00 | 00:00:00 | |
| DF7PN | 2026-09-05 00:25:59 | 46.79483 | 7.78442 | 328° | 7km/h | 26111m | 4.6m/s | -51.0°C | 0.7% | -1.0hPa | 2.5V | 00:00:00 | 00:00:00 | 00:00:00 | |
| IW2NTF | 2026-09-05 00:25:55 | 46.79451 | 7.78445 | 340° | 22km/h | 26069m | 5.1m/s | -51.1°C | 3.5% | 0hPa | 2.5V | 08:30:00 | 01:51:05 | 00:00:00 | |
| DM0DOS-11 | 2026-09-05 00:25:49 | 46.79430 | 7.78450 | 355° | 11km/h | 26040m | 5.5m/s | -51.1°C | 3.4% | 0hPa | 2.5V | 08:30:00 | 01:50:59 | 00:00:00 | |
| DB0UT-7 | 2026-09-05 00:25:49 | 46.79446 | 7.78448 | 336° | 18km/h | 26065m | 4.4m/s | -51.0°C | 3.4% | 0hPa | 2.5V | 00:00:00 | 01:51:04 | 08:30:00 | |
| OE9MKV-15 | 2026-09-05 00:25:48 | 46.79442 | 7.78450 | 340° | 16km/h | 26060m | 4.9m/s | -51.0°C | 3.4% | 0hPa | 2.5V | 00:00:00 | 01:51:03 | 00:00:00 | |
| IW2NTF | 2026-09-05 00:25:45 | 46.79416 | 7.78462 | 326° | 20km/h | 26017m | 6.2m/s | -51.2°C | 3.5% | 0hPa | 2.5V | 08:30:00 | 01:50:55 | 00:00:00 | |
| DL1ZP-14 | 2026-09-05 00:25:40 | 46.79415 | 7.78462 | 326° | 18km/h | 26017m | 6.2m/s | -51.2°C | 0.7% | -1.0hPa | 2.5V | 00:00:00 | 00:00:00 | 00:00:00 | |
| HASLITAL | 2026-09-05 00:25:39 | 46.79416 | 7.78462 | 328° | 20km/h | 26017m | 6.2m/s | -51.2°C | 0.8% | 0hPa | 2.6V | 00:00:00 | 00:00:00 | 00:00:00 | |
| IW2NTF | 2026-09-05 00:25:35 | 46.79374 | 7.78486 | 5° | 16km/h | 25964m | 5m/s | -51.4°C | 3.5% | 0hPa | 2.6V | 08:30:00 | 01:50:45 | 00:00:00 | |
| DM0DOS-11 | 2026-09-05 00:25:33 | 46.79370 | 7.78487 | 347° | 18km/h | 25959m | 5.9m/s | -51.4°C | 3.5% | 0hPa | 2.6V | 08:30:00 | 01:50:44 | 00:00:00 | |
| DL6DJ-15 | 2026-09-05 00:25:33 | 46.79382 | 7.78489 | 8° | 15km/h | 25974m | 5.6m/s | -51.4°C | 0.7% | -1.0hPa | 2.5V | 00:00:00 | 00:00:00 | 00:00:00 | |
| DF7PN | 2026-09-05 00:25:28 | 46.79361 | 7.78494 | 320° | 24km/h | 25949m | 4.3m/s | -51.4°C | 0.7% | -1.0hPa | 2.5V | 00:00:00 | 00:00:00 | 00:00:00 | |
| IW2NTF | 2026-09-05 00:25:25 | 46.79333 | 7.78527 | 307° | 13km/h | 25912m | 5.5m/s | -51.8°C | 3.5% | 0hPa | 2.5V | 08:30:00 | 01:50:35 | 00:00:00 | |
| DM0DOS-11 | 2026-09-05 00:25:23 | 46.79332 | 7.78531 | 303° | 13km/h | 25907m | 5m/s | -51.8°C | 3.5% | 0hPa | 2.6V | 08:30:00 | 01:50:34 | 00:00:00 | |
| DB0UT-7 | 2026-09-05 00:25:19 | 46.79331 | 7.78530 | 304° | 9km/h | 25907m | 4.9m/s | -51.7°C | 3.5% | 0hPa | 2.5V | 00:00:00 | 00:00:00 | 00:00:00 | |
| OE9MKV-15 | 2026-09-05 00:25:18 | 46.79330 | 7.78534 | 316° | 9km/h | 25903m | 4.3m/s | -51.8°C | 3.6% | 0hPa | 2.5V | 00:00:00 | 01:50:33 | 00:00:00 | |
| IW2NTF | 2026-09-05 00:25:15 | 46.79307 | 7.78558 | 292° | 11km/h | 25861m | 5.5m/s | -52°C | 3.6% | 0hPa | 2.5V | 08:30:00 | 01:50:25 | 00:00:00 | |
| HARRO8 | 2026-09-05 00:25:14 | 46.79318 | 7.78541 | 335° | 16km/h | 25883m | 5.3m/s | -51.9°C | 0.7% | -1.0hPa | 2.5V | 00:00:00 | 00:00:00 | 00:00:00 | |
| DM0DOS-11 | 2026-09-05 00:25:13 | 46.79306 | 7.78561 | 294° | 5km/h | 25855m | 6.2m/s | -52°C | 3.6% | 0hPa | 2.5V | 08:30:00 | 01:50:24 | 00:00:00 | |
| DL1ZP-14 | 2026-09-05 00:25:09 | 46.79306 | 7.78561 | 294° | 5km/h | 25855m | 6.2m/s | -52.0°C | 0.7% | -1.0hPa | 2.5V | 00:00:00 | 00:00:00 | 00:00:00 | |
| IW2NTF | 2026-09-05 00:25:03 | 46.79295 | 7.78571 | 322° | 13km/h | 25796m | 5.9m/s | -52°C | 3.6% | 0hPa | 2.5V | 08:30:00 | 01:50:13 | 00:00:00 | |
| DM0DOS-11 | 2026-09-05 00:25:03 | 46.79298 | 7.78568 | 333° | 11km/h | 25802m | 6.3m/s | -52°C | 3.6% | 0hPa | 2.5V | 08:30:00 | 01:50:14 | 00:00:00 | |
| DL6DJ-15 | 2026-09-05 00:25:01 | 46.79303 | 7.78566 | 349° | 7km/h | 25812m | 4.9m/s | -52.0°C | 0.7% | -1.0hPa | 2.5V | 00:00:00 | 00:00:00 | 00:00:00 | |
| DF7PN | 2026-09-05 00:24:57 | 46.79291 | 7.78576 | 326° | 7km/h | 25785m | 5.1m/s | -52.1°C | 0.8% | -1.0hPa | 2.5V | 00:00:00 | 00:00:00 | 00:00:00 | |
| IW2NTF | 2026-09-05 00:24:53 | 46.79282 | 7.78570 | 22° | 11km/h | 25740m | 6.3m/s | -52.1°C | 3.6% | 0hPa | 2.5V | 08:30:00 | 01:50:03 | 00:00:00 | |
| DM0DOS-11 | 2026-09-05 00:24:51 | 46.79284 | 7.78572 | 19° | 7km/h | 25746m | 5.6m/s | -52.1°C | 3.6% | 0hPa | 2.6V | 08:30:00 | 01:50:04 | 00:00:00 | |
| DB0UT-7 | 2026-09-05 00:24:49 | 46.79284 | 7.78571 | 20° | 11km/h | 25746m | 5.5m/s | -52.1°C | 3.6% | 0hPa | 2.6V | 00:00:00 | 01:50:04 | 00:00:00 | |
| IW2NTF | 2026-09-05 00:24:44 | 46.79251 | 7.78563 | 57° | 7km/h | 25686m | 6.2m/s | -52.1°C | 3.6% | 0hPa | 2.6V | 08:30:00 | 01:49:53 | 00:00:00 | |
| DM0DOS-11 | 2026-09-05 00:24:43 | 46.79252 | 7.78566 | 49° | 9km/h | 25691m | 4.5m/s | -52.1°C | 3.7% | 0hPa | 2.6V | 08:30:00 | 01:49:54 | 00:00:00 | |
| HARRO8 | 2026-09-05 00:24:43 | 46.79263 | 7.78569 | 343° | 15km/h | 25713m | 4.8m/s | -52.2°C | 0.7% | -1.0hPa | 2.6V | 00:00:00 | 00:00:00 | 00:00:00 | |
| OE9MKV-15 | 2026-09-05 00:24:38 | 46.79251 | 7.78563 | 58° | 7km/h | 25686m | 6.1m/s | -52.1°C | 3.6% | 0hPa | 2.6V | 00:00:00 | 01:49:53 | 08:30:00 | |
| HASLITAL | 2026-09-05 00:24:37 | 46.79251 | 7.78563 | 58° | 7km/h | 25686m | 6.2m/s | -52.1°C | 0.9% | 0hPa | 2.5V | 00:00:00 | 00:00:00 | 00:00:00 | |
| DM0DOS-11 | 2026-09-05 00:24:34 | 46.79235 | 7.78561 | 340° | 15km/h | 25634m | 4.8m/s | -52.2°C | 3.7% | 0hPa | 2.5V | 08:30:00 | 01:49:44 | 00:00:00 | |
| IW2NTF | 2026-09-05 00:24:33 | 46.79232 | 7.78563 | 348° | 15km/h | 25629m | 5.3m/s | -52.2°C | 3.7% | 0hPa | 2.5V | 08:30:00 | 01:49:43 | 00:00:00 | |
| DL6DJ-15 | 2026-09-05 00:24:30 | 46.79239 | 7.78560 | 342° | 13km/h | 25640m | 6.4m/s | -52.1°C | 0.8% | -1.0hPa | 2.5V | 00:00:00 | 00:00:00 | 00:00:00 | |
| DF7PN | 2026-09-05 00:24:25 | 46.79222 | 7.78563 | 357° | 9km/h | 25614m | 5.2m/s | -52.4°C | 0.7% | -1.0hPa | 2.5V | 00:00:00 | 00:00:00 | 00:00:00 | |
| IW2NTF | 2026-09-05 00:24:23 | 46.79208 | 7.78568 | 0° | 13km/h | 25574m | 4.5m/s | -52.3°C | 3.7% | 0hPa | 2.5V | 08:30:00 | 01:49:33 | 00:00:00 | |
| DM0DOS-11 | 2026-09-05 00:24:23 | 46.79211 | 7.78568 | 7° | 11km/h | 25578m | 4.5m/s | -52.3°C | 3.8% | 0hPa | 2.5V | 08:30:00 | 01:49:34 | 00:00:00 | |
| DB0UT-7 | 2026-09-05 00:24:19 | 46.79211 | 7.78568 | 8° | 9km/h | 25578m | 4.5m/s | -52.3°C | 3.8% | 0hPa | 2.5V | 00:00:00 | 00:00:00 | 00:00:00 | |
| HASLITAL | 2026-09-05 00:24:16 | 46.79205 | 7.78569 | 350° | 15km/h | 25568m | 6.1m/s | -52.3°C | 0.9% | 0hPa | 2.5V | 00:00:00 | 00:00:00 | 00:00:00 | |
| IW2NTF | 2026-09-05 00:24:14 | 46.79184 | 7.78582 | 301° | 4km/h | 25517m | 5.2m/s | -52.2°C | 3.6% | 0hPa | 2.5V | 08:30:00 | 01:49:23 | 00:00:00 | |
| DM0DOS-11 | 2026-09-05 00:24:14 | 46.79185 | 7.78581 | 310° | 2km/h | 25522m | 6.3m/s | -52.2°C | 3.6% | 0hPa | 2.6V | 08:30:00 | 01:49:24 | 00:00:00 | |
| HARRO8 | 2026-09-05 00:24:12 | 46.79188 | 7.78580 | 348° | 7km/h | 25539m | 5.8m/s | -52.2°C | 0.7% | -1.0hPa | 2.5V | 00:00:00 | 00:00:00 | 00:00:00 | |
| OE9MKV-15 | 2026-09-05 00:24:08 | 46.79184 | 7.78582 | 302° | 9km/h | 25517m | 5.1m/s | -52.2°C | 3.6% | 0hPa | 2.5V | 00:00:00 | 01:49:23 | 00:00:00 | |
| DL1ZP-14 | 2026-09-05 00:24:07 | 46.79184 | 7.78583 | 342° | 2km/h | 25512m | 4.6m/s | -52.3°C | 0.8% | -1.0hPa | 2.5V | 00:00:00 | 00:00:00 | 00:00:00 | |
| IW2NTF | 2026-09-05 00:24:03 | 46.79167 | 7.78592 | 279° | 7km/h | 25461m | 6.2m/s | -52.5°C | 3.7% | 0hPa | 2.6V | 08:30:00 | 01:49:13 | 00:00:00 | |
| DM0DOS-11 | 2026-09-05 00:24:03 | 46.79168 | 7.78589 | 292° | 11km/h | 25467m | 5.6m/s | -52.4°C | 3.7% | 0hPa | 2.6V | 08:30:00 | 01:49:14 | 00:00:00 | |
| DL6DJ-15 | 2026-09-05 00:23:59 | 46.79168 | 7.78589 | 292° | 9km/h | 25468m | 5.6m/s | -52.4°C | 0.8% | -1.0hPa | 2.5V | 00:00:00 | 00:00:00 | 00:00:00 | |
| DF7PN | 2026-09-05 00:23:54 | 46.79167 | 7.78600 | 276° | 4km/h | 25438m | 5.5m/s | -52.6°C | 0.7% | -1.0hPa | 2.5V | 00:00:00 | 00:00:00 | 00:00:00 | |
| IW2NTF | 2026-09-05 00:23:53 | 46.79163 | 7.78600 | 326° | 7km/h | 25406m | 5.6m/s | -52.5°C | 3.7% | 0hPa | 2.5V | 08:30:00 | 01:49:03 | 00:00:00 | |
| DM0DOS-11 | 2026-09-05 00:23:53 | 46.79165 | 7.78600 | 6° | 4km/h | 25411m | 4.2m/s | -52.5°C | 3.7% | 0hPa | 2.5V | 08:30:00 | 01:49:04 | 00:00:00 | |
| DB0UT-7 | 2026-09-05 00:23:49 | 46.79164 | 7.78599 | 7° | 13km/h | 25411m | 4.2m/s | -52.5°C | 3.7% | 0hPa | 2.5V | 00:00:00 | 01:49:04 | 00:00:00 | |
| IW2NTF | 2026-09-05 00:23:43 | 46.79165 | 7.78640 | 223° | 7km/h | 25349m | 5.7m/s | -52.7°C | 3.8% | 0hPa | 2.5V | 08:30:00 | 01:48:53 | 00:00:00 | |
| DM0DOS-11 | 2026-09-05 00:23:43 | 46.79163 | 7.78637 | 232° | 11km/h | 25354m | 5.3m/s | -52.6°C | 3.8% | 0hPa | 2.5V | 08:30:00 | 01:48:54 | 00:00:00 | |
| HARRO8 | 2026-09-05 00:23:41 | 46.79160 | 7.78630 | 239° | 11km/h | 25366m | 6.2m/s | -52.5°C | 0.8% | -1.0hPa | 2.5V | 00:00:00 | 00:00:00 | 00:00:00 | |
| DH7VM-15 | 2026-09-05 00:23:39 | 46.79162 | 7.78634 | 237° | 13km/h | 25360m | 6.2m/s | -52.6°C | 0.9% | 0hPa | 2.5V | 00:00:00 | 00:00:00 | 00:00:00 | |
| OE9MKV-15 | 2026-09-05 00:23:37 | 46.79166 | 7.78641 | 199° | 13km/h | 25343m | 6.5m/s | -52.7°C | 3.8% | 0hPa | 2.5V | 00:00:00 | 01:48:52 | 00:00:00 | |
| HASLITAL | 2026-09-05 00:23:35 | 46.79167 | 7.78641 | 0° | 0km/h | 25337m | 4.6m/s | -52.7°C | 0.9% | 0hPa | 2.5V | 00:00:00 | 00:00:00 | 00:00:00 | |
| IW2NTF | 2026-09-05 00:23:33 | 46.79177 | 7.78679 | 219° | 20km/h | 25293m | 4.8m/s | -52.7°C | 3.8% | 0hPa | 2.5V | 08:30:00 | 01:48:43 | 00:00:00 | |
| DM0DOS-11 | 2026-09-05 00:23:33 | 46.79173 | 7.78674 | 228° | 20km/h | 25298m | 5.6m/s | -52.7°C | 3.8% | 0hPa | 2.6V | 08:30:00 | 01:48:44 | 00:00:00 | |
| DL6DJ-15 | 2026-09-05 00:23:28 | 46.79180 | 7.78683 | 219° | 18km/h | 25288m | 5.0m/s | -52.7°C | 0.8% | -1.0hPa | 2.6V | 00:00:00 | 00:00:00 | 00:00:00 | |
| IW2NTF | 2026-09-05 00:23:23 | 46.79200 | 7.78714 | 269° | 9km/h | 25237m | 6.5m/s | -52.7°C | 3.8% | 0hPa | 2.6V | 08:30:00 | 01:48:33 | 00:00:00 | |
| DM0DOS-11 | 2026-09-05 00:23:23 | 46.79199 | 7.78711 | 239° | 7km/h | 25243m | 6.4m/s | -52.7°C | 3.8% | 0hPa | 2.6V | 08:30:00 | 01:48:34 | 00:00:00 | |
| BIOWL1-15 | 2026-09-05 00:23:22 | 46.79196 | 7.78707 | 211° | 11km/h | 25254m | 5.6m/s | -52.7°C | 0.1% | 0hPa | 2.5V | 18:12:15 | 01:48:36 | 00:00:00 | |
| DB0UT-7 | 2026-09-05 00:23:19 | 46.79199 | 7.78711 | 240° | 9km/h | 25244m | 6.3m/s | -52.7°C | 3.8% | 0hPa | 2.5V | 00:00:00 | 00:00:00 | 00:00:00 | |
| HASLITAL | 2026-09-05 00:23:15 | 46.79199 | 7.78721 | 271° | 9km/h | 25226m | 5.6m/s | -52.7°C | 0.9% | 0hPa | 2.5V | 00:00:00 | 00:00:00 | 00:00:00 | |
| IW2NTF | 2026-09-05 00:23:13 | 46.79209 | 7.78734 | 166° | 9km/h | 25181m | 6.3m/s | -52.7°C | 3.8% | 0hPa | 2.5V | 08:30:00 | 01:48:23 | 00:00:00 | |
| DM0DOS-11 | 2026-09-05 00:23:13 | 46.79207 | 7.78734 | 183° | 5km/h | 25187m | 5.4m/s | -52.7°C | 3.8% | 0hPa | 2.5V | 08:30:00 | 01:48:24 | 00:00:00 | |
| BIOWL1-15 | 2026-09-05 00:23:11 | 46.79204 | 7.78732 | 227° | 7km/h | 25197m | 5.7m/s | -52.7°C | 0.1% | 0hPa | 2.5V | 18:12:15 | 01:48:26 | 00:00:00 | |
| BIOWL1-15 | 2026-09-05 00:23:05 | 46.79226 | 7.78739 | 229° | 7km/h | 25144m | 5m/s | -52.6°C | 0.1% | 0hPa | 2.6V | 18:12:15 | 01:48:16 | 00:00:00 | |
| DM0DOS-11 | 2026-09-05 00:23:03 | 46.79229 | 7.78741 | 170° | 7km/h | 25133m | 5.7m/s | -52.5°C | 3.7% | 0hPa | 2.5V | 08:30:00 | 01:48:14 | 00:00:00 | |
| IW2NTF | 2026-09-05 00:23:03 | 46.79231 | 7.78740 | 163° | 9km/h | 25127m | 4.7m/s | -52.5°C | 3.7% | 0hPa | 2.5V | 08:30:00 | 01:48:13 | 00:00:00 | |
| BIOWL9-15 | 2026-09-05 00:23:02 | 46.79226 | 7.78739 | 229° | 7km/h | 25144m | 5.0m/s | -52.6°C | 0.8% | -1.0hPa | 2.5V | 00:00:00 | 00:00:00 | 00:00:00 | |
| DL6DJ-15 | 2026-09-05 00:22:57 | 46.79233 | 7.78739 | 167° | 9km/h | 25123m | 4.7m/s | -52.5°C | 0.8% | -1.0hPa | 2.5V | 00:00:00 | 00:00:00 | 00:00:00 | |
| HASLITAL | 2026-09-05 00:22:55 | 46.79235 | 7.78738 | 184° | 9km/h | 25118m | 6.4m/s | -52.5°C | 0.9% | 0hPa | 2.5V | 00:00:00 | 00:00:00 | 00:00:00 | |
| IW2NTF | 2026-09-05 00:22:53 | 46.79258 | 7.78744 | 210° | 13km/h | 25076m | 6m/s | -52.6°C | 3.8% | 0hPa | 2.5V | 08:30:00 | 01:48:03 | 00:00:00 | |
| DM0DOS-11 | 2026-09-05 00:22:53 | 46.79255 | 7.78742 | 190° | 13km/h | 25081m | 4.7m/s | -52.6°C | 3.7% | 0hPa | 2.6V | 08:30:00 | 01:48:04 | 00:00:00 | |
| BIOWL1-15 | 2026-09-05 00:22:50 | 46.79251 | 7.78742 | 177° | 13km/h | 25086m | 4.3m/s | -52.5°C | 0.1% | 0hPa | 2.6V | 18:12:15 | 01:48:05 | 00:00:00 | |
| DB0UT-7 | 2026-09-05 00:22:49 | 46.79255 | 7.78742 | 191° | 18km/h | 25082m | 4.7m/s | -52.5°C | 3.7% | 0hPa | 2.6V | 00:00:00 | 01:48:04 | 00:00:00 | |
| DO3MHA-11 | 2026-09-05 00:22:47 | 46.79260 | 7.78747 | 229° | 22km/h | 25070m | 5.8m/s | -52.6°C | 3.8% | 0hPa | 2.5V | 00:00:00 | 01:48:02 | 00:00:00 | |
| IW2NTF | 2026-09-05 00:22:44 | 46.79293 | 7.78764 | 191° | 27km/h | 25022m | 5.3m/s | -52.8°C | 3.8% | 0hPa | 2.6V | 08:30:00 | 01:47:53 | 00:00:00 | |
| DM0DOS-11 | 2026-09-05 00:22:44 | 46.79287 | 7.78762 | 189° | 26km/h | 25027m | 5.5m/s | -52.7°C | 3.8% | 0hPa | 2.6V | 08:30:00 | 01:47:54 | 00:00:00 | |
| BIOWL1-15 | 2026-09-05 00:22:40 | 46.79281 | 7.78761 | 184° | 22km/h | 25033m | 6.3m/s | 0°C | 0% | 0hPa | 2.5V | 18:12:15 | 01:47:55 | 00:00:00 | |
| HARRO8 | 2026-09-05 00:22:39 | 46.79294 | 7.78764 | 191° | 26km/h | 25022m | 5.3m/s | -52.8°C | 0.8% | -1.0hPa | 2.6V | 00:00:00 | 00:00:00 | 00:00:00 | |
| OE9MKV-15 | 2026-09-05 00:22:36 | 46.79307 | 7.78767 | 187° | 18km/h | 25011m | 6.3m/s | -52.7°C | 3.8% | 0hPa | 2.6V | 00:00:00 | 01:47:51 | 00:00:00 | |
| DL1ZP-14 | 2026-09-05 00:22:34 | 46.79323 | 7.78771 | 200° | 18km/h | 24995m | 5.9m/s | -52.6°C | 0.8% | -1.0hPa | 2.6V | 00:00:00 | 00:00:00 | 00:00:00 | |
| DM0DOS-11 | 2026-09-05 00:22:33 | 46.79341 | 7.78784 | 198° | 18km/h | 24972m | 6.3m/s | -52.5°C | 3.8% | 0hPa | 2.5V | 08:30:00 | 01:47:44 | 00:00:00 | |
| IW2NTF | 2026-09-05 00:22:32 | 46.79350 | 7.78786 | 180° | 18km/h | 24961m | 5m/s | -52.5°C | 3.8% | 0hPa | 2.6V | 08:30:00 | 01:47:42 | 00:00:00 | |
| BIOWL1-15 | 2026-09-05 00:22:30 | 46.79336 | 7.78782 | 209° | 18km/h | 24978m | 4.9m/s | 0°C | 0% | 0hPa | 2.5V | 18:12:15 | 01:47:45 | 00:00:00 | |
| DL6DJ-15 | 2026-09-05 00:22:26 | 46.79355 | 7.78786 | 181° | 18km/h | 24956m | 6.4m/s | -52.4°C | 0.8% | -1.0hPa | 2.5V | 00:00:00 | 00:00:00 | 00:00:00 | |
| DK5PH-5 | 2026-09-05 00:22:25 | 46.79360 | 7.78786 | 184° | 16km/h | 24950m | 5.7m/s | -52.3°C | 3.8% | 0hPa | 2.5V | 00:00:00 | 01:47:40 | 00:00:00 | |
| DO3MHA-11 | 2026-09-05 00:22:24 | 46.79364 | 7.78787 | 182° | 16km/h | 24944m | 5.0m/s | -52.3°C | 3.8% | 0hPa | 2.5V | 00:00:00 | 01:47:39 | 00:00:00 | |
| DM0DOS-11 | 2026-09-05 00:22:23 | 46.79385 | 7.78782 | 182° | 15km/h | 24917m | 6.3m/s | -52.2°C | 3.7% | 0hPa | 2.5V | 08:30:00 | 01:47:34 | 00:00:00 | |
| DF7PN | 2026-09-05 00:22:21 | 46.79378 | 7.78784 | 162° | 15km/h | 24927m | 4.6m/s | -52.3°C | 0.8% | -1.0hPa | 2.5V | 00:00:00 | 00:00:00 | 00:00:00 | |
| DB0UT-7 | 2026-09-05 00:22:19 | 46.79385 | 7.78782 | 183° | 16km/h | 24917m | 6.3m/s | -52.2°C | 3.7% | 0hPa | 2.5V | 00:00:00 | 00:00:00 | 00:00:00 | |
| IW2NTF | 2026-09-05 00:22:17 | 46.79393 | 7.78784 | 193° | 16km/h | 24906m | 4.5m/s | -52.2°C | 3.7% | 0hPa | 2.5V | 08:30:00 | 01:47:32 | 00:00:00 | |
| DO3MHA-11 | 2026-09-05 00:22:14 | 46.79405 | 7.78784 | 162° | 18km/h | 24890m | 5.1m/s | -52.1°C | 3.8% | 0hPa | 2.5V | 00:00:00 | 01:47:29 | 08:30:00 | |
| DM0DOS-11 | 2026-09-05 00:22:13 | 46.79424 | 7.78774 | 152° | 16km/h | 24862m | 6m/s | -52.1°C | 3.7% | 0hPa | 2.6V | 08:30:00 | 01:47:24 | 00:00:00 | |
| HASLITAL | 2026-09-05 00:22:13 | 46.79405 | 7.78784 | 162° | 16km/h | 24890m | 5.1m/s | -52.2°C | 0.9% | 0hPa | 2.5V | 00:00:00 | 00:00:00 | 00:00:00 | |
| DH7VM-15 | 2026-09-05 00:22:09 | 46.79421 | 7.78776 | 162° | 16km/h | 24867m | 4.7m/s | -52.2°C | 0.9% | 0hPa | 2.5V | 00:00:00 | 00:00:00 | 00:00:00 | |
| IW2NTF | 2026-09-05 00:22:08 | 46.79432 | 7.78767 | 149° | 20km/h | 24851m | 4.4m/s | -52.1°C | 3.7% | 0hPa | 2.5V | 08:30:00 | 01:47:22 | 00:00:00 | |
| OE9MKV-15 | 2026-09-05 00:22:06 | 46.79436 | 7.78764 | 157° | 13km/h | 24847m | 5.1m/s | -52.0°C | 3.7% | 0hPa | 2.5V | 00:00:00 | 01:47:21 | 00:00:00 | |
| DO3MHA-11 | 2026-09-05 00:22:04 | 46.79446 | 7.78760 | 175° | 16km/h | 24835m | 5.1m/s | -51.9°C | 3.7% | 0hPa | 2.5V | 00:00:00 | 01:47:19 | 00:00:00 | |
| DL1ZP-14 | 2026-09-05 00:22:03 | 46.79456 | 7.78758 | 163° | 18km/h | 24825m | 5.8m/s | -51.9°C | 0.8% | -1.0hPa | 2.5V | 00:00:00 | 00:00:00 | 00:00:00 | |
| IW2NTF | 2026-09-05 00:22:02 | 46.79473 | 7.78742 | 148° | 13km/h | 24799m | 5.3m/s | -51.8°C | 3.7% | 0hPa | 2.6V | 08:30:00 | 01:47:12 | 00:00:00 | |
| DM0DOS-11 | 2026-09-05 00:22:02 | 46.79467 | 7.78748 | 138° | 16km/h | 24810m | 4.6m/s | -51.8°C | 3.6% | 0hPa | 2.5V | 08:30:00 | 01:47:14 | 00:00:00 | |
| DK5PH-5 | 2026-09-05 00:21:55 | 46.79478 | 7.78737 | 145° | 13km/h | 24789m | 5.7m/s | -51.7°C | 3.6% | 0hPa | 2.5V | 00:00:00 | 01:47:10 | 00:00:00 | |
| DO3MHA-11 | 2026-09-05 00:21:54 | 46.79481 | 7.78733 | 137° | 13km/h | 24783m | 5.9m/s | -51.7°C | 3.6% | 0hPa | 2.5V | 00:00:00 | 01:47:09 | 00:00:00 | |
| DM0DOS-11 | 2026-09-05 00:21:53 | 46.79492 | 7.78716 | 131° | 9km/h | 24757m | 4.4m/s | -51.7°C | 3.5% | 0hPa | 2.5V | 08:30:00 | 01:47:04 | 00:00:00 | |
| DF7PN | 2026-09-05 00:21:50 | 46.79491 | 7.78718 | 136° | 9km/h | 24762m | 5.7m/s | -51.7°C | 0.8% | -1.0hPa | 2.6V | 00:00:00 | 00:00:00 | 00:00:00 | |
| DB0UT-7 | 2026-09-05 00:21:49 | 46.79492 | 7.78716 | 132° | 13km/h | 24757m | 4.3m/s | -51.6°C | 3.5% | 0hPa | 2.6V | 00:00:00 | 01:47:04 | 00:00:00 | |
| IW2NTF | 2026-09-05 00:21:47 | 46.79496 | 7.78710 | 121° | 13km/h | 24746m | 5m/s | -51.6°C | 3.6% | 0hPa | 2.6V | 08:30:00 | 01:47:02 | 00:00:00 | |
| DO3MHA-11 | 2026-09-05 00:21:44 | 46.79499 | 7.78699 | 120° | 13km/h | 24731m | 5.8m/s | -51.6°C | 3.5% | 0hPa | 2.5V | 00:00:00 | 01:46:59 | 00:00:00 | |
| DM0DOS-11 | 2026-09-05 00:21:41 | 46.79508 | 7.78680 | 121° | 18km/h | 24706m | 4m/s | -51.6°C | 3.5% | 0hPa | 2.5V | 08:30:00 | 01:46:54 | 00:00:00 | |
| IW2NTF | 2026-09-05 00:21:37 | 46.79511 | 7.78670 | 110° | 13km/h | 24695m | 5.9m/s | -51.7°C | 3.5% | 0hPa | 2.5V | 08:30:00 | 01:46:52 | 00:00:00 | |
| HARRO8 | 2026-09-05 00:21:37 | 46.79512 | 7.78665 | 94° | 9km/h | 24690m | 4.8m/s | -51.8°C | 0.7% | -1.0hPa | 2.6V | 00:00:00 | 00:00:00 | 00:00:00 | |
| OE9MKV-15 | 2026-09-05 00:21:34 | 46.79512 | 7.78657 | 85° | 15km/h | 24680m | 5.8m/s | -51.8°C | 3.6% | 0hPa | 2.6V | 00:00:00 | 01:46:49 | 00:00:00 | |
| DM0DOS-11 | 2026-09-05 00:21:33 | 46.79507 | 7.78633 | 63° | 11km/h | 24654m | 4.3m/s | -52°C | 3.6% | 0hPa | 2.6V | 08:30:00 | 01:46:44 | 00:00:00 | |
| HASLITAL | 2026-09-05 00:21:32 | 46.79511 | 7.78652 | 84° | 15km/h | 24675m | 4.9m/s | -51.9°C | 0.9% | 0hPa | 2.5V | 00:00:00 | 00:00:00 | 00:00:00 | |
| DL1ZP-14 | 2026-09-05 00:21:31 | 46.79510 | 7.78641 | 71° | 13km/h | 24665m | 5.7m/s | -51.9°C | 0.7% | -1.0hPa | 2.5V | 00:00:00 | 00:00:00 | 00:00:00 | |
| IW2NTF | 2026-09-05 00:21:27 | 46.79506 | 7.78624 | 93° | 13km/h | 24645m | 5.7m/s | -52.1°C | 3.6% | 0hPa | 2.5V | 08:30:00 | 01:46:42 | 00:00:00 | |
| DK5PH-5 | 2026-09-05 00:21:25 | 46.79508 | 7.78613 | 115° | 16km/h | 24635m | 4.4m/s | -52.2°C | 3.6% | 0hPa | 2.5V | 00:00:00 | 01:46:40 | 00:00:00 | |
| DO3MHA-11 | 2026-09-05 00:21:24 | 46.79510 | 7.78607 | 116° | 16km/h | 24630m | 4.9m/s | -52.3°C | 3.6% | 0hPa | 2.5V | 00:00:00 | 01:46:39 | 00:00:00 | |
| DM0DOS-11 | 2026-09-05 00:21:23 | 46.79509 | 7.78582 | 68° | 20km/h | 24604m | 5.2m/s | -52.7°C | 3.8% | 0hPa | 2.5V | 08:30:00 | 01:46:34 | 00:00:00 | |
| DB0UT-7 | 2026-09-05 00:21:19 | 46.79509 | 7.78582 | 69° | 16km/h | 24605m | 5.1m/s | -52.7°C | 3.8% | 0hPa | 2.5V | 00:00:00 | 00:00:00 | 08:30:00 | |
| IW2NTF | 2026-09-05 00:21:17 | 46.79505 | 7.78569 | 60° | 20km/h | 24595m | 4.8m/s | -52.8°C | 3.8% | 0hPa | 2.6V | 08:30:00 | 01:46:32 | 00:00:00 | |
| DO3MHA-11 | 2026-09-05 00:21:14 | 46.79497 | 7.78552 | 56° | 16km/h | 24579m | 4.5m/s | -52.8°C | 3.8% | 0hPa | 2.5V | 00:00:00 | 01:46:29 | 00:00:00 | |
| DM0DOS-11 | 2026-09-05 00:21:12 | 46.79493 | 7.78524 | 87° | 13km/h | 24553m | 5.6m/s | -52.7°C | 3.8% | 0hPa | 2.5V | 08:30:00 | 01:46:24 | 00:00:00 | |
| DO3MHA-12 | 2026-09-05 00:21:11 | 46.79493 | 7.78534 | 87° | 16km/h | 24564m | 4.3m/s | -52.7°C | 3.9% | 0hPa | 2.6V | 00:00:00 | 01:46:26 | 00:00:00 | |
| IW2NTF | 2026-09-05 00:21:08 | 46.79492 | 7.78507 | 86° | 18km/h | 24539m | 5.4m/s | -52.6°C | 3.8% | 0hPa | 2.6V | 08:30:00 | 01:46:21 | 00:00:00 | |
| HARRO8 | 2026-09-05 00:21:06 | 46.79491 | 7.78500 | 82° | 20km/h | 24534m | 3.9m/s | -52.6°C | 0.8% | -1.0hPa | 2.5V | 00:00:00 | 00:00:00 | 00:00:00 | |
| DO3MHA-11 | 2026-09-05 00:21:04 | 46.79490 | 7.78492 | 78° | 18km/h | 24530m | 4.0m/s | -52.5°C | 3.8% | 0hPa | 2.5V | 00:00:00 | 01:46:19 | 00:00:00 | |
| DO3MHA-12 | 2026-09-05 00:21:00 | 46.79484 | 7.78469 | 76° | 16km/h | 24511m | 4.4m/s | -52.5°C | 3.8% | 0hPa | 2.5V | 00:00:00 | 01:46:15 | 00:00:00 | |
| IW2NTF | 2026-09-05 00:20:57 | 46.79487 | 7.78443 | 110° | 18km/h | 24491m | 4.4m/s | -52.5°C | 3.7% | 0hPa | 2.5V | 08:30:00 | 01:46:11 | 00:00:00 | |
| DK5PH-5 | 2026-09-05 00:20:55 | 46.79488 | 7.78437 | 105° | 18km/h | 24486m | 5.7m/s | -52.5°C | 3.8% | 0hPa | 2.6V | 00:00:00 | 01:46:10 | 00:00:00 | |
| DO3MHA-11 | 2026-09-05 00:20:54 | 46.79489 | 7.78432 | 93° | 18km/h | 24481m | 5.3m/s | -52.5°C | 3.8% | 0hPa | 2.5V | 00:00:00 | 01:46:09 | 00:00:00 | |
| DM0DOS-11 | 2026-09-05 00:20:53 | 46.79489 | 7.78422 | 85° | 15km/h | 24471m | 4.6m/s | -52.6°C | 3.8% | 0hPa | 2.5V | 08:30:00 | 01:46:07 | 00:00:00 | |
| DL6DJ-15 | 2026-09-05 00:20:53 | 46.79489 | 7.78427 | 83° | 13km/h | 24476m | 4.3m/s | -52.6°C | 0.8% | -1.0hPa | 2.5V | 00:00:00 | 00:00:00 | 00:00:00 | |
| DF7PN | 2026-09-05 00:20:48 | 46.79487 | 7.78395 | 78° | 20km/h | 24451m | 5.9m/s | -52.6°C | 0.8% | -1.0hPa | 2.5V | 00:00:00 | 00:00:00 | 00:00:00 | |
| IW2NTF | 2026-09-05 00:20:47 | 46.79485 | 7.78381 | 83° | 18km/h | 24441m | 3.9m/s | -52.6°C | 3.8% | 0hPa | 2.5V | 08:30:00 | 01:46:01 | 00:00:00 | |
| DM0DOS-11 | 2026-09-05 00:20:47 | 46.79491 | 7.78354 | 127° | 20km/h | 24421m | 4.5m/s | -52.6°C | 3.8% | 0hPa | 2.5V | 08:30:00 | 01:45:57 | 00:00:00 | |
| DO3MHA-11 | 2026-09-05 00:20:44 | 46.79486 | 7.78367 | 110° | 16km/h | 24431m | 5.7m/s | -52.5°C | 3.7% | 0hPa | 2.6V | 00:00:00 | 01:45:59 | 08:30:00 | |
| DH7VM-15 | 2026-09-05 00:20:42 | 46.79488 | 7.78360 | 121° | 22km/h | 24426m | 4.7m/s | -52.6°C | 0.9% | 0hPa | 2.5V | 00:00:00 | 00:00:00 | 00:00:00 | |
| DO3MHA-12 | 2026-09-05 00:20:39 | 46.79498 | 7.78341 | 132° | 15km/h | 24406m | 4.1m/s | -52.6°C | 3.8% | 0hPa | 2.5V | 00:00:00 | 01:45:54 | 08:30:00 | |
| IW2NTF | 2026-09-05 00:20:37 | 46.79504 | 7.78329 | 117° | 16km/h | 24391m | 4.6m/s | -52.7°C | 3.8% | 0hPa | 2.5V | 08:30:00 | 01:45:51 | 00:00:00 | |
| BIOWL1-15 | 2026-09-05 00:20:28 | 46.79523 | 7.78259 | 95° | 13km/h | 24332m | 5.3m/s | -52.8°C | 0.2% | 0hPa | 2.5V | 18:12:15 | 01:45:39 | 00:00:00 | |
| IW2NTF | 2026-09-05 00:20:28 | 46.79522 | 7.78269 | 109° | 15km/h | 24342m | 5.5m/s | -52.8°C | 3.8% | 0hPa | 2.6V | 08:30:00 | 01:45:41 | 00:00:00 | |
| BIOWL9-15 | 2026-09-05 00:20:26 | 46.79522 | 7.78269 | 109° | 13km/h | 24342m | 5.5m/s | -52.8°C | 0.8% | -1.0hPa | 2.6V | 00:00:00 | 00:00:00 | 00:00:00 | |
| DK5PH-5 | 2026-09-05 00:20:25 | 46.79523 | 7.78264 | 102° | 16km/h | 24337m | 4.4m/s | -52.8°C | 3.8% | 0hPa | 2.6V | 00:00:00 | 01:45:40 | 00:00:00 | |
| DO3MHA-11 | 2026-09-05 00:20:24 | 46.79523 | 7.78259 | 96° | 16km/h | 24332m | 5.3m/s | -52.8°C | 3.8% | 0hPa | 2.6V | 00:00:00 | 01:45:39 | 00:00:00 | |
| DL6DJ-15 | 2026-09-05 00:20:22 | 46.79523 | 7.78248 | 86° | 15km/h | 24322m | 4.2m/s | -52.8°C | 0.8% | -1.0hPa | 2.6V | 00:00:00 | 00:00:00 | 00:00:00 | |
| DM0DOS-11 | 2026-09-05 00:20:21 | 46.79522 | 7.78237 | 69° | 15km/h | 24312m | 5.8m/s | -52.8°C | 3.8% | 0hPa | 2.6V | 08:30:00 | 01:45:35 | 00:00:00 | |
| BIOWL1-15 | 2026-09-05 00:20:18 | 46.79519 | 7.78228 | 72° | 15km/h | 24303m | 3.7m/s | -52.8°C | 0.1% | 0hPa | 2.5V | 18:12:15 | 01:45:33 | 00:00:00 | |
| IW2NTF | 2026-09-05 00:20:17 | 46.79519 | 7.78216 | 100° | 18km/h | 24293m | 5.4m/s | -52.8°C | 3.8% | 0hPa | 2.5V | 08:30:00 | 01:45:31 | 00:00:00 | |
| DF7PN | 2026-09-05 00:20:17 | 46.79519 | 7.78223 | 87° | 15km/h | 24299m | 4.3m/s | -52.8°C | 0.8% | -1.0hPa | 2.6V | 00:00:00 | 00:00:00 | 00:00:00 | |
| DO3MHA-11 | 2026-09-05 00:20:14 | 46.79522 | 7.78202 | 114° | 16km/h | 24285m | 3.7m/s | -52.8°C | 3.8% | 0hPa | 2.6V | 00:00:00 | 01:45:29 | 00:00:00 | |
| DM0DOS-11 | 2026-09-05 00:20:13 | 46.79526 | 7.78179 | 75° | 13km/h | 24266m | 4.2m/s | -52.8°C | 3.8% | 0hPa | 2.5V | 08:30:00 | 01:45:25 | 00:00:00 | |
| BIOWL1-15 | 2026-09-05 00:20:08 | 46.79523 | 7.78168 | 58° | 18km/h | 24256m | 4.7m/s | -52.8°C | 0.2% | 0hPa | 2.6V | 18:12:15 | 01:45:23 | 00:00:00 | |
| IW2NTF | 2026-09-05 00:20:07 | 46.79516 | 7.78158 | 38° | 18km/h | 24247m | 6m/s | -52.9°C | 3.9% | 0hPa | 2.5V | 08:30:00 | 01:45:21 | 00:00:00 | |
| BIOWL1-15 | 2026-09-05 00:19:57 | 46.79498 | 7.78113 | 51° | 9km/h | 24203m | 4.6m/s | -52.8°C | 0.2% | 0hPa | 2.6V | 18:12:15 | 01:45:12 | 00:00:00 | |
| BIOWL9-15 | 2026-09-05 00:19:55 | 46.79493 | 7.78108 | 26° | 16km/h | 24194m | 5.7m/s | -52.8°C | 0.8% | -1.0hPa | 2.6V | 00:00:00 | 00:00:00 | 00:00:00 | |
| DL6DJ-15 | 2026-09-05 00:19:51 | 46.79472 | 7.78094 | 22° | 22km/h | 24174m | 5.2m/s | -52.8°C | 0.8% | -1.0hPa | 2.6V | 00:00:00 | 00:00:00 | 00:00:00 | |
| BIOWL1-15 | 2026-09-05 00:19:46 | 46.79434 | 7.78053 | 360° | 20km/h | 24122m | 4.9m/s | -52.7°C | 0.1% | 0hPa | 2.6V | 18:12:15 | 01:44:55 | 00:00:00 | |
| DF7PN | 2026-09-05 00:19:46 | 46.79454 | 7.78069 | 66° | 20km/h | 24151m | 4.1m/s | -52.8°C | 0.8% | -1.0hPa | 2.5V | 00:00:00 | 00:00:00 | 00:00:00 | |
| DO3MHA-11 | 2026-09-05 00:19:44 | 46.79450 | 7.78057 | 51° | 18km/h | 24143m | 4.8m/s | -52.7°C | 3.8% | 0hPa | 2.5V | 00:00:00 | 01:44:59 | 00:00:00 | |
| IW2NTF | 2026-09-05 00:19:41 | 46.79414 | 7.78043 | 30° | 18km/h | 24104m | 5.2m/s | -52.7°C | 3.8% | 0hPa | 2.5V | 08:30:00 | 01:44:51 | 00:00:00 | |
| DO3MHA-12 | 2026-09-05 00:19:39 | 46.79428 | 7.78052 | 10° | 15km/h | 24117m | 4.8m/s | -52.6°C | 3.8% | 0hPa | 2.6V | 00:00:00 | 01:44:54 | 00:00:00 | |
| IW2NTF | 2026-09-05 00:19:32 | 46.79392 | 7.78021 | 344° | 15km/h | 24055m | 4.5m/s | -52.9°C | 3.9% | 0hPa | 2.5V | 08:30:00 | 01:44:41 | 00:00:00 | |
| BIOWL1-15 | 2026-09-05 00:19:30 | 46.79402 | 7.78026 | 61° | 11km/h | 24074m | 3.9m/s | -52.9°C | 0.1% | 0hPa | 2.5V | 18:12:15 | 01:44:45 | 00:00:00 | |
| DO3MHA-12 | 2026-09-05 00:19:29 | 46.79400 | 7.78022 | 44° | 13km/h | 24070m | 3.9m/s | -52.9°C | 3.9% | 0hPa | 2.5V | 00:00:00 | 01:44:44 | 00:00:00 | |
| DL1ZP-14 | 2026-09-05 00:19:27 | 46.79395 | 7.78020 | 352° | 11km/h | 24060m | 5.4m/s | -52.9°C | 0.8% | -1.0hPa | 2.5V | 00:00:00 | 00:00:00 | 00:00:00 | |
| DK5PH-5 | 2026-09-05 00:19:25 | 46.79389 | 7.78022 | 349° | 9km/h | 24050m | 5.1m/s | -52.9°C | 3.9% | 0hPa | 2.5V | 00:00:00 | 01:44:40 | 08:30:00 | |
| DO3MHA-11 | 2026-09-05 00:19:24 | 46.79385 | 7.78023 | 2° | 15km/h | 24045m | 5.3m/s | -52.9°C | 3.8% | 0hPa | 2.6V | 00:00:00 | 01:44:39 | 00:00:00 | |
| IW2NTF | 2026-09-05 00:19:21 | 46.79359 | 7.78010 | 40° | 16km/h | 24004m | 3.8m/s | -53°C | 3.9% | 0hPa | 2.6V | 08:30:00 | 01:44:31 | 00:00:00 | |
| BIOWL1-15 | 2026-09-05 00:19:20 | 46.79368 | 7.78018 | 18° | 13km/h | 24019m | 4.5m/s | -52.9°C | 0.2% | 0hPa | 2.5V | 18:12:15 | 01:44:34 | 00:00:00 | |
| DO3MHA-12 | 2026-09-05 00:19:19 | 46.79368 | 7.78018 | 19° | 13km/h | 24019m | 4.5m/s | -52.8°C | 3.9% | 0hPa | 2.5V | 00:00:00 | 01:44:34 | 00:00:00 | |
| DH7VM-15 | 2026-09-05 00:19:18 | 46.79368 | 7.78018 | 19° | 13km/h | 24019m | 4.5m/s | -52.9°C | 1.0% | 0hPa | 2.5V | 00:00:00 | 00:00:00 | 00:00:00 | |
| DF7PN | 2026-09-05 00:19:15 | 46.79353 | 7.78004 | 19° | 11km/h | 23994m | 6.2m/s | -52.9°C | 0.8% | -1.0hPa | 2.5V | 00:00:00 | 00:00:00 | 00:00:00 | |
| DO3MHA-11 | 2026-09-05 00:19:14 | 46.79353 | 7.78004 | 20° | 7km/h | 23994m | 6.1m/s | -52.9°C | 3.9% | 0hPa | 2.5V | 00:00:00 | 01:44:29 | 08:30:00 | |
| IW2NTF | 2026-09-05 00:19:11 | 46.79337 | 7.78001 | 2° | 5km/h | 23950m | 4.8m/s | -52.9°C | 3.9% | 0hPa | 2.6V | 08:30:00 | 01:44:21 | 00:00:00 | |
| BIOWL1-15 | 2026-09-05 00:19:08 | 46.79340 | 7.78001 | 11° | 7km/h | 23961m | 5.8m/s | -52.9°C | 0.2% | 0hPa | 2.5V | 18:12:15 | 01:44:23 | 00:00:00 | |
| DO3MHA-11 | 2026-09-05 00:19:04 | 46.79334 | 7.77999 | 57° | 5km/h | 23939m | 5.8m/s | -52.8°C | 3.9% | 0hPa | 2.5V | 00:00:00 | 01:44:19 | 00:00:00 | |
| OE9MKV-15 | 2026-09-05 00:19:02 | 46.79333 | 7.77993 | 78° | 7km/h | 23930m | 5.1m/s | -52.7°C | 3.8% | 0hPa | 2.5V | 00:00:00 | 01:44:17 | 00:00:00 | |
| IW2NTF | 2026-09-05 00:19:01 | 46.79329 | 7.77996 | 332° | 9km/h | 23896m | 3.6m/s | -52.7°C | 3.8% | 0hPa | 2.5V | 08:30:00 | 01:44:11 | 00:00:00 | |
| DM0DOS-11 | 2026-09-05 00:19:01 | 46.79333 | 7.77991 | 259° | 2km/h | 23918m | 5.3m/s | -52.7°C | 3.8% | 0hPa | 2.6V | 08:30:00 | 01:44:15 | 00:00:00 | |
| BIOWL1-15 | 2026-09-05 00:18:57 | 46.79323 | 7.78004 | 303° | 11km/h | 23882m | 5.5m/s | -52.7°C | 0.1% | 0hPa | 2.6V | 18:12:15 | 01:44:08 | 00:00:00 | |
| DL1ZP-14 | 2026-09-05 00:18:56 | 46.79329 | 7.77996 | 332° | 9km/h | 23897m | 3.6m/s | -52.7°C | 0.8% | -1.0hPa | 2.5V | 00:00:00 | 00:00:00 | 00:00:00 | |
| BIOWL9-15 | 2026-09-05 00:18:53 | 46.79323 | 7.78004 | 303° | 9km/h | 23882m | 5.5m/s | -52.7°C | 0.8% | -1.0hPa | 2.5V | 00:00:00 | 00:00:00 | 00:00:00 | |
| IW2NTF | 2026-09-05 00:18:51 | 46.79328 | 7.78002 | 184° | 11km/h | 23844m | 5.2m/s | -52.7°C | 3.8% | 0hPa | 2.5V | 08:30:00 | 01:44:01 | 00:00:00 | |
| DM0DOS-11 | 2026-09-05 00:18:51 | 46.79321 | 7.78007 | 112° | 4km/h | 23866m | 5.5m/s | -52.7°C | 3.8% | 0hPa | 2.5V | 08:30:00 | 01:44:05 | 00:00:00 | |
| DL6DJ-15 | 2026-09-05 00:18:49 | 46.79322 | 7.78006 | 129° | 7km/h | 23861m | 4.5m/s | -52.7°C | 0.8% | -1.0hPa | 2.5V | 00:00:00 | 00:00:00 | 00:00:00 | |
| DF7PN | 2026-09-05 00:18:44 | 46.79333 | 7.78004 | 210° | 7km/h | 23834m | 6.2m/s | -52.8°C | 0.8% | -1.0hPa | 2.5V | 00:00:00 | 00:00:00 | 00:00:00 | |
| BIOWL1-15 | 2026-09-05 00:18:43 | 46.79335 | 7.78009 | 258° | 7km/h | 23818m | 5.4m/s | -52.8°C | 0.2% | 0hPa | 2.5V | 18:12:15 | 01:43:56 | 00:00:00 | |
| IW2NTF | 2026-09-05 00:18:41 | 46.79338 | 7.78017 | 119° | 5km/h | 23791m | 5.8m/s | -52.7°C | 3.9% | 0hPa | 2.6V | 08:30:00 | 01:43:51 | 00:00:00 | |
| DM0DOS-11 | 2026-09-05 00:18:41 | 46.79335 | 7.78012 | 252° | 9km/h | 23812m | 6m/s | -52.8°C | 3.8% | 0hPa | 2.5V | 08:30:00 | 01:43:55 | 00:00:00 | |
| DO3MHA-12 | 2026-09-05 00:18:39 | 46.79336 | 7.78015 | 247° | 9km/h | 23807m | 4.3m/s | -52.7°C | 3.9% | 0hPa | 2.5V | 00:00:00 | 01:43:54 | 00:00:00 | |
| DO3MHA-11 | 2026-09-05 00:18:34 | 46.79341 | 7.78011 | 134° | 9km/h | 23780m | 6.0m/s | -52.6°C | 3.9% | 0hPa | 2.5V | 00:00:00 | 01:43:49 | 00:00:00 | |
| IW2NTF | 2026-09-05 00:18:31 | 46.79354 | 7.78010 | 239° | 9km/h | 23735m | 5.1m/s | -52.5°C | 3.8% | 0hPa | 2.5V | 08:30:00 | 01:43:41 | 00:00:00 | |
| BIOWL1-15 | 2026-09-05 00:18:30 | 46.79358 | 7.78014 | 148° | 5km/h | 23720m | 5.6m/s | -52.5°C | 0.2% | 0hPa | 2.5V | 18:12:15 | 01:43:38 | 00:00:00 | |
| DO3MHA-12 | 2026-09-05 00:18:29 | 46.79352 | 7.78003 | 202° | 7km/h | 23752m | 4.9m/s | -52.5°C | 3.8% | 0hPa | 2.5V | 00:00:00 | 01:43:44 | 00:00:00 | |
| HASLITAL | 2026-09-05 00:18:28 | 46.79352 | 7.78003 | 203° | 4km/h | 23752m | 5.0m/s | -52.5°C | 1.0% | 0hPa | 2.5V | 00:00:00 | 00:00:00 | 00:00:00 | |
| DM0DOS-11 | 2026-09-05 00:18:26 | 46.79364 | 7.78006 | 139° | 15km/h | 23705m | 6.5m/s | -52.5°C | 3.8% | 0hPa | 2.5V | 08:30:00 | 01:43:35 | 00:00:00 | |
| DK5PH-5 | 2026-09-05 00:18:25 | 46.79356 | 7.78012 | 229° | 9km/h | 23731m | 4.2m/s | -52.5°C | 3.8% | 0hPa | 2.5V | 00:00:00 | 01:43:40 | 00:00:00 | |
| DO3MHA-11 | 2026-09-05 00:18:24 | 46.79357 | 7.78014 | 208° | 11km/h | 23726m | 5.6m/s | -52.5°C | 3.8% | 0hPa | 2.5V | 00:00:00 | 01:43:39 | 00:00:00 | |
| BIOWL9-15 | 2026-09-05 00:18:23 | 46.79360 | 7.78012 | 126° | 9km/h | 23715m | 4.0m/s | -52.5°C | 0.9% | -1.0hPa | 2.5V | 00:00:00 | 00:00:00 | 00:00:00 | |
| IW2NTF | 2026-09-05 00:18:21 | 46.79377 | 7.77996 | 159° | 11km/h | 23682m | 6.1m/s | -52.4°C | 3.8% | 0hPa | 2.5V | 08:30:00 | 01:43:31 | 00:00:00 | |
| BIOWL1-15 | 2026-09-05 00:18:16 | 46.79381 | 7.77994 | 175° | 4km/h | 23671m | 3.9m/s | -52.4°C | 0.2% | 0hPa | 2.6V | 18:12:15 | 01:43:29 | 00:00:00 | |
| DO3MHA-11 | 2026-09-05 00:18:14 | 46.79381 | 7.77994 | 175° | 7km/h | 23671m | 3.8m/s | -52.3°C | 3.9% | 0hPa | 2.6V | 00:00:00 | 01:43:29 | 00:00:00 | |
| DM0DOS-11 | 2026-09-05 00:18:13 | 46.79385 | 7.77999 | 212° | 7km/h | 23650m | 4.1m/s | -52.2°C | 3.8% | 0hPa | 2.5V | 08:30:00 | 01:43:25 | 00:00:00 | |
| BIOWL1-15 | 2026-09-05 00:18:03 | 46.79413 | 7.77993 | 186° | 11km/h | 23575m | 4.6m/s | -52.1°C | 0.2% | 0hPa | 2.6V | 18:12:15 | 01:43:11 | 00:00:00 | |
| DM0DOS-11 | 2026-09-05 00:18:02 | 46.79406 | 7.77990 | 180° | 4km/h | 23597m | 5.5m/s | -52.1°C | 3.7% | 0hPa | 2.5V | 08:30:00 | 01:43:15 | 00:00:00 | |
| IW2NTF | 2026-09-05 00:18:01 | 46.79413 | 7.77993 | 186° | 11km/h | 23575m | 4.6m/s | -52.1°C | 3.7% | 0hPa | 2.6V | 08:30:00 | 01:43:11 | 00:00:00 | |
| OE9MKV-15 | 2026-09-05 00:18:01 | 46.79405 | 7.77990 | 178° | 7km/h | 23603m | 5.9m/s | 0°C | 0% | 0hPa | 2.6V | 00:00:00 | 01:43:16 | 00:00:00 | |
| DO3MHA-12 | 2026-09-05 00:17:59 | 46.79408 | 7.77990 | 192° | 9km/h | 23592m | 5.3m/s | -52.0°C | 3.7% | 0hPa | 2.6V | 00:00:00 | 01:43:14 | 00:00:00 | |
| DK5PH-5 | 2026-09-05 00:17:55 | 46.79416 | 7.77992 | 167° | 7km/h | 23570m | 4.3m/s | -52.0°C | 3.7% | 0hPa | 2.6V | 00:00:00 | 01:43:10 | 00:00:00 | |
| DO3MHA-11 | 2026-09-05 00:17:54 | 46.79418 | 7.77991 | 147° | 5km/h | 23565m | 5.8m/s | -52.0°C | 3.7% | 0hPa | 2.6V | 00:00:00 | 01:43:09 | 00:00:00 | |
| DM0DOS-11 | 2026-09-05 00:17:52 | 46.79424 | 7.77980 | 138° | 5km/h | 23544m | 6m/s | -52°C | 3.7% | 0hPa | 2.6V | 08:30:00 | 01:43:05 | 00:00:00 | |
| IW2NTF | 2026-09-05 00:17:52 | 46.79425 | 7.77979 | 352° | 2km/h | 23522m | 4.5m/s | -52°C | 3.7% | 0hPa | 2.5V | 08:30:00 | 01:43:01 | 00:00:00 | |
| BIOWL1-15 | 2026-09-05 00:17:50 | 46.79423 | 7.77980 | 139° | 5km/h | 23544m | 6m/s | -52°C | 0.1% | 0hPa | 2.6V | 18:12:15 | 01:43:05 | 00:00:00 | |
| DL6DJ-15 | 2026-09-05 00:17:47 | 46.79424 | 7.77979 | 239° | 0km/h | 23517m | 4.6m/s | -52.1°C | 0.8% | -1.0hPa | 2.6V | 00:00:00 | 00:00:00 | 00:00:00 | |
| HASLITAL | 2026-09-05 00:17:46 | 46.79425 | 7.77979 | 0° | 0km/h | 23527m | 5.9m/s | -52.0°C | 0.9% | 0hPa | 2.6V | 00:00:00 | 00:00:00 | 00:00:00 | |
| DO3MHA-11 | 2026-09-05 00:17:44 | 46.79425 | 7.77980 | 216° | 9km/h | 23512m | 6.4m/s | -52.0°C | 3.7% | 0hPa | 2.6V | 00:00:00 | 01:42:59 | 08:30:00 | |
| DM0DOS-11 | 2026-09-05 00:17:42 | 46.79433 | 7.77982 | 163° | 9km/h | 23490m | 5.1m/s | -52.1°C | 3.7% | 0hPa | 2.5V | 08:30:00 | 01:42:55 | 00:00:00 | |
| DF7PN | 2026-09-05 00:17:42 | 46.79431 | 7.77983 | 183° | 7km/h | 23496m | 5.9m/s | -52.1°C | 0.8% | -1.0hPa | 2.5V | 00:00:00 | 00:00:00 | 00:00:00 | |
| IW2NTF | 2026-09-05 00:17:41 | 46.79444 | 7.77977 | 166° | 13km/h | 23468m | 4.5m/s | -52.1°C | 3.6% | 0hPa | 2.5V | 08:30:00 | 01:42:51 | 00:00:00 | |
| BIOWL1-15 | 2026-09-05 00:17:40 | 46.79437 | 7.77980 | 160° | 11km/h | 23479m | 6.1m/s | -52.1°C | 0.1% | 0hPa | 2.6V | 18:12:15 | 01:42:53 | 00:00:00 | |
| DO3MHA-12 | 2026-09-05 00:17:38 | 46.79437 | 7.77980 | 161° | 7km/h | 23480m | 6.0m/s | -52.1°C | 3.6% | 0hPa | 2.6V | 00:00:00 | 01:42:53 | 08:30:00 | |
| DO3MHA-11 | 2026-09-05 00:17:34 | 46.79448 | 7.77975 | 142° | 4km/h | 23458m | 6.1m/s | -52.0°C | 3.7% | 0hPa | 2.5V | 00:00:00 | 01:42:49 | 00:00:00 | |
| DM0DOS-11 | 2026-09-05 00:17:32 | 46.79451 | 7.77971 | 225° | 4km/h | 23435m | 6m/s | -52.2°C | 3.6% | 0hPa | 2.5V | 08:30:00 | 01:42:45 | 00:00:00 | |
| IW2NTF | 2026-09-05 00:17:31 | 46.79453 | 7.77976 | 181° | 4km/h | 23414m | 5m/s | -52.4°C | 3.7% | 0hPa | 2.6V | 08:30:00 | 01:42:41 | 00:00:00 | |
| BIOWL1-15 | 2026-09-05 00:17:29 | 46.79451 | 7.77972 | 232° | 5km/h | 23430m | 4.8m/s | -52.2°C | 0.1% | 0hPa | 2.5V | 18:12:15 | 01:42:44 | 00:00:00 | |
| DO3MHA-12 | 2026-09-05 00:17:28 | 46.79452 | 7.77974 | 239° | 5km/h | 23425m | 5.3m/s | -52.3°C | 3.7% | 0hPa | 2.5V | 00:00:00 | 01:42:43 | 00:00:00 | |
| BIOWL7-15 | 2026-09-05 00:17:27 | 46.79452 | 7.77974 | 240° | 5km/h | 23425m | 5.3m/s | 0°C | 0% | 0hPa | 2.5V | 00:00:00 | 00:00:00 | 00:00:00 | |
| DK5PH-5 | 2026-09-05 00:17:25 | 46.79454 | 7.77975 | 164° | 7km/h | 23409m | 5.2m/s | -52.4°C | 3.7% | 0hPa | 2.5V | 00:00:00 | 01:42:40 | 00:00:00 | |
| DO3MHA-11 | 2026-09-05 00:17:24 | 46.79456 | 7.77975 | 167° | 5km/h | 23403m | 6.5m/s | -52.5°C | 3.8% | 0hPa | 2.5V | 00:00:00 | 01:42:39 | 00:00:00 | |
| DL1ZP-14 | 2026-09-05 00:17:23 | 46.79460 | 7.77974 | 163° | 5km/h | 23392m | 4.1m/s | -52.6°C | 0.8% | -1.0hPa | 2.5V | 00:00:00 | 00:00:00 | 00:00:00 | |
| IW2NTF | 2026-09-05 00:17:22 | 46.79459 | 7.77977 | 271° | 7km/h | 23361m | 5.7m/s | -52.8°C | 3.8% | 0hPa | 2.6V | 08:30:00 | 01:42:31 | 00:00:00 | |
| BIOWL1-15 | 2026-09-05 00:17:19 | 46.79459 | 7.77977 | 272° | 7km/h | 23361m | 5.7m/s | -52.8°C | 0.2% | 0hPa | 2.6V | 18:12:15 | 01:42:31 | 00:00:00 | |
| DB0UT-7 | 2026-09-05 00:17:19 | 46.79461 | 7.77972 | 348° | 9km/h | 23377m | 4.3m/s | -52.7°C | 3.8% | 0hPa | 2.5V | 00:00:00 | 00:00:00 | 00:00:00 | |
| DO3MHA-12 | 2026-09-05 00:17:18 | 46.79460 | 7.77973 | 320° | 7km/h | 23372m | 4.8m/s | -52.7°C | 3.9% | 0hPa | 2.5V | 00:00:00 | 01:42:33 | 00:00:00 | |
| DL6DJ-15 | 2026-09-05 00:17:16 | 46.79459 | 7.77979 | 268° | 5km/h | 23356m | 5.0m/s | -52.8°C | 0.9% | -1.0hPa | 2.5V | 00:00:00 | 00:00:00 | 00:00:00 | |
| DO3MHA-11 | 2026-09-05 00:17:14 | 46.79459 | 7.77982 | 283° | 7km/h | 23351m | 4.9m/s | -52.7°C | 3.8% | 0hPa | 2.5V | 00:00:00 | 01:42:29 | 00:00:00 | |
| DM0DOS-11 | 2026-09-05 00:17:12 | 46.79456 | 7.77988 | 281° | 7km/h | 23329m | 6.5m/s | -52.8°C | 3.8% | 0hPa | 2.6V | 08:30:00 | 01:42:25 | 00:00:00 | |
| IW2NTF | 2026-09-05 00:17:11 | 46.79458 | 7.78002 | 251° | 9km/h | 23307m | 5.4m/s | -52.8°C | 3.8% | 0hPa | 2.5V | 08:30:00 | 01:42:21 | 00:00:00 | |
| BIOWL1-15 | 2026-09-05 00:17:06 | 46.79460 | 7.78008 | 237° | 11km/h | 23297m | 4.4m/s | -52.8°C | 0.2% | 0hPa | 2.6V | 18:12:15 | 01:42:19 | 00:00:00 | |
| DO3MHA-11 | 2026-09-05 00:17:04 | 46.79460 | 7.78008 | 238° | 11km/h | 23298m | 4.4m/s | -52.7°C | 3.8% | 0hPa | 2.5V | 00:00:00 | 01:42:19 | 00:00:00 | |
| DM0DOS-11 | 2026-09-05 00:17:02 | 46.79469 | 7.78022 | 215° | 11km/h | 23276m | 4.9m/s | -52.8°C | 3.8% | 0hPa | 2.5V | 08:30:00 | 01:42:15 | 00:00:00 | |
| IW2NTF | 2026-09-05 00:17:01 | 46.79476 | 7.78027 | 201° | 7km/h | 23256m | 5.6m/s | -52.8°C | 3.8% | 0hPa | 2.5V | 08:30:00 | 01:42:11 | 00:00:00 | |
| HARRO8 | 2026-09-05 00:16:57 | 46.79493 | 7.78035 | 186° | 15km/h | 23229m | 5.6m/s | -52.9°C | 0.9% | -1.0hPa | 2.5V | 00:00:00 | 00:00:00 | 00:00:00 | |
| DK5PH-5 | 2026-09-05 00:16:55 | 46.79478 | 7.78028 | 205° | 20km/h | 23250m | 5.7m/s | -52.8°C | 3.8% | 0hPa | 2.5V | 00:00:00 | 01:42:10 | 00:00:00 | |
| DO3MHA-11 | 2026-09-05 00:16:54 | 46.79481 | 7.78030 | 203° | 16km/h | 23245m | 5.0m/s | -52.8°C | 3.8% | 0hPa | 2.5V | 00:00:00 | 01:42:09 | 00:00:00 | |
| DM0DOS-11 | 2026-09-05 00:16:52 | 46.79496 | 7.78035 | 182° | 15km/h | 23224m | 4.5m/s | -52.9°C | 3.8% | 0hPa | 2.5V | 08:30:00 | 01:42:05 | 00:00:00 | |
| DL1ZP-14 | 2026-09-05 00:16:52 | 46.79493 | 7.78035 | 186° | 15km/h | 23229m | 5.6m/s | -52.9°C | 0.9% | -1.0hPa | 2.6V | 00:00:00 | 00:00:00 | 00:00:00 | |
| IW2NTF | 2026-09-05 00:16:51 | 46.79511 | 7.78042 | 215° | 18km/h | 23205m | 4.5m/s | -53.1°C | 3.8% | 0hPa | 2.6V | 08:30:00 | 01:42:01 | 00:00:00 | |
| DO3MHA-12 | 2026-09-05 00:16:51 | 46.79493 | 7.78035 | 187° | 18km/h | 23230m | 5.5m/s | -52.8°C | 3.8% | 0hPa | 2.6V | 00:00:00 | 01:42:06 | 00:00:00 | |
| DB0UT-7 | 2026-09-05 00:16:49 | 46.79500 | 7.78035 | 186° | 20km/h | 23221m | 3.8m/s | -52.9°C | 3.8% | 0hPa | 2.5V | 00:00:00 | 01:42:04 | 08:30:00 | |
| DO3MHA-11 | 2026-09-05 00:16:44 | 46.79518 | 7.78050 | 226° | 24km/h | 23196m | 5.6m/s | -53.3°C | 3.9% | 0hPa | 2.5V | 00:00:00 | 01:41:59 | 00:00:00 | |
| HASLITAL | 2026-09-05 00:16:43 | 46.79518 | 7.78050 | 226° | 16km/h | 23196m | 5.6m/s | -53.3°C | 1.0% | 0hPa | 2.6V | 00:00:00 | 00:00:00 | 00:00:00 | |
| DM0DOS-11 | 2026-09-05 00:16:42 | 46.79534 | 7.78057 | 174° | 26km/h | 23175m | 6.2m/s | -53.4°C | 3.9% | 0hPa | 2.6V | 08:30:00 | 01:41:55 | 00:00:00 | |
| IW2NTF | 2026-09-05 00:16:41 | 46.79565 | 7.78045 | 155° | 29km/h | 23154m | 5.7m/s | -53.4°C | 3.9% | 0hPa | 2.5V | 08:30:00 | 01:41:51 | 00:00:00 | |
| DF7PN | 2026-09-05 00:16:40 | 46.79541 | 7.78055 | 169° | 31km/h | 23170m | 5.0m/s | -53.4°C | 0.9% | -1.0hPa | 2.6V | 00:00:00 | 00:00:00 | 00:00:00 | |
| DO3MHA-11 | 2026-09-05 00:16:34 | 46.79576 | 7.78037 | 157° | 18km/h | 23144m | 5.1m/s | -53.3°C | 3.9% | 0hPa | 2.6V | 00:00:00 | 01:41:49 | 00:00:00 | |
| DM0DOS-11 | 2026-09-05 00:16:32 | 46.79599 | 7.78025 | 149° | 18km/h | 23112m | 4.2m/s | -53.4°C | 4% | 0hPa | 2.6V | 08:30:00 | 01:41:43 | 00:00:00 | |
| IW2NTF | 2026-09-05 00:16:31 | 46.79609 | 7.78018 | 158° | 26km/h | 23101m | 5.3m/s | -53.4°C | 4% | 0hPa | 2.5V | 08:30:00 | 01:41:41 | 00:00:00 | |
| DO3MHA-12 | 2026-09-05 00:16:31 | 46.79588 | 7.78032 | 166° | 20km/h | 23128m | 4.6m/s | -53.3°C | 3.9% | 0hPa | 2.5V | 00:00:00 | 01:41:46 | 00:00:00 | |
| OE9MKV-15 | 2026-09-05 00:16:28 | 46.79599 | 7.78025 | 150° | 16km/h | 23112m | 4.1m/s | 0°C | 0% | 0hPa | 2.5V | 00:00:00 | 01:41:43 | 00:00:00 | |
| HARRO8 | 2026-09-05 00:16:26 | 46.79608 | 7.78018 | 158° | 24km/h | 23101m | 5.4m/s | -53.4°C | 0.9% | -1.0hPa | 2.5V | 00:00:00 | 00:00:00 | 00:00:00 | |
| DK5PH-5 | 2026-09-05 00:16:25 | 46.79614 | 7.78014 | 158° | 13km/h | 23096m | 4.5m/s | -53.4°C | 4.0% | 0hPa | 2.5V | 00:00:00 | 01:41:40 | 00:00:00 | |
| DO3MHA-11 | 2026-09-05 00:16:24 | 46.79620 | 7.78010 | 154° | 13km/h | 23091m | 5.8m/s | -53.4°C | 4.0% | 0hPa | 2.6V | 00:00:00 | 01:41:39 | 00:00:00 | |
| HASLITAL | 2026-09-05 00:16:22 | 46.79626 | 7.78006 | 148° | 22km/h | 23086m | 5.0m/s | -53.5°C | 1.0% | 0hPa | 2.6V | 00:00:00 | 00:00:00 | 00:00:00 | |
| IW2NTF | 2026-09-05 00:16:21 | 46.79640 | 7.77991 | 92° | 9km/h | 23050m | 4.3m/s | -53.5°C | 3.9% | 0hPa | 2.6V | 08:30:00 | 01:41:31 | 00:00:00 | |
| BIOWL1-15 | 2026-09-05 00:16:18 | 46.79640 | 7.77993 | 89° | 5km/h | 23054m | 5.5m/s | -53.5°C | 0.3% | 0hPa | 2.6V | 18:12:15 | 01:41:32 | 00:00:00 | |
| DO3MHA-11 | 2026-09-05 00:16:14 | 46.79642 | 7.77984 | 127° | 11km/h | 23040m | 5.8m/s | -53.5°C | 3.9% | 0hPa | 2.5V | 00:00:00 | 01:41:29 | 08:30:00 | |
| DL6DJ-15 | 2026-09-05 00:16:13 | 46.79644 | 7.77980 | 139° | 15km/h | 23035m | 5.4m/s | -53.5°C | 0.9% | -1.0hPa | 2.6V | 00:00:00 | 00:00:00 | 00:00:00 | |
| IW2NTF | 2026-09-05 00:16:11 | 46.79656 | 7.77955 | 350° | 7km/h | 23000m | 5.7m/s | -53.3°C | 3.9% | 0hPa | 2.6V | 08:30:00 | 01:41:21 | 00:00:00 | |
| BIOWL1-15 | 2026-09-05 00:16:06 | 46.79656 | 7.77955 | 350° | 7km/h | 23000m | 5.7m/s | -53.3°C | 0.3% | 0hPa | 2.6V | 18:12:15 | 01:41:21 | 00:00:00 | |
| BIOWL1-15 | 2026-09-05 00:15:55 | 46.79636 | 7.77935 | 54° | 11km/h | 22945m | 4.9m/s | -53.3°C | 0.3% | 0hPa | 2.5V | 18:12:15 | 01:41:10 | 00:00:00 | |
| DK5PH-5 | 2026-09-05 00:15:55 | 46.79636 | 7.77935 | 55° | 18km/h | 22945m | 4.9m/s | -53.2°C | 3.9% | 0hPa | 2.5V | 00:00:00 | 01:41:10 | 00:00:00 | |
| IW2NTF | 2026-09-05 00:15:51 | 46.79607 | 7.77915 | 25° | 15km/h | 22899m | 6m/s | -53.6°C | 4% | 0hPa | 2.5V | 08:30:00 | 01:41:01 | 00:00:00 | |
| DL1ZP-14 | 2026-09-05 00:15:50 | 46.79619 | 7.77923 | 22° | 16km/h | 22915m | 5.6m/s | -53.5°C | 0.9% | -1.0hPa | 2.5V | 00:00:00 | 00:00:00 | 00:00:00 | |
| BIOWL1-15 | 2026-09-05 00:15:47 | 46.79587 | 7.77902 | 16° | 18km/h | 22871m | 4m/s | -53.7°C | 0.3% | 0hPa | 2.5V | 18:12:15 | 01:40:55 | 00:00:00 | |
| DO3MHA-12 | 2026-09-05 00:15:45 | 46.79604 | 7.77913 | 24° | 16km/h | 22894m | 4.8m/s | -53.5°C | 4.0% | 0hPa | 2.6V | 00:00:00 | 01:41:00 | 00:00:00 | |
| DL6DJ-15 | 2026-09-05 00:15:42 | 46.79596 | 7.77906 | 26° | 15km/h | 22880m | 5.6m/s | -53.7°C | 0.9% | -1.0hPa | 2.6V | 00:00:00 | 00:00:00 | 00:00:00 | |
| IW2NTF | 2026-09-05 00:15:41 | 46.79570 | 7.77903 | 343° | 20km/h | 22849m | 4.1m/s | -53.6°C | 4% | 0hPa | 2.6V | 08:30:00 | 01:40:51 | 00:00:00 | |
| BIOWL1-15 | 2026-09-05 00:15:33 | 46.79553 | 7.77908 | 352° | 27km/h | 22834m | 4.3m/s | -53.6°C | 0.4% | 0hPa | 2.5V | 18:12:15 | 01:40:48 | 00:00:00 | |
| IW2NTF | 2026-09-05 00:15:31 | 46.79505 | 7.77930 | 336° | 26km/h | 22801m | 4.3m/s | -53.5°C | 4% | 0hPa | 2.5V | 08:30:00 | 01:40:41 | 00:00:00 | |
| DO3MHA-11 | 2026-09-05 00:15:31 | 46.79538 | 7.77912 | 344° | 27km/h | 22825m | 5.9m/s | -53.6°C | 4.0% | 0hPa | 2.5V | 00:00:00 | 01:40:46 | 00:00:00 | |
| DM0DOS-11 | 2026-09-05 00:15:25 | 46.79480 | 7.77954 | 334° | 22km/h | 22777m | 5.6m/s | -53.3°C | 4% | 0hPa | 2.5V | 08:30:00 | 01:40:36 | 00:00:00 | |
| BIOWL1-15 | 2026-09-05 00:15:22 | 46.79484 | 7.77950 | 327° | 24km/h | 22782m | 3.9m/s | -53.3°C | 0.3% | 0hPa | 2.5V | 18:12:15 | 01:40:37 | 00:00:00 | |
| IW2NTF | 2026-09-05 00:15:21 | 46.79455 | 7.77963 | 340° | 20km/h | 22752m | 4m/s | -53.2°C | 4.1% | 0hPa | 2.5V | 08:30:00 | 01:40:31 | 00:00:00 | |
| DO3MHA-11 | 2026-09-05 00:15:21 | 46.79479 | 7.77954 | 335° | 22km/h | 22777m | 5.5m/s | -53.2°C | 4.0% | 0hPa | 2.6V | 00:00:00 | 01:40:36 | 00:00:00 | |
| DB0UT-7 | 2026-09-05 00:15:19 | 46.79469 | 7.77958 | 353° | 20km/h | 22768m | 4.2m/s | -53.2°C | 4.0% | 0hPa | 2.6V | 00:00:00 | 00:00:00 | 00:00:00 | |
| DH7VM-15 | 2026-09-05 00:15:18 | 46.79469 | 7.77958 | 354° | 20km/h | 22768m | 4.2m/s | -53.3°C | 1.0% | 0hPa | 2.5V | 00:00:00 | 00:00:00 | 00:00:00 | |
| BIOWL9-15 | 2026-09-05 00:15:17 | 46.79450 | 7.77965 | 339° | 20km/h | 22748m | 5.0m/s | -53.2°C | -1.0% | -1.0hPa | 2.5V | 00:00:00 | 00:00:00 | 00:00:00 | |
| DO3MHA-12 | 2026-09-05 00:15:14 | 46.79445 | 7.77968 | 338° | 24km/h | 22743m | 5.3m/s | -53.1°C | 4.0% | 0hPa | 2.5V | 00:00:00 | 01:40:29 | 00:00:00 | |
| DM0DOS-11 | 2026-09-05 00:15:13 | 46.79424 | 7.77992 | 308° | 27km/h | 22723m | 5.2m/s | -53°C | 3.9% | 0hPa | 2.5V | 08:30:00 | 01:40:25 | 00:00:00 | |
| BIOWL1-15 | 2026-09-05 00:15:12 | 46.79428 | 7.77984 | 316° | 27km/h | 22729m | 6.1m/s | -53.1°C | 0.2% | 0hPa | 2.5V | 18:12:15 | 01:40:26 | 00:00:00 | |
| IW2NTF | 2026-09-05 00:15:11 | 46.79405 | 7.78016 | 343° | 20km/h | 22703m | 5.3m/s | -52.9°C | 3.9% | 0hPa | 2.5V | 08:30:00 | 01:40:21 | 00:00:00 | |
| DO3MHA-11 | 2026-09-05 00:15:11 | 46.79428 | 7.77984 | 317° | 22km/h | 22729m | 6.1m/s | -53.0°C | 3.9% | 0hPa | 2.5V | 00:00:00 | 01:40:26 | 00:00:00 | |
| OE9MKV-15 | 2026-09-05 00:15:08 | 46.79414 | 7.78007 | 316° | 16km/h | 22715m | 4.2m/s | 0°C | 0% | 0hPa | 2.5V | 00:00:00 | 01:40:23 | 00:00:00 | |
| DF7PN | 2026-09-05 00:15:06 | 46.79405 | 7.78016 | 343° | 20km/h | 22704m | 5.3m/s | -52.9°C | 0.9% | -1.0hPa | 2.5V | 00:00:00 | 00:00:00 | 00:00:00 | |
| DO3MHA-12 | 2026-09-05 00:15:04 | 46.79396 | 7.78017 | 6° | 15km/h | 22693m | 6.1m/s | -52.9°C | 3.9% | 0hPa | 2.5V | 00:00:00 | 01:40:19 | 00:00:00 | |
| DM0DOS-11 | 2026-09-05 00:15:01 | 46.79384 | 7.78010 | 19° | 13km/h | 22672m | 4.9m/s | -52.8°C | 3.9% | 0hPa | 2.5V | 08:30:00 | 01:40:15 | 00:00:00 | |
| DO3MHA-11 | 2026-09-05 00:15:01 | 46.79387 | 7.78012 | 30° | 18km/h | 22678m | 5.6m/s | -52.8°C | 3.9% | 0hPa | 2.6V | 00:00:00 | 01:40:16 | 00:00:00 | |
| IW2NTF | 2026-09-05 00:15:00 | 46.79375 | 7.78023 | 286° | 24km/h | 22652m | 4.6m/s | -52.6°C | 3.8% | 0hPa | 2.6V | 08:30:00 | 01:40:11 | 00:00:00 | |
| HASLITAL | 2026-09-05 00:15:00 | 46.79387 | 7.78012 | 31° | 13km/h | 22678m | 5.6m/s | -52.8°C | 1.0% | 0hPa | 2.6V | 00:00:00 | 00:00:00 | 00:00:00 | |
| DK5PH-5 | 2026-09-05 00:14:55 | 46.79373 | 7.78032 | 291° | 11km/h | 22648m | 2.9m/s | -52.5°C | 3.8% | 0hPa | 2.6V | 00:00:00 | 01:40:10 | 08:30:00 | |
| DO3MHA-12 | 2026-09-05 00:14:54 | 46.79370 | 7.78040 | 302° | 11km/h | 22645m | 4.6m/s | -52.5°C | 3.8% | 0hPa | 2.6V | 00:00:00 | 01:40:09 | 00:00:00 | |
| DM0DOS-11 | 2026-09-05 00:14:53 | 46.79353 | 7.78050 | 26° | 16km/h | 22624m | 5m/s | -52.4°C | 3.8% | 0hPa | 2.6V | 08:30:00 | 01:40:05 | 00:00:00 | |
| HARRO8 | 2026-09-05 00:14:53 | 46.79362 | 7.78051 | 342° | 18km/h | 22634m | 5.0m/s | -52.5°C | 0.9% | -1.0hPa | 2.5V | 00:00:00 | 00:00:00 | 00:00:00 | |
| DO3MHA-11 | 2026-09-05 00:14:51 | 46.79357 | 7.78051 | 6° | 9km/h | 22629m | 4.5m/s | -52.4°C | 3.7% | 0hPa | 2.5V | 00:00:00 | 01:40:06 | 00:00:00 | |
| IW2NTF | 2026-09-05 00:14:50 | 46.79348 | 7.78041 | 351° | 0km/h | 22604m | 4.3m/s | -52.4°C | 3.7% | 0hPa | 2.5V | 08:30:00 | 01:40:01 | 00:00:00 | |
| BIOWL1-15 | 2026-09-05 00:14:49 | 46.79351 | 7.78047 | 44° | 13km/h | 22619m | 5.8m/s | -52.4°C | 0.2% | 0hPa | 2.6V | 18:12:15 | 01:40:04 | 00:00:00 | |
| DL1ZP-14 | 2026-09-05 00:14:47 | 46.79349 | 7.78042 | 81° | 2km/h | 22609m | 4.1m/s | -52.4°C | 0.8% | -1.0hPa | 2.5V | 00:00:00 | 00:00:00 | 00:00:00 | |
| BIOWL9-15 | 2026-09-05 00:14:45 | 46.79347 | 7.78044 | 306° | 7km/h | 22594m | 5.5m/s | -52.5°C | -1.0% | -1.0hPa | 2.5V | 00:00:00 | 00:00:00 | 00:00:00 | |
| DM0DOS-11 | 2026-09-05 00:14:43 | 46.79341 | 7.78060 | 281° | 11km/h | 22574m | 5.9m/s | -52.7°C | 3.7% | 0hPa | 2.5V | 08:30:00 | 01:39:55 | 00:00:00 | |
| BIOWL1-15 | 2026-09-05 00:14:38 | 46.79342 | 7.78064 | 95° | 4km/h | 22559m | 5.1m/s | -52.9°C | 0.2% | 0hPa | 2.6V | 18:12:15 | 01:39:52 | 00:00:00 | |
| DF7PN | 2026-09-05 00:14:35 | 46.79341 | 7.78059 | 61° | 9km/h | 22547m | 5.8m/s | -52.9°C | 0.9% | -1.0hPa | 2.6V | 00:00:00 | 00:00:00 | 00:00:00 | |
| IW2NTF | 2026-09-05 00:14:33 | 46.79340 | 7.78050 | 123° | 9km/h | 22530m | 6.2m/s | -52.8°C | 3.8% | 0hPa | 2.6V | 08:30:00 | 01:39:47 | 00:00:00 | |
| DM0DOS-11 | 2026-09-05 00:14:33 | 46.79344 | 7.78045 | 143° | 11km/h | 22520m | 5m/s | -52.8°C | 3.8% | 0hPa | 2.5V | 08:30:00 | 01:39:45 | 00:00:00 | |
| BIOWL1-15 | 2026-09-05 00:14:28 | 46.79347 | 7.78040 | 121° | 7km/h | 22508m | 5.8m/s | -52.8°C | 0.1% | 0hPa | 2.5V | 18:12:15 | 01:39:43 | 00:00:00 | |
| IW2NTF | 2026-09-05 00:14:27 | 46.79353 | 7.78018 | 97° | 9km/h | 22478m | 5.7m/s | -52.9°C | 3.8% | 0hPa | 2.5V | 08:30:00 | 01:39:37 | 00:00:00 | |
| DK5PH-5 | 2026-09-05 00:14:25 | 46.79350 | 7.78030 | 116° | 11km/h | 22493m | 5.3m/s | -52.8°C | 3.8% | 0hPa | 2.6V | 00:00:00 | 01:39:40 | 00:00:00 | |
| DM0DOS-11 | 2026-09-05 00:14:21 | 46.79353 | 7.78013 | 78° | 5km/h | 22468m | 4.3m/s | -53°C | 3.9% | 0hPa | 2.6V | 08:30:00 | 01:39:35 | 00:00:00 | |
| BIOWL1-15 | 2026-09-05 00:14:17 | 46.79355 | 7.78005 | 125° | 9km/h | 22453m | 4.5m/s | 0°C | 0% | 0hPa | 2.5V | 18:12:15 | 01:39:32 | 00:00:00 | |
| DL1ZP-14 | 2026-09-05 00:14:16 | 46.79356 | 7.78003 | 122° | 7km/h | 22449m | 4.7m/s | -53.2°C | 0.9% | -1.0hPa | 2.5V | 00:00:00 | 00:00:00 | 00:00:00 | |
| BIOWL9-15 | 2026-09-05 00:14:14 | 46.79357 | 7.77995 | 78° | 7km/h | 22433m | 4.5m/s | 0°C | -1.0% | -1.0hPa | 2.5V | 00:00:00 | 00:00:00 | 00:00:00 | |
| DM0DOS-11 | 2026-09-05 00:14:13 | 46.79355 | 7.77985 | 64° | 11km/h | 22419m | 4.3m/s | -53.4°C | 3.9% | 0hPa | 2.5V | 08:30:00 | 01:39:25 | 00:00:00 | |
| IW2NTF | 2026-09-05 00:14:13 | 46.79357 | 7.77992 | 81° | 9km/h | 22428m | 5.5m/s | -53.3°C | 4% | 0hPa | 2.5V | 08:30:00 | 01:39:27 | 00:00:00 | |
| DO3MHA-11 | 2026-09-05 00:14:11 | 46.79356 | 7.77989 | 78° | 13km/h | 22424m | 4.0m/s | -53.3°C | 3.9% | 0hPa | 2.5V | 00:00:00 | 01:39:26 | 00:00:00 | |
| DL6DJ-15 | 2026-09-05 00:14:09 | 46.79354 | 7.77981 | 51° | 11km/h | 22414m | 6.4m/s | -53.4°C | 0.9% | -1.0hPa | 2.6V | 00:00:00 | 00:00:00 | 00:00:00 | |
| IW2NTF | 2026-09-05 00:14:07 | 46.79338 | 7.77957 | 36° | 11km/h | 22378m | 5m/s | -53.2°C | 3.9% | 0hPa | 2.6V | 08:30:00 | 01:39:17 | 00:00:00 | |
| BIOWL1-15 | 2026-09-05 00:14:06 | 46.79338 | 7.77957 | 36° | 11km/h | 22378m | 5m/s | 0°C | 0% | 0hPa | 2.6V | 18:12:15 | 01:39:17 | 00:00:00 | |
| BIOWL1-15 | 2026-09-05 00:13:55 | 46.79330 | 7.77934 | 58° | 5km/h | 22344m | 4.4m/s | 0°C | 0% | 0hPa | 2.5V | 18:12:15 | 01:39:10 | 00:00:00 | |
| DK5PH-5 | 2026-09-05 00:13:55 | 46.79330 | 7.77934 | 58° | 11km/h | 22344m | 4.3m/s | -53.1°C | 3.9% | 0hPa | 2.5V | 00:00:00 | 01:39:10 | 00:00:00 | |
| IW2NTF | 2026-09-05 00:13:53 | 46.79331 | 7.77933 | 197° | 5km/h | 22329m | 4.3m/s | -53.2°C | 3.9% | 0hPa | 2.5V | 08:30:00 | 01:39:07 | 00:00:00 | |
| HARRO8 | 2026-09-05 00:13:51 | 46.79333 | 7.77935 | 233° | 4km/h | 22320m | 6.1m/s | -53.3°C | 0.9% | -1.0hPa | 2.5V | 00:00:00 | 00:00:00 | 00:00:00 | |
| DB0UT-7 | 2026-09-05 00:13:49 | 46.79333 | 7.77936 | 267° | 15km/h | 22314m | 4.7m/s | -53.2°C | 3.9% | 0hPa | 2.5V | 00:00:00 | 01:39:04 | 00:00:00 | |
| IW2NTF | 2026-09-05 00:13:47 | 46.79340 | 7.77919 | 135° | 7km/h | 22279m | 3.8m/s | -53.3°C | 3.9% | 0hPa | 2.5V | 08:30:00 | 01:38:57 | 00:00:00 | |
| DM0DOS-11 | 2026-09-05 00:13:45 | 46.79337 | 7.77925 | 116° | 11km/h | 22289m | 5.3m/s | -53.2°C | 3.9% | 0hPa | 2.5V | 08:30:00 | 01:38:59 | 00:00:00 | |
| BIOWL1-15 | 2026-09-05 00:13:44 | 46.79337 | 7.77925 | 117° | 13km/h | 22289m | 5.3m/s | 0°C | 0% | 0hPa | 2.5V | 18:12:15 | 01:38:59 | 00:00:00 | |
| BIOWL1-15 | 2026-09-05 00:13:39 | 46.79375 | 7.77935 | 157° | 20km/h | 22227m | 4.3m/s | 0°C | 0% | 0hPa | 2.5V | 18:12:15 | 01:38:46 | 00:00:00 | |
| DM0DOS-11 | 2026-09-05 00:13:39 | 46.79363 | 7.77937 | 205° | 13km/h | 22242m | 4m/s | -53.5°C | 3.8% | 0hPa | 2.6V | 08:30:00 | 01:38:49 | 00:00:00 | |
| DL6DJ-15 | 2026-09-05 00:13:38 | 46.79351 | 7.77922 | 209° | 16km/h | 22261m | 4.1m/s | -53.4°C | 0.9% | -1.0hPa | 2.5V | 00:00:00 | 00:00:00 | 00:00:00 | |
| IW2NTF | 2026-09-05 00:13:33 | 46.79370 | 7.77937 | 166° | 18km/h | 22231m | 4.9m/s | -53.6°C | 3.9% | 0hPa | 2.5V | 08:30:00 | 01:38:47 | 00:00:00 | |
| DO3MHA-11 | 2026-09-05 00:13:31 | 46.79375 | 7.77935 | 157° | 18km/h | 22227m | 4.2m/s | -53.6°C | 3.9% | 0hPa | 2.6V | 00:00:00 | 01:38:46 | 00:00:00 | |
| IW2NTF | 2026-09-05 00:13:27 | 46.79415 | 7.77917 | 196° | 16km/h | 22181m | 3.6m/s | -54°C | 3.9% | 0hPa | 2.6V | 08:30:00 | 01:38:37 | 00:00:00 | |
| DM0DOS-11 | 2026-09-05 00:13:25 | 46.79407 | 7.77915 | 177° | 16km/h | 22192m | 5.8m/s | -53.8°C | 3.9% | 0hPa | 2.5V | 08:30:00 | 01:38:39 | 00:00:00 | |
| BIOWL1-15 | 2026-09-05 00:13:21 | 46.79419 | 7.77919 | 194° | 18km/h | 22177m | 5m/s | 0°C | 0% | 0hPa | 2.6V | 18:12:15 | 01:38:36 | 00:00:00 | |
| DO3MHA-11 | 2026-09-05 00:13:21 | 46.79419 | 7.77919 | 195° | 24km/h | 22178m | 4.9m/s | -54.0°C | 3.9% | 0hPa | 2.5V | 00:00:00 | 01:38:36 | 00:00:00 | |
| HARRO8 | 2026-09-05 00:13:20 | 46.79428 | 7.77919 | 164° | 20km/h | 22169m | 3.3m/s | -54.2°C | 1.0% | -1.0hPa | 2.5V | 00:00:00 | 00:00:00 | 00:00:00 | |
| DM0DOS-11 | 2026-09-05 00:13:19 | 46.79448 | 7.77887 | 120° | 27km/h | 22145m | 4.3m/s | -54.4°C | 4.1% | 0hPa | 2.5V | 08:30:00 | 01:38:29 | 00:00:00 | |
| DB0UT-7 | 2026-09-05 00:13:19 | 46.79428 | 7.77919 | 165° | 26km/h | 22169m | 3.3m/s | -54.1°C | 4.0% | 0hPa | 2.5V | 00:00:00 | 00:00:00 | 00:00:00 | |
| HASLITAL | 2026-09-05 00:13:18 | 46.79428 | 7.77919 | 165° | 22km/h | 22169m | 3.3m/s | -54.1°C | 1.1% | 0hPa | 2.5V | 00:00:00 | 00:00:00 | 00:00:00 | |
| IW2NTF | 2026-09-05 00:13:14 | 46.79457 | 7.77870 | 138° | 29km/h | 22135m | 4.5m/s | -54.5°C | 4.1% | 0hPa | 2.5V | 08:30:00 | 01:38:27 | 00:00:00 | |
| BIOWL1-15 | 2026-09-05 00:13:11 | 46.79463 | 7.77864 | 147° | 27km/h | 22130m | 4m/s | 0°C | 0% | 0hPa | 2.5V | 18:12:15 | 01:38:26 | 00:00:00 | |
| DO3MHA-11 | 2026-09-05 00:13:11 | 46.79463 | 7.77864 | 148° | 26km/h | 22131m | 4.0m/s | -54.5°C | 4.1% | 0hPa | 2.5V | 00:00:00 | 01:38:26 | 08:30:00 | |
| DM0DOS-11 | 2026-09-05 00:13:08 | 46.79500 | 7.77831 | 137° | 27km/h | 22098m | 4m/s | -54.8°C | 4.2% | 0hPa | 2.6V | 08:30:00 | 01:38:19 | 00:00:00 | |
| IW2NTF | 2026-09-05 00:13:07 | 46.79508 | 7.77817 | 121° | 24km/h | 22088m | 6m/s | -54.8°C | 4.1% | 0hPa | 2.5V | 08:30:00 | 01:38:17 | 00:00:00 | |
| DL6DJ-15 | 2026-09-05 00:13:07 | 46.79484 | 7.77847 | 150° | 22km/h | 22112m | 4.4m/s | -54.6°C | 0.9% | -1.0hPa | 2.5V | 00:00:00 | 00:00:00 | 00:00:00 | |
| DF7PN | 2026-09-05 00:13:02 | 46.79508 | 7.77817 | 121° | 24km/h | 22088m | 6.0m/s | -54.8°C | 0.9% | -1.0hPa | 2.5V | 00:00:00 | 00:00:00 | 00:00:00 | |
| DO3MHA-11 | 2026-09-05 00:13:01 | 46.79511 | 7.77809 | 112° | 27km/h | 22082m | 4.9m/s | -54.8°C | 4.2% | 0hPa | 2.5V | 00:00:00 | 01:38:16 | 00:00:00 | |
| HASLITAL | 2026-09-05 00:12:57 | 46.79519 | 7.77780 | 115° | 31km/h | 22068m | 4.6m/s | -54.9°C | 1.1% | 0hPa | 2.5V | 00:00:00 | 00:00:00 | 00:00:00 | |
| IW2NTF | 2026-09-05 00:12:57 | 46.79540 | 7.77732 | 129° | 27km/h | 22038m | 4.9m/s | -55°C | 4.2% | 0hPa | 2.6V | 08:30:00 | 01:38:07 | 00:00:00 | |
| DM0DOS-11 | 2026-09-05 00:12:55 | 46.79532 | 7.77746 | 128° | 24km/h | 22047m | 4.4m/s | -54.9°C | 4.2% | 0hPa | 2.5V | 08:30:00 | 01:38:09 | 00:00:00 | |
| DK5PH-5 | 2026-09-05 00:12:55 | 46.79528 | 7.77753 | 124° | 20km/h | 22053m | 5.1m/s | -54.9°C | 4.2% | 0hPa | 2.5V | 00:00:00 | 01:38:10 | 00:00:00 | |
| DO3MHA-11 | 2026-09-05 00:12:51 | 46.79544 | 7.77724 | 126° | 22km/h | 22033m | 4.1m/s | -55.0°C | 4.3% | 0hPa | 2.5V | 00:00:00 | 01:38:06 | 00:00:00 | |
| DM0DOS-11 | 2026-09-05 00:12:49 | 46.79554 | 7.77668 | 103° | 24km/h | 21999m | 4m/s | -55.3°C | 4.3% | 0hPa | 2.5V | 08:30:00 | 01:37:59 | 00:00:00 | |
| HARRO8 | 2026-09-05 00:12:49 | 46.79551 | 7.77701 | 97° | 20km/h | 22018m | 4.2m/s | -55.2°C | 1.0% | -1.0hPa | 2.5V | 00:00:00 | 00:00:00 | 00:00:00 | |
| IW2NTF | 2026-09-05 00:12:47 | 46.79557 | 7.77653 | 111° | 18km/h | 21989m | 5.3m/s | -55.2°C | 4.4% | 0hPa | 2.5V | 08:30:00 | 01:37:57 | 00:00:00 | |
| DL1ZP-14 | 2026-09-05 00:12:43 | 46.79556 | 7.77660 | 106° | 20km/h | 21994m | 5.8m/s | -55.3°C | 1.0% | -1.0hPa | 2.5V | 00:00:00 | 00:00:00 | 00:00:00 | |
| DO3MHA-11 | 2026-09-05 00:12:41 | 46.79560 | 7.77646 | 118° | 20km/h | 21984m | 4.5m/s | -55.2°C | 4.3% | 0hPa | 2.6V | 00:00:00 | 01:37:56 | 00:00:00 | |
| DH7VM-15 | 2026-09-05 00:12:40 | 46.79560 | 7.77646 | 118° | 20km/h | 21984m | 4.5m/s | -55.3°C | 1.1% | 0hPa | 2.5V | 00:00:00 | 00:00:00 | 00:00:00 | |
| IW2NTF | 2026-09-05 00:12:38 | 46.79568 | 7.77585 | 77° | 18km/h | 21940m | 4.9m/s | -55.2°C | 4.3% | 0hPa | 2.5V | 08:30:00 | 01:37:47 | 00:00:00 | |
| DM0DOS-11 | 2026-09-05 00:12:38 | 46.79571 | 7.77597 | 74° | 16km/h | 21950m | 4.3m/s | -55.2°C | 4.3% | 0hPa | 2.6V | 08:30:00 | 01:37:49 | 00:00:00 | |
| DL6DJ-15 | 2026-09-05 00:12:36 | 46.79571 | 7.77610 | 97° | 18km/h | 21960m | 5.4m/s | -55.3°C | 1.0% | -1.0hPa | 2.5V | 00:00:00 | 00:00:00 | 00:00:00 | |
| DO3MHA-12 | 2026-09-05 00:12:33 | 46.79569 | 7.77591 | 74° | 13km/h | 21946m | 5.5m/s | -55.2°C | 4.3% | 0hPa | 2.5V | 00:00:00 | 01:37:48 | 00:00:00 | |
| DO3MHA-11 | 2026-09-05 00:12:31 | 46.79568 | 7.77579 | 84° | 13km/h | 21936m | 3.6m/s | -55.2°C | 4.3% | 0hPa | 2.5V | 00:00:00 | 01:37:46 | 00:00:00 | |
| DM0DOS-11 | 2026-09-05 00:12:27 | 46.79573 | 7.77551 | 115° | 15km/h | 21902m | 4m/s | -55.2°C | 4.4% | 0hPa | 2.5V | 08:30:00 | 01:37:39 | 00:00:00 | |
| DK5PH-5 | 2026-09-05 00:12:25 | 46.79571 | 7.77556 | 119° | 7km/h | 21907m | 5.1m/s | -55.2°C | 4.3% | 0hPa | 2.5V | 00:00:00 | 01:37:40 | 00:00:00 | |
| DO3MHA-12 | 2026-09-05 00:12:23 | 46.79574 | 7.77546 | 109° | 9km/h | 21897m | 5.4m/s | -55.2°C | 4.3% | 0hPa | 2.5V | 00:00:00 | 01:37:38 | 00:00:00 | |
| DO3MHA-11 | 2026-09-05 00:12:21 | 46.79574 | 7.77538 | 77° | 7km/h | 21887m | 4.3m/s | -55.2°C | 4.3% | 0hPa | 2.5V | 00:00:00 | 01:37:36 | 00:00:00 | |
| IW2NTF | 2026-09-05 00:12:20 | 46.79572 | 7.77529 | 67° | 7km/h | 21872m | 3.7m/s | -55.1°C | 4.4% | 0hPa | 2.5V | 08:30:00 | 01:37:33 | 00:00:00 | |
| DB0UT-7 | 2026-09-05 00:12:19 | 46.79573 | 7.77532 | 64° | 5km/h | 21877m | 4.9m/s | -55.1°C | 4.3% | 0hPa | 2.5V | 00:00:00 | 00:00:00 | 08:30:00 | |
| HARRO8 | 2026-09-05 00:12:18 | 46.79571 | 7.77527 | 86° | 2km/h | 21868m | 4.6m/s | -55.1°C | 1.0% | -1.0hPa | 2.5V | 00:00:00 | 00:00:00 | 00:00:00 | |
| DM0DOS-11 | 2026-09-05 00:12:17 | 46.79574 | 7.77529 | 208° | 7km/h | 21854m | 4m/s | -55°C | 4.3% | 0hPa | 2.5V | 08:30:00 | 01:37:29 | 00:00:00 | |
| HASLITAL | 2026-09-05 00:12:16 | 46.79571 | 7.77527 | 87° | 4km/h | 21869m | 4.6m/s | -55.1°C | 1.2% | 0hPa | 2.5V | 00:00:00 | 00:00:00 | 00:00:00 | |
| DO3MHA-12 | 2026-09-05 00:12:13 | 46.79575 | 7.77530 | 190° | 4km/h | 21849m | 5.7m/s | -55.0°C | 4.3% | 0hPa | 2.5V | 00:00:00 | 01:37:28 | 00:00:00 | |
| DL1ZP-14 | 2026-09-05 00:12:12 | 46.79577 | 7.77529 | 152° | 5km/h | 21844m | 5.0m/s | -55.0°C | 1.0% | -1.0hPa | 2.5V | 00:00:00 | 00:00:00 | 00:00:00 | |
| DO3MHA-11 | 2026-09-05 00:12:11 | 46.79578 | 7.77528 | 117° | 4km/h | 21839m | 4.1m/s | -54.9°C | 4.3% | 0hPa | 2.6V | 00:00:00 | 01:37:26 | 00:00:00 | |
| IW2NTF | 2026-09-05 00:12:09 | 46.79578 | 7.77523 | 37° | 4km/h | 21826m | 4.8m/s | -54.9°C | 4.2% | 0hPa | 2.5V | 08:30:00 | 01:37:23 | 00:00:00 | |
| DM0DOS-11 | 2026-09-05 00:12:07 | 46.79578 | 7.77519 | 134° | 5km/h | 21806m | 4.4m/s | -54.8°C | 4.2% | 0hPa | 2.6V | 08:30:00 | 01:37:19 | 00:00:00 | |
| DL6DJ-15 | 2026-09-05 00:12:06 | 46.79578 | 7.77521 | 118° | 4km/h | 21811m | 5.7m/s | -54.8°C | -1.0% | -1.0hPa | 2.5V | 00:00:00 | 00:00:00 | 00:00:00 | |
| IW2NTF | 2026-09-05 00:12:03 | 46.79585 | 7.77512 | 93° | 7km/h | 21775m | 4.3m/s | -55°C | 4.2% | 0hPa | 2.5V | 08:30:00 | 01:37:13 | 00:00:00 | |
| DO3MHA-12 | 2026-09-05 00:12:03 | 46.79579 | 7.77518 | 153° | 7km/h | 21801m | 5.3m/s | -54.8°C | 4.2% | 0hPa | 2.5V | 00:00:00 | 01:37:18 | 00:00:00 | |
| DF7PN | 2026-09-05 00:12:00 | 46.79583 | 7.77516 | 150° | 5km/h | 21786m | 5.6m/s | -54.9°C | 1.0% | -1.0hPa | 2.5V | 00:00:00 | 00:00:00 | 00:00:00 | |
| DM0DOS-11 | 2026-09-05 00:11:57 | 46.79579 | 7.77497 | 92° | 9km/h | 21747m | 5.1m/s | -55.3°C | 4.4% | 0hPa | 2.5V | 08:30:00 | 01:37:07 | 00:00:00 | |
| HASLITAL | 2026-09-05 00:11:56 | 46.79584 | 7.77510 | 70° | 7km/h | 21771m | 4.8m/s | -55.1°C | 1.2% | 0hPa | 2.5V | 00:00:00 | 00:00:00 | 00:00:00 | |
| DK5PH-5 | 2026-09-05 00:11:55 | 46.79582 | 7.77505 | 42° | 11km/h | 21762m | 3.7m/s | !°C | 4.3% | 0hPa | 2.5V | 00:00:00 | 01:37:10 | 00:00:00 | |
| DO3MHA-12 | 2026-09-05 00:11:53 | 46.79579 | 7.77500 | 74° | 11km/h | 21752m | 5.6m/s | -55.2°C | 4.4% | 0hPa | 2.5V | 00:00:00 | 01:37:08 | 00:00:00 | |
| DO3MHA-11 | 2026-09-05 00:11:51 | 46.79580 | 7.77494 | 110° | 13km/h | 21742m | 4.7m/s | -55.2°C | 4.3% | 0hPa | 2.5V | 00:00:00 | 01:37:06 | 00:00:00 | |
| DB0UT-7 | 2026-09-05 00:11:49 | 46.79582 | 7.77489 | 141° | 9km/h | 21733m | 3.5m/s | -55.1°C | 4.4% | 0hPa | 2.5V | 00:00:00 | 01:37:04 | 00:00:00 | |
| IW2NTF | 2026-09-05 00:11:47 | 46.79590 | 7.77474 | 110° | 16km/h | 21712m | 5.2m/s | -55°C | 4.3% | 0hPa | 2.5V | 08:30:00 | 01:37:00 | 00:00:00 | |
| HARRO8 | 2026-09-05 00:11:47 | 46.79588 | 7.77479 | 121° | 15km/h | 21718m | 4.8m/s | -55.1°C | 1.0% | -1.0hPa | 2.6V | 00:00:00 | 00:00:00 | 00:00:00 | |
| DM0DOS-11 | 2026-09-05 00:11:42 | 46.79590 | 7.77459 | 74° | 13km/h | 21697m | 4.6m/s | -54.9°C | 4.3% | 0hPa | 2.6V | 08:30:00 | 01:36:57 | 00:00:00 | |
| DL1ZP-14 | 2026-09-05 00:11:41 | 46.79589 | 7.77455 | 76° | 13km/h | 21692m | 5.9m/s | -54.9°C | 1.0% | -1.0hPa | 2.6V | 00:00:00 | 00:00:00 | 00:00:00 | |
| HASLITAL | 2026-09-05 00:11:36 | 46.79588 | 7.77442 | 129° | 4km/h | 21672m | 4.0m/s | -54.7°C | 1.2% | 0hPa | 2.6V | 00:00:00 | 00:00:00 | 00:00:00 | |
| IW2NTF | 2026-09-05 00:11:35 | 46.79591 | 7.77441 | 161° | 9km/h | 21663m | 6.1m/s | -54.6°C | 4.2% | 0hPa | 2.6V | 08:30:00 | 01:36:50 | 00:00:00 | |
| DM0DOS-11 | 2026-09-05 00:11:32 | 46.79599 | 7.77435 | 148° | 11km/h | 21648m | 5.3m/s | -54.5°C | 4.2% | 0hPa | 2.5V | 08:30:00 | 01:36:47 | 00:00:00 | |
| DO3MHA-11 | 2026-09-05 00:11:31 | 46.79601 | 7.77433 | 140° | 5km/h | 21644m | 4.4m/s | -54.5°C | 4.2% | 0hPa | 2.5V | 00:00:00 | 01:36:46 | 00:00:00 | |
| DF7PN | 2026-09-05 00:11:29 | 46.79604 | 7.77426 | 115° | 9km/h | 21630m | 5.3m/s | -54.5°C | 1.0% | -1.0hPa | 2.5V | 00:00:00 | 00:00:00 | 00:00:00 | |
| DM0DOS-11 | 2026-09-05 00:11:27 | 46.79605 | 7.77416 | 274° | 0km/h | 21601m | 4.8m/s | -54.6°C | 4.2% | 0hPa | 2.5V | 08:30:00 | 01:36:37 | 00:00:00 | |
| IW2NTF | 2026-09-05 00:11:25 | 46.79605 | 7.77415 | 350° | 2km/h | 21606m | 4m/s | -54.6°C | 4.2% | 0hPa | 2.6V | 08:30:00 | 01:36:38 | 00:00:00 | |
| DK5PH-5 | 2026-09-05 00:11:25 | 46.79606 | 7.77417 | 84° | 11km/h | 21616m | 5.2m/s | -54.5°C | 4.2% | 0hPa | 2.5V | 00:00:00 | 01:36:40 | 00:00:00 | |
| DO3MHA-12 | 2026-09-05 00:11:23 | 46.79605 | 7.77415 | 351° | 9km/h | 21606m | 3.9m/s | -54.6°C | 4.2% | 0hPa | 2.5V | 00:00:00 | 01:36:38 | 00:00:00 | |
| DO3MHA-11 | 2026-09-05 00:11:21 | 46.79605 | 7.77416 | 188° | 11km/h | 21597m | 5.2m/s | -54.5°C | 4.2% | 0hPa | 2.5V | 00:00:00 | 01:36:36 | 00:00:00 | |
| DB0UT-7 | 2026-09-05 00:11:19 | 46.79609 | 7.77417 | 194° | 13km/h | 21587m | 4.7m/s | -54.5°C | 4.1% | 0hPa | 2.5V | 00:00:00 | 00:00:00 | 00:00:00 | |
| HASLITAL | 2026-09-05 00:11:16 | 46.79615 | 7.77419 | 199° | 15km/h | 21577m | 4.2m/s | -54.6°C | 1.2% | 0hPa | 2.5V | 00:00:00 | 00:00:00 | 00:00:00 | |
| IW2NTF | 2026-09-05 00:11:15 | 46.79629 | 7.77420 | 169° | 11km/h | 21558m | 4.6m/s | -54.7°C | 4.3% | 0hPa | 2.5V | 08:30:00 | 01:36:28 | 00:00:00 | |
| DM0DOS-11 | 2026-09-05 00:11:12 | 46.79631 | 7.77420 | 172° | 7km/h | 21553m | 5.5m/s | -54.7°C | 4.2% | 0hPa | 2.6V | 08:30:00 | 01:36:27 | 00:00:00 | |
| DO3MHA-11 | 2026-09-05 00:11:11 | 46.79632 | 7.77419 | 180° | 11km/h | 21548m | 4.3m/s | -54.7°C | 4.2% | 0hPa | 2.6V | 00:00:00 | 01:36:26 | 00:00:00 | |
| DL1ZP-14 | 2026-09-05 00:11:10 | 46.79633 | 7.77420 | 174° | 2km/h | 21544m | 4.2m/s | -54.7°C | 1.0% | -1.0hPa | 2.5V | 00:00:00 | 00:00:00 | 00:00:00 | |
| DM0DOS-11 | 2026-09-05 00:11:07 | 46.79655 | 7.77416 | 176° | 20km/h | 21507m | 5.5m/s | -54.8°C | 4.1% | 0hPa | 2.5V | 08:30:00 | 01:36:17 | 00:00:00 | |
| IW2NTF | 2026-09-05 00:11:05 | 46.79650 | 7.77416 | 178° | 18km/h | 21512m | 5.2m/s | -54.7°C | 4.1% | 0hPa | 2.5V | 08:30:00 | 01:36:18 | 00:00:00 | |
| DO3MHA-12 | 2026-09-05 00:11:03 | 46.79650 | 7.77416 | 179° | 16km/h | 21512m | 5.1m/s | -54.6°C | 4.1% | 0hPa | 2.5V | 00:00:00 | 01:36:18 | 00:00:00 | |
| DF7PN | 2026-09-05 00:10:58 | 46.79674 | 7.77410 | 134° | 11km/h | 21485m | 5.4m/s | -55.0°C | 1.0% | -1.0hPa | 2.5V | 00:00:00 | 00:00:00 | 00:00:00 | |
| DM0DOS-11 | 2026-09-05 00:10:57 | 46.79684 | 7.77383 | 121° | 18km/h | 21460m | 3.6m/s | -55.2°C | 4.3% | 0hPa | 2.5V | 08:30:00 | 01:36:07 | 00:00:00 | |
| IW2NTF | 2026-09-05 00:10:55 | 46.79682 | 7.77389 | 115° | 16km/h | 21465m | 4.6m/s | -55.2°C | 4.3% | 0hPa | 2.6V | 08:30:00 | 01:36:08 | 00:00:00 | |
| DK5PH-5 | 2026-09-05 00:10:55 | 46.79678 | 7.77400 | 115° | 18km/h | 21475m | 4.5m/s | -55.0°C | 4.2% | 0hPa | 2.7V | 00:00:00 | 01:36:10 | 00:00:00 | |
| DO3MHA-12 | 2026-09-05 00:10:53 | 46.79682 | 7.77388 | 116° | 22km/h | 21465m | 4.6m/s | -55.1°C | 4.3% | 0hPa | 2.7V | 00:00:00 | 01:36:08 | 00:00:00 | |
| DO3MHA-11 | 2026-09-05 00:10:51 | 46.79687 | 7.77377 | 130° | 22km/h | 21456m | 5.1m/s | -55.1°C | 4.2% | 0hPa | 2.7V | 00:00:00 | 01:36:06 | 00:00:00 | |
| DB0UT-7 | 2026-09-05 00:10:49 | 46.79695 | 7.77365 | 141° | 18km/h | 21446m | 4.1m/s | -55.1°C | 4.2% | 0hPa | 2.7V | 00:00:00 | 01:36:04 | 00:00:00 | |
| DM0DOS-11 | 2026-09-05 00:10:47 | 46.79720 | 7.77327 | 98° | 20km/h | 21414m | 4m/s | -55.1°C | 4.3% | 0hPa | 2.6V | 08:30:00 | 01:35:57 | 00:00:00 | |
| IW2NTF | 2026-09-05 00:10:46 | 46.79718 | 7.77334 | 109° | 20km/h | 21419m | 4.9m/s | -55.1°C | 4.2% | 0hPa | 2.6V | 08:30:00 | 01:35:58 | 00:00:00 | |
| HARRO8 | 2026-09-05 00:10:44 | 46.79716 | 7.77340 | 121° | 16km/h | 21424m | 5.2m/s | -55.1°C | 1.0% | -1.0hPa | 2.6V | 00:00:00 | 00:00:00 | 00:00:00 | |
| DO3MHA-12 | 2026-09-05 00:10:43 | 46.79718 | 7.77334 | 110° | 18km/h | 21419m | 4.9m/s | -55.1°C | 4.2% | 0hPa | 2.6V | 00:00:00 | 01:35:58 | 00:00:00 | |
| DO3MHA-11 | 2026-09-05 00:10:41 | 46.79720 | 7.77320 | 91° | 16km/h | 21410m | 5.3m/s | -55.1°C | 4.2% | 0hPa | 2.5V | 00:00:00 | 01:35:56 | 00:00:00 | |
| DL1ZP-14 | 2026-09-05 00:10:39 | 46.79719 | 7.77307 | 79° | 16km/h | 21401m | 3.7m/s | -55.1°C | 1.0% | -1.0hPa | 2.5V | 00:00:00 | 00:00:00 | 00:00:00 | |
| DM0DOS-11 | 2026-09-05 00:10:37 | 46.79721 | 7.77268 | 114° | 13km/h | 21369m | 3.6m/s | -55.4°C | 4.2% | 0hPa | 2.5V | 08:30:00 | 01:35:47 | 00:00:00 | |
| IW2NTF | 2026-09-05 00:10:35 | 46.79720 | 7.77272 | 108° | 11km/h | 21373m | 3.8m/s | -55.3°C | 4.2% | 0hPa | 2.5V | 08:30:00 | 01:35:48 | 00:00:00 | |
| HASLITAL | 2026-09-05 00:10:34 | 46.79718 | 7.77281 | 100° | 15km/h | 21383m | 4.7m/s | -55.2°C | 1.2% | 0hPa | 2.5V | 00:00:00 | 00:00:00 | 00:00:00 | |
| DO3MHA-12 | 2026-09-05 00:10:33 | 46.79720 | 7.77272 | 109° | 16km/h | 21373m | 3.7m/s | -55.3°C | 4.2% | 0hPa | 2.5V | 00:00:00 | 01:35:48 | 00:00:00 | |
| DL6DJ-15 | 2026-09-05 00:10:32 | 46.79723 | 7.77263 | 117° | 15km/h | 21365m | 5.4m/s | -55.6°C | -1.0% | -1.0hPa | 2.5V | 00:00:00 | 00:00:00 | 00:00:00 | |
| DO3MHA-11 | 2026-09-05 00:10:31 | 46.79723 | 7.77262 | 118° | 16km/h | 21365m | 5.4m/s | -55.5°C | 4.3% | 0hPa | 2.5V | 00:00:00 | 01:35:46 | 00:00:00 | |
| DM0DOS-11 | 2026-09-05 00:10:27 | 46.79728 | 7.77209 | 68° | 15km/h | 21324m | 4.9m/s | -56°C | 4.4% | 0hPa | 2.5V | 08:30:00 | 01:35:37 | 00:00:00 | |
| DF7PN | 2026-09-05 00:10:27 | 46.79731 | 7.77232 | 92° | 15km/h | 21343m | 4.4m/s | -56.0°C | 1.1% | -1.0hPa | 2.5V | 00:00:00 | 00:00:00 | 00:00:00 | |
| IW2NTF | 2026-09-05 00:10:25 | 46.79729 | 7.77215 | 74° | 16km/h | 21328m | 3.5m/s | -56°C | 4.4% | 0hPa | 2.5V | 08:30:00 | 01:35:38 | 00:00:00 | |
| DK5PH-5 | 2026-09-05 00:10:25 | 46.79731 | 7.77227 | 84° | 11km/h | 21338m | 5.1m/s | -55.9°C | 4.4% | 0hPa | 2.6V | 00:00:00 | 01:35:40 | 08:30:00 | |
| DO3MHA-12 | 2026-09-05 00:10:23 | 46.79729 | 7.77214 | 75° | 15km/h | 21329m | 3.5m/s | -56.0°C | 4.4% | 0hPa | 2.6V | 00:00:00 | 01:35:38 | 00:00:00 | |
| DO3MHA-11 | 2026-09-05 00:10:21 | 46.79727 | 7.77204 | 65° | 13km/h | 21320m | 4.4m/s | -56.1°C | 4.4% | 0hPa | 2.6V | 00:00:00 | 01:35:36 | 00:00:00 | |
| DB0UT-7 | 2026-09-05 00:10:19 | 46.79725 | 7.77195 | 84° | 11km/h | 21311m | 5.3m/s | -56.1°C | 4.4% | 0hPa | 2.6V | 00:00:00 | 00:00:00 | 00:00:00 | |
| DM0DOS-11 | 2026-09-05 00:10:17 | 46.79725 | 7.77163 | 109° | 7km/h | 21279m | 5.7m/s | -56.3°C | 4.5% | 0hPa | 2.6V | 08:30:00 | 01:35:27 | 00:00:00 | |
| IW2NTF | 2026-09-05 00:10:15 | 46.79725 | 7.77166 | 89° | 7km/h | 21284m | 4m/s | -56.3°C | 4.4% | 0hPa | 2.6V | 08:30:00 | 01:35:28 | 00:00:00 | |
| DO3MHA-12 | 2026-09-05 00:10:13 | 46.79725 | 7.77166 | 90° | 7km/h | 21284m | 4.0m/s | -56.2°C | 4.4% | 0hPa | 2.6V | 00:00:00 | 01:35:28 | 00:00:00 | |
| DO3MHA-11 | 2026-09-05 00:10:11 | 46.79726 | 7.77161 | 129° | 7km/h | 21274m | 4.9m/s | -56.4°C | 4.5% | 0hPa | 2.5V | 00:00:00 | 01:35:26 | 08:30:00 | |
| DL1ZP-14 | 2026-09-05 00:10:08 | 46.79730 | 7.77162 | 203° | 4km/h | 21256m | 3.6m/s | -56.7°C | 1.1% | -1.0hPa | 2.7V | 00:00:00 | 00:00:00 | 00:00:00 | |
| DM0DOS-11 | 2026-09-05 00:10:07 | 46.79738 | 7.77150 | 114° | 11km/h | 21233m | 4.4m/s | 0°C | 0% | 0hPa | 2.5V | 08:30:00 | 01:35:17 | 00:00:00 | |
| IW2NTF | 2026-09-05 00:10:04 | 46.79737 | 7.77154 | 119° | 13km/h | 21238m | 4.4m/s | -56.8°C | 4.6% | 0hPa | 2.5V | 08:30:00 | 01:35:18 | 00:00:00 | |
| DO3MHA-12 | 2026-09-05 00:10:03 | 46.79737 | 7.77154 | 120° | 11km/h | 21238m | 4.3m/s | -56.8°C | 4.6% | 0hPa | 2.5V | 00:00:00 | 01:35:18 | 00:00:00 | |
| DL6DJ-15 | 2026-09-05 00:10:01 | 46.79770 | 7.77073 | 128° | 20km/h | 21154m | 5.1m/s | 0°C | -1.0% | -1.0hPa | 2.5V | 00:00:00 | 00:00:00 | 00:00:00 | |
| DM0DOS-11 | 2026-09-05 00:09:57 | 46.79758 | 7.77127 | 106° | 15km/h | 21189m | 5.2m/s | 0°C | 0% | 0hPa | 2.5V | 00:00:00 | 01:35:07 | 00:00:00 | |
| DF7PN | 2026-09-05 00:09:56 | 46.79754 | 7.77135 | 169° | 9km/h | 21202m | 5.1m/s | -56.9°C | 1.2% | -1.0hPa | 2.5V | 00:00:00 | 00:00:00 | 00:00:00 | |
| DK5PH-5 | 2026-09-05 00:09:55 | 46.79754 | 7.77135 | 170° | 20km/h | 21202m | 5.0m/s | -56.9°C | 4.7% | 0hPa | 2.5V | 00:00:00 | 01:35:10 | 00:00:00 | |
| IW2NTF | 2026-09-05 00:09:54 | 46.79757 | 7.77131 | 117° | 11km/h | 21194m | 4.2m/s | -57°C | 4.7% | 0hPa | 2.5V | 08:30:00 | 01:35:08 | 00:00:00 | |
| DO3MHA-12 | 2026-09-05 00:09:53 | 46.79757 | 7.77131 | 118° | 18km/h | 21194m | 4.2m/s | -56.9°C | 4.7% | 0hPa | 2.5V | 00:00:00 | 01:35:08 | 00:00:00 | |
| DO3MHA-11 | 2026-09-05 00:09:51 | 46.79760 | 7.77120 | 105° | 20km/h | 21185m | 4.3m/s | -56.9°C | 4.8% | 0hPa | 2.5V | 00:00:00 | 01:35:06 | 00:00:00 | |
| DM0DOS-11 | 2026-09-05 00:09:47 | 46.79778 | 7.77063 | 143° | 22km/h | 21145m | 3.8m/s | 0°C | 0% | 0hPa | 2.5V | 00:00:00 | 01:34:57 | 00:00:00 | |
| DH7VM-15 | 2026-09-05 00:09:46 | 46.79764 | 7.77090 | 106° | 16km/h | 21167m | 3.9m/s | -57.0°C | 1.3% | 0hPa | 2.6V | 00:00:00 | 00:00:00 | 00:00:00 | |
| IW2NTF | 2026-09-05 00:09:44 | 46.79774 | 7.77068 | 136° | 22km/h | 21149m | 4.4m/s | -57°C | 4.8% | 0hPa | 2.6V | 08:30:00 | 01:34:58 | 00:00:00 | |
| DO3MHA-12 | 2026-09-05 00:09:43 | 46.79773 | 7.77068 | 137° | 22km/h | 21150m | 4.4m/s | -57.0°C | 4.8% | 0hPa | 2.6V | 00:00:00 | 01:34:58 | 08:30:00 | |
| HARRO8 | 2026-09-05 00:09:42 | 46.79778 | 7.77063 | 143° | 20km/h | 21146m | 3.8m/s | -57.0°C | 1.2% | -1.0hPa | 2.5V | 00:00:00 | 00:00:00 | 00:00:00 | |
| DO3MHA-11 | 2026-09-05 00:09:41 | 46.79782 | 7.77058 | 151° | 24km/h | 21141m | 4.8m/s | -57.0°C | 4.7% | 0hPa | 2.5V | 00:00:00 | 01:34:56 | 00:00:00 | |
| DM0DOS-11 | 2026-09-05 00:09:37 | 46.79813 | 7.76999 | 105° | 27km/h | 21101m | 5m/s | 0°C | 0% | 0hPa | 2.7V | 00:00:00 | 01:34:47 | 00:00:00 | |
| DL1ZP-14 | 2026-09-05 00:09:37 | 46.79803 | 7.77036 | 124° | 26km/h | 21119m | 4.1m/s | -56.9°C | 1.2% | -1.0hPa | 2.5V | 00:00:00 | 00:00:00 | 00:00:00 | |
| IW2NTF | 2026-09-05 00:09:34 | 46.79811 | 7.77009 | 104° | 27km/h | 21105m | 4.2m/s | -56.8°C | 4.6% | 0hPa | 2.5V | 08:30:00 | 01:34:48 | 00:00:00 | |
| DO3MHA-12 | 2026-09-05 00:09:33 | 46.79811 | 7.77008 | 105° | 22km/h | 21105m | 4.2m/s | -56.8°C | 4.6% | 0hPa | 2.5V | 00:00:00 | 01:34:48 | 00:00:00 | |
| DO3MHA-11 | 2026-09-05 00:09:31 | 46.79815 | 7.76989 | 109° | 22km/h | 21096m | 5.2m/s | -56.7°C | 4.5% | 0hPa | 2.5V | 00:00:00 | 01:34:46 | 00:00:00 | |
| DM0DOS-11 | 2026-09-05 00:09:27 | 46.79842 | 7.76930 | 122° | 26km/h | 21053m | 5m/s | 0°C | 0% | 0hPa | 2.5V | 00:00:00 | 01:34:37 | 00:00:00 | |
| IW2NTF | 2026-09-05 00:09:25 | 46.79845 | 7.76922 | 117° | 26km/h | 21049m | 4.5m/s | -56.9°C | 4.6% | 0hPa | 2.5V | 08:30:00 | 01:34:36 | 00:00:00 | |
| DO3MHA-12 | 2026-09-05 00:09:23 | 46.79838 | 7.76937 | 127° | 26km/h | 21058m | 4.0m/s | -56.7°C | 4.5% | 0hPa | 2.6V | 00:00:00 | 01:34:38 | 00:00:00 | |
| DO3MHA-11 | 2026-09-05 00:09:21 | 46.79845 | 7.76921 | 118° | 24km/h | 21049m | 4.4m/s | -56.8°C | 4.6% | 0hPa | 2.6V | 00:00:00 | 01:34:36 | 00:00:00 | |
| DB0UT-7 | 2026-09-05 00:09:19 | 46.79850 | 7.76903 | 111° | 27km/h | 21039m | 5.6m/s | -57.1°C | 4.6% | 0hPa | 2.6V | 00:00:00 | 00:00:00 | 00:00:00 | |
| DO3MHA-12 | 2026-09-05 00:09:13 | 46.79856 | 7.76853 | 93° | 27km/h | 21014m | 4.6m/s | -57.6°C | 4.8% | 0hPa | 2.6V | 00:00:00 | 01:34:28 | 00:00:00 | |
| DM0DOS-11 | 2026-09-05 00:09:12 | 46.79858 | 7.76838 | 114° | 26km/h | 21003m | 5.1m/s | 0°C | 0% | 0hPa | 2.5V | 00:00:00 | 01:34:26 | 00:00:00 | |
| DO3MHA-11 | 2026-09-05 00:09:11 | 46.79858 | 7.76838 | 115° | 31km/h | 21004m | 5.0m/s | -57.6°C | 4.9% | 0hPa | 2.5V | 00:00:00 | 01:34:26 | 00:00:00 | |
| DL1ZP-14 | 2026-09-05 00:09:06 | 46.79882 | 7.76782 | 115° | 33km/h | 20975m | 5.6m/s | -57.6°C | 1.2% | -1.0hPa | 2.5V | 00:00:00 | 00:00:00 | 00:00:00 | |
| DO3MHA-12 | 2026-09-05 00:09:03 | 46.79888 | 7.76758 | 110° | 29km/h | 20965m | 4.5m/s | -57.6°C | 4.8% | 0hPa | 2.5V | 00:00:00 | 01:34:18 | 00:00:00 | |
| IW2NTF | 2026-09-05 00:09:02 | 46.79897 | 7.76716 | 109° | 29km/h | 20945m | 5.2m/s | -57.6°C | 4.8% | 0hPa | 2.5V | 08:30:00 | 01:34:14 | 00:00:00 | |
| DL6DJ-15 | 2026-09-05 00:08:59 | 46.79907 | 7.76685 | 120° | 29km/h | 20931m | 4.3m/s | 0°C | -1.0% | -1.0hPa | 2.6V | 00:00:00 | 00:00:00 | 00:00:00 | |
| DM0DOS-11 | 2026-09-05 00:08:57 | 46.79907 | 7.76685 | 120° | 31km/h | 20931m | 4.3m/s | 0°C | 0% | 0hPa | 2.6V | 00:00:00 | 01:34:11 | 00:00:00 | |
| DF7PN | 2026-09-05 00:08:54 | 46.79918 | 7.76662 | 126° | 22km/h | 20916m | 4.5m/s | -57.7°C | 1.2% | -1.0hPa | 2.6V | 00:00:00 | 00:00:00 | 00:00:00 | |
| DO3MHA-12 | 2026-09-05 00:08:53 | 46.79918 | 7.76662 | 127° | 24km/h | 20916m | 4.5m/s | -57.6°C | 4.9% | 0hPa | 2.6V | 00:00:00 | 01:34:08 | 00:00:00 | |
| HASLITAL | 2026-09-05 00:08:52 | 46.79918 | 7.76662 | 128° | 24km/h | 20916m | 4.5m/s | -57.7°C | 1.4% | 0hPa | 2.6V | 00:00:00 | 00:00:00 | 00:00:00 | |
| IW2NTF | 2026-09-05 00:08:52 | 46.79925 | 7.76631 | 84° | 22km/h | 20896m | 4.9m/s | -57.9°C | 5% | 0hPa | 2.5V | 08:30:00 | 01:34:04 | 00:00:00 | |
| DO3MHA-11 | 2026-09-05 00:08:51 | 46.79924 | 7.76647 | 109° | 24km/h | 20906m | 4.8m/s | -57.8°C | 5.0% | 0hPa | 2.6V | 00:00:00 | 01:34:06 | 00:00:00 | |
| DB0UT-7 | 2026-09-05 00:08:49 | 46.79925 | 7.76631 | 85° | 20km/h | 20896m | 4.9m/s | -57.9°C | 5.0% | 0hPa | 2.6V | 00:00:00 | 01:34:04 | 00:00:00 | |
| DM0DOS-11 | 2026-09-05 00:08:47 | 46.79921 | 7.76590 | 97° | 26km/h | 20872m | 4.8m/s | 0°C | 0% | 0hPa | 2.6V | 00:00:00 | 01:33:59 | 00:00:00 | |
| DO3MHA-12 | 2026-09-05 00:08:43 | 46.79922 | 7.76581 | 108° | 22km/h | 20868m | 4.3m/s | -57.7°C | 4.9% | 0hPa | 2.5V | 00:00:00 | 01:33:58 | 00:00:00 | |
| IW2NTF | 2026-09-05 00:08:42 | 46.79934 | 7.76552 | 130° | 22km/h | 20849m | 4.9m/s | -57.9°C | 5% | 0hPa | 2.7V | 08:30:00 | 01:33:54 | 00:00:00 | |
| DO3MHA-11 | 2026-09-05 00:08:41 | 46.79927 | 7.76564 | 125° | 20km/h | 20857m | 4.6m/s | -57.8°C | 5.0% | 0hPa | 2.5V | 00:00:00 | 01:33:56 | 08:30:00 | |
| HARRO8 | 2026-09-05 00:08:40 | 46.79931 | 7.76558 | 131° | 20km/h | 20854m | 3.5m/s | -57.9°C | 1.2% | -1.0hPa | 2.7V | 00:00:00 | 00:00:00 | 00:00:00 | |
| DM0DOS-11 | 2026-09-05 00:08:37 | 46.79938 | 7.76515 | 53° | 18km/h | 20820m | 4m/s | 0°C | 0% | 0hPa | 2.7V | 00:00:00 | 01:33:48 | 00:00:00 | |
| DL1ZP-14 | 2026-09-05 00:08:35 | 46.79941 | 7.76520 | 65° | 16km/h | 20825m | 5.5m/s | -57.7°C | 1.2% | -1.0hPa | 2.5V | 00:00:00 | 00:00:00 | 00:00:00 | |
| DO3MHA-12 | 2026-09-05 00:08:33 | 46.79938 | 7.76515 | 54° | 18km/h | 20820m | 4.0m/s | -57.6°C | 5.0% | 0hPa | 2.5V | 00:00:00 | 01:33:48 | 00:00:00 | |
| IW2NTF | 2026-09-05 00:08:32 | 46.79929 | 7.76486 | 83° | 24km/h | 20801m | 4.4m/s | -57.4°C | 4.9% | 0hPa | 2.5V | 08:30:00 | 01:33:44 | 00:00:00 | |
| DO3MHA-11 | 2026-09-05 00:08:31 | 46.79933 | 7.76502 | 65° | 16km/h | 20812m | 5.6m/s | -57.5°C | 5.0% | 0hPa | 2.5V | 00:00:00 | 01:33:46 | 00:00:00 | |
| DL6DJ-15 | 2026-09-05 00:08:28 | 46.79930 | 7.76464 | 101° | 13km/h | 20786m | 5.2m/s | 0°C | -1.0% | -1.0hPa | 2.5V | 00:00:00 | 00:00:00 | 00:00:00 | |
| DK5PH-5 | 2026-09-05 00:08:25 | 46.79931 | 7.76459 | 111° | 18km/h | 20781m | 4.0m/s | -57.2°C | 4.9% | 0hPa | 2.5V | 00:00:00 | 01:33:40 | 00:00:00 | |
| DO3MHA-12 | 2026-09-05 00:08:23 | 46.79933 | 7.76452 | 114° | 20km/h | 20772m | 5.6m/s | -57.1°C | 4.9% | 0hPa | 2.5V | 00:00:00 | 01:33:38 | 00:00:00 | |
| DF7PN | 2026-09-05 00:08:22 | 46.79934 | 7.76447 | 100° | 13km/h | 20767m | 4.9m/s | -57.2°C | 1.2% | -1.0hPa | 2.5V | 00:00:00 | 00:00:00 | 00:00:00 | |
| IW2NTF | 2026-09-05 00:08:21 | 46.79931 | 7.76430 | 62° | 20km/h | 20753m | 4.7m/s | -57°C | 4.9% | 0hPa | 2.5V | 08:30:00 | 01:33:34 | 00:00:00 | |
| DO3MHA-11 | 2026-09-05 00:08:21 | 46.79934 | 7.76442 | 85° | 22km/h | 20763m | 3.8m/s | -57.1°C | 4.9% | 0hPa | 2.5V | 00:00:00 | 01:33:36 | 00:00:00 | |
| DB0UT-7 | 2026-09-05 00:08:19 | 46.79931 | 7.76430 | 63° | 20km/h | 20753m | 4.7m/s | -57.0°C | 4.9% | 0hPa | 2.5V | 00:00:00 | 00:00:00 | 00:00:00 | |
| DO3MHA-12 | 2026-09-05 00:08:18 | 46.79914 | 7.76383 | 62° | 15km/h | 20722m | 4.3m/s | -56.7°C | 4.8% | 0hPa | 2.5V | 00:00:00 | 01:33:28 | 08:30:00 | |
| DO3MHA-11 | 2026-09-05 00:08:17 | 46.79910 | 7.76371 | 75° | 16km/h | 20712m | 5.9m/s | -56.7°C | 4.7% | 0hPa | 2.5V | 00:00:00 | 01:33:26 | 00:00:00 | |
| IW2NTF | 2026-09-05 00:08:16 | 46.79891 | 7.76292 | 60° | 27km/h | 20652m | 4.2m/s | -56.3°C | 4.6% | 0hPa | 2.5V | 08:30:00 | 01:33:14 | 00:00:00 | |
| IW2NTF | 2026-09-05 00:08:14 | 46.79882 | 7.76263 | 63° | 16km/h | 20631m | 6.1m/s | -56.1°C | 4.5% | 0hPa | 2.5V | 08:30:00 | 01:33:10 | 00:00:00 | |
| DL1ZP-14 | 2026-09-05 00:08:06 | 46.79904 | 7.76330 | 71° | 26km/h | 20672m | 5.0m/s | -56.4°C | 1.2% | -1.0hPa | 2.7V | 00:00:00 | 00:00:00 | 00:00:00 | |
| DB0UT-7 | 2026-09-05 00:07:53 | 46.79869 | 7.76223 | 63° | 26km/h | 20601m | 4.8m/s | -56.0°C | 4.5% | 0hPa | 2.5V | 00:00:00 | 01:33:04 | 08:30:00 | |
| IW2NTF | 2026-09-05 00:07:52 | 46.79852 | 7.76189 | 58° | 27km/h | 20581m | 5.5m/s | -56.2°C | 4.5% | 0hPa | 2.7V | 08:30:00 | 01:33:00 | 00:00:00 | |
| DO3MHA-11 | 2026-09-05 00:07:41 | 46.79840 | 7.76156 | 57° | 26km/h | 20562m | 5.4m/s | -56.2°C | 4.5% | 0hPa | 2.7V | 00:00:00 | 01:32:56 | 00:00:00 | |
| IW2NTF | 2026-09-05 00:07:38 | 46.79809 | 7.76095 | 58° | 31km/h | 20521m | 4.5m/s | -56.1°C | 4.4% | 0hPa | 2.5V | 08:30:00 | 01:32:48 | 00:00:00 | |
| HARRO8 | 2026-09-05 00:07:38 | 46.79828 | 7.76137 | 45° | 24km/h | 20547m | 4.5m/s | -56.2°C | 1.1% | -1.0hPa | 2.5V | 00:00:00 | 00:00:00 | 00:00:00 | |
| DO3MHA-12 | 2026-09-05 00:07:33 | 46.79809 | 7.76095 | 59° | 27km/h | 20521m | 4.4m/s | -56.0°C | 4.4% | 0hPa | 2.5V | 00:00:00 | 01:32:48 | 00:00:00 | |
| DL1ZP-14 | 2026-09-05 00:07:32 | 46.79805 | 7.76086 | 62° | 29km/h | 20516m | 4.8m/s | -56.1°C | 1.1% | -1.0hPa | 2.5V | 00:00:00 | 00:00:00 | 00:00:00 | |
| DO3MHA-11 | 2026-09-05 00:07:31 | 46.79802 | 7.76076 | 66° | 26km/h | 20511m | 5.7m/s | -56.1°C | 4.4% | 0hPa | 2.7V | 00:00:00 | 01:32:46 | 00:00:00 | |
| HASLITAL | 2026-09-05 00:07:30 | 46.79802 | 7.76075 | 66° | 29km/h | 20511m | 5.8m/s | -56.1°C | 1.3% | 0hPa | 2.7V | 00:00:00 | 00:00:00 | 00:00:00 | |
| IW2NTF | 2026-09-05 00:07:26 | 46.79773 | 7.76011 | 56° | 20km/h | 20471m | 4.4m/s | -56.6°C | 4.5% | 0hPa | 2.7V | 08:30:00 | 01:32:38 | 00:00:00 | |
| DL6DJ-15 | 2026-09-05 00:07:25 | 46.79779 | 7.76024 | 53° | 24km/h | 20480m | 5.9m/s | 0°C | -1.0% | -1.0hPa | 2.5V | 00:00:00 | 00:00:00 | 00:00:00 | |
| DO3MHA-12 | 2026-09-05 00:07:23 | 46.79773 | 7.76010 | 57° | 22km/h | 20471m | 4.4m/s | -56.6°C | 4.5% | 0hPa | 2.5V | 00:00:00 | 01:32:38 | 00:00:00 | |
| DO3MHA-11 | 2026-09-05 00:07:21 | 46.79767 | 7.75997 | 60° | 20km/h | 20461m | 4.3m/s | -56.6°C | 4.5% | 0hPa | 2.5V | 00:00:00 | 01:32:36 | 00:00:00 | |
| DF7PN | 2026-09-05 00:07:20 | 46.79765 | 7.75990 | 67° | 22km/h | 20456m | 4.2m/s | -56.7°C | 1.1% | -1.0hPa | 2.5V | 00:00:00 | 00:00:00 | 00:00:00 | |
| DB0UT-7 | 2026-09-05 00:07:19 | 46.79763 | 7.75982 | 76° | 20km/h | 20451m | 5.6m/s | -56.6°C | 4.4% | 0hPa | 2.5V | 00:00:00 | 00:00:00 | 00:00:00 | |
| IW2NTF | 2026-09-05 00:07:16 | 46.79754 | 7.75939 | 52° | 15km/h | 20422m | 5.2m/s | -57.3°C | 4.6% | 0hPa | 2.5V | 08:30:00 | 01:32:28 | 00:00:00 | |
| DO3MHA-12 | 2026-09-05 00:07:13 | 46.79754 | 7.75939 | 53° | 20km/h | 20422m | 5.1m/s | -57.3°C | 4.6% | 0hPa | 2.5V | 00:00:00 | 01:32:28 | 00:00:00 | |
| DO3MHA-11 | 2026-09-05 00:07:11 | 46.79749 | 7.75930 | 53° | 20km/h | 20412m | 4.1m/s | -57.4°C | 4.7% | 0hPa | 2.7V | 00:00:00 | 01:32:26 | 08:30:00 | |
| HASLITAL | 2026-09-05 00:07:10 | 46.79749 | 7.75930 | 53° | 15km/h | 20412m | 4.2m/s | -57.5°C | 1.4% | 0hPa | 2.5V | 00:00:00 | 00:00:00 | 00:00:00 | |
| DK5PH-5 | 2026-09-05 00:07:08 | 46.79740 | 7.75914 | 52° | 20km/h | 20398m | 4.1m/s | -57.5°C | 4.7% | 0hPa | 2.5V | 00:00:00 | 01:32:23 | 00:00:00 | |
| HARRO8 | 2026-09-05 00:07:07 | 46.79737 | 7.75907 | 58° | 24km/h | 20394m | 3.6m/s | -57.5°C | 1.2% | -1.0hPa | 2.5V | 00:00:00 | 00:00:00 | 00:00:00 | |
| IW2NTF | 2026-09-05 00:07:05 | 46.79730 | 7.75878 | 74° | 16km/h | 20374m | 4.6m/s | -57.7°C | 4.7% | 0hPa | 2.5V | 08:30:00 | 01:32:18 | 00:00:00 | |
| DO3MHA-12 | 2026-09-05 00:07:03 | 46.79730 | 7.75877 | 75° | 18km/h | 20374m | 4.6m/s | -57.7°C | 4.7% | 0hPa | 2.5V | 00:00:00 | 01:32:18 | 00:00:00 | |
| DL1ZP-14 | 2026-09-05 00:07:02 | 46.79727 | 7.75868 | 53° | 13km/h | 20364m | 4.1m/s | -57.9°C | 1.2% | -1.0hPa | 2.5V | 00:00:00 | 00:00:00 | 00:00:00 | |
| DO3MHA-11 | 2026-09-05 00:07:01 | 46.79727 | 7.75868 | 54° | 20km/h | 20365m | 4.1m/s | -57.8°C | 4.8% | 0hPa | 2.5V | 00:00:00 | 01:32:16 | 00:00:00 | |
| IW2NTF | 2026-09-05 00:06:55 | 46.79716 | 7.75798 | 99° | 26km/h | 20319m | 3.2m/s | -58.1°C | 5% | 0hPa | 2.5V | 08:30:00 | 01:32:06 | 00:00:00 | |
| DL6DJ-15 | 2026-09-05 00:06:54 | 46.79715 | 7.75808 | 96° | 26km/h | 20323m | 4.5m/s | 0°C | -1.0% | -1.0hPa | 2.7V | 00:00:00 | 00:00:00 | 00:00:00 | |
| DO3MHA-12 | 2026-09-05 00:06:53 | 46.79714 | 7.75817 | 91° | 22km/h | 20328m | 5.6m/s | -58.0°C | 4.9% | 0hPa | 2.7V | 00:00:00 | 01:32:08 | 00:00:00 | |
| DO3MHA-11 | 2026-09-05 00:06:51 | 46.79716 | 7.75798 | 100° | 22km/h | 20319m | 3.2m/s | -58.1°C | 5.0% | 0hPa | 2.7V | 00:00:00 | 01:32:06 | 00:00:00 | |
| DB0UT-7 | 2026-09-05 00:06:49 | 46.79717 | 7.75781 | 91° | 18km/h | 20311m | 5.0m/s | -58.0°C | 5.0% | 0hPa | 2.7V | 00:00:00 | 01:32:04 | 00:00:00 | |
| IW2NTF | 2026-09-05 00:06:46 | 46.79715 | 7.75723 | 102° | 20km/h | 20276m | 4m/s | -57.9°C | 5% | 0hPa | 2.7V | 08:30:00 | 01:31:56 | 00:00:00 | |
| DO3MHA-12 | 2026-09-05 00:06:43 | 46.79714 | 7.75738 | 95° | 18km/h | 20286m | 4.7m/s | -57.9°C | 4.9% | 0hPa | 2.5V | 00:00:00 | 01:31:58 | 08:30:00 | |
| DO3MHA-11 | 2026-09-05 00:06:41 | 46.79715 | 7.75723 | 103° | 18km/h | 20277m | 4.0m/s | -57.9°C | 5.0% | 0hPa | 2.7V | 00:00:00 | 01:31:56 | 00:00:00 | |
| DK5PH-5 | 2026-09-05 00:06:38 | 46.79717 | 7.75700 | 91° | 16km/h | 20264m | 3.5m/s | -57.8°C | 4.9% | 0hPa | 2.5V | 00:00:00 | 01:31:53 | 00:00:00 | |
| IW2NTF | 2026-09-05 00:06:36 | 46.79709 | 7.75660 | 78° | 20km/h | 20234m | 4m/s | -57.7°C | 4.9% | 0hPa | 2.5V | 08:30:00 | 01:31:46 | 00:00:00 | |
| DH7VM-15 | 2026-09-05 00:06:35 | 46.79716 | 7.75687 | 76° | 15km/h | 20255m | 5.6m/s | -57.8°C | 1.4% | 0hPa | 2.7V | 00:00:00 | 00:00:00 | 00:00:00 | |
| DO3MHA-12 | 2026-09-05 00:06:33 | 46.79712 | 7.75673 | 64° | 18km/h | 20242m | 4.6m/s | -57.7°C | 4.9% | 0hPa | 2.7V | 00:00:00 | 01:31:48 | 00:00:00 | |
| DO3MHA-11 | 2026-09-05 00:06:31 | 46.79709 | 7.75660 | 79° | 18km/h | 20234m | 3.9m/s | -57.7°C | 4.9% | 0hPa | 2.7V | 00:00:00 | 01:31:46 | 00:00:00 | |
| DL1ZP-14 | 2026-09-05 00:06:30 | 46.79708 | 7.75653 | 85° | 18km/h | 20230m | 4.4m/s | -57.7°C | 1.2% | -1.0hPa | 2.7V | 00:00:00 | 00:00:00 | 00:00:00 | |
| HASLITAL | 2026-09-05 00:06:28 | 46.79708 | 7.75646 | 96° | 18km/h | 20225m | 5.0m/s | -57.6°C | 1.4% | 0hPa | 2.5V | 00:00:00 | 00:00:00 | 00:00:00 | |
| IW2NTF | 2026-09-05 00:06:26 | 46.79720 | 7.75601 | 111° | 9km/h | 20190m | 3.7m/s | -57.4°C | 4.8% | 0hPa | 2.5V | 08:30:00 | 01:31:36 | 00:00:00 | |
| DO3MHA-12 | 2026-09-05 00:06:23 | 46.79718 | 7.75609 | 114° | 13km/h | 20199m | 4.9m/s | -57.4°C | 4.8% | 0hPa | 2.7V | 00:00:00 | 01:31:38 | 00:00:00 | |
| DO3MHA-11 | 2026-09-05 00:06:21 | 46.79720 | 7.75601 | 112° | 13km/h | 20190m | 3.6m/s | -57.4°C | 4.8% | 0hPa | 2.7V | 00:00:00 | 01:31:36 | 00:00:00 | |
| DB0UT-7 | 2026-09-05 00:06:19 | 46.79721 | 7.75594 | 100° | 15km/h | 20182m | 5.0m/s | -57.3°C | 4.7% | 0hPa | 2.7V | 00:00:00 | 00:00:00 | 00:00:00 | |
| DF7PN | 2026-09-05 00:06:18 | 46.79722 | 7.75590 | 97° | 11km/h | 20178m | 3.7m/s | -57.3°C | 1.2% | -1.0hPa | 2.5V | 00:00:00 | 00:00:00 | 00:00:00 | |
| IW2NTF | 2026-09-05 00:06:17 | 46.79731 | 7.75554 | 113° | 22km/h | 20141m | 3.6m/s | -57.4°C | 4.7% | 0hPa | 2.5V | 08:30:00 | 01:31:26 | 00:00:00 | |
| DO3MHA-12 | 2026-09-05 00:06:13 | 46.79725 | 7.75567 | 122° | 15km/h | 20159m | 8.8m/s | -57.2°C | 4.6% | 0hPa | 2.7V | 00:00:00 | 01:31:28 | 00:00:00 | |
| DO3MHA-11 | 2026-09-05 00:06:11 | 46.79730 | 7.75554 | 114° | 16km/h | 20142m | 3.5m/s | -57.3°C | 4.7% | 0hPa | 2.5V | 00:00:00 | 01:31:26 | 00:00:00 | |
| DK5PH-5 | 2026-09-05 00:06:08 | 46.79737 | 7.75537 | 133° | 16km/h | 20128m | 4.2m/s | -57.3°C | 4.7% | 0hPa | 2.7V | 00:00:00 | 01:31:23 | 00:00:00 | |
| IW2NTF | 2026-09-05 00:06:06 | 46.79759 | 7.75514 | 160° | 16km/h | 20096m | 5.8m/s | -57.2°C | 4.6% | 0hPa | 2.7V | 08:30:00 | 01:31:16 | 00:00:00 | |
| HARRO8 | 2026-09-05 00:06:05 | 46.79748 | 7.75524 | 139° | 16km/h | 20110m | 4.6m/s | -57.3°C | 1.2% | -1.0hPa | 2.5V | 00:00:00 | 00:00:00 | 00:00:00 | |
| DO3MHA-12 | 2026-09-05 00:06:03 | 46.79751 | 7.75520 | 145° | 15km/h | 20106m | 3.5m/s | -57.2°C | 4.7% | 0hPa | 2.5V | 00:00:00 | 01:31:18 | 00:00:00 | |
| DL1ZP-14 | 2026-09-05 00:05:59 | 46.79767 | 7.75511 | 162° | 13km/h | 20086m | 5.2m/s | -57.3°C | 1.2% | -1.0hPa | 2.5V | 00:00:00 | 00:00:00 | 00:00:00 | |
| IW2NTF | 2026-09-05 00:05:56 | 46.79786 | 7.75508 | 160° | 11km/h | 20049m | 4.5m/s | -57.7°C | 4.9% | 0hPa | 2.5V | 08:30:00 | 01:31:06 | 00:00:00 | |
| DF7PN | 2026-09-05 00:05:47 | 46.79804 | 7.75502 | 171° | 24km/h | 20029m | 4.1m/s | -57.6°C | 1.2% | -1.0hPa | 2.5V | 00:00:00 | 00:00:00 | 00:00:00 | |
| IW2NTF | 2026-09-05 00:05:46 | 46.79837 | 7.75490 | 162° | 16km/h | 20000m | 4m/s | -57.4°C | 4.8% | 0hPa | 2.5V | 08:30:00 | 01:30:56 | 00:00:00 | |
| DO3MHA-12 | 2026-09-05 00:05:43 | 46.79827 | 7.75493 | 168° | 16km/h | 20010m | 5.9m/s | -57.4°C | 4.8% | 0hPa | 2.7V | 00:00:00 | 01:30:58 | 00:00:00 | |
| DO3MHA-11 | 2026-09-05 00:05:41 | 46.79837 | 7.75490 | 163° | 16km/h | 20000m | 3.9m/s | -57.4°C | 4.8% | 0hPa | 2.5V | 00:00:00 | 01:30:56 | 08:30:00 | |
| DK5PH-5 | 2026-09-05 00:05:38 | 46.79845 | 7.75482 | 132° | 20km/h | 19985m | 3.8m/s | -57.3°C | 4.8% | 0hPa | 2.7V | 00:00:00 | 01:30:53 | 00:00:00 | |
| IW2NTF | 2026-09-05 00:05:36 | 46.79877 | 7.75468 | 157° | 24km/h | 19950m | 4.4m/s | -57.1°C | 4.8% | 0hPa | 2.7V | 08:30:00 | 01:30:46 | 00:00:00 | |
| HARRO8 | 2026-09-05 00:05:34 | 46.79865 | 7.75474 | 166° | 24km/h | 19960m | 5.6m/s | -57.3°C | 1.2% | -1.0hPa | 2.5V | 00:00:00 | 00:00:00 | 00:00:00 | |
| DO3MHA-12 | 2026-09-05 00:05:33 | 46.79865 | 7.75474 | 167° | 15km/h | 19960m | 5.5m/s | -57.2°C | 4.8% | 0hPa | 2.5V | 00:00:00 | 01:30:48 | 00:00:00 | |
| DO3MHA-11 | 2026-09-05 00:05:31 | 46.79877 | 7.75468 | 158° | 15km/h | 19950m | 4.3m/s | -57.1°C | 4.8% | 0hPa | 2.5V | 00:00:00 | 01:30:46 | 00:00:00 | |
| DL1ZP-14 | 2026-09-05 00:05:28 | 46.79889 | 7.75462 | 178° | 9km/h | 19935m | 5.1m/s | -57.1°C | 1.2% | -1.0hPa | 2.5V | 00:00:00 | 00:00:00 | 00:00:00 | |
| HASLITAL | 2026-09-05 00:05:27 | 46.79889 | 7.75462 | 179° | 9km/h | 19936m | 5.1m/s | -57.1°C | 1.4% | 0hPa | 2.7V | 00:00:00 | 00:00:00 | 00:00:00 | |
| IW2NTF | 2026-09-05 00:05:26 | 46.79908 | 7.75446 | 160° | 29km/h | 19899m | 7m/s | -56.8°C | 4.7% | 0hPa | 2.7V | 08:30:00 | 01:30:36 | 00:00:00 | |
| DO3MHA-12 | 2026-09-05 00:05:23 | 46.79898 | 7.75454 | 139° | 22km/h | 19911m | 4.0m/s | -56.8°C | 4.7% | 0hPa | 2.5V | 00:00:00 | 01:30:38 | 00:00:00 | |
| DO3MHA-11 | 2026-09-05 00:05:21 | 46.79908 | 7.75446 | 161° | 20km/h | 19899m | 6.9m/s | -56.7°C | 4.7% | 0hPa | 2.5V | 00:00:00 | 01:30:36 | 00:00:00 | |
| DB0UT-7 | 2026-09-05 00:05:19 | 46.79924 | 7.75441 | 173° | 20km/h | 19889m | 4.5m/s | -56.7°C | 4.7% | 0hPa | 2.5V | 00:00:00 | 00:00:00 | 00:00:00 | |
| IW2NTF | 2026-09-05 00:05:17 | 46.79944 | 7.75412 | 133° | 20km/h | 19850m | 5.3m/s | -56.5°C | 4.5% | 0hPa | 2.5V | 08:30:00 | 01:30:26 | 00:00:00 | |
| DF7PN | 2026-09-05 00:05:16 | 46.79941 | 7.75435 | 129° | 7km/h | 19875m | 2.4m/s | -56.7°C | 1.2% | -1.0hPa | 2.5V | 00:00:00 | 00:00:00 | 00:00:00 | |
| DO3MHA-12 | 2026-09-05 00:05:13 | 46.79941 | 7.75423 | 85° | 27km/h | 19860m | 3.9m/s | -56.6°C | 4.6% | 0hPa | 2.5V | 00:00:00 | 01:30:28 | 08:30:00 | |
| DO3MHA-11 | 2026-09-05 00:05:11 | 46.79944 | 7.75412 | 134° | 26km/h | 19850m | 5.3m/s | -56.4°C | 4.5% | 0hPa | 2.5V | 00:00:00 | 01:30:26 | 00:00:00 | |
| DH7VM-15 | 2026-09-05 00:05:08 | 46.79955 | 7.75402 | 156° | 35km/h | 19838m | 5.7m/s | -56.3°C | 1.3% | 0hPa | 2.5V | 00:00:00 | 00:00:00 | 00:00:00 | |
| DK5PH-5 | 2026-09-05 00:05:06 | 46.79979 | 7.75384 | 148° | 20km/h | 19819m | 6.5m/s | -56.2°C | 4.4% | 0hPa | 2.5V | 00:00:00 | 01:30:21 | 08:30:00 | |
| DO3MHA-12 | 2026-09-05 00:05:03 | 46.79993 | 7.75366 | 132° | 16km/h | 19801m | 7.4m/s | -56.5°C | 4.5% | 0hPa | 2.5V | 00:00:00 | 01:30:18 | 00:00:00 | |
| IW2NTF | 2026-09-05 00:05:02 | 46.79996 | 7.75359 | 105° | 5km/h | 19787m | 5.9m/s | -56.5°C | 4.5% | 0hPa | 2.5V | 08:30:00 | 01:30:16 | 00:00:00 | |
| HARRO8 | 2026-09-05 00:05:02 | 46.79996 | 7.75362 | 123° | 9km/h | 19794m | 7.4m/s | -56.6°C | 1.1% | -1.0hPa | 2.7V | 00:00:00 | 00:00:00 | 00:00:00 | |
| DL1ZP-14 | 2026-09-05 00:04:57 | 46.79997 | 7.75342 | 106° | 18km/h | 19764m | 6.2m/s | -56.5°C | 1.1% | -1.0hPa | 2.7V | 00:00:00 | 00:00:00 | 00:00:00 | |
| IW2NTF | 2026-09-05 00:04:56 | 46.80016 | 7.75299 | 123° | 22km/h | 19734m | 4.1m/s | -56.8°C | 4.6% | 0hPa | 2.7V | 08:30:00 | 01:30:06 | 00:00:00 | |
| DO3MHA-12 | 2026-09-05 00:04:53 | 46.80010 | 7.75312 | 127° | 20km/h | 19743m | 5.3m/s | -56.6°C | 4.6% | 0hPa | 2.5V | 00:00:00 | 01:30:08 | 00:00:00 | |
| DO3MHA-11 | 2026-09-05 00:04:51 | 46.80016 | 7.75299 | 124° | 20km/h | 19735m | 4.0m/s | -56.7°C | 4.6% | 0hPa | 2.5V | 00:00:00 | 01:30:06 | 00:00:00 | |
| DB0UT-7 | 2026-09-05 00:04:49 | 46.80022 | 7.75285 | 126° | 22km/h | 19725m | 4.2m/s | -56.7°C | 4.7% | 0hPa | 2.5V | 00:00:00 | 01:30:04 | 00:00:00 | |
| IW2NTF | 2026-09-05 00:04:47 | 46.80038 | 7.75232 | 107° | 22km/h | 19689m | 4.2m/s | -56.6°C | 4.5% | 0hPa | 2.5V | 08:30:00 | 01:29:56 | 00:00:00 | |
| DF7PN | 2026-09-05 00:04:47 | 46.80032 | 7.75259 | 104° | 16km/h | 19707m | 4.4m/s | -56.7°C | 1.1% | -1.0hPa | 2.5V | 00:00:00 | 00:00:00 | 00:00:00 | |
| DO3MHA-12 | 2026-09-05 00:04:43 | 46.80034 | 7.75246 | 108° | 24km/h | 19698m | 4.7m/s | -56.6°C | 4.5% | 0hPa | 2.5V | 00:00:00 | 01:29:58 | 00:00:00 | |
| DO3MHA-11 | 2026-09-05 00:04:41 | 46.80038 | 7.75232 | 108° | 24km/h | 19690m | 4.2m/s | -56.5°C | 4.5% | 0hPa | 2.5V | 00:00:00 | 01:29:56 | 00:00:00 | |
| DK5PH-5 | 2026-09-05 00:04:36 | 46.80046 | 7.75190 | 107° | 22km/h | 19668m | 2.7m/s | -56.6°C | 4.7% | 0hPa | 2.5V | 00:00:00 | 01:29:51 | 00:00:00 | |
| IW2NTF | 2026-09-05 00:04:34 | 46.80049 | 7.75150 | 96° | 18km/h | 19646m | 4.8m/s | -56.8°C | 4.7% | 0hPa | 2.5V | 08:30:00 | 01:29:46 | 00:00:00 | |
| DO3MHA-12 | 2026-09-05 00:04:33 | 46.80049 | 7.75165 | 91° | 18km/h | 19655m | 4.2m/s | -56.7°C | 4.7% | 0hPa | 2.7V | 00:00:00 | 01:29:48 | 00:00:00 | |
| DO3MHA-11 | 2026-09-05 00:04:31 | 46.80049 | 7.75150 | 97° | 20km/h | 19646m | 4.8m/s | -56.7°C | 4.7% | 0hPa | 2.7V | 00:00:00 | 01:29:46 | 00:00:00 | |
| IW2NTF | 2026-09-05 00:04:28 | 46.80056 | 7.75078 | 85° | 27km/h | 19602m | 4.2m/s | -56.6°C | 4.6% | 0hPa | 2.7V | 08:30:00 | 01:29:36 | 00:00:00 | |
| DL1ZP-14 | 2026-09-05 00:04:26 | 46.80052 | 7.75120 | 100° | 16km/h | 19625m | 4.4m/s | -56.7°C | 1.2% | -1.0hPa | 2.5V | 00:00:00 | 00:00:00 | 00:00:00 | |
| DO3MHA-12 | 2026-09-05 00:04:23 | 46.80056 | 7.75097 | 99° | 24km/h | 19612m | 3.9m/s | -56.6°C | 4.6% | 0hPa | 2.7V | 00:00:00 | 01:29:38 | 00:00:00 | |
| DO3MHA-11 | 2026-09-05 00:04:21 | 46.80056 | 7.75078 | 86° | 22km/h | 19602m | 4.2m/s | -56.5°C | 4.6% | 0hPa | 2.7V | 00:00:00 | 01:29:36 | 00:00:00 | |
| DB0UT-7 | 2026-09-05 00:04:19 | 46.80055 | 7.75058 | 87° | 20km/h | 19594m | 4.7m/s | -56.5°C | 4.6% | 0hPa | 2.7V | 00:00:00 | 00:00:00 | 00:00:00 | |
| IW2NTF | 2026-09-05 00:04:16 | 46.80064 | 7.75001 | 120° | 22km/h | 19559m | 4.4m/s | -56.4°C | 4.6% | 0hPa | 2.7V | 08:30:00 | 01:29:26 | 00:00:00 | |
| DF7PN | 2026-09-05 00:04:14 | 46.80058 | 7.75019 | 110° | 13km/h | 19573m | 3.9m/s | -56.4°C | 1.2% | -1.0hPa | 2.5V | 00:00:00 | 00:00:00 | 00:00:00 | |
| DO3MHA-12 | 2026-09-05 00:04:13 | 46.80059 | 7.75014 | 119° | 22km/h | 19569m | 3.7m/s | -56.4°C | 4.6% | 0hPa | 2.5V | 00:00:00 | 01:29:28 | 00:00:00 | |
| DO3MHA-11 | 2026-09-05 00:04:11 | 46.80064 | 7.75001 | 121° | 20km/h | 19560m | 4.4m/s | -56.4°C | 4.6% | 0hPa | 2.7V | 00:00:00 | 01:29:26 | 08:30:00 | |
| HASLITAL | 2026-09-05 00:04:07 | 46.80072 | 7.74969 | 101° | 22km/h | 19543m | 3.3m/s | -56.4°C | 1.3% | 0hPa | 2.5V | 00:00:00 | 00:00:00 | 00:00:00 | |
| DK5PH-5 | 2026-09-05 00:04:06 | 46.80073 | 7.74962 | 104° | 22km/h | 19540m | 4.0m/s | -56.3°C | 4.5% | 0hPa | 2.5V | 00:00:00 | 01:29:21 | 00:00:00 | |
| DO3MHA-12 | 2026-09-05 00:04:03 | 46.80079 | 7.74942 | 122° | 20km/h | 19524m | 4.3m/s | -56.2°C | 4.5% | 0hPa | 2.5V | 00:00:00 | 01:29:18 | 00:00:00 | |
| HARRO8 | 2026-09-05 00:04:00 | 46.80085 | 7.74926 | 118° | 16km/h | 19510m | 4.3m/s | -56.3°C | 1.1% | -1.0hPa | 2.5V | 00:00:00 | 00:00:00 | 00:00:00 | |
| IW2NTF | 2026-09-05 00:04:00 | 46.80088 | 7.74920 | 120° | 20km/h | 19504m | 5.7m/s | -56.2°C | 4.4% | 0hPa | 2.7V | 08:30:00 | 01:29:14 | 00:00:00 | |
| DL1ZP-14 | 2026-09-05 00:03:55 | 46.80098 | 7.74889 | 109° | 20km/h | 19485m | 5.0m/s | -56.4°C | 1.1% | -1.0hPa | 2.5V | 00:00:00 | 00:00:00 | 00:00:00 | |
| DO3MHA-12 | 2026-09-05 00:03:53 | 46.80102 | 7.74876 | 122° | 20km/h | 19476m | 5.3m/s | -56.5°C | 4.5% | 0hPa | 2.5V | 00:00:00 | 01:29:08 | 00:00:00 | |
| IW2NTF | 2026-09-05 00:03:51 | 46.80116 | 7.74859 | 145° | 18km/h | 19456m | 5.3m/s | -56.6°C | 4.5% | 0hPa | 2.5V | 08:30:00 | 01:29:04 | 00:00:00 | |
| DO3MHA-11 | 2026-09-05 00:03:51 | 46.80108 | 7.74866 | 145° | 22km/h | 19465m | 4.3m/s | -56.6°C | 4.5% | 0hPa | 2.5V | 00:00:00 | 01:29:06 | 00:00:00 | |
| DB0UT-7 | 2026-09-05 00:03:49 | 46.80116 | 7.74859 | 146° | 27km/h | 19456m | 5.3m/s | -56.5°C | 4.5% | 0hPa | 2.5V | 00:00:00 | 01:29:04 | 00:00:00 | |
| HASLITAL | 2026-09-05 00:03:45 | 46.80127 | 7.74845 | 134° | 22km/h | 19441m | 5.8m/s | -56.6°C | 1.3% | 0hPa | 2.5V | 00:00:00 | 00:00:00 | 00:00:00 | |
| IW2NTF | 2026-09-05 00:03:44 | 46.80155 | 7.74793 | 143° | 26km/h | 19408m | 4m/s | -56.4°C | 4.5% | 0hPa | 2.5V | 08:30:00 | 01:28:54 | 00:00:00 | |
| DO3MHA-12 | 2026-09-05 00:03:43 | 46.80138 | 7.74823 | 122° | 26km/h | 19426m | 5.3m/s | -56.5°C | 4.6% | 0hPa | 2.5V | 00:00:00 | 01:28:58 | 08:30:00 | |
| DO3MHA-11 | 2026-09-05 00:03:41 | 46.80146 | 7.74806 | 129° | 26km/h | 19418m | 4.4m/s | -56.4°C | 4.6% | 0hPa | 2.7V | 00:00:00 | 01:28:56 | 00:00:00 | |
| DK5PH-5 | 2026-09-05 00:03:37 | 46.80170 | 7.74777 | 137° | 31km/h | 19395m | 4.2m/s | -56.4°C | 4.5% | 0hPa | 2.7V | 00:00:00 | 01:28:51 | 00:00:00 | |
| DO3MHA-12 | 2026-09-05 00:03:33 | 46.80183 | 7.74755 | 130° | 29km/h | 19383m | 4.9m/s | -56.4°C | 4.5% | 0hPa | 2.7V | 00:00:00 | 01:28:48 | 00:00:00 | |
| DO3MHA-11 | 2026-09-05 00:03:31 | 46.80193 | 7.74737 | 126° | 29km/h | 19374m | 4.1m/s | -56.6°C | 4.5% | 0hPa | 2.7V | 00:00:00 | 01:28:46 | 00:00:00 | |
| IW2NTF | 2026-09-05 00:03:30 | 46.80201 | 7.74717 | 119° | 29km/h | 19365m | 3.8m/s | -56.8°C | 4.6% | 0hPa | 2.7V | 08:30:00 | 01:28:44 | 00:00:00 | |
| HARRO8 | 2026-09-05 00:03:29 | 46.80201 | 7.74717 | 119° | 29km/h | 19365m | 3.8m/s | -56.8°C | 1.2% | -1.0hPa | 2.7V | 00:00:00 | 00:00:00 | 00:00:00 | |
| DL1ZP-14 | 2026-09-05 00:03:24 | 46.80221 | 7.74675 | 125° | 26km/h | 19343m | 5.1m/s | -56.8°C | 1.1% | -1.0hPa | 2.7V | 00:00:00 | 00:00:00 | 00:00:00 | |
| DO3MHA-12 | 2026-09-05 00:03:23 | 46.80225 | 7.74667 | 120° | 31km/h | 19339m | 3.8m/s | -56.8°C | 4.5% | 0hPa | 2.6V | 00:00:00 | 01:28:38 | 00:00:00 | |
| DO3MHA-11 | 2026-09-05 00:03:21 | 46.80232 | 7.74648 | 120° | 35km/h | 19331m | 4.5m/s | -56.9°C | 4.6% | 0hPa | 2.6V | 00:00:00 | 01:28:36 | 00:00:00 | |
| IW2NTF | 2026-09-05 00:03:20 | 46.80241 | 7.74627 | 119° | 33km/h | 19322m | 3.7m/s | -57°C | 4.6% | 0hPa | 2.6V | 08:30:00 | 01:28:34 | 00:00:00 | |
| DB0UT-7 | 2026-09-05 00:03:19 | 46.80240 | 7.74627 | 120° | 31km/h | 19323m | 3.6m/s | -56.9°C | 4.6% | 0hPa | 2.6V | 00:00:00 | 00:00:00 | 08:30:00 | |
| DH7VM-15 | 2026-09-05 00:03:18 | 46.80240 | 7.74627 | 121° | 33km/h | 19323m | 3.7m/s | -57.0°C | 1.3% | 0hPa | 2.7V | 00:00:00 | 00:00:00 | 00:00:00 | |
| DO3MHA-12 | 2026-09-05 00:03:13 | 46.80262 | 7.74558 | 112° | 51km/h | 19298m | 3.0m/s | -57.1°C | 4.8% | 0hPa | 2.7V | 00:00:00 | 01:28:28 | 00:00:00 | |
| DF7PN | 2026-09-05 00:03:12 | 46.80266 | 7.74545 | 106° | 37km/h | 19294m | 4.0m/s | -57.1°C | 1.3% | -1.0hPa | 2.5V | 00:00:00 | 00:00:00 | 00:00:00 | |
| IW2NTF | 2026-09-05 00:03:11 | 46.80270 | 7.74508 | 99° | 31km/h | 19282m | 3.4m/s | -57.1°C | 4.8% | 0hPa | 2.5V | 08:30:00 | 01:28:24 | 00:00:00 | |
| DO3MHA-11 | 2026-09-05 00:03:11 | 46.80268 | 7.74532 | 101° | 29km/h | 19290m | 4.6m/s | -57.1°C | 4.8% | 0hPa | 2.5V | 00:00:00 | 01:28:26 | 00:00:00 | |
| HASLITAL | 2026-09-05 00:03:04 | 46.80278 | 7.74470 | 108° | 24km/h | 19266m | 4.6m/s | -57.1°C | 1.4% | 0hPa | 2.5V | 00:00:00 | 00:00:00 | 00:00:00 | |
| IW2NTF | 2026-09-05 00:03:01 | 46.80289 | 7.74404 | 103° | 38km/h | 19240m | 4.8m/s | -56.9°C | 4.7% | 0hPa | 2.5V | 08:30:00 | 01:28:14 | 00:00:00 | |
| DO3MHA-11 | 2026-09-05 00:02:55 | 46.80308 | 7.74317 | 110° | 26km/h | 19207m | 3.3m/s | -56.7°C | 4.6% | 0hPa | 2.7V | 00:00:00 | 01:28:06 | 00:00:00 | |
| DB0UT-7 | 2026-09-05 00:02:52 | 46.80312 | 7.74302 | 112° | 26km/h | 19200m | 5.2m/s | -56.6°C | 4.6% | 0hPa | 2.7V | 00:00:00 | 01:28:04 | 00:00:00 | |
| IW2NTF | 2026-09-05 00:02:51 | 46.80312 | 7.74302 | 111° | 24km/h | 19199m | 5.2m/s | -56.7°C | 4.6% | 0hPa | 2.7V | 08:30:00 | 01:28:04 | 00:00:00 | |
| HASLITAL | 2026-09-05 00:02:50 | 46.80320 | 7.74260 | 100° | 35km/h | 19181m | 4.5m/s | -56.6°C | 1.4% | 0hPa | 2.7V | 00:00:00 | 00:00:00 | 00:00:00 | |
| DF7PN | 2026-09-05 00:02:47 | 46.80329 | 7.74202 | 109° | 24km/h | 19163m | 4.0m/s | -56.4°C | 1.2% | -1.0hPa | 2.7V | 00:00:00 | 00:00:00 | 00:00:00 | |
| IW2NTF | 2026-09-05 00:02:40 | 46.80333 | 7.74186 | 105° | 20km/h | 19154m | 4m/s | -56.4°C | 4.5% | 0hPa | 2.7V | 08:30:00 | 01:27:53 | 00:00:00 | |
| DO3MHA-11 | 2026-09-05 00:02:35 | 46.80342 | 7.74158 | 118° | 26km/h | 19139m | 3.1m/s | -56.3°C | 4.5% | 0hPa | 2.5V | 00:00:00 | 01:27:49 | 08:30:00 | |
| IW2NTF | 2026-09-05 00:02:34 | 46.80359 | 7.74098 | 112° | 24km/h | 19113m | 3.6m/s | -56.3°C | 4.5% | 0hPa | 2.5V | 08:30:00 | 01:27:43 | 00:00:00 | |
| DK5PH-5 | 2026-09-05 00:02:31 | 46.80350 | 7.74127 | 109° | 29km/h | 19125m | 3.6m/s | -56.2°C | 4.6% | 0hPa | 2.6V | 00:00:00 | 01:27:46 | 00:00:00 | |
| HARRO8 | 2026-09-05 00:02:27 | 46.80361 | 7.74090 | 107° | 20km/h | 19109m | 5.3m/s | -56.3°C | 1.2% | -1.0hPa | 2.6V | 00:00:00 | 00:00:00 | 00:00:00 | |
| DO3MHA-11 | 2026-09-05 00:02:24 | 46.80365 | 7.74072 | 122° | 26km/h | 19095m | 5.0m/s | -56.3°C | 4.6% | 0hPa | 2.6V | 00:00:00 | 01:27:39 | 00:00:00 | |
| DL1ZP-14 | 2026-09-05 00:02:23 | 46.80374 | 7.74055 | 123° | 20km/h | 19083m | 5.0m/s | -56.5°C | 1.2% | -1.0hPa | 2.6V | 00:00:00 | 00:00:00 | 00:00:00 | |
| DB0UT-7 | 2026-09-05 00:02:21 | 46.80380 | 7.74039 | 116° | 35km/h | 19074m | 3.7m/s | -56.5°C | 4.6% | 0hPa | 2.6V | 00:00:00 | 00:00:00 | 00:00:00 | |
| IW2NTF | 2026-09-05 00:02:18 | 46.80392 | 7.74010 | 126° | 31km/h | 19060m | 3.4m/s | -56.5°C | 4.6% | 0hPa | 2.6V | 08:30:00 | 01:27:31 | 00:00:00 | |
| DO3MHA-11 | 2026-09-05 00:02:13 | 46.80422 | 7.73961 | 139° | 33km/h | 19035m | 3.2m/s | -56.3°C | 4.5% | 0hPa | 2.5V | 00:00:00 | 01:27:25 | 00:00:00 | |
| DF7PN | 2026-09-05 00:02:12 | 46.80428 | 7.73953 | 136° | 31km/h | 19031m | 5.1m/s | -56.4°C | 1.2% | -1.0hPa | 2.5V | 00:00:00 | 00:00:00 | 00:00:00 | |
| IW2NTF | 2026-09-05 00:02:09 | 46.80447 | 7.73925 | 134° | 38km/h | 19018m | 4.6m/s | -56.4°C | 4.6% | 0hPa | 2.5V | 08:30:00 | 01:27:21 | 00:00:00 | |
| HASLITAL | 2026-09-05 00:02:04 | 46.80454 | 7.73914 | 136° | 40km/h | 19015m | 2.7m/s | -56.4°C | 1.4% | 0hPa | 2.7V | 00:00:00 | 00:00:00 | 00:00:00 | |
| HARRO8 | 2026-09-05 00:02:02 | 46.80517 | 7.73834 | 150° | 37km/h | 18984m | 4.0m/s | -56.5°C | 1.2% | -1.0hPa | 2.7V | 00:00:00 | 00:00:00 | 00:00:00 | |
| IW2NTF | 2026-09-05 00:01:57 | 46.80517 | 7.73834 | 150° | 37km/h | 18984m | 4m/s | -56.5°C | 4.6% | 0hPa | 2.7V | 08:30:00 | 01:27:11 | 00:00:00 | |
| DL1ZP-14 | 2026-09-05 00:01:55 | 46.80565 | 7.73782 | 136° | 42km/h | 18964m | 2.7m/s | -56.5°C | 1.2% | -1.0hPa | 2.7V | 00:00:00 | 00:00:00 | 00:00:00 | |
| DO3MHA-11 | 2026-09-05 00:01:53 | 46.80564 | 7.73782 | 137° | 44km/h | 18964m | 2.7m/s | -56.5°C | 4.6% | 0hPa | 2.7V | 00:00:00 | 01:27:05 | 00:00:00 | |
| IW2NTF | 2026-09-05 00:01:52 | 46.80594 | 7.73735 | 134° | 46km/h | 18950m | 4.1m/s | -56.7°C | 4.6% | 0hPa | 2.7V | 08:30:00 | 01:27:01 | 00:00:00 | |
| DB0UT-7 | 2026-09-05 00:01:52 | 46.80572 | 7.73770 | 133° | 47km/h | 18960m | 4.4m/s | -56.5°C | 4.5% | 0hPa | 2.5V | 00:00:00 | 01:27:04 | 00:00:00 | |
| HASLITAL | 2026-09-05 00:01:46 | 46.80602 | 7.73723 | 140° | 47km/h | 18947m | 3.3m/s | -56.7°C | 1.4% | 0hPa | 2.5V | 00:00:00 | 00:00:00 | 00:00:00 | |
| DF7PN | 2026-09-05 00:01:41 | 46.80663 | 7.73650 | 139° | 46km/h | 18921m | 2.4m/s | -56.9°C | 1.2% | -1.0hPa | 2.5V | 00:00:00 | 00:00:00 | 00:00:00 | |
| IW2NTF | 2026-09-05 00:01:37 | 46.80680 | 7.73626 | 133° | 46km/h | 18914m | 4.2m/s | -56.9°C | 4.6% | 0hPa | 2.5V | 08:30:00 | 01:26:51 | 00:00:00 | |
| DK5PH-5 | 2026-09-05 00:01:36 | 46.80722 | 7.73557 | 130° | 47km/h | 18897m | 3.8m/s | -56.8°C | 4.6% | 0hPa | 2.5V | 00:00:00 | 01:26:46 | 00:00:00 | |
| IW2NTF | 2026-09-05 00:01:32 | 46.80758 | 7.73484 | 126° | 46km/h | 18880m | 2.7m/s | -57°C | 4.6% | 0hPa | 2.5V | 08:30:00 | 01:26:41 | 00:00:00 | |
| DO3MHA-11 | 2026-09-05 00:01:31 | 46.80744 | 7.73512 | 125° | 47km/h | 18887m | 3.6m/s | -56.9°C | 4.6% | 0hPa | 2.7V | 00:00:00 | 01:26:43 | 00:00:00 | |
| HARRO8 | 2026-09-05 00:01:28 | 46.80765 | 7.73471 | 125° | 46km/h | 18876m | 4.4m/s | -57.1°C | 1.2% | -1.0hPa | 2.6V | 00:00:00 | 00:00:00 | 00:00:00 | |
| HASLITAL | 2026-09-05 00:01:27 | 46.80771 | 7.73457 | 127° | 46km/h | 18872m | 4.1m/s | -57.1°C | 1.4% | 0hPa | 2.6V | 00:00:00 | 00:00:00 | 00:00:00 | |
| DL1ZP-14 | 2026-09-05 00:01:23 | 46.80810 | 7.73386 | 126° | 49km/h | 18855m | 4.8m/s | -57.3°C | 1.3% | -1.0hPa | 2.6V | 00:00:00 | 00:00:00 | 00:00:00 | |
| IW2NTF | 2026-09-05 00:01:22 | 46.80829 | 7.73339 | 118° | 49km/h | 18842m | 4.6m/s | -57.4°C | 4.7% | 0hPa | 2.7V | 08:30:00 | 01:26:31 | 00:00:00 | |
| DB0ND-19 | 2026-09-05 00:01:18 | 46.80925 | 7.72997 | 112° | 44km/h | 18766m | 3.2m/s | -58.1°C | -1.0% | -1.0hPa | 2.7V | 00:00:00 | 00:00:00 | 00:00:00 | |
| IW2NTF | 2026-09-05 00:01:12 | 46.80892 | 7.73149 | 110° | 46km/h | 18800m | 3.4m/s | -57.5°C | 4.7% | 0hPa | 2.7V | 08:30:00 | 01:26:19 | 00:00:00 | |
| DF7PN | 2026-09-05 00:01:11 | 46.80877 | 7.73195 | 120° | 46km/h | 18812m | 3.0m/s | -57.4°C | 1.3% | -1.0hPa | 2.6V | 00:00:00 | 00:00:00 | 00:00:00 | |
| DK5PH-5 | 2026-09-05 00:01:01 | 46.80904 | 7.73100 | 109° | 44km/h | 18789m | 3.1m/s | -57.7°C | 4.8% | 0hPa | 2.6V | 00:00:00 | 01:26:16 | 00:00:00 | |
| IW2NTF | 2026-09-05 00:00:58 | 46.80929 | 7.72982 | 112° | 44km/h | 18762m | 4.3m/s | -58.2°C | 4.9% | 0hPa | 2.6V | 08:30:00 | 01:26:09 | 00:00:00 | |
| HARRO8 | 2026-09-05 00:00:55 | 46.80929 | 7.72982 | 112° | 44km/h | 18762m | 4.3m/s | -58.2°C | 1.3% | -1.0hPa | 2.5V | 00:00:00 | 00:00:00 | 00:00:00 | |
| IW2NTF | 2026-09-05 00:00:49 | 46.80964 | 7.72823 | 100° | 38km/h | 18721m | 3.8m/s | -58.6°C | 5.3% | 0hPa | 2.5V | 08:30:00 | 01:25:59 | 00:00:00 | |
| DL1ZP-14 | 2026-09-05 00:00:49 | 46.80955 | 7.72884 | 106° | 46km/h | 18739m | 5.3m/s | -58.7°C | 1.4% | -1.0hPa | 2.7V | 00:00:00 | 00:00:00 | 00:00:00 | |
| DB0ND-19 | 2026-09-05 00:00:46 | 46.80961 | 7.72837 | 100° | 40km/h | 18725m | 4.9m/s | -58.5°C | -1.0% | -1.0hPa | 2.6V | 00:00:00 | 00:00:00 | 00:00:00 | |
| HASLITAL | 2026-09-05 00:00:41 | 46.80967 | 7.72796 | 99° | 35km/h | 18714m | 5.3m/s | -58.7°C | 1.6% | 0hPa | 2.6V | 00:00:00 | 00:00:00 | 00:00:00 | |
| DF7PN | 2026-09-05 00:00:39 | 46.80983 | 7.72714 | 108° | 46km/h | 18685m | 5.5m/s | -58.6°C | 1.4% | -1.0hPa | 2.6V | 00:00:00 | 00:00:00 | 00:00:00 | |
| DK5PH-5 | 2026-09-05 00:00:34 | 46.80992 | 7.72646 | 94° | 29km/h | 18660m | 5.4m/s | -58.3°C | 5.0% | 0hPa | 2.6V | 00:00:00 | 01:25:46 | 08:30:00 | |
| DH7VM-15 | 2026-09-05 00:00:23 | 46.80989 | 7.72554 | 97° | 40km/h | 18616m | 4.8m/s | -58.2°C | 1.6% | 0hPa | 2.5V | 00:00:00 | 00:00:00 | 00:00:00 | |
| HASLITAL | 2026-09-05 00:00:22 | 46.80990 | 7.72540 | 100° | 40km/h | 18612m | 3.3m/s | -58.2°C | 1.6% | 0hPa | 2.5V | 00:00:00 | 00:00:00 | 00:00:00 | |
| DL1ZP-14 | 2026-09-05 00:00:20 | 46.80994 | 7.72492 | 96° | 22km/h | 18590m | 6.2m/s | -58.4°C | 1.4% | -1.0hPa | 2.5V | 00:00:00 | 00:00:00 | 00:00:00 | |
| DB0ND-19 | 2026-09-05 00:00:15 | 46.80968 | 7.72370 | 96° | 33km/h | 18517m | 8.1m/s | -58.3°C | -1.0% | -1.0hPa | 2.6V | 00:00:00 | 00:00:00 | 00:00:00 | |
| DF7PN | 2026-09-05 00:00:06 | 46.80967 | 7.72382 | 88° | 33km/h | 18524m | 4.7m/s | -58.4°C | 1.4% | -1.0hPa | 2.6V | 00:00:00 | 00:00:00 | 00:00:00 | |
| DK5PH-5 | 2026-09-05 00:00:01 | 46.80974 | 7.72340 | 114° | 26km/h | 18496m | 5.1m/s | -58.1°C | 5.1% | 0hPa | 2.6V | 00:00:00 | 01:25:16 | 00:00:00 | |
| HASLITAL | 2026-09-04 23:59:59 | 46.80975 | 7.72335 | 113° | 13km/h | 18490m | 8.2m/s | -58.1°C | 1.6% | 0hPa | 2.6V | 00:00:00 | 00:00:00 | 00:00:00 | |
| HARRO8 | 2026-09-04 23:59:53 | 46.80961 | 7.72276 | 74° | 24km/h | 18433m | 7.4m/s | -57.8°C | 1.4% | -1.0hPa | 2.6V | 00:00:00 | 00:00:00 | 00:00:00 | |
| DB0UT-7 | 2026-09-04 23:59:49 | 46.80961 | 7.72252 | 106° | 29km/h | 18414m | 7.0m/s | -57.6°C | 4.9% | 0hPa | 2.6V | 00:00:00 | 01:25:04 | 00:00:00 | |
| DL1ZP-14 | 2026-09-04 23:59:47 | 46.80966 | 7.72231 | 107° | 18km/h | 18393m | 6.2m/s | -57.6°C | 1.4% | -1.0hPa | 2.6V | 00:00:00 | 00:00:00 | 00:00:00 | |
| DB0ND-19 | 2026-09-04 23:59:43 | 46.81003 | 7.72001 | 99° | 40km/h | 18256m | 5.8m/s | -57.6°C | -1.0% | -1.0hPa | 2.7V | 00:00:00 | 00:00:00 | 00:00:00 | |
| HASLITAL | 2026-09-04 23:59:39 | 46.80973 | 7.72180 | 110° | 38km/h | 18350m | 6.9m/s | -57.5°C | 1.5% | 0hPa | 2.7V | 00:00:00 | 00:00:00 | 00:00:00 | |
| DF7PN | 2026-09-04 23:59:34 | 46.80988 | 7.72112 | 98° | 27km/h | 18318m | 5.8m/s | -57.3°C | 1.3% | -1.0hPa | 2.7V | 00:00:00 | 00:00:00 | 00:00:00 | |
| DK5PH-5 | 2026-09-04 23:59:28 | 46.80996 | 7.72054 | 107° | 44km/h | 18284m | 5.7m/s | -57.5°C | 4.8% | 0hPa | 2.7V | 00:00:00 | 01:24:43 | 00:00:00 | |
| HARRO8 | 2026-09-04 23:59:22 | 46.81011 | 7.71959 | 111° | 38km/h | 18237m | 5.1m/s | -57.7°C | 1.4% | -1.0hPa | 2.7V | 00:00:00 | 00:00:00 | 00:00:00 | |
| DB0UT-7 | 2026-09-04 23:59:19 | 46.81017 | 7.71932 | 106° | 47km/h | 18226m | 6.3m/s | -57.7°C | 5.0% | 0hPa | 2.7V | 00:00:00 | 00:00:00 | 00:00:00 | |
| HASLITAL | 2026-09-04 23:59:17 | 46.81019 | 7.71918 | 100° | 40km/h | 18220m | 5.8m/s | -57.7°C | 1.6% | 0hPa | 2.7V | 00:00:00 | 00:00:00 | 00:00:00 | |
| DL1ZP-14 | 2026-09-04 23:59:15 | 46.81023 | 7.71872 | 97° | 40km/h | 18204m | 5.8m/s | -57.8°C | 1.4% | -1.0hPa | 2.7V | 00:00:00 | 00:00:00 | 00:00:00 | |
| DF7PN | 2026-09-04 23:59:03 | 46.81039 | 7.71674 | 89° | 49km/h | 18142m | 4.6m/s | -57.7°C | 1.4% | -1.0hPa | 2.6V | 00:00:00 | 00:00:00 | 00:00:00 | |
| HARRO8 | 2026-09-04 23:58:50 | 46.81032 | 7.71428 | 89° | 53km/h | 18077m | 5.4m/s | -57.7°C | 1.4% | -1.0hPa | 2.6V | 00:00:00 | 00:00:00 | 00:00:00 | |
| DL1ZP-14 | 2026-09-04 23:58:44 | 46.81025 | 7.71305 | 84° | 55km/h | 18046m | 5.0m/s | -58.3°C | 1.4% | -1.0hPa | 2.6V | 00:00:00 | 00:00:00 | 00:00:00 | |
| DB0ND-19 | 2026-09-04 23:58:41 | 46.81016 | 7.71209 | 81° | 49km/h | 18022m | 4.5m/s | -58.8°C | -1.0% | -1.0hPa | 2.6V | 00:00:00 | 00:00:00 | 00:00:00 | |
| HASLITAL | 2026-09-04 23:58:36 | 46.81013 | 7.71170 | 86° | 57km/h | 18012m | 4.0m/s | -58.8°C | 1.7% | 0hPa | 2.6V | 00:00:00 | 00:00:00 | 00:00:00 | |
| DF7PN | 2026-09-04 23:58:32 | 46.81003 | 7.71059 | 81° | 60km/h | 17986m | 5.1m/s | -58.7°C | 1.5% | -1.0hPa | 2.6V | 00:00:00 | 00:00:00 | 00:00:00 | |
| DK5PH-5 | 2026-09-04 23:58:28 | 46.80993 | 7.70980 | 77° | 51km/h | 17968m | 5.0m/s | -58.7°C | 5.3% | 0hPa | 2.6V | 00:00:00 | 01:23:43 | 00:00:00 | |
| DB0UT-7 | 2026-09-04 23:58:19 | 46.80982 | 7.70808 | 87° | 46km/h | 17925m | 5.5m/s | -58.5°C | 5.3% | 0hPa | 2.6V | 00:00:00 | 00:00:00 | 00:00:00 | |
| HASLITAL | 2026-09-04 23:58:15 | 46.80978 | 7.70754 | 83° | 46km/h | 17911m | 5.2m/s | -58.4°C | 1.8% | 0hPa | 2.6V | 00:00:00 | 00:00:00 | 00:00:00 | |
| DL1ZP-14 | 2026-09-04 23:58:13 | 46.80974 | 7.70704 | 83° | 47km/h | 17897m | 5.4m/s | -58.3°C | 1.6% | -1.0hPa | 2.6V | 00:00:00 | 00:00:00 | 00:00:00 | |
| DB0ND-19 | 2026-09-04 23:58:10 | 46.80973 | 7.70616 | 93° | 47km/h | 17874m | 5.5m/s | -58.3°C | -1.0% | -1.0hPa | 2.6V | 00:00:00 | 00:00:00 | 00:00:00 | |
| DF7PN | 2026-09-04 23:58:01 | 46.80972 | 7.70497 | 81° | 47km/h | 17842m | 4.4m/s | -58.2°C | 1.5% | -1.0hPa | 2.6V | 00:00:00 | 00:00:00 | 00:00:00 | |
| HARRO8 | 2026-09-04 23:57:48 | 46.80969 | 7.70271 | 87° | 40km/h | 17783m | 4.7m/s | -57.8°C | 1.5% | -1.0hPa | 2.6V | 00:00:00 | 00:00:00 | 00:00:00 | |
| DL1ZP-14 | 2026-09-04 23:57:42 | 46.80968 | 7.70199 | 89° | 38km/h | 17763m | 3.3m/s | -57.9°C | 1.6% | -1.0hPa | 2.6V | 00:00:00 | 00:00:00 | 00:00:00 | |
| HASLITAL | 2026-09-04 23:57:34 | 46.80968 | 7.70108 | 92° | 37km/h | 17736m | 4.6m/s | -58.0°C | 1.7% | 0hPa | 2.6V | 00:00:00 | 00:00:00 | 00:00:00 | |
| DF7PN | 2026-09-04 23:57:30 | 46.80971 | 7.70033 | 94° | 44km/h | 17716m | 3.1m/s | -58.8°C | 1.6% | -1.0hPa | 2.6V | 00:00:00 | 00:00:00 | 00:00:00 | |
| DK5PH-5 | 2026-09-04 23:57:27 | 46.80977 | 7.69990 | 111° | 40km/h | 17704m | 4.0m/s | -58.7°C | 5.4% | 0hPa | 2.6V | 00:00:00 | 01:22:42 | 00:00:00 | |
| IW2NTF | 2026-09-04 23:57:23 | 46.80999 | 7.69900 | 109° | 40km/h | 17677m | 4.4m/s | -58.8°C | 5.4% | 0hPa | 2.7V | 08:30:00 | 01:22:35 | 00:00:00 | |
| DB0UT-7 | 2026-09-04 23:57:19 | 46.81003 | 7.69886 | 111° | 40km/h | 17674m | 3.1m/s | -58.7°C | 5.5% | 0hPa | 2.6V | 00:00:00 | 00:00:00 | 00:00:00 | |
| HARRO8 | 2026-09-04 23:57:17 | 46.81010 | 7.69859 | 109° | 38km/h | 17667m | 4.6m/s | -58.7°C | 1.7% | -1.0hPa | 2.6V | 00:00:00 | 00:00:00 | 00:00:00 | |
| HASLITAL | 2026-09-04 23:57:13 | 46.81019 | 7.69817 | 109° | 40km/h | 17656m | 4.8m/s | -58.7°C | 1.9% | 0hPa | 2.6V | 00:00:00 | 00:00:00 | 00:00:00 | |
| IW2NTF | 2026-09-04 23:57:12 | 46.81029 | 7.69761 | 101° | 42km/h | 17641m | 3.9m/s | -58.7°C | 5.3% | 0hPa | 2.6V | 08:30:00 | 01:22:25 | 00:00:00 | |
| DL1ZP-14 | 2026-09-04 23:57:11 | 46.81027 | 7.69776 | 102° | 38km/h | 17645m | 4.1m/s | -58.7°C | 1.7% | -1.0hPa | 2.6V | 00:00:00 | 00:00:00 | 00:00:00 | |
| DB0ND-19 | 2026-09-04 23:57:08 | 46.81060 | 7.69645 | 112° | 44km/h | 17612m | 3.7m/s | -59.3°C | -1.0% | -1.0hPa | 2.6V | 00:00:00 | 00:00:00 | 00:00:00 | |
| IW2NTF | 2026-09-04 23:57:00 | 46.81086 | 7.69542 | 100° | 38km/h | 17587m | 3.6m/s | -59.3°C | 5.5% | 0hPa | 2.6V | 08:30:00 | 01:22:10 | 00:00:00 | |
| DF7PN | 2026-09-04 23:56:59 | 46.81073 | 7.69599 | 112° | 42km/h | 17601m | 3.9m/s | -59.3°C | 1.8% | -1.0hPa | 2.6V | 00:00:00 | 00:00:00 | 00:00:00 | |
| DK5PH-5 | 2026-09-04 23:56:55 | 46.81085 | 7.69542 | 101° | 46km/h | 17587m | 3.6m/s | -59.3°C | 5.5% | 0hPa | 2.6V | 00:00:00 | 01:22:10 | 00:00:00 | |
| HASLITAL | 2026-09-04 23:56:53 | 46.81087 | 7.69528 | 101° | 38km/h | 17584m | 3.5m/s | -59.3°C | 2.0% | 0hPa | 2.6V | 00:00:00 | 00:00:00 | 00:00:00 | |
| IW2NTF | 2026-09-04 23:56:50 | 46.81108 | 7.69389 | 103° | 46km/h | 17550m | 3m/s | -59.7°C | 5.6% | 0hPa | 2.6V | 08:30:00 | 01:22:00 | 00:00:00 | |
| HARRO8 | 2026-09-04 23:56:46 | 46.81108 | 7.69390 | 103° | 46km/h | 17550m | 3.0m/s | -59.7°C | 1.8% | -1.0hPa | 2.7V | 00:00:00 | 00:00:00 | 00:00:00 | |
| DL1ZP-14 | 2026-09-04 23:56:40 | 46.81119 | 7.69307 | 101° | 42km/h | 17531m | 3.9m/s | -59.9°C | 1.8% | -1.0hPa | 2.7V | 00:00:00 | 00:00:00 | 00:00:00 | |
| IW2NTF | 2026-09-04 23:56:38 | 46.81127 | 7.69195 | 93° | 46km/h | 17504m | 3.5m/s | -60.3°C | 5.9% | 0hPa | 2.6V | 08:30:00 | 01:21:48 | 00:00:00 | |
| HASLITAL | 2026-09-04 23:56:33 | 46.81125 | 7.69211 | 95° | 44km/h | 17508m | 3.5m/s | -60.3°C | 2.1% | 0hPa | 2.7V | 00:00:00 | 00:00:00 | 00:00:00 | |
| DF7PN | 2026-09-04 23:56:28 | 46.81130 | 7.69103 | 97° | 47km/h | 17484m | 4.2m/s | -60.6°C | 1.9% | -1.0hPa | 2.7V | 00:00:00 | 00:00:00 | 00:00:00 | |
| IW2NTF | 2026-09-04 23:56:24 | 46.81133 | 7.69015 | 86° | 53km/h | 17465m | 4.1m/s | -61.4°C | 6.2% | 0hPa | 2.7V | 08:30:00 | 01:21:38 | 00:00:00 | |
| DK5PH-5 | 2026-09-04 23:56:24 | 46.81134 | 7.69034 | 89° | 51km/h | 17469m | 4.5m/s | -61.2°C | 6.2% | 0hPa | 2.6V | 00:00:00 | 01:21:39 | 00:00:00 | |
| DB0UT-7 | 2026-09-04 23:56:19 | 46.81128 | 7.68935 | 85° | 51km/h | 17448m | 3.9m/s | -61.5°C | 6.3% | 0hPa | 2.6V | 00:00:00 | 00:00:00 | 00:00:00 | |
| IW2NTF | 2026-09-04 23:56:17 | 46.81123 | 7.68768 | 84° | 53km/h | 17415m | 3.7m/s | -61.6°C | 6.5% | 0hPa | 2.6V | 08:30:00 | 01:21:26 | 00:00:00 | |
| HARRO8 | 2026-09-04 23:56:15 | 46.81125 | 7.68827 | 90° | 55km/h | 17427m | 3.3m/s | -61.7°C | 2.1% | -1.0hPa | 2.6V | 00:00:00 | 00:00:00 | 00:00:00 | |
| HASLITAL | 2026-09-04 23:56:12 | 46.81124 | 7.68807 | 90° | 55km/h | 17424m | 4.1m/s | -61.7°C | 2.3% | 0hPa | 2.6V | 00:00:00 | 00:00:00 | 00:00:00 | |
| DL1ZP-14 | 2026-09-04 23:56:09 | 46.81119 | 7.68732 | 79° | 47km/h | 17407m | 3.8m/s | -61.5°C | 2.1% | -1.0hPa | 2.6V | 00:00:00 | 00:00:00 | 00:00:00 | |
| IW2NTF | 2026-09-04 23:56:02 | 46.81100 | 7.68590 | 85° | 46km/h | 17373m | 3.9m/s | -61.4°C | 6.4% | 0hPa | 2.7V | 08:30:00 | 01:21:16 | 00:00:00 | |
| DF7PN | 2026-09-04 23:55:57 | 46.81090 | 7.68504 | 74° | 46km/h | 17350m | 4.3m/s | -61.3°C | 2.0% | -1.0hPa | 2.6V | 00:00:00 | 00:00:00 | 00:00:00 | |
| DK5PH-5 | 2026-09-04 23:55:54 | 46.81083 | 7.68470 | 72° | 44km/h | 17340m | 4.4m/s | -61.3°C | 6.4% | 0hPa | 2.6V | 00:00:00 | 01:21:09 | 08:30:00 | |
| IW2NTF | 2026-09-04 23:55:52 | 46.81073 | 7.68420 | 79° | 46km/h | 17325m | 4.6m/s | -61.3°C | 6.4% | 0hPa | 2.6V | 08:30:00 | 01:21:06 | 00:00:00 | |
| HASLITAL | 2026-09-04 23:55:52 | 46.81079 | 7.68453 | 73° | 49km/h | 17336m | 4.0m/s | -61.3°C | 2.3% | 0hPa | 2.7V | 00:00:00 | 00:00:00 | 00:00:00 | |
| DB0UT-7 | 2026-09-04 23:55:49 | 46.81069 | 7.68386 | 83° | 44km/h | 17316m | 5.3m/s | -61.2°C | 6.4% | 0hPa | 2.7V | 00:00:00 | 01:21:04 | 00:00:00 | |
| HARRO8 | 2026-09-04 23:55:44 | 46.81065 | 7.68289 | 82° | 44km/h | 17288m | 5.5m/s | -61.1°C | 2.1% | -1.0hPa | 2.6V | 00:00:00 | 00:00:00 | 00:00:00 | |
| IW2NTF | 2026-09-04 23:55:42 | 46.81060 | 7.68256 | 76° | 46km/h | 17277m | 4.9m/s | -61°C | 6.3% | 0hPa | 2.6V | 08:30:00 | 01:20:56 | 00:00:00 | |
| DL1ZP-14 | 2026-09-04 23:55:38 | 46.81047 | 7.68191 | 71° | 47km/h | 17258m | 4.8m/s | -60.8°C | 2.0% | -1.0hPa | 2.6V | 00:00:00 | 00:00:00 | 00:00:00 | |
| IW2NTF | 2026-09-04 23:55:32 | 46.81033 | 7.68102 | 79° | 42km/h | 17229m | 5.2m/s | -60.6°C | 6.2% | 0hPa | 2.6V | 08:30:00 | 01:20:46 | 00:00:00 | |
| DF7PN | 2026-09-04 23:55:26 | 46.81019 | 7.68010 | 80° | 44km/h | 17200m | 5.5m/s | -60.4°C | 2.0% | -1.0hPa | 2.7V | 00:00:00 | 00:00:00 | 00:00:00 | |
| DK5PH-5 | 2026-09-04 23:55:24 | 46.81017 | 7.67994 | 82° | 47km/h | 17196m | 4.7m/s | -60.3°C | 6.2% | 0hPa | 2.7V | 00:00:00 | 01:20:39 | 00:00:00 | |
| IW2NTF | 2026-09-04 23:55:22 | 46.81010 | 7.67942 | 74° | 47km/h | 17181m | 5.4m/s | -60.2°C | 6.2% | 0hPa | 2.7V | 08:30:00 | 01:20:36 | 00:00:00 | |
| DB0UT-7 | 2026-09-04 23:55:19 | 46.81004 | 7.67908 | 75° | 47km/h | 17173m | 3.8m/s | -60.1°C | 6.1% | 0hPa | 2.6V | 00:00:00 | 00:00:00 | 00:00:00 | |
| IW2NTF | 2026-09-04 23:55:13 | 46.80993 | 7.67782 | 80° | 40km/h | 17134m | 5.7m/s | -59.9°C | 6.1% | 0hPa | 2.6V | 08:30:00 | 01:20:26 | 00:00:00 | |
| HASLITAL | 2026-09-04 23:55:11 | 46.80994 | 7.67796 | 82° | 38km/h | 17139m | 3.9m/s | -59.9°C | 2.2% | 0hPa | 2.6V | 00:00:00 | 00:00:00 | 00:00:00 | |
| DL1ZP-14 | 2026-09-04 23:55:07 | 46.80978 | 7.67699 | 72° | 49km/h | 17108m | 4.4m/s | -59.6°C | 1.9% | -1.0hPa | 2.6V | 00:00:00 | 00:00:00 | 00:00:00 | |
| DB0ND-19 | 2026-09-04 23:55:04 | 46.80969 | 7.67644 | 80° | 53km/h | 17091m | 5.5m/s | -59.5°C | -1.0% | -1.0hPa | 2.6V | 00:00:00 | 00:00:00 | 00:00:00 | |
| IW2NTF | 2026-09-04 23:55:02 | 46.80965 | 7.67605 | 79° | 51km/h | 17081m | 5.8m/s | -59.5°C | 6% | 0hPa | 2.6V | 08:30:00 | 01:20:16 | 00:00:00 | |
| DO3MHA-11 | 2026-09-04 23:55:00 | 46.80962 | 7.67587 | 79° | 49km/h | 17076m | 5.4m/s | -59.4°C | 6.0% | 0hPa | 2.6V | 00:00:00 | 01:20:15 | 00:00:00 | |
| DK5PH-5 | 2026-09-04 23:54:54 | 46.80944 | 7.67488 | 71° | 49km/h | 17044m | 4.2m/s | -59.2°C | 6.0% | 0hPa | 2.6V | 00:00:00 | 01:20:09 | 00:00:00 | |
| IW2NTF | 2026-09-04 23:54:52 | 46.80933 | 7.67434 | 76° | 51km/h | 17029m | 5.3m/s | -59.2°C | 5.9% | 0hPa | 2.6V | 08:30:00 | 01:20:06 | 00:00:00 | |
| HASLITAL | 2026-09-04 23:54:50 | 46.80933 | 7.67434 | 78° | 51km/h | 17029m | 5.3m/s | -59.2°C | 2.2% | 0hPa | 2.7V | 00:00:00 | 00:00:00 | 00:00:00 | |
| DO3MHA-11 | 2026-09-04 23:54:49 | 46.80927 | 7.67397 | 78° | 51km/h | 17019m | 5.5m/s | -59.1°C | 5.9% | 0hPa | 2.7V | 00:00:00 | 01:20:04 | 00:00:00 | |
| IW2NTF | 2026-09-04 23:54:42 | 46.80904 | 7.67250 | 72° | 51km/h | 16979m | 5.8m/s | -58.9°C | 5.8% | 0hPa | 2.7V | 08:30:00 | 01:19:56 | 00:00:00 | |
| HARRO8 | 2026-09-04 23:54:41 | 46.80904 | 7.67250 | 72° | 49km/h | 16979m | 5.8m/s | -58.9°C | 2.0% | -1.0hPa | 2.6V | 00:00:00 | 00:00:00 | 00:00:00 | |
| DO3MHA-11 | 2026-09-04 23:54:38 | 46.80893 | 7.67199 | 72° | 47km/h | 16964m | 4.2m/s | -58.8°C | 5.8% | 0hPa | 2.6V | 00:00:00 | 01:19:53 | 08:30:00 | |
| DL1ZP-14 | 2026-09-04 23:54:36 | 46.80880 | 7.67150 | 68° | 46km/h | 16949m | 5.2m/s | -58.8°C | 2.0% | -1.0hPa | 2.6V | 00:00:00 | 00:00:00 | 00:00:00 | |
| IW2NTF | 2026-09-04 23:54:33 | 46.80865 | 7.67083 | 74° | 49km/h | 16929m | 4.6m/s | -58.7°C | 5.9% | 0hPa | 2.7V | 08:30:00 | 01:19:46 | 00:00:00 | |
| HASLITAL | 2026-09-04 23:54:30 | 46.80865 | 7.67083 | 75° | 49km/h | 16929m | 4.6m/s | -58.7°C | 2.2% | 0hPa | 2.6V | 00:00:00 | 00:00:00 | 00:00:00 | |
| DO3MHA-11 | 2026-09-04 23:54:28 | 46.80856 | 7.67032 | 77° | 47km/h | 16915m | 4.3m/s | -58.7°C | 5.9% | 0hPa | 2.6V | 00:00:00 | 01:19:43 | 00:00:00 | |
| DF7PN | 2026-09-04 23:54:24 | 46.80837 | 7.66949 | 68° | 46km/h | 16891m | 5.5m/s | -58.7°C | 2.1% | -1.0hPa | 2.6V | 00:00:00 | 00:00:00 | 00:00:00 | |
| IW2NTF | 2026-09-04 23:54:22 | 46.80829 | 7.66917 | 67° | 47km/h | 16881m | 4.8m/s | -58.7°C | 6.1% | 0hPa | 2.6V | 08:30:00 | 01:19:36 | 00:00:00 | |
| DB0UT-7 | 2026-09-04 23:54:19 | 46.80820 | 7.66885 | 69° | 44km/h | 16872m | 3.9m/s | -58.6°C | 6.1% | 0hPa | 2.7V | 00:00:00 | 00:00:00 | 08:30:00 | |
| DO3MHA-11 | 2026-09-04 23:54:18 | 46.80816 | 7.66869 | 72° | 44km/h | 16868m | 5.2m/s | -58.6°C | 6.1% | 0hPa | 2.6V | 00:00:00 | 01:19:33 | 00:00:00 | |
| IW2NTF | 2026-09-04 23:54:16 | 46.80796 | 7.66761 | 71° | 40km/h | 16836m | 4.6m/s | -58.4°C | 5.9% | 0hPa | 2.6V | 08:30:00 | 01:19:26 | 00:00:00 | |
| HASLITAL | 2026-09-04 23:54:11 | 46.80796 | 7.66761 | 72° | 40km/h | 16836m | 4.6m/s | -58.4°C | 2.3% | 0hPa | 2.7V | 00:00:00 | 00:00:00 | 00:00:00 | |
| DO3MHA-11 | 2026-09-04 23:54:08 | 46.80784 | 7.66718 | 66° | 46km/h | 16821m | 4.4m/s | -58.2°C | 5.9% | 0hPa | 2.7V | 00:00:00 | 01:19:23 | 00:00:00 | |
| IW2NTF | 2026-09-04 23:54:06 | 46.80764 | 7.66600 | 82° | 46km/h | 16790m | 4.5m/s | -58.1°C | 6.1% | 0hPa | 2.6V | 08:30:00 | 01:19:16 | 00:00:00 | |
| DL1ZP-14 | 2026-09-04 23:54:05 | 46.80770 | 7.66653 | 79° | 47km/h | 16803m | 4.8m/s | -58.2°C | 2.2% | -1.0hPa | 2.6V | 00:00:00 | 00:00:00 | 00:00:00 | |
| DB0ND-19 | 2026-09-04 23:54:02 | 46.80721 | 7.66414 | 69° | 47km/h | 16740m | 3.6m/s | 0°C | -1.0% | -1.0hPa | 2.7V | 00:00:00 | 00:00:00 | 00:00:00 | |
| DO3MHA-11 | 2026-09-04 23:53:58 | 46.80758 | 7.66553 | 75° | 46km/h | 16778m | 4.7m/s | -58.1°C | 6.1% | 0hPa | 2.7V | 00:00:00 | 01:19:13 | 00:00:00 | |
| IW2NTF | 2026-09-04 23:53:56 | 46.80730 | 7.66447 | 67° | 47km/h | 16748m | 5m/s | -58.3°C | 6.1% | 0hPa | 2.7V | 08:30:00 | 01:19:06 | 00:00:00 | |
| DF7PN | 2026-09-04 23:53:52 | 46.80735 | 7.66464 | 68° | 46km/h | 16753m | 4.2m/s | -58.3°C | 2.3% | -1.0hPa | 2.6V | 00:00:00 | 00:00:00 | 00:00:00 | |
| DB0UT-7 | 2026-09-04 23:53:49 | 46.80721 | 7.66414 | 70° | 49km/h | 16740m | 3.5m/s | -58.2°C | 6.2% | 0hPa | 2.6V | 00:00:00 | 01:19:04 | 00:00:00 | |
| DO3MHA-11 | 2026-09-04 23:53:48 | 46.80717 | 7.66397 | 73° | 49km/h | 16737m | 4.3m/s | -58.2°C | 6.2% | 0hPa | 2.6V | 00:00:00 | 01:19:03 | 00:00:00 | |
| IW2NTF | 2026-09-04 23:53:46 | 46.80708 | 7.66271 | 88° | 51km/h | 16706m | 4m/s | -58°C | 6% | 0hPa | 2.6V | 08:30:00 | 01:18:56 | 00:00:00 | |
| DH7VM-15 | 2026-09-04 23:53:45 | 46.80712 | 7.66364 | 83° | 47km/h | 16728m | 3.8m/s | -58.2°C | 2.5% | 0hPa | 2.6V | 00:00:00 | 00:00:00 | 00:00:00 | |
| DF3TZ-5 | 2026-09-04 23:53:40 | 46.80707 | 7.66234 | 86° | 49km/h | 16698m | 4.5m/s | -58.1°C | 2.4% | -1.0hPa | 2.6V | 00:00:00 | 00:00:00 | 00:00:00 | |
| HARRO8 | 2026-09-04 23:53:39 | 46.80707 | 7.66234 | 86° | 49km/h | 16698m | 4.5m/s | -58.1°C | 2.4% | -1.0hPa | 2.6V | 00:00:00 | 00:00:00 | 00:00:00 | |
| DO3MHA-11 | 2026-09-04 23:53:38 | 46.80706 | 7.66216 | 84° | 47km/h | 16695m | 3.5m/s | -58.1°C | 6.0% | 0hPa | 2.6V | 00:00:00 | 01:18:53 | 00:00:00 | |
| DL1ZP-14 | 2026-09-04 23:53:33 | 46.80696 | 7.66130 | 78° | 47km/h | 16675m | 4.0m/s | -58.4°C | 2.4% | -1.0hPa | 2.6V | 00:00:00 | 00:00:00 | 00:00:00 | |
| HASLITAL | 2026-09-04 23:53:30 | 46.80689 | 7.66060 | 88° | 49km/h | 16660m | 4.0m/s | -59.0°C | 2.7% | 0hPa | 2.6V | 00:00:00 | 00:00:00 | 00:00:00 | |
| DO3MHA-11 | 2026-09-04 23:53:28 | 46.80688 | 7.66041 | 88° | 51km/h | 16656m | 4.1m/s | -59.1°C | 6.4% | 0hPa | 2.6V | 00:00:00 | 01:18:43 | 00:00:00 | |
| DH7VM-15 | 2026-09-04 23:53:26 | 46.80687 | 7.66004 | 88° | 49km/h | 16649m | 3.9m/s | -59.5°C | 2.8% | 0hPa | 2.6V | 00:00:00 | 00:00:00 | 00:00:00 | |
| DK5PH-5 | 2026-09-04 23:53:24 | 46.80685 | 7.65969 | 84° | 62km/h | 16642m | 2.6m/s | -59.7°C | 6.4% | 0hPa | 2.6V | 00:00:00 | 01:18:39 | 00:00:00 | |
| DB0UT-7 | 2026-09-04 23:53:19 | 46.80680 | 7.65873 | 89° | 64km/h | 16626m | 3.6m/s | -61.4°C | 7.5% | 0hPa | 2.6V | 00:00:00 | 00:00:00 | 00:00:00 | |
| DO3MHA-11 | 2026-09-04 23:53:18 | 46.80679 | 7.65851 | 89° | 66km/h | 16623m | 3.2m/s | -61.5°C | 7.6% | 0hPa | 2.6V | 00:00:00 | 01:18:33 | 00:00:00 | |
| DO3MHA-11 | 2026-09-04 23:53:08 | 46.80671 | 7.65611 | 92° | 66km/h | 16591m | 3.1m/s | -61.6°C | 7.8% | 0hPa | 2.6V | 00:00:00 | 01:18:23 | 08:30:00 | |
| DH7VM-15 | 2026-09-04 23:53:04 | 46.80671 | 7.65537 | 89° | 66km/h | 16582m | 1.9m/s | -61.6°C | 3.4% | 0hPa | 2.6V | 00:00:00 | 00:00:00 | 00:00:00 | |
| DL1ZP-14 | 2026-09-04 23:53:02 | 46.80667 | 7.65465 | 83° | 64km/h | 16573m | 1.8m/s | -61.6°C | 3.1% | -1.0hPa | 2.6V | 00:00:00 | 00:00:00 | 00:00:00 | |
| DF7PN | 2026-09-04 23:52:50 | 46.80669 | 7.65185 | 90° | 60km/h | 16541m | 2.7m/s | -61.6°C | 3.2% | -1.0hPa | 2.7V | 00:00:00 | 00:00:00 | 00:00:00 | |
| DB0UT-7 | 2026-09-04 23:52:49 | 46.80669 | 7.65161 | 91° | 60km/h | 16538m | 2.6m/s | -61.5°C | 7.7% | 0hPa | 2.7V | 00:00:00 | 01:18:04 | 00:00:00 | |
| HASLITAL | 2026-09-04 23:52:47 | 46.80670 | 7.65137 | 92° | 66km/h | 16535m | 2.6m/s | -61.6°C | 3.4% | 0hPa | 2.6V | 00:00:00 | 00:00:00 | 00:00:00 | |
| DO3MHA-11 | 2026-09-04 23:52:45 | 46.80671 | 7.65063 | 94° | 60km/h | 16528m | 2.6m/s | -61.5°C | 7.8% | 0hPa | 2.6V | 00:00:00 | 01:18:00 | 00:00:00 | |
| DH7VM-15 | 2026-09-04 23:52:44 | 46.80672 | 7.65063 | 94° | 66km/h | 16528m | 2.6m/s | -61.5°C | 3.4% | 0hPa | 2.6V | 00:00:00 | 00:00:00 | 00:00:00 | |
| HARRO8 | 2026-09-04 23:52:37 | 46.80686 | 7.64884 | 91° | 55km/h | 16508m | 2.2m/s | -61.6°C | 0% | -1.0hPa | 2.6V | 00:00:00 | 00:00:00 | 00:00:00 | |
| DO3MHA-11 | 2026-09-04 23:52:35 | 46.80686 | 7.64841 | 93° | 60km/h | 16502m | 2.2m/s | -61.5°C | 7.7% | 0hPa | 2.6V | 00:00:00 | 01:17:50 | 00:00:00 | |
| DL1ZP-14 | 2026-09-04 23:52:31 | 46.80690 | 7.64754 | 95° | 60km/h | 16492m | 2.3m/s | -61.5°C | 3.1% | -1.0hPa | 2.6V | 00:00:00 | 00:00:00 | 00:00:00 | |
| HASLITAL | 2026-09-04 23:52:26 | 46.80701 | 7.64662 | 102° | 60km/h | 16481m | 3.3m/s | -61.5°C | 3.4% | 0hPa | 2.6V | 00:00:00 | 00:00:00 | 00:00:00 | |
| DK5PH-5 | 2026-09-04 23:52:24 | 46.80706 | 7.64602 | 94° | 58km/h | 16473m | 2.2m/s | -61.6°C | 7.5% | 0hPa | 2.6V | 00:00:00 | 01:17:39 | 00:00:00 | |
| DB0UT-7 | 2026-09-04 23:52:19 | 46.80711 | 7.64505 | 92° | 58km/h | 16460m | 3.2m/s | -62.3°C | 8.0% | 0hPa | 2.6V | 00:00:00 | 00:00:00 | 00:00:00 | |
| DO3MHA-11 | 2026-09-04 23:52:15 | 46.80713 | 7.64421 | 97° | 58km/h | 16447m | 3.3m/s | -62.4°C | 8.2% | 0hPa | 2.6V | 00:00:00 | 01:17:30 | 00:00:00 | |
| IW2NTF | 2026-09-04 23:52:09 | 46.80730 | 7.64186 | 95° | 58km/h | 16411m | 3m/s | -62.6°C | 8.1% | 0hPa | 2.6V | 08:30:00 | 01:17:19 | 00:00:00 | |
| HARRO8 | 2026-09-04 23:52:06 | 46.80728 | 7.64229 | 92° | 58km/h | 16418m | 2.8m/s | -62.6°C | 3.3% | -1.0hPa | 2.7V | 00:00:00 | 00:00:00 | 00:00:00 | |
| DO3MHA-11 | 2026-09-04 23:52:05 | 46.80729 | 7.64208 | 94° | 60km/h | 16415m | 3.9m/s | -62.6°C | 8.1% | 0hPa | 2.7V | 00:00:00 | 01:17:20 | 00:00:00 | |
| IW2NTF | 2026-09-04 23:52:00 | 46.80738 | 7.63966 | 88° | 58km/h | 16375m | 4.3m/s | -63.3°C | 8.7% | 0hPa | 2.7V | 08:30:00 | 01:17:09 | 00:00:00 | |
| DF7PN | 2026-09-04 23:51:49 | 46.80734 | 7.63839 | 90° | 55km/h | 16352m | 3.8m/s | -63.2°C | 3.5% | -1.0hPa | 2.6V | 00:00:00 | 00:00:00 | 00:00:00 | |
| IW2NTF | 2026-09-04 23:51:47 | 46.80737 | 7.63709 | 90° | 60km/h | 16328m | 3.8m/s | -62.9°C | 8.4% | 0hPa | 2.6V | 08:30:00 | 01:16:57 | 00:00:00 | |
| DO3MHA-11 | 2026-09-04 23:51:45 | 46.80735 | 7.63775 | 93° | 60km/h | 16341m | 3.1m/s | -63.0°C | 8.5% | 0hPa | 2.7V | 00:00:00 | 01:17:00 | 00:00:00 | |
| HASLITAL | 2026-09-04 23:51:44 | 46.80735 | 7.63775 | 93° | 60km/h | 16341m | 3.1m/s | -63.1°C | 3.8% | 0hPa | 2.7V | 00:00:00 | 00:00:00 | 00:00:00 | |
| IW2NTF | 2026-09-04 23:51:37 | 46.80728 | 7.63494 | 86° | 53km/h | 16285m | 4.2m/s | -62.7°C | 8.4% | 0hPa | 2.7V | 08:30:00 | 01:16:47 | 00:00:00 | |
| DO3MHA-11 | 2026-09-04 23:51:35 | 46.80730 | 7.63554 | 86° | 58km/h | 16298m | 5.2m/s | -62.7°C | 8.4% | 0hPa | 2.6V | 00:00:00 | 01:16:50 | 08:30:00 | |
| DL1ZP-14 | 2026-09-04 23:51:29 | 46.80727 | 7.63433 | 89° | 58km/h | 16273m | 5.3m/s | -62.6°C | 3.4% | -1.0hPa | 2.6V | 00:00:00 | 00:00:00 | 00:00:00 | |
| IW2NTF | 2026-09-04 23:51:26 | 46.80725 | 7.63253 | 91° | 58km/h | 16234m | 4.4m/s | -62.4°C | 8.1% | 0hPa | 2.7V | 08:30:00 | 01:16:36 | 00:00:00 | |
| DO3MHA-11 | 2026-09-04 23:51:25 | 46.80725 | 7.63339 | 88° | 60km/h | 16254m | 4.9m/s | -62.4°C | 8.2% | 0hPa | 2.6V | 00:00:00 | 01:16:40 | 00:00:00 | |
| DK5PH-5 | 2026-09-04 23:51:24 | 46.80725 | 7.63317 | 89° | 62km/h | 16249m | 4.6m/s | -62.4°C | 8.2% | 0hPa | 2.6V | 00:00:00 | 01:16:39 | 08:30:00 | |
| DH7VM-15 | 2026-09-04 23:51:23 | 46.80725 | 7.63317 | 89° | 60km/h | 16249m | 4.7m/s | -62.4°C | 3.6% | 0hPa | 2.6V | 00:00:00 | 00:00:00 | 00:00:00 | |
| DB0UT-7 | 2026-09-04 23:51:19 | 46.80725 | 7.63209 | 88° | 62km/h | 16223m | 5.2m/s | -62.3°C | 8.2% | 0hPa | 2.6V | 00:00:00 | 00:00:00 | 00:00:00 | |
| DF7PN | 2026-09-04 23:51:17 | 46.80722 | 7.63163 | 85° | 64km/h | 16213m | 3.3m/s | -62.4°C | 3.4% | -1.0hPa | 2.6V | 00:00:00 | 00:00:00 | 00:00:00 | |
| DO3MHA-11 | 2026-09-04 23:51:15 | 46.80720 | 7.63116 | 88° | 64km/h | 16205m | 4.9m/s | -62.4°C | 8.3% | 0hPa | 2.6V | 00:00:00 | 01:16:30 | 00:00:00 | |
| IW2NTF | 2026-09-04 23:51:10 | 46.80724 | 7.62983 | 100° | 66km/h | 16176m | 6m/s | -62.3°C | 7.9% | 0hPa | 2.6V | 08:30:00 | 01:16:24 | 00:00:00 | |
| IW2NTF | 2026-09-04 23:51:05 | 46.80740 | 7.62750 | 90° | 57km/h | 16125m | 4.9m/s | -62.5°C | 8.2% | 0hPa | 2.6V | 08:30:00 | 01:16:14 | 00:00:00 | |
| HARRO8 | 2026-09-04 23:51:04 | 46.80737 | 7.62861 | 93° | 62km/h | 16150m | 4.4m/s | -62.4°C | 3.3% | -1.0hPa | 2.6V | 00:00:00 | 00:00:00 | 00:00:00 | |
| HASLITAL | 2026-09-04 23:51:03 | 46.80737 | 7.62861 | 94° | 64km/h | 16150m | 4.4m/s | -62.4°C | 3.6% | 0hPa | 2.6V | 00:00:00 | 00:00:00 | 00:00:00 | |
| DL1ZP-14 | 2026-09-04 23:50:58 | 46.80741 | 7.62729 | 92° | 57km/h | 16121m | 4.2m/s | -62.5°C | 3.4% | -1.0hPa | 2.6V | 00:00:00 | 00:00:00 | 00:00:00 | |
| DO3MHA-11 | 2026-09-04 23:50:55 | 46.80748 | 7.62665 | 104° | 58km/h | 16106m | 3.9m/s | -62.4°C | 8.3% | 0hPa | 2.7V | 00:00:00 | 01:16:10 | 00:00:00 | |
| IW2NTF | 2026-09-04 23:50:54 | 46.80766 | 7.62537 | 103° | 55km/h | 16078m | 4.5m/s | -62.2°C | 8.3% | 0hPa | 2.7V | 08:30:00 | 01:16:04 | 00:00:00 | |
| DF7PN | 2026-09-04 23:50:46 | 46.80775 | 7.62478 | 101° | 55km/h | 16063m | 4.4m/s | -62.1°C | 3.4% | -1.0hPa | 2.7V | 00:00:00 | 00:00:00 | 00:00:00 | |
| DO3MHA-11 | 2026-09-04 23:50:45 | 46.80778 | 7.62458 | 105° | 60km/h | 16059m | 4.8m/s | -62.0°C | 8.1% | 0hPa | 2.7V | 00:00:00 | 01:16:00 | 00:00:00 | |
| IW2NTF | 2026-09-04 23:50:44 | 46.80805 | 7.62332 | 105° | 62km/h | 16029m | 4.5m/s | -61.9°C | 8.1% | 0hPa | 2.7V | 08:30:00 | 01:15:54 | 00:00:00 | |
| HASLITAL | 2026-09-04 23:50:43 | 46.80782 | 7.62438 | 108° | 58km/h | 16054m | 5.5m/s | -62.0°C | 3.7% | 0hPa | 2.6V | 00:00:00 | 00:00:00 | 00:00:00 | |
| DO3MHA-11 | 2026-09-04 23:50:35 | 46.80820 | 7.62245 | 103° | 60km/h | 16009m | 5.1m/s | -61.7°C | 8.1% | 0hPa | 2.6V | 00:00:00 | 01:15:50 | 00:00:00 | |
| IW2NTF | 2026-09-04 23:50:34 | 46.80840 | 7.62118 | 102° | 60km/h | 15979m | 4.9m/s | -61.6°C | 8% | 0hPa | 2.6V | 08:30:00 | 01:15:44 | 00:00:00 | |
| DF3TZ-5 | 2026-09-04 23:50:34 | 46.80826 | 7.62204 | 103° | 57km/h | 15999m | 5.8m/s | -61.7°C | -1.0% | -1.0hPa | 2.7V | 00:00:00 | 00:00:00 | 00:00:00 | |
| HARRO8 | 2026-09-04 23:50:33 | 46.80826 | 7.62204 | 103° | 57km/h | 15999m | 5.8m/s | -61.7°C | 3.4% | -1.0hPa | 2.7V | 00:00:00 | 00:00:00 | 00:00:00 | |
| DL1ZP-14 | 2026-09-04 23:50:27 | 46.80847 | 7.62073 | 104° | 64km/h | 15968m | 5.1m/s | -61.6°C | 3.3% | -1.0hPa | 2.7V | 00:00:00 | 00:00:00 | 00:00:00 | |
| DO3MHA-11 | 2026-09-04 23:50:25 | 46.80856 | 7.62027 | 105° | 62km/h | 15960m | 5.0m/s | -61.5°C | 7.9% | 0hPa | 2.6V | 00:00:00 | 01:15:40 | 00:00:00 | |
| IW2NTF | 2026-09-04 23:50:24 | 46.80875 | 7.61892 | 100° | 62km/h | 15929m | 5.7m/s | -61.4°C | 7.9% | 0hPa | 2.6V | 08:30:00 | 01:15:34 | 00:00:00 | |
| DK5PH-5 | 2026-09-04 23:50:24 | 46.80860 | 7.62004 | 103° | 62km/h | 15955m | 5.6m/s | -61.5°C | 7.9% | 0hPa | 2.6V | 00:00:00 | 01:15:39 | 00:00:00 | |
| HASLITAL | 2026-09-04 23:50:23 | 46.80859 | 7.62004 | 104° | 62km/h | 15955m | 5.7m/s | -61.5°C | 3.6% | 0hPa | 2.6V | 00:00:00 | 00:00:00 | 00:00:00 | |
| DB0UT-7 | 2026-09-04 23:50:19 | 46.80875 | 7.61892 | 101° | 60km/h | 15929m | 5.6m/s | -61.4°C | 7.9% | 0hPa | 2.6V | 00:00:00 | 00:00:00 | 00:00:00 | |
| IW2NTF | 2026-09-04 23:50:16 | 46.80908 | 7.61664 | 104° | 64km/h | 15879m | 4.3m/s | -61.5°C | 8% | 0hPa | 2.6V | 08:30:00 | 01:15:24 | 00:00:00 | |
| DO3MHA-11 | 2026-09-04 23:50:05 | 46.80916 | 7.61575 | 92° | 62km/h | 15860m | 5.3m/s | -61.5°C | 8.0% | 0hPa | 2.6V | 00:00:00 | 01:15:20 | 08:30:00 | |
| IW2NTF | 2026-09-04 23:50:04 | 46.80920 | 7.61441 | 100° | 62km/h | 15829m | 5.7m/s | -61.6°C | 8% | 0hPa | 2.6V | 08:30:00 | 01:15:14 | 00:00:00 | |
| HASLITAL | 2026-09-04 23:50:04 | 46.80916 | 7.61553 | 92° | 60km/h | 15854m | 6.3m/s | -61.6°C | 3.7% | 0hPa | 2.7V | 00:00:00 | 00:00:00 | 00:00:00 | |
| HARRO8 | 2026-09-04 23:50:02 | 46.80917 | 7.61508 | 90° | 60km/h | 15844m | 4.6m/s | -61.6°C | 3.5% | -1.0hPa | 2.7V | 00:00:00 | 00:00:00 | 00:00:00 | |
| DH7VM-15 | 2026-09-04 23:50:01 | 46.80917 | 7.61508 | 92° | 60km/h | 15844m | 4.6m/s | -61.6°C | 0% | 0hPa | 2.7V | 00:00:00 | 00:00:00 | 00:00:00 | |
| DL1ZP-14 | 2026-09-04 23:49:56 | 46.80933 | 7.61374 | 108° | 58km/h | 15814m | 5.2m/s | -61.7°C | 3.5% | -1.0hPa | 2.7V | 00:00:00 | 00:00:00 | 00:00:00 | |
| DO3MHA-11 | 2026-09-04 23:49:55 | 46.80937 | 7.61354 | 108° | 53km/h | 15809m | 6.0m/s | -61.7°C | 8.2% | 0hPa | 2.6V | 00:00:00 | 01:15:10 | 00:00:00 | |
| IW2NTF | 2026-09-04 23:49:54 | 46.80951 | 7.61236 | 97° | 58km/h | 15780m | 4.8m/s | -61.8°C | 8.2% | 0hPa | 2.6V | 08:30:00 | 01:15:04 | 00:00:00 | |
| DK5PH-5 | 2026-09-04 23:49:54 | 46.80941 | 7.61335 | 105° | 51km/h | 15804m | 3.4m/s | -61.7°C | 8.3% | 0hPa | 2.6V | 00:00:00 | 01:15:09 | 00:00:00 | |
| DB0UT-7 | 2026-09-04 23:49:49 | 46.80951 | 7.61236 | 98° | 51km/h | 15781m | 4.7m/s | -61.7°C | 8.2% | 0hPa | 2.6V | 00:00:00 | 01:15:04 | 08:30:00 | |
| IW2NTF | 2026-09-04 23:49:44 | 46.80968 | 7.61049 | 95° | 47km/h | 15733m | 5m/s | -61.7°C | 8.3% | 0hPa | 2.7V | 08:30:00 | 01:14:54 | 00:00:00 | |
| HASLITAL | 2026-09-04 23:49:43 | 46.80963 | 7.61121 | 98° | 49km/h | 15751m | 4.6m/s | -61.7°C | 3.9% | 0hPa | 2.7V | 00:00:00 | 00:00:00 | 00:00:00 | |
| IW2NTF | 2026-09-04 23:49:34 | 46.80988 | 7.60865 | 97° | 55km/h | 15688m | 4.4m/s | -61.4°C | 8.2% | 0hPa | 2.7V | 08:30:00 | 01:14:44 | 00:00:00 | |
| HARRO8 | 2026-09-04 23:49:31 | 46.80985 | 7.60906 | 98° | 55km/h | 15697m | 4.8m/s | -61.5°C | 3.6% | -1.0hPa | 2.7V | 00:00:00 | 00:00:00 | 00:00:00 | |
| DL1ZP-14 | 2026-09-04 23:49:25 | 46.80996 | 7.60770 | 97° | 49km/h | 15667m | 4.0m/s | -61.3°C | 3.6% | -1.0hPa | 2.7V | 00:00:00 | 00:00:00 | 00:00:00 | |
| IW2NTF | 2026-09-04 23:49:24 | 46.81009 | 7.60675 | 104° | 58km/h | 15645m | 4.1m/s | -61.1°C | 8.3% | 0hPa | 2.7V | 08:30:00 | 01:14:34 | 00:00:00 | |
| DK5PH-5 | 2026-09-04 23:49:24 | 46.80996 | 7.60770 | 98° | 57km/h | 15667m | 3.9m/s | -61.2°C | 8.3% | 0hPa | 2.6V | 00:00:00 | 01:14:39 | 00:00:00 | |
| HASLITAL | 2026-09-04 23:49:22 | 46.80998 | 7.60752 | 100° | 49km/h | 15663m | 4.6m/s | -61.2°C | 4.0% | 0hPa | 2.6V | 00:00:00 | 00:00:00 | 00:00:00 | |
| DB0UT-7 | 2026-09-04 23:49:19 | 46.81009 | 7.60675 | 105° | 57km/h | 15646m | 4.1m/s | -61.1°C | 8.3% | 0hPa | 2.6V | 00:00:00 | 00:00:00 | 00:00:00 | |
| DO3MHA-11 | 2026-09-04 23:49:17 | 46.81017 | 7.60633 | 105° | 55km/h | 15637m | 4.5m/s | -61.1°C | 8.5% | 0hPa | 2.6V | 00:00:00 | 01:14:32 | 00:00:00 | |
| IW2NTF | 2026-09-04 23:49:15 | 46.81036 | 7.60477 | 103° | 49km/h | 15605m | 3m/s | -60.9°C | 8.4% | 0hPa | 2.6V | 08:30:00 | 01:14:24 | 00:00:00 | |
| DF7PN | 2026-09-04 23:49:13 | 46.81028 | 7.60552 | 97° | 55km/h | 15620m | 3.4m/s | -61.0°C | 3.7% | -1.0hPa | 2.7V | 00:00:00 | 00:00:00 | 00:00:00 | |
| DO3MHA-11 | 2026-09-04 23:49:03 | 46.81059 | 7.60357 | 105° | 58km/h | 15583m | 3.3m/s | -60.8°C | 8.5% | 0hPa | 2.7V | 00:00:00 | 01:14:18 | 00:00:00 | |
| IW2NTF | 2026-09-04 23:49:01 | 46.81071 | 7.60269 | 99° | 58km/h | 15567m | 3.7m/s | -60.9°C | 8.6% | 0hPa | 2.6V | 08:30:00 | 01:14:14 | 00:00:00 | |
| HARRO8 | 2026-09-04 23:49:00 | 46.81069 | 7.60291 | 99° | 60km/h | 15571m | 3.2m/s | -60.9°C | 3.9% | -1.0hPa | 2.6V | 00:00:00 | 00:00:00 | 00:00:00 | |
| IW2NTF | 2026-09-04 23:48:54 | 46.81104 | 7.60062 | 101° | 57km/h | 15532m | 4.4m/s | -61.1°C | 8.9% | 0hPa | 2.6V | 08:30:00 | 01:14:04 | 00:00:00 | |
| DO3MHA-11 | 2026-09-04 23:48:50 | 46.81101 | 7.60081 | 103° | 57km/h | 15536m | 3.0m/s | -61.0°C | 8.8% | 0hPa | 2.6V | 00:00:00 | 01:14:05 | 00:00:00 | |
| DB0UT-7 | 2026-09-04 23:48:49 | 46.81104 | 7.60062 | 102° | 64km/h | 15532m | 4.4m/s | -61.0°C | 8.9% | 0hPa | 2.6V | 00:00:00 | 01:14:04 | 00:00:00 | |
| DH7VM-15 | 2026-09-04 23:48:45 | 46.81110 | 7.59999 | 97° | 57km/h | 15521m | 4.0m/s | 0°C | 0% | 0hPa | 2.6V | 00:00:00 | 00:00:00 | 00:00:00 | |
| IW2NTF | 2026-09-04 23:48:42 | 46.81118 | 7.59848 | 97° | 62km/h | 15495m | 3.4m/s | -61.1°C | 9% | 0hPa | 2.6V | 08:30:00 | 01:13:54 | 00:00:00 | |
| DO3MHA-11 | 2026-09-04 23:48:40 | 46.81116 | 7.59870 | 96° | 62km/h | 15499m | 4.1m/s | -61.0°C | 9.1% | 0hPa | 2.6V | 00:00:00 | 01:13:55 | 00:00:00 | |
| IW2NTF | 2026-09-04 23:48:31 | 46.81138 | 7.59618 | 99° | 66km/h | 15458m | 3.8m/s | -61°C | 9% | 0hPa | 2.6V | 08:30:00 | 01:13:44 | 00:00:00 | |
| DO3MHA-11 | 2026-09-04 23:48:30 | 46.81136 | 7.59642 | 99° | 69km/h | 15462m | 3.1m/s | -60.9°C | 9.1% | 0hPa | 2.7V | 00:00:00 | 01:13:45 | 00:00:00 | |
| HARRO8 | 2026-09-04 23:48:29 | 46.81152 | 7.59492 | 98° | 71km/h | 15440m | 3.0m/s | -61.1°C | 4.5% | -1.0hPa | 2.7V | 00:00:00 | 00:00:00 | 00:00:00 | |
| IW2NTF | 2026-09-04 23:48:21 | 46.81167 | 7.59367 | 101° | 68km/h | 15424m | 3.7m/s | -61.2°C | 9.3% | 0hPa | 2.7V | 08:30:00 | 01:13:34 | 00:00:00 | |
| DK5PH-5 | 2026-09-04 23:48:20 | 46.81163 | 7.59391 | 101° | 66km/h | 15428m | 3.3m/s | -61.2°C | 9.4% | 0hPa | 2.7V | 00:00:00 | 01:13:35 | 00:00:00 | |
| DB0UT-7 | 2026-09-04 23:48:19 | 46.81167 | 7.59367 | 102° | 66km/h | 15424m | 3.6m/s | -61.2°C | 9.3% | 0hPa | 2.7V | 00:00:00 | 00:00:00 | 00:00:00 | |
| IW2NTF | 2026-09-04 23:48:11 | 46.81191 | 7.59112 | 97° | 77km/h | 15391m | 4.1m/s | -61.5°C | 9.1% | 0hPa | 2.7V | 08:30:00 | 01:13:24 | 00:00:00 | |
| DF7PN | 2026-09-04 23:48:11 | 46.81188 | 7.59140 | 97° | 77km/h | 15395m | 3.5m/s | 0°C | -1.0% | -1.0hPa | 2.7V | 00:00:00 | 00:00:00 | 00:00:00 | |
| DO3MHA-11 | 2026-09-04 23:48:10 | 46.81188 | 7.59140 | 98° | 69km/h | 15395m | 3.5m/s | -61.5°C | 9.1% | 0hPa | 2.7V | 00:00:00 | 01:13:25 | 00:00:00 | |
| IW2NTF | 2026-09-04 23:48:01 | 46.81197 | 7.58872 | 86° | 57km/h | 15358m | 3m/s | -62.3°C | 10% | 0hPa | 2.7V | 08:30:00 | 01:13:14 | 00:00:00 | |
| HARRO8 | 2026-09-04 23:47:58 | 46.81196 | 7.58831 | 90° | 57km/h | 15352m | 4.2m/s | -62.4°C | 4.9% | -1.0hPa | 2.7V | 00:00:00 | 00:00:00 | 00:00:00 | |
| IW2NTF | 2026-09-04 23:47:52 | 46.81203 | 7.58648 | 91° | 66km/h | 15324m | 4.3m/s | -62.5°C | 9.9% | 0hPa | 2.7V | 08:30:00 | 01:13:04 | 00:00:00 | |
| DB0UT-7 | 2026-09-04 23:47:49 | 46.81203 | 7.58647 | 92° | 58km/h | 15324m | 4.2m/s | -62.4°C | 9.9% | 0hPa | 2.6V | 00:00:00 | 01:13:04 | 00:00:00 | |
| DO3MHA-11 | 2026-09-04 23:47:39 | 46.81195 | 7.58428 | 93° | 57km/h | 15290m | 3.2m/s | -62.4°C | 9.8% | 0hPa | 2.6V | 00:00:00 | 01:12:54 | 00:00:00 | |
| HASLITAL | 2026-09-04 23:47:38 | 46.81195 | 7.58428 | 94° | 57km/h | 15290m | 3.3m/s | -62.4°C | 5.1% | 0hPa | 2.6V | 00:00:00 | 00:00:00 | 00:00:00 | |
| DO3MHA-11 | 2026-09-04 23:47:29 | 46.81185 | 7.58220 | 79° | 55km/h | 15252m | 3.9m/s | -62.4°C | 10.3% | 0hPa | 2.6V | 00:00:00 | 01:12:44 | 00:00:00 | |
| HARRO8 | 2026-09-04 23:47:27 | 46.81179 | 7.58163 | 83° | 51km/h | 15240m | 3.6m/s | -62.4°C | 5.0% | -1.0hPa | 2.6V | 00:00:00 | 00:00:00 | 00:00:00 | |
| DK5PH-5 | 2026-09-04 23:47:20 | 46.81174 | 7.58037 | 84° | 57km/h | 15220m | 3.6m/s | -62.3°C | 10.1% | 0hPa | 2.6V | 00:00:00 | 01:12:35 | 00:00:00 | |
| DO3MHA-11 | 2026-09-04 23:47:19 | 46.81172 | 7.58017 | 80° | 55km/h | 15216m | 4.6m/s | -62.2°C | 10.1% | 0hPa | 2.6V | 00:00:00 | 01:12:34 | 00:00:00 | |
| HASLITAL | 2026-09-04 23:47:17 | 46.81169 | 7.57997 | 77° | 55km/h | 15211m | 4.3m/s | -62.3°C | 5.2% | 0hPa | 2.6V | 00:00:00 | 00:00:00 | 00:00:00 | |
| DO3MHA-11 | 2026-09-04 23:47:08 | 46.81131 | 7.57795 | 79° | 57km/h | 15169m | 4.7m/s | -61.9°C | 9.8% | 0hPa | 2.6V | 00:00:00 | 01:12:23 | 00:00:00 | |
| HARRO8 | 2026-09-04 23:46:56 | 46.81070 | 7.57507 | 80° | 53km/h | 15105m | 4.3m/s | -61.6°C | 4.6% | -1.0hPa | 2.6V | 00:00:00 | 00:00:00 | 00:00:00 | |
| DO3MHA-11 | 2026-09-04 23:46:54 | 46.81073 | 7.57526 | 81° | 57km/h | 15109m | 3.5m/s | -61.6°C | 9.6% | 0hPa | 2.6V | 00:00:00 | 01:12:09 | 00:00:00 | |
| DK5PH-5 | 2026-09-04 23:46:50 | 46.81061 | 7.57448 | 74° | 58km/h | 15093m | 4.9m/s | -61.5°C | 9.5% | 0hPa | 2.6V | 00:00:00 | 01:12:05 | 08:30:00 | |
| DB0UT-7 | 2026-09-04 23:46:49 | 46.81057 | 7.57428 | 73° | 60km/h | 15088m | 4.8m/s | -61.5°C | 9.5% | 0hPa | 2.6V | 00:00:00 | 01:12:04 | 00:00:00 | |
| DO3MHA-11 | 2026-09-04 23:46:44 | 46.81030 | 7.57325 | 72° | 58km/h | 15067m | 4.6m/s | -61.3°C | 9.2% | 0hPa | 2.6V | 00:00:00 | 01:11:59 | 00:00:00 | |
| HASLITAL | 2026-09-04 23:46:35 | 46.81001 | 7.57160 | 77° | 57km/h | 15031m | 4.1m/s | -61.2°C | 4.6% | 0hPa | 2.6V | 00:00:00 | 00:00:00 | 00:00:00 | |
| DO3MHA-11 | 2026-09-04 23:46:34 | 46.80995 | 7.57119 | 77° | 60km/h | 15022m | 5.3m/s | -61.2°C | 8.8% | 0hPa | 2.6V | 00:00:00 | 01:11:49 | 00:00:00 | |
| HARRO8 | 2026-09-04 23:46:25 | 46.80957 | 7.56902 | 78° | 58km/h | 14979m | 3.9m/s | -61.6°C | 4.3% | -1.0hPa | 2.6V | 00:00:00 | 00:00:00 | 00:00:00 | |
| DO3MHA-11 | 2026-09-04 23:46:24 | 46.80957 | 7.56902 | 79° | 62km/h | 14979m | 3.8m/s | -61.5°C | 9.1% | 0hPa | 2.6V | 00:00:00 | 01:11:39 | 08:30:00 | |
| DK5PH-5 | 2026-09-04 23:46:20 | 46.80946 | 7.56816 | 79° | 68km/h | 14961m | 4.4m/s | -61.6°C | 9.2% | 0hPa | 2.8V | 00:00:00 | 01:11:35 | 00:00:00 | |
| DB0UT-7 | 2026-09-04 23:46:19 | 46.80943 | 7.56794 | 80° | 68km/h | 14958m | 2.7m/s | -61.6°C | 9.1% | 0hPa | 2.8V | 00:00:00 | 00:00:00 | 00:00:00 | |
| DL1ZP-14 | 2026-09-04 23:46:18 | 46.80940 | 7.56771 | 79° | 62km/h | 14954m | 4.9m/s | -61.7°C | -1.0% | -1.0hPa | 2.8V | 00:00:00 | 00:00:00 | 00:00:00 | |
| DB0NH | 2026-09-04 23:46:17 | 46.80937 | 7.56748 | 82° | 69km/h | 14949m | 4.1m/s | 0°C | 0% | 0hPa | 2.6V | 00:00:00 | 01:11:32 | 00:00:00 | |
| DO3MHA-11 | 2026-09-04 23:46:14 | 46.80929 | 7.56677 | 81° | 66km/h | 14937m | 4.1m/s | -62.0°C | 9.2% | 0hPa | 2.6V | 00:00:00 | 01:11:29 | 00:00:00 | |
| DO3MHA-11 | 2026-09-04 23:46:04 | 46.80910 | 7.56438 | 85° | 68km/h | 14894m | 4.2m/s | -62.0°C | 9.5% | 0hPa | 2.6V | 00:00:00 | 01:11:19 | 00:00:00 | |
| IW2NTF | 2026-09-04 23:45:59 | 46.80908 | 7.56189 | 91° | 75km/h | 14848m | 4.5m/s | -61.8°C | 9.6% | 0hPa | 2.6V | 08:30:00 | 01:11:09 | 00:00:00 | |
| HARRO8 | 2026-09-04 23:45:54 | 46.80908 | 7.56162 | 91° | 75km/h | 14844m | 4.0m/s | -61.7°C | 4.6% | -1.0hPa | 2.6V | 00:00:00 | 00:00:00 | 00:00:00 | |
| DK5PH-5 | 2026-09-04 23:45:50 | 46.80909 | 7.56081 | 90° | 71km/h | 14830m | 3.8m/s | -61.6°C | 9.6% | 0hPa | 2.6V | 00:00:00 | 01:11:05 | 00:00:00 | |
| IW2NTF | 2026-09-04 23:45:49 | 46.80906 | 7.55925 | 89° | 73km/h | 14802m | 5m/s | -61.4°C | 9.5% | 0hPa | 2.6V | 08:30:00 | 01:10:59 | 00:00:00 | |
| DB0UT-7 | 2026-09-04 23:45:49 | 46.80908 | 7.56055 | 88° | 73km/h | 14826m | 5.3m/s | -61.5°C | 9.5% | 0hPa | 2.6V | 00:00:00 | 01:11:04 | 00:00:00 | |
| DB0NH | 2026-09-04 23:45:46 | 46.80906 | 7.55977 | 89° | 71km/h | 14812m | 5.5m/s | 0°C | 0% | 0hPa | 2.6V | 00:00:00 | 01:11:01 | 00:00:00 | |
| DO3MHA-11 | 2026-09-04 23:45:44 | 46.80906 | 7.55925 | 90° | 73km/h | 14802m | 4.9m/s | -61.4°C | 9.5% | 0hPa | 2.6V | 00:00:00 | 01:10:59 | 00:00:00 | |
| IW2NTF | 2026-09-04 23:45:39 | 46.80902 | 7.55657 | 84° | 69km/h | 14756m | 4.7m/s | -61.2°C | 9.5% | 0hPa | 2.6V | 08:30:00 | 01:10:49 | 00:00:00 | |
| DO3MHA-12 | 2026-09-04 23:45:35 | 46.80904 | 7.55682 | 86° | 73km/h | 14760m | 3.9m/s | -61.2°C | 9.6% | 0hPa | 2.6V | 00:00:00 | 01:10:50 | 00:00:00 | |
| DO3MHA-11 | 2026-09-04 23:45:34 | 46.80902 | 7.55657 | 85° | 73km/h | 14756m | 4.7m/s | -61.2°C | 9.5% | 0hPa | 2.6V | 00:00:00 | 01:10:49 | 00:00:00 | |
| HASLITAL | 2026-09-04 23:45:33 | 46.80902 | 7.55657 | 86° | 69km/h | 14756m | 4.7m/s | -61.2°C | 5.0% | 0hPa | 2.6V | 00:00:00 | 00:00:00 | 00:00:00 | |
| IW2NTF | 2026-09-04 23:45:29 | 46.80895 | 7.55389 | 86° | 77km/h | 14709m | 5.2m/s | -61.2°C | 9.7% | 0hPa | 2.6V | 08:30:00 | 01:10:39 | 00:00:00 | |
| DO3MHA-11 | 2026-09-04 23:45:24 | 46.80895 | 7.55389 | 87° | 77km/h | 14709m | 5.1m/s | -61.2°C | 9.7% | 0hPa | 2.6V | 00:00:00 | 01:10:39 | 00:00:00 | |
| HARRO8 | 2026-09-04 23:45:22 | 46.80892 | 7.55332 | 84° | 78km/h | 14700m | 4.5m/s | -61.2°C | 4.8% | -1.0hPa | 2.6V | 00:00:00 | 00:00:00 | 00:00:00 | |
| IW2NTF | 2026-09-04 23:45:19 | 46.80880 | 7.55106 | 86° | 73km/h | 14662m | 4.2m/s | -61.1°C | 9.7% | 0hPa | 2.6V | 08:30:00 | 01:10:29 | 00:00:00 | |
| DB0UT-7 | 2026-09-04 23:45:19 | 46.80886 | 7.55246 | 86° | 73km/h | 14686m | 4.3m/s | -61.0°C | 9.6% | 0hPa | 2.6V | 00:00:00 | 00:00:00 | 08:30:00 | |
| DK5PH-5 | 2026-09-04 23:45:17 | 46.80884 | 7.55189 | 87° | 75km/h | 14676m | 3.6m/s | -61.0°C | 9.6% | 0hPa | 2.7V | 00:00:00 | 01:10:32 | 00:00:00 | |
| DO3MHA-11 | 2026-09-04 23:45:14 | 46.80880 | 7.55106 | 87° | 73km/h | 14662m | 4.1m/s | -61.1°C | 9.7% | 0hPa | 2.6V | 00:00:00 | 01:10:29 | 00:00:00 | |
| HASLITAL | 2026-09-04 23:45:12 | 46.80879 | 7.55079 | 87° | 73km/h | 14658m | 5.8m/s | -61.2°C | 5.2% | 0hPa | 2.6V | 00:00:00 | 00:00:00 | 00:00:00 | |
| IW2NTF | 2026-09-04 23:45:09 | 46.80871 | 7.54837 | 87° | 75km/h | 14617m | 5.4m/s | -61.3°C | 10% | 0hPa | 2.6V | 08:30:00 | 01:10:19 | 00:00:00 | |
| DO3MHA-11 | 2026-09-04 23:45:04 | 46.80871 | 7.54837 | 88° | 73km/h | 14618m | 5.3m/s | -61.2°C | 10.0% | 0hPa | 2.6V | 00:00:00 | 01:10:19 | 00:00:00 | |
| IW2NTF | 2026-09-04 23:44:59 | 46.80863 | 7.54568 | 92° | 69km/h | 14571m | 3.6m/s | -61.3°C | 10.8% | 0hPa | 2.6V | 08:30:00 | 01:10:09 | 00:00:00 | |
| HARRO8 | 2026-09-04 23:44:52 | 46.80871 | 7.54490 | 101° | 75km/h | 14558m | 4.6m/s | -61.3°C | 5.3% | -1.0hPa | 2.6V | 00:00:00 | 00:00:00 | 00:00:00 | |
| HASLITAL | 2026-09-04 23:44:51 | 46.80868 | 7.54516 | 101° | 73km/h | 14562m | 4.7m/s | -61.3°C | 5.7% | 0hPa | 2.6V | 00:00:00 | 00:00:00 | 00:00:00 | |
| IW2NTF | 2026-09-04 23:44:49 | 46.80878 | 7.54270 | 79° | 78km/h | 14522m | 5.3m/s | -61°C | 10.4% | 0hPa | 2.6V | 08:30:00 | 01:09:59 | 00:00:00 | |
| DB0UT-7 | 2026-09-04 23:44:49 | 46.80879 | 7.54432 | 98° | 75km/h | 14548m | 4.6m/s | -61.2°C | 10.2% | 0hPa | 2.6V | 00:00:00 | 01:10:04 | 00:00:00 | |
| DH7VM-15 | 2026-09-04 23:44:46 | 46.80883 | 7.54366 | 92° | 93km/h | 14538m | 3.9m/s | 0°C | 0% | 0hPa | 2.6V | 00:00:00 | 00:00:00 | 00:00:00 | |
| DO3MHA-11 | 2026-09-04 23:44:44 | 46.80878 | 7.54270 | 80° | 69km/h | 14522m | 5.3m/s | -61.0°C | 10.4% | 0hPa | 2.6V | 00:00:00 | 01:09:59 | 00:00:00 | |
| IW2NTF | 2026-09-04 23:44:39 | 46.80881 | 7.54018 | 89° | 84km/h | 14473m | 4.9m/s | -60.6°C | 10.8% | 0hPa | 2.6V | 08:30:00 | 01:09:49 | 00:00:00 | |
| DO3MHA-11 | 2026-09-04 23:44:34 | 46.80880 | 7.54018 | 90° | 73km/h | 14473m | 4.9m/s | -60.6°C | 10.8% | 0hPa | 2.8V | 00:00:00 | 01:09:49 | 00:00:00 | |
| DK5PH-5 | 2026-09-04 23:44:32 | 46.80878 | 7.53958 | 84° | 73km/h | 14463m | 3.8m/s | -60.5°C | 10.9% | 0hPa | 2.8V | 00:00:00 | 01:09:47 | 00:00:00 | |
| HASLITAL | 2026-09-04 23:44:31 | 46.80878 | 7.53958 | 85° | 78km/h | 14463m | 3.8m/s | -60.6°C | 6.1% | 0hPa | 2.8V | 00:00:00 | 00:00:00 | 00:00:00 | |
| IW2NTF | 2026-09-04 23:44:29 | 46.80869 | 7.53755 | 86° | 71km/h | 14419m | 4.5m/s | -60.2°C | 11.1% | 0hPa | 2.8V | 08:30:00 | 01:09:39 | 00:00:00 | |
| DO3MHA-11 | 2026-09-04 23:44:24 | 46.80869 | 7.53755 | 87° | 77km/h | 14420m | 4.5m/s | -60.1°C | 11.1% | 0hPa | 2.7V | 00:00:00 | 01:09:39 | 00:00:00 | |
| HARRO8 | 2026-09-04 23:44:21 | 46.80860 | 7.53644 | 82° | 80km/h | 14397m | 4.3m/s | -60.1°C | 6.1% | -1.0hPa | 2.7V | 00:00:00 | 00:00:00 | 00:00:00 | |
| IW2NTF | 2026-09-04 23:44:19 | 46.80856 | 7.53471 | 89° | 68km/h | 14366m | 4.5m/s | -60°C | 11.2% | 0hPa | 2.7V | 08:30:00 | 01:09:29 | 00:00:00 | |
| DB0UT-7 | 2026-09-04 23:44:19 | 46.80857 | 7.53614 | 85° | 73km/h | 14392m | 5.7m/s | -60.1°C | 11.0% | 0hPa | 2.7V | 00:00:00 | 00:00:00 | 00:00:00 | |
| HASLITAL | 2026-09-04 23:44:10 | 46.80854 | 7.53396 | 88° | 69km/h | 14353m | 3.9m/s | -59.9°C | 6.7% | 0hPa | 2.7V | 00:00:00 | 00:00:00 | 00:00:00 | |
| IW2NTF | 2026-09-04 23:44:09 | 46.80839 | 7.53212 | 85° | 71km/h | 14325m | 4.5m/s | -59.8°C | 12% | 0hPa | 2.7V | 08:30:00 | 01:09:19 | 00:00:00 | |
| DO3MHA-11 | 2026-09-04 23:44:04 | 46.80839 | 7.53212 | 86° | 71km/h | 14325m | 4.5m/s | -59.7°C | 12.0% | 0hPa | 2.8V | 00:00:00 | 01:09:19 | 00:00:00 | |
| DK5PH-5 | 2026-09-04 23:44:02 | 46.80835 | 7.53160 | 84° | 77km/h | 14319m | 2.9m/s | -59.8°C | 12.3% | 0hPa | 2.8V | 00:00:00 | 01:09:17 | 00:00:00 | |
| IW2NTF | 2026-09-04 23:43:59 | 46.80814 | 7.52956 | 79° | 73km/h | 14289m | 3.7m/s | -60.4°C | 13.9% | 0hPa | 2.8V | 08:30:00 | 01:09:09 | 00:00:00 | |
| DO3MHA-11 | 2026-09-04 23:43:54 | 46.80813 | 7.52956 | 80° | 75km/h | 14289m | 3.7m/s | -60.4°C | 13.9% | 0hPa | 2.7V | 00:00:00 | 01:09:09 | 00:00:00 | |
| IW2NTF | 2026-09-04 23:43:49 | 46.80782 | 7.52681 | 80° | 78km/h | 14251m | 4.2m/s | -61.2°C | 15.8% | 0hPa | 2.7V | 08:30:00 | 01:08:59 | 00:00:00 | |
| DB0UT-7 | 2026-09-04 23:43:49 | 46.80797 | 7.52823 | 81° | 78km/h | 14271m | 5.0m/s | -61.1°C | 15.2% | 0hPa | 2.7V | 00:00:00 | 01:09:04 | 00:00:00 | |
| DO3MHA-12 | 2026-09-04 23:43:46 | 46.80788 | 7.52738 | 82° | 82km/h | 14258m | 4.2m/s | -61.1°C | 15.8% | 0hPa | 2.8V | 00:00:00 | 01:09:01 | 00:00:00 | |
| DO3MHA-11 | 2026-09-04 23:43:44 | 46.80781 | 7.52681 | 81° | 82km/h | 14251m | 4.1m/s | -61.1°C | 15.8% | 0hPa | 2.8V | 00:00:00 | 01:08:59 | 00:00:00 | |
| IW2NTF | 2026-09-04 23:43:39 | 46.80740 | 7.52385 | 74° | 78km/h | 14216m | 3.7m/s | -61.1°C | 16% | 0hPa | 2.8V | 08:30:00 | 01:08:49 | 00:00:00 | |
| DO3MHA-12 | 2026-09-04 23:43:36 | 46.80750 | 7.52443 | 78° | 80km/h | 14224m | 3.0m/s | -61.1°C | 15.8% | 0hPa | 2.7V | 00:00:00 | 01:08:51 | 00:00:00 | |
| DO3MHA-11 | 2026-09-04 23:43:34 | 46.80740 | 7.52385 | 75° | 78km/h | 14216m | 3.7m/s | -61.0°C | 16.0% | 0hPa | 2.7V | 00:00:00 | 01:08:49 | 00:00:00 | |
| DK5PH-5 | 2026-09-04 23:43:32 | 46.80729 | 7.52329 | 76° | 75km/h | 14209m | 4.8m/s | -61.0°C | 16.1% | 0hPa | 2.7V | 00:00:00 | 01:08:47 | 00:00:00 | |
| IW2NTF | 2026-09-04 23:43:30 | 46.80695 | 7.52100 | 82° | 80km/h | 14182m | 3m/s | -62.4°C | 19.2% | 0hPa | 2.7V | 08:30:00 | 01:08:39 | 00:00:00 | |
| HASLITAL | 2026-09-04 23:43:28 | 46.80714 | 7.52243 | 78° | 78km/h | 14198m | 3.8m/s | -61.2°C | 11.1% | 0hPa | 2.7V | 00:00:00 | 00:00:00 | 00:00:00 | |
| DO3MHA-11 | 2026-09-04 23:43:24 | 46.80695 | 7.52100 | 83° | 73km/h | 14182m | 3.0m/s | -62.4°C | 19.2% | 0hPa | 2.7V | 00:00:00 | 01:08:39 | 08:30:00 | |
| DO3MHA-12 | 2026-09-04 23:43:23 | 46.80692 | 7.52072 | 82° | 73km/h | 14178m | 4.4m/s | -62.8°C | 20.2% | 0hPa | 2.7V | 00:00:00 | 01:08:38 | 00:00:00 | |
| DH7VM-15 | 2026-09-04 23:43:20 | 46.80684 | 7.51990 | 82° | 73km/h | 14168m | 2.6m/s | 0°C | 0% | 0hPa | 2.7V | 00:00:00 | 00:00:00 | 00:00:00 | |
| IW2NTF | 2026-09-04 23:43:20 | 46.80660 | 7.51835 | 75° | 75km/h | 14149m | 3m/s | -63.3°C | 20.9% | 0hPa | 2.8V | 08:30:00 | 01:08:29 | 00:00:00 | |
| DB0UT-7 | 2026-09-04 23:43:19 | 46.80680 | 7.51964 | 81° | 75km/h | 14165m | 2.6m/s | -63.3°C | 20.7% | 0hPa | 2.7V | 00:00:00 | 00:00:00 | 00:00:00 | |
| DO3MHA-11 | 2026-09-04 23:43:14 | 46.80660 | 7.51835 | 76° | 75km/h | 14149m | 3.0m/s | -63.3°C | 20.9% | 0hPa | 2.7V | 00:00:00 | 01:08:29 | 00:00:00 | |
| DO3MHA-12 | 2026-09-04 23:43:13 | 46.80656 | 7.51808 | 78° | 75km/h | 14145m | 3.6m/s | -63.3°C | 21.1% | 0hPa | 2.7V | 00:00:00 | 01:08:28 | 00:00:00 | |
| IW2NTF | 2026-09-04 23:43:08 | 46.80634 | 7.51536 | 88° | 71km/h | 14115m | 3.5m/s | -63.4°C | 20.5% | 0hPa | 2.7V | 08:30:00 | 01:08:18 | 00:00:00 | |
| HASLITAL | 2026-09-04 23:43:07 | 46.80641 | 7.51668 | 84° | 77km/h | 14130m | 2.7m/s | -63.5°C | 14.0% | 0hPa | 2.7V | 00:00:00 | 00:00:00 | 00:00:00 | |
| DO3MHA-11 | 2026-09-04 23:43:04 | 46.80635 | 7.51562 | 88° | 78km/h | 14118m | 1.7m/s | -63.4°C | 20.7% | 0hPa | 2.7V | 00:00:00 | 01:08:19 | 00:00:00 | |
| DO3MHA-12 | 2026-09-04 23:43:03 | 46.80634 | 7.51536 | 89° | 78km/h | 14115m | 3.4m/s | -63.4°C | 20.5% | 0hPa | 2.7V | 00:00:00 | 01:08:18 | 08:30:00 | |
| DK5PH-5 | 2026-09-04 23:43:02 | 46.80634 | 7.51509 | 88° | 80km/h | 14112m | 3.5m/s | -63.4°C | 20.6% | 0hPa | 2.7V | 00:00:00 | 01:08:17 | 00:00:00 | |
| DO3MHA-11 | 2026-09-04 23:42:54 | 46.80614 | 7.51275 | 81° | 78km/h | 14083m | 3.2m/s | -63.5°C | 21.2% | 0hPa | 2.7V | 00:00:00 | 01:08:09 | 00:00:00 | |
| DO3MHA-12 | 2026-09-04 23:42:51 | 46.80606 | 7.51194 | 85° | 78km/h | 14075m | 4.2m/s | -63.4°C | 21.2% | 0hPa | 2.7V | 00:00:00 | 01:08:06 | 00:00:00 | |
| IW2NTF | 2026-09-04 23:42:50 | 46.80596 | 7.51015 | 83° | 86km/h | 14055m | 3.3m/s | -63.5°C | 21.9% | 0hPa | 2.7V | 08:30:00 | 01:08:00 | 00:00:00 | |
| HARRO8 | 2026-09-04 23:42:47 | 46.80600 | 7.51078 | 84° | 84km/h | 14062m | 3.2m/s | -63.5°C | 14.1% | -1.0hPa | 2.7V | 00:00:00 | 00:00:00 | 00:00:00 | |
| HASLITAL | 2026-09-04 23:42:46 | 46.80600 | 7.51078 | 86° | 84km/h | 14062m | 3.2m/s | -63.5°C | 14.5% | 0hPa | 2.7V | 00:00:00 | 00:00:00 | 00:00:00 | |
| DO3MHA-11 | 2026-09-04 23:42:44 | 46.80593 | 7.50984 | 84° | 78km/h | 14052m | 2.9m/s | -63.5°C | 22.0% | 0hPa | 2.7V | 00:00:00 | 01:07:59 | 00:00:00 | |
| DL1ZP-14 | 2026-09-04 23:42:41 | 46.80586 | 7.50862 | 87° | 75km/h | 14037m | 3.5m/s | 0°C | -1.0% | -1.0hPa | 2.7V | 00:00:00 | 00:00:00 | 00:00:00 | |
| DO3MHA-12 | 2026-09-04 23:42:40 | 46.80586 | 7.50862 | 88° | 88km/h | 14037m | 3.4m/s | -63.5°C | 22.2% | 0hPa | 2.7V | 00:00:00 | 01:07:55 | 00:00:00 | |
| DO3MHA-11 | 2026-09-04 23:42:34 | 46.80575 | 7.50696 | 79° | 88km/h | 14018m | 3.3m/s | -63.3°C | 23.0% | 0hPa | 2.7V | 00:00:00 | 01:07:49 | 00:00:00 | |
| DK5PH-5 | 2026-09-04 23:42:32 | 46.80566 | 7.50632 | 81° | 88km/h | 14010m | 4.8m/s | -63.3°C | 23.2% | 0hPa | 2.7V | 00:00:00 | 01:07:47 | 00:00:00 | |
| DO3MHA-12 | 2026-09-04 23:42:28 | 46.80554 | 7.50497 | 83° | 82km/h | 13995m | 5.5m/s | -63.2°C | 23.0% | 0hPa | 2.7V | 00:00:00 | 01:07:43 | 00:00:00 | |
| HASLITAL | 2026-09-04 23:42:26 | 46.80551 | 7.50466 | 82° | 84km/h | 13990m | 4.3m/s | -63.3°C | 15.7% | 0hPa | 2.7V | 00:00:00 | 00:00:00 | 00:00:00 | |
| DO3MHA-11 | 2026-09-04 23:42:24 | 46.80538 | 7.50380 | 78° | 86km/h | 13978m | 4.6m/s | -63.3°C | 23.7% | 0hPa | 2.7V | 00:00:00 | 01:07:39 | 00:00:00 | |
| DB0UT-7 | 2026-09-04 23:42:19 | 46.80528 | 7.50233 | 87° | 88km/h | 13955m | 4.2m/s | -63.3°C | 24.2% | 0hPa | 2.7V | 00:00:00 | 00:00:00 | 00:00:00 | |
| HARRO8 | 2026-09-04 23:42:16 | 46.80523 | 7.50129 | 85° | 88km/h | 13937m | 3.2m/s | -63.3°C | 16.5% | -1.0hPa | 2.7V | 00:00:00 | 00:00:00 | 00:00:00 | |
| DO3MHA-11 | 2026-09-04 23:42:14 | 46.80521 | 7.50066 | 90° | 86km/h | 13927m | 3.8m/s | -63.3°C | 24.9% | 0hPa | 2.7V | 00:00:00 | 01:07:29 | 00:00:00 | |
| HASLITAL | 2026-09-04 23:42:05 | 46.80523 | 7.49818 | 88° | 95km/h | 13882m | 5.5m/s | -63.3°C | 17.8% | 0hPa | 2.7V | 00:00:00 | 00:00:00 | 00:00:00 | |
| DO3MHA-11 | 2026-09-04 23:42:04 | 46.80520 | 7.49750 | 86° | 88km/h | 13872m | 6.6m/s | -63.2°C | 25.7% | 0hPa | 2.7V | 00:00:00 | 01:07:19 | 00:00:00 | |
| DK5PH-5 | 2026-09-04 23:42:02 | 46.80516 | 7.49684 | 85° | 88km/h | 13861m | 5.1m/s | -63.2°C | 25.8% | 0hPa | 2.7V | 00:00:00 | 01:07:17 | 08:30:00 | |
| DO3MHA-11 | 2026-09-04 23:41:54 | 46.80517 | 7.49429 | 92° | 89km/h | 13817m | 4.7m/s | -63.2°C | 26.6% | 0hPa | 2.7V | 00:00:00 | 01:07:09 | 08:30:00 | |
| IW2NTF | 2026-09-04 23:41:50 | 46.80499 | 7.49134 | 85° | 88km/h | 13771m | 5.2m/s | -63.2°C | 26.6% | 0hPa | 2.8V | 08:30:00 | 01:07:00 | 00:00:00 | |
| HARRO8 | 2026-09-04 23:41:45 | 46.80499 | 7.49134 | 85° | 86km/h | 13771m | 5.2m/s | -63.2°C | 18.2% | -1.0hPa | 2.7V | 00:00:00 | 00:00:00 | 00:00:00 | |
| DO3MHA-11 | 2026-09-04 23:41:44 | 46.80498 | 7.49102 | 87° | 86km/h | 13765m | 7.8m/s | -63.1°C | 26.9% | 0hPa | 2.7V | 00:00:00 | 01:06:59 | 00:00:00 | |
| DO3MHA-11 | 2026-09-04 23:41:34 | 46.80489 | 7.48784 | 89° | 86km/h | 13706m | 4.4m/s | -62.7°C | 28.3% | 0hPa | 2.7V | 00:00:00 | 01:06:49 | 00:00:00 | |
| DK5PH-5 | 2026-09-04 23:41:32 | 46.80488 | 7.48719 | 88° | 84km/h | 13693m | 8.4m/s | 0°C | 0% | 0hPa | 2.7V | 00:00:00 | 01:06:47 | 00:00:00 | |
| IW2NTF | 2026-09-04 23:41:29 | 46.80486 | 7.48558 | 90° | 84km/h | 13659m | 4m/s | -62.6°C | 30.1% | 0hPa | 2.7V | 08:30:00 | 01:06:42 | 00:00:00 | |
| HASLITAL | 2026-09-04 23:41:25 | 46.80486 | 7.48527 | 92° | 84km/h | 13653m | 7.9m/s | -62.8°C | 22.2% | 0hPa | 2.7V | 00:00:00 | 00:00:00 | 00:00:00 | |
| DO3MHA-11 | 2026-09-04 23:41:24 | 46.80488 | 7.48465 | 96° | 88km/h | 13640m | 6.6m/s | -62.9°C | 31.6% | 0hPa | 2.7V | 00:00:00 | 01:06:39 | 00:00:00 | |
| DB0UT-7 | 2026-09-04 23:41:19 | 46.80498 | 7.48310 | 93° | 86km/h | 13607m | 5.5m/s | -63.2°C | 34.0% | 0hPa | 2.7V | 00:00:00 | 00:00:00 | 00:00:00 | |
| DO3MHA-12 | 2026-09-04 23:41:16 | 46.80499 | 7.48211 | 90° | 84km/h | 13588m | 3.4m/s | -63.1°C | 34.6% | 0hPa | 2.7V | 00:00:00 | 01:06:31 | 00:00:00 | |
| DO3MHA-11 | 2026-09-04 23:41:14 | 46.80498 | 7.48144 | 86° | 88km/h | 13577m | 4.5m/s | -63.1°C | 34.4% | 0hPa | 2.7V | 00:00:00 | 01:06:29 | 00:00:00 | |
| DO3MHA-11 | 2026-09-04 23:41:04 | 46.80500 | 7.47824 | 88° | 82km/h | 13519m | 6.4m/s | -63.1°C | 35.4% | 0hPa | 2.7V | 00:00:00 | 01:06:19 | 00:00:00 | |
| DK5PH-5 | 2026-09-04 23:41:02 | 46.80498 | 7.47765 | 86° | 82km/h | 13505m | 9.2m/s | 0°C | 0% | 0hPa | 2.7V | 00:00:00 | 01:06:17 | 00:00:00 | |
| IW2NTF | 2026-09-04 23:40:59 | 46.80492 | 7.47677 | 83° | 80km/h | 13485m | 4.5m/s | -63.2°C | 37.3% | 0hPa | 2.7V | 08:30:00 | 01:06:14 | 00:00:00 | |
| DO3MHA-12 | 2026-09-04 23:40:55 | 46.80483 | 7.47550 | 85° | 80km/h | 13461m | 4.8m/s | -63.0°C | 36.9% | 0hPa | 2.7V | 00:00:00 | 01:06:10 | 00:00:00 | |
| DO3MHA-11 | 2026-09-04 23:40:54 | 46.80481 | 7.47518 | 85° | 80km/h | 13454m | 8.1m/s | -63.0°C | 37.1% | 0hPa | 2.7V | 00:00:00 | 01:06:09 | 00:00:00 | |
| IW2NTF | 2026-09-04 23:40:49 | 46.80463 | 7.47316 | 82° | 82km/h | 13411m | 5.5m/s | -63.3°C | 38.5% | 0hPa | 2.8V | 08:30:00 | 01:06:02 | 00:00:00 | |
| DB0UT-7 | 2026-09-04 23:40:49 | 46.80468 | 7.47375 | 82° | 80km/h | 13425m | 5.8m/s | -63.3°C | 38.7% | 0hPa | 2.7V | 00:00:00 | 01:06:04 | 08:30:00 | |
| DO3MHA-11 | 2026-09-04 23:40:44 | 46.80455 | 7.47223 | 83° | 82km/h | 13393m | 5.1m/s | -63.3°C | 38.8% | 0hPa | 2.8V | 00:00:00 | 01:05:59 | 00:00:00 | |
| HARRO8 | 2026-09-04 23:40:43 | 46.80452 | 7.47192 | 82° | 84km/h | 13387m | 5.9m/s | -63.3°C | 28.7% | -1.0hPa | 2.8V | 00:00:00 | 00:00:00 | 00:00:00 | |
| IW2NTF | 2026-09-04 23:40:40 | 46.80444 | 7.46922 | 88° | 82km/h | 13337m | 7.2m/s | -63.3°C | 42.6% | 0hPa | 2.8V | 08:30:00 | 01:05:49 | 00:00:00 | |
| DO3MHA-12 | 2026-09-04 23:40:35 | 46.80445 | 7.46953 | 89° | 80km/h | 13343m | 2.8m/s | -63.3°C | 42.9% | 0hPa | 2.8V | 00:00:00 | 01:05:50 | 00:00:00 | |
| DO3MHA-11 | 2026-09-04 23:40:34 | 46.80444 | 7.46922 | 89° | 80km/h | 13338m | 7.2m/s | -63.3°C | 42.6% | 0hPa | 2.8V | 00:00:00 | 01:05:49 | 00:00:00 | |
| IW2NTF | 2026-09-04 23:40:26 | 46.80444 | 7.46579 | 92° | 73km/h | 13259m | 7m/s | -63.2°C | 44.4% | 0hPa | 2.8V | 08:30:00 | 01:05:37 | 00:00:00 | |
| DK5PH-5 | 2026-09-04 23:40:26 | 46.80443 | 7.46684 | 89° | 75km/h | 13286m | 6.2m/s | 0°C | 0% | 0hPa | 2.7V | 00:00:00 | 01:05:41 | 00:00:00 | |
| DO3MHA-12 | 2026-09-04 23:40:25 | 46.80443 | 7.46658 | 90° | 71km/h | 13281m | 3.7m/s | -63.2°C | 45.1% | 0hPa | 2.7V | 00:00:00 | 01:05:40 | 08:30:00 | |
| DO3MHA-11 | 2026-09-04 23:40:24 | 46.80443 | 7.46632 | 90° | 71km/h | 13275m | 7.8m/s | -63.2°C | 44.5% | 0hPa | 2.7V | 00:00:00 | 01:05:39 | 08:30:00 | |
| HASLITAL | 2026-09-04 23:40:23 | 46.80443 | 7.46632 | 91° | 71km/h | 13275m | 7.9m/s | -63.3°C | 33.6% | 0hPa | 2.7V | 00:00:00 | 00:00:00 | 00:00:00 | |
| DB0UT-7 | 2026-09-04 23:40:19 | 46.80446 | 7.46497 | 93° | 75km/h | 13241m | 6.0m/s | -63.1°C | 44.3% | 0hPa | 2.7V | 00:00:00 | 00:00:00 | 00:00:00 | |
| DO3MHA-11 | 2026-09-04 23:40:15 | 46.80462 | 7.46370 | 103° | 75km/h | 13212m | 6.2m/s | -62.9°C | 44.1% | 0hPa | 2.7V | 00:00:00 | 01:05:29 | 00:00:00 | |
| HARRO8 | 2026-09-04 23:40:12 | 46.80469 | 7.46316 | 97° | 77km/h | 13200m | 5.6m/s | -62.9°C | 33.1% | -1.0hPa | 2.7V | 00:00:00 | 00:00:00 | 00:00:00 | |
| DO3MHA-12 | 2026-09-04 23:40:05 | 46.80488 | 7.46120 | 103° | 77km/h | 13167m | 4.1m/s | -62.6°C | 46.4% | 0hPa | 2.7V | 00:00:00 | 01:05:20 | 00:00:00 | |
| DO3MHA-11 | 2026-09-04 23:40:04 | 46.80492 | 7.46095 | 106° | 77km/h | 13162m | 4.8m/s | -62.6°C | 46.3% | 0hPa | 2.7V | 00:00:00 | 01:05:19 | 00:00:00 | |
| HASLITAL | 2026-09-04 23:40:03 | 46.80492 | 7.46095 | 107° | 69km/h | 13162m | 4.8m/s | -62.6°C | 35.3% | 0hPa | 2.7V | 00:00:00 | 00:00:00 | 00:00:00 | |
| DH7VM-15 | 2026-09-04 23:40:02 | 46.80497 | 7.46069 | 109° | 73km/h | 13158m | 4.2m/s | 0°C | 0% | 0hPa | 2.7V | 00:00:00 | 00:00:00 | 00:00:00 | |
| DK5PH-5 | 2026-09-04 23:39:56 | 46.80518 | 7.45871 | 94° | 64km/h | 13127m | 0.7m/s | 0°C | 0% | 0hPa | 2.7V | 00:00:00 | 01:05:11 | 00:00:00 | |
| DO3MHA-12 | 2026-09-04 23:39:55 | 46.80520 | 7.45844 | 95° | 73km/h | 13125m | 2.8m/s | -62.4°C | 48.5% | 0hPa | 2.7V | 00:00:00 | 01:05:10 | 00:00:00 | |
| DO3MHA-11 | 2026-09-04 23:39:54 | 46.80521 | 7.45817 | 97° | 73km/h | 13122m | 3.4m/s | -62.4°C | 48.2% | 0hPa | 2.7V | 00:00:00 | 01:05:09 | 00:00:00 | |
| IW2NTF | 2026-09-04 23:39:49 | 46.80555 | 7.45550 | 100° | 75km/h | 13077m | 4.2m/s | -62.2°C | 49% | 0hPa | 2.7V | 08:30:00 | 01:04:59 | 00:00:00 | |
| DB0UT-7 | 2026-09-04 23:39:49 | 46.80538 | 7.45684 | 102° | 73km/h | 13099m | 4.1m/s | -62.3°C | 48.3% | 0hPa | 2.7V | 00:00:00 | 01:05:04 | 00:00:00 | |
| DO3MHA-12 | 2026-09-04 23:39:45 | 46.80552 | 7.45577 | 100° | 73km/h | 13081m | 3.9m/s | -62.2°C | 49.2% | 0hPa | 2.7V | 00:00:00 | 01:05:00 | 00:00:00 | |
| DO3MHA-11 | 2026-09-04 23:39:44 | 46.80555 | 7.45549 | 101° | 73km/h | 13077m | 4.1m/s | -62.1°C | 49.0% | 0hPa | 2.7V | 00:00:00 | 01:04:59 | 00:00:00 | |
| HASLITAL | 2026-09-04 23:39:43 | 46.80555 | 7.45549 | 101° | 75km/h | 13077m | 4.2m/s | -62.2°C | 37.8% | 0hPa | 2.7V | 00:00:00 | 00:00:00 | 00:00:00 | |
| HARRO8 | 2026-09-04 23:39:41 | 46.80569 | 7.45442 | 99° | 73km/h | 13059m | 3.9m/s | -62.0°C | 38.4% | -1.0hPa | 2.7V | 00:00:00 | 00:00:00 | 00:00:00 | |
| DO3MHA-12 | 2026-09-04 23:39:35 | 46.80585 | 7.45312 | 99° | 73km/h | 13038m | 5.1m/s | -61.8°C | 51.9% | 0hPa | 2.7V | 00:00:00 | 01:04:50 | 00:00:00 | |
| DO3MHA-11 | 2026-09-04 23:39:34 | 46.80587 | 7.45286 | 98° | 75km/h | 13034m | 3.1m/s | -61.8°C | 52.4% | 0hPa | 2.7V | 00:00:00 | 01:04:49 | 00:00:00 | |
| DO3MHA-12 | 2026-09-04 23:39:25 | 46.80616 | 7.45043 | 102° | 68km/h | 12993m | 4.3m/s | -61.8°C | 54.6% | 0hPa | 2.7V | 00:00:00 | 01:04:40 | 00:00:00 | |
| DO3MHA-11 | 2026-09-04 23:39:24 | 46.80619 | 7.45018 | 102° | 68km/h | 12988m | 5.8m/s | -61.9°C | 55.4% | 0hPa | 2.7V | 00:00:00 | 01:04:39 | 00:00:00 | |
| IW2NTF | 2026-09-04 23:39:22 | 46.80629 | 7.44946 | 100° | 66km/h | 12975m | 4.7m/s | -61.8°C | 54.6% | 0hPa | 2.7V | 08:30:00 | 01:04:36 | 00:00:00 | |
| HASLITAL | 2026-09-04 23:39:22 | 46.80622 | 7.44993 | 102° | 66km/h | 12983m | 3.4m/s | -61.9°C | 43.7% | 0hPa | 2.7V | 00:00:00 | 00:00:00 | 00:00:00 | |
| DB0UT-7 | 2026-09-04 23:39:19 | 46.80635 | 7.44897 | 102° | 69km/h | 12966m | 4.4m/s | -61.7°C | 54.3% | 0hPa | 2.7V | 00:00:00 | 00:00:00 | 00:00:00 | |
| DO3MHA-12 | 2026-09-04 23:39:15 | 46.80649 | 7.44799 | 103° | 71km/h | 12948m | 4.6m/s | -61.6°C | 55.0% | 0hPa | 2.7V | 00:00:00 | 01:04:30 | 00:00:00 | |
| DO3MHA-11 | 2026-09-04 23:39:14 | 46.80653 | 7.44775 | 103° | 71km/h | 12944m | 3.9m/s | -61.5°C | 55.2% | 0hPa | 2.7V | 00:00:00 | 01:04:29 | 00:00:00 | |
| HARRO8 | 2026-09-04 23:39:10 | 46.80672 | 7.44651 | 103° | 71km/h | 12921m | 3.5m/s | -61.4°C | 44.4% | -1.0hPa | 2.7V | 00:00:00 | 00:00:00 | 00:00:00 | |
| DO3MHA-12 | 2026-09-04 23:39:04 | 46.80692 | 7.44517 | 107° | 68km/h | 12898m | 4.7m/s | -61.5°C | 57.5% | 0hPa | 2.7V | 00:00:00 | 01:04:19 | 00:00:00 | |
| HASLITAL | 2026-09-04 23:39:01 | 46.80703 | 7.44466 | 108° | 71km/h | 12889m | 4.8m/s | -61.6°C | 46.3% | 0hPa | 2.7V | 00:00:00 | 00:00:00 | 00:00:00 | |
| DO3MHA-12 | 2026-09-04 23:38:54 | 46.80737 | 7.44279 | 99° | 62km/h | 12850m | 4.6m/s | -61.5°C | 59.2% | 0hPa | 2.7V | 00:00:00 | 01:04:09 | 08:30:00 | |
| IW2NTF | 2026-09-04 23:38:49 | 46.80772 | 7.44042 | 103° | 66km/h | 12801m | 5.5m/s | -61.3°C | 58% | 0hPa | 2.7V | 08:30:00 | 01:03:59 | 00:00:00 | |
| DB0UT-7 | 2026-09-04 23:38:49 | 46.80754 | 7.44157 | 104° | 58km/h | 12826m | 5.1m/s | -61.4°C | 59.9% | 0hPa | 2.7V | 00:00:00 | 01:04:04 | 00:00:00 | |
| DO3MHA-11 | 2026-09-04 23:38:44 | 46.80771 | 7.44042 | 104° | 62km/h | 12801m | 5.5m/s | -61.3°C | 58.0% | 0hPa | 2.7V | 00:00:00 | 01:03:59 | 00:00:00 | |
| HASLITAL | 2026-09-04 23:38:41 | 46.80780 | 7.43995 | 106° | 66km/h | 12791m | 3.8m/s | -61.3°C | 46.3% | 0hPa | 2.7V | 00:00:00 | 00:00:00 | 00:00:00 | |
| HARRO8 | 2026-09-04 23:38:39 | 46.80792 | 7.43925 | 103° | 62km/h | 12775m | 3.6m/s | -61.2°C | 46.1% | -1.0hPa | 2.7V | 00:00:00 | 00:00:00 | 00:00:00 | |
| IW2NTF | 2026-09-04 23:38:37 | 46.80814 | 7.43781 | 101° | 57km/h | 12741m | 4.9m/s | -61°C | 58.2% | 0hPa | 2.7V | 08:30:00 | 01:03:47 | 00:00:00 | |
| DO3MHA-11 | 2026-09-04 23:38:34 | 46.80809 | 7.43822 | 100° | 57km/h | 12751m | 4.7m/s | 0°C | 0% | 0hPa | 2.7V | 00:00:00 | 01:03:49 | 00:00:00 | |
| DK5PH-5 | 2026-09-04 23:38:31 | 46.80816 | 7.43760 | 102° | 57km/h | 12737m | 3.2m/s | 0°C | 0% | 0hPa | 2.7V | 00:00:00 | 01:03:46 | 00:00:00 | |
| DO3MHA-11 | 2026-09-04 23:38:24 | 46.80838 | 7.43620 | 101° | 55km/h | 12703m | 5.6m/s | -60.6°C | 55.4% | 0hPa | 2.7V | 00:00:00 | 01:03:39 | 00:00:00 | |
| HASLITAL | 2026-09-04 23:38:21 | 46.80841 | 7.43581 | 94° | 55km/h | 12693m | 4.0m/s | -60.5°C | 44.1% | 0hPa | 2.7V | 00:00:00 | 00:00:00 | 00:00:00 | |
| IW2NTF | 2026-09-04 23:38:20 | 46.80858 | 7.43438 | 103° | 55km/h | 12660m | 5.3m/s | -60.2°C | 56.5% | 0hPa | 2.7V | 08:30:00 | 01:03:30 | 00:00:00 | |
| DB0UT-7 | 2026-09-04 23:38:19 | 46.80845 | 7.43519 | 100° | 57km/h | 12679m | 3.0m/s | -60.4°C | 57.3% | 0hPa | 2.7V | 00:00:00 | 00:00:00 | 00:00:00 | |
| IW2NTF | 2026-09-04 23:38:10 | 46.80884 | 7.43238 | 100° | 60km/h | 12611m | 5m/s | -60.1°C | 57.4% | 0hPa | 2.7V | 08:30:00 | 01:03:20 | 00:00:00 | |
| HARRO8 | 2026-09-04 23:38:08 | 46.80880 | 7.43280 | 98° | 55km/h | 12620m | 5.1m/s | -60.1°C | 45.6% | -1.0hPa | 2.8V | 00:00:00 | 00:00:00 | 00:00:00 | |
| DO3MHA-11 | 2026-09-04 23:38:06 | 46.80882 | 7.43259 | 99° | 58km/h | 12615m | 3.6m/s | -60.1°C | 58.0% | 0hPa | 2.8V | 00:00:00 | 01:03:21 | 00:00:00 | |
| HASLITAL | 2026-09-04 23:38:00 | 46.80900 | 7.43148 | 108° | 60km/h | 12593m | 4.4m/s | -60.0°C | 47.0% | 0hPa | 2.8V | 00:00:00 | 00:00:00 | 00:00:00 | |
| DO3MHA-11 | 2026-09-04 23:37:56 | 46.80922 | 7.43054 | 115° | 55km/h | 12569m | 5.2m/s | -59.8°C | 58.3% | 0hPa | 2.8V | 00:00:00 | 01:03:11 | 00:00:00 | |
| IW2NTF | 2026-09-04 23:37:54 | 46.80943 | 7.42962 | 101° | 58km/h | 12546m | 4.7m/s | -59.6°C | 57.3% | 0hPa | 2.8V | 08:30:00 | 01:03:06 | 00:00:00 | |
| DB0UT-7 | 2026-09-04 23:37:49 | 46.80949 | 7.42919 | 101° | 55km/h | 12537m | 3.9m/s | -59.6°C | 57.8% | 0hPa | 2.7V | 00:00:00 | 01:03:04 | 00:00:00 | |
| IW2NTF | 2026-09-04 23:37:46 | 46.80980 | 7.42771 | 111° | 51km/h | 12502m | 4m/s | -59.5°C | 59.3% | 0hPa | 2.8V | 08:30:00 | 01:02:56 | 00:00:00 | |
| DO3MHA-11 | 2026-09-04 23:37:46 | 46.80957 | 7.42860 | 105° | 57km/h | 12524m | 3.3m/s | -59.5°C | 58.6% | 0hPa | 2.7V | 00:00:00 | 01:03:01 | 00:00:00 | |
| DK5PH-5 | 2026-09-04 23:37:45 | 46.80961 | 7.42841 | 108° | 55km/h | 12520m | 5.0m/s | 0°C | 0% | 0hPa | 2.8V | 00:00:00 | 01:03:00 | 00:00:00 | |
| HASLITAL | 2026-09-04 23:37:39 | 46.80985 | 7.42752 | 112° | 55km/h | 12497m | 4.8m/s | -59.5°C | 47.6% | 0hPa | 2.8V | 00:00:00 | 00:00:00 | 00:00:00 | |
| HARRO8 | 2026-09-04 23:37:37 | 46.81003 | 7.42671 | 106° | 55km/h | 12480m | 4.8m/s | -59.3°C | 46.8% | -1.0hPa | 2.8V | 00:00:00 | 00:00:00 | 00:00:00 | |
| IW2NTF | 2026-09-04 23:37:33 | 46.81024 | 7.42578 | 107° | 53km/h | 12459m | 4.2m/s | -59.1°C | 57.5% | 0hPa | 2.8V | 08:30:00 | 01:02:46 | 00:00:00 | |
| DO3MHA-11 | 2026-09-04 23:37:33 | 46.81015 | 7.42615 | 109° | 53km/h | 12467m | 4.6m/s | -59.1°C | 58.4% | 0hPa | 2.8V | 00:00:00 | 01:02:48 | 00:00:00 | |
| IW2NTF | 2026-09-04 23:37:26 | 46.81071 | 7.42392 | 107° | 60km/h | 12410m | 4.8m/s | -58.6°C | 55.8% | 0hPa | 2.8V | 08:30:00 | 01:02:36 | 00:00:00 | |
| DO3MHA-11 | 2026-09-04 23:37:23 | 46.81061 | 7.42433 | 112° | 57km/h | 12420m | 4.7m/s | -58.7°C | 55.9% | 0hPa | 2.7V | 00:00:00 | 01:02:38 | 00:00:00 | |
| DB0UT-7 | 2026-09-04 23:37:19 | 46.81080 | 7.42351 | 109° | 55km/h | 12402m | 5.1m/s | -58.5°C | 54.0% | 0hPa | 2.7V | 00:00:00 | 00:00:00 | 00:00:00 | |
| DK5PH-5 | 2026-09-04 23:37:15 | 46.81103 | 7.42277 | 118° | 55km/h | 12382m | 4.6m/s | 0°C | 0% | 0hPa | 2.7V | 00:00:00 | 01:02:30 | 00:00:00 | |
| DO3MHA-11 | 2026-09-04 23:37:13 | 46.81115 | 7.42240 | 113° | 57km/h | 12372m | 4.9m/s | -58.2°C | 53.8% | 0hPa | 2.7V | 00:00:00 | 01:02:28 | 08:30:00 | |
| IW2NTF | 2026-09-04 23:37:12 | 46.81125 | 7.42203 | 108° | 53km/h | 12363m | 4.6m/s | -58.2°C | 54% | 0hPa | 2.8V | 08:30:00 | 01:02:26 | 00:00:00 | |
| IW2NTF | 2026-09-04 23:37:06 | 46.81178 | 7.42014 | 115° | 47km/h | 12317m | 4.4m/s | -57.8°C | 55.4% | 0hPa | 2.8V | 08:30:00 | 01:02:16 | 00:00:00 | |
| DO3MHA-11 | 2026-09-04 23:37:03 | 46.81166 | 7.42048 | 117° | 53km/h | 12327m | 4.9m/s | -57.8°C | 55.5% | 0hPa | 2.7V | 00:00:00 | 01:02:18 | 00:00:00 | |
| HASLITAL | 2026-09-04 23:36:58 | 46.81187 | 7.41982 | 110° | 47km/h | 12307m | 5.9m/s | -57.7°C | 44.8% | 0hPa | 2.7V | 00:00:00 | 00:00:00 | 00:00:00 | |
| DO3MHA-11 | 2026-09-04 23:36:53 | 46.81213 | 7.41864 | 114° | 57km/h | 12269m | 5.1m/s | -57.5°C | 55.1% | 0hPa | 2.7V | 00:00:00 | 01:02:08 | 00:00:00 | |
| IW2NTF | 2026-09-04 23:36:52 | 46.81226 | 7.41828 | 120° | 53km/h | 12257m | 7m/s | -57.4°C | 54.2% | 0hPa | 2.7V | 08:30:00 | 01:02:06 | 00:00:00 | |
| DB0UT-7 | 2026-09-04 23:36:49 | 46.81240 | 7.41793 | 119° | 57km/h | 12245m | 5.8m/s | -57.3°C | 54.9% | 0hPa | 2.7V | 00:00:00 | 01:02:04 | 00:00:00 | |
| IW2NTF | 2026-09-04 23:36:46 | 46.81278 | 7.41634 | 113° | 58km/h | 12197m | 5.1m/s | -57°C | 55.9% | 0hPa | 2.7V | 08:30:00 | 01:01:56 | 00:00:00 | |
| DK5PH-5 | 2026-09-04 23:36:43 | 46.81267 | 7.41675 | 110° | 57km/h | 12207m | 3.8m/s | 0°C | 0% | 0hPa | 2.7V | 00:00:00 | 01:01:58 | 00:00:00 | |
| DO3MHA-11 | 2026-09-04 23:36:42 | 46.81272 | 7.41654 | 112° | 57km/h | 12203m | 5.1m/s | -57.0°C | 55.9% | 0hPa | 2.7V | 00:00:00 | 01:01:57 | 00:00:00 | |
| DO3MHA-12 | 2026-09-04 23:36:39 | 46.81290 | 7.41595 | 116° | 55km/h | 12183m | 7.1m/s | -56.8°C | 55.8% | 0hPa | 2.8V | 00:00:00 | 01:01:54 | 00:00:00 | |
| HASLITAL | 2026-09-04 23:36:37 | 46.81296 | 7.41576 | 118° | 57km/h | 12176m | 5.9m/s | -56.8°C | 45.8% | 0hPa | 2.8V | 00:00:00 | 00:00:00 | 00:00:00 | |
| HARRO8 | 2026-09-04 23:36:35 | 46.81321 | 7.41504 | 114° | 51km/h | 12152m | 7.2m/s | -56.6°C | 45.9% | -1.0hPa | 2.8V | 00:00:00 | 00:00:00 | 00:00:00 | |
| DO3MHA-11 | 2026-09-04 23:36:32 | 46.81331 | 7.41468 | 111° | 57km/h | 12139m | 5.7m/s | -56.5°C | 57.6% | 0hPa | 2.8V | 00:00:00 | 01:01:47 | 00:00:00 | |
| IW2NTF | 2026-09-04 23:36:30 | 46.81346 | 7.41408 | 110° | 58km/h | 12123m | 6.4m/s | -56.3°C | 56.9% | 0hPa | 2.8V | 08:30:00 | 01:01:44 | 00:00:00 | |
| DO3MHA-12 | 2026-09-04 23:36:24 | 46.81375 | 7.41317 | 113° | 57km/h | 12093m | 7.1m/s | -56.0°C | 53.9% | 0hPa | 2.7V | 00:00:00 | 01:01:39 | 00:00:00 | |
| DO3MHA-11 | 2026-09-04 23:36:22 | 46.81385 | 7.41276 | 108° | 57km/h | 12080m | 8.1m/s | -55.9°C | 53.2% | 0hPa | 2.7V | 00:00:00 | 01:01:37 | 00:00:00 | |
| IW2NTF | 2026-09-04 23:36:20 | 46.81399 | 7.41215 | 109° | 57km/h | 12059m | 7m/s | -55.8°C | 52.2% | 0hPa | 2.7V | 08:30:00 | 01:01:34 | 00:00:00 | |
| DB0UT-7 | 2026-09-04 23:36:19 | 46.81399 | 7.41215 | 110° | 55km/h | 12059m | 7.0m/s | -55.7°C | 52.2% | 0hPa | 2.7V | 00:00:00 | 00:00:00 | 08:30:00 | |
| HASLITAL | 2026-09-04 23:36:17 | 46.81409 | 7.41177 | 114° | 55km/h | 12047m | 8.2m/s | -55.6°C | 42.1% | 0hPa | 2.7V | 00:00:00 | 00:00:00 | 00:00:00 | |
| DK5PH-5 | 2026-09-04 23:36:13 | 46.81432 | 7.41101 | 116° | 57km/h | 12022m | 5.1m/s | 0°C | 0% | 0hPa | 2.7V | 00:00:00 | 01:01:28 | 00:00:00 | |
| DO3MHA-12 | 2026-09-04 23:36:12 | 46.81439 | 7.41082 | 117° | 58km/h | 12017m | 4.6m/s | -55.3°C | 52.5% | 0hPa | 2.7V | 00:00:00 | 01:01:27 | 00:00:00 | |
| IW2NTF | 2026-09-04 23:36:10 | 46.81458 | 7.41028 | 113° | 53km/h | 12002m | 4.2m/s | -55.2°C | 52.9% | 0hPa | 2.8V | 08:30:00 | 01:01:24 | 00:00:00 | |
| DH7VM-15 | 2026-09-04 23:36:07 | 46.81462 | 7.41009 | 111° | 55km/h | 11997m | 5.9m/s | 0°C | 0% | 0hPa | 2.7V | 00:00:00 | 00:00:00 | 00:00:00 | |
| HARRO8 | 2026-09-04 23:36:03 | 46.81487 | 7.40907 | 116° | 58km/h | 11969m | 4.1m/s | -54.9°C | 42.2% | -1.0hPa | 2.7V | 00:00:00 | 00:00:00 | 00:00:00 | |
| DO3MHA-11 | 2026-09-04 23:36:02 | 46.81494 | 7.40888 | 120° | 55km/h | 11965m | 5.0m/s | -54.8°C | 51.3% | 0hPa | 2.7V | 00:00:00 | 01:01:17 | 00:00:00 | |
| IW2NTF | 2026-09-04 23:36:00 | 46.81515 | 7.40834 | 117° | 55km/h | 11947m | 8.3m/s | -54.6°C | 50.8% | 0hPa | 2.7V | 08:30:00 | 01:01:14 | 00:00:00 | |
| DO3MHA-12 | 2026-09-04 23:36:00 | 46.81508 | 7.40852 | 120° | 55km/h | 11954m | 4.7m/s | -54.6°C | 51.0% | 0hPa | 2.8V | 00:00:00 | 01:01:15 | 00:00:00 | |
| HASLITAL | 2026-09-04 23:35:55 | 46.81532 | 7.40778 | 111° | 55km/h | 11929m | 6.5m/s | -54.5°C | 41.4% | 0hPa | 2.8V | 00:00:00 | 00:00:00 | 00:00:00 | |
| DO3MHA-11 | 2026-09-04 23:35:52 | 46.81549 | 7.40706 | 112° | 57km/h | 11905m | 5.6m/s | -54.2°C | 50.6% | 0hPa | 2.8V | 00:00:00 | 01:01:07 | 00:00:00 | |
| IW2NTF | 2026-09-04 23:35:50 | 46.81566 | 7.40654 | 115° | 55km/h | 11890m | 3.8m/s | -54.1°C | 50.7% | 0hPa | 2.8V | 08:30:00 | 01:01:04 | 00:00:00 | |
| DB0UT-7 | 2026-09-04 23:35:49 | 46.81566 | 7.40654 | 116° | 55km/h | 11890m | 3.8m/s | -54.0°C | 50.7% | 0hPa | 2.7V | 00:00:00 | 01:01:04 | 00:00:00 | |
| DO3MHA-11 | 2026-09-04 23:35:42 | 46.81603 | 7.40516 | 112° | 57km/h | 11850m | 5.5m/s | -53.7°C | 52.0% | 0hPa | 2.7V | 00:00:00 | 01:00:57 | 08:30:00 | |
| IW2NTF | 2026-09-04 23:35:40 | 46.81619 | 7.40464 | 115° | 55km/h | 11834m | 4.6m/s | -53.6°C | 53.1% | 0hPa | 2.7V | 08:30:00 | 01:00:54 | 00:00:00 | |
| HASLITAL | 2026-09-04 23:35:35 | 46.81636 | 7.40403 | 109° | 62km/h | 11818m | 4.7m/s | -53.4°C | 43.8% | 0hPa | 2.8V | 00:00:00 | 00:00:00 | 00:00:00 | |
| DO3MHA-11 | 2026-09-04 23:35:32 | 46.81653 | 7.40323 | 115° | 60km/h | 11800m | 4.8m/s | -53.2°C | 54.1% | 0hPa | 2.8V | 00:00:00 | 01:00:47 | 00:00:00 | |
| IW2NTF | 2026-09-04 23:35:30 | 46.81673 | 7.40274 | 124° | 51km/h | 11781m | 5.3m/s | -53.1°C | 55.9% | 0hPa | 2.8V | 08:30:00 | 01:00:44 | 00:00:00 | |
| IW2NTF | 2026-09-04 23:35:20 | 46.81726 | 7.40088 | 110° | 55km/h | 11726m | 5.7m/s | -52.7°C | 59.3% | 0hPa | 2.7V | 08:30:00 | 01:00:34 | 00:00:00 | |
| HASLITAL | 2026-09-04 23:35:14 | 46.81750 | 7.40014 | 122° | 60km/h | 11706m | 5.7m/s | -52.5°C | 48.8% | 0hPa | 2.8V | 00:00:00 | 00:00:00 | 00:00:00 | |
| IW2NTF | 2026-09-04 23:35:10 | 46.81797 | 7.39890 | 112° | 57km/h | 11674m | 5.8m/s | -52.2°C | 56.7% | 0hPa | 2.8V | 08:30:00 | 01:00:24 | 00:00:00 | |
| DO3MHA-11 | 2026-09-04 23:35:06 | 46.81813 | 7.39836 | 118° | 62km/h | 11659m | 4.2m/s | -52.0°C | 57.0% | 0hPa | 2.8V | 00:00:00 | 01:00:21 | 00:00:00 | |
| DO3MHA-12 | 2026-09-04 23:35:03 | 46.81835 | 7.39783 | 123° | 62km/h | 11644m | 6.0m/s | -51.9°C | 55.5% | 0hPa | 2.8V | 00:00:00 | 01:00:18 | 00:00:00 | |
| HARRO8 | 2026-09-04 23:35:01 | 46.81938 | 7.39525 | 118° | 60km/h | 11583m | 4.9m/s | -51.4°C | 42.9% | -1.0hPa | 2.8V | 00:00:00 | 00:00:00 | 00:00:00 | |
| IW2NTF | 2026-09-04 23:35:00 | 46.81867 | 7.39698 | 117° | 66km/h | 11624m | 5.8m/s | -51.8°C | 55.3% | 0hPa | 2.8V | 08:30:00 | 01:00:14 | 00:00:00 | |
| IW2NTF | 2026-09-04 23:34:54 | 46.81945 | 7.39505 | 118° | 60km/h | 11578m | 4.7m/s | -51.4°C | 51.2% | 0hPa | 2.8V | 08:30:00 | 01:00:04 | 00:00:00 | |
| DO3MHA-12 | 2026-09-04 23:34:50 | 46.81938 | 7.39525 | 119° | 60km/h | 11583m | 4.9m/s | -51.3°C | 51.7% | 0hPa | 2.7V | 00:00:00 | 01:00:05 | 00:00:00 | |
| DB0UT-7 | 2026-09-04 23:34:49 | 46.81945 | 7.39505 | 119° | 60km/h | 11579m | 4.6m/s | -51.3°C | 51.2% | 0hPa | 2.7V | 00:00:00 | 01:00:04 | 00:00:00 | |
| DO3MHA-11 | 2026-09-04 23:34:46 | 46.81965 | 7.39447 | 117° | 62km/h | 11565m | 4.2m/s | -51.2°C | 49.6% | 0hPa | 2.8V | 00:00:00 | 01:00:01 | 00:00:00 | |
| IW2NTF | 2026-09-04 23:34:44 | 46.82022 | 7.39314 | 123° | 64km/h | 11535m | 3.7m/s | -51°C | 47.1% | 0hPa | 2.8V | 08:30:00 | 00:59:54 | 00:00:00 | |
| DO3MHA-12 | 2026-09-04 23:34:40 | 46.82013 | 7.39333 | 126° | 58km/h | 11539m | 4.8m/s | -51.0°C | 47.2% | 0hPa | 2.8V | 00:00:00 | 00:59:55 | 00:00:00 | |
| DO3MHA-11 | 2026-09-04 23:34:36 | 46.82047 | 7.39257 | 122° | 60km/h | 11523m | 4.0m/s | -50.8°C | 46.5% | 0hPa | 2.8V | 00:00:00 | 00:59:51 | 00:00:00 | |
| IW2NTF | 2026-09-04 23:34:30 | 46.82099 | 7.39129 | 120° | 66km/h | 11494m | 4.7m/s | -50.6°C | 0% | 0hPa | 2.8V | 08:30:00 | 00:59:44 | 00:00:00 | |
| DO3MHA-12 | 2026-09-04 23:34:30 | 46.82091 | 7.39149 | 122° | 62km/h | 11498m | 3.5m/s | -50.6°C | 45.6% | 0hPa | 2.7V | 00:00:00 | 00:59:45 | 00:00:00 | |
| DO3MHA-11 | 2026-09-04 23:34:26 | 46.82125 | 7.39063 | 121° | 58km/h | 11483m | 3.7m/s | -50.5°C | 46.6% | 0hPa | 2.7V | 00:00:00 | 00:59:41 | 00:00:00 | |
| IW2NTF | 2026-09-04 23:34:24 | 46.82175 | 7.38933 | 121° | 53km/h | 11453m | 5.8m/s | -50.3°C | 0% | 0hPa | 2.8V | 08:30:00 | 00:59:34 | 00:00:00 | |
| HASLITAL | 2026-09-04 23:34:22 | 46.82148 | 7.39001 | 118° | 58km/h | 11471m | 3.8m/s | -50.4°C | 39.2% | 0hPa | 2.7V | 00:00:00 | 00:00:00 | 00:00:00 | |
| DO3MHA-12 | 2026-09-04 23:34:20 | 46.82168 | 7.38949 | 121° | 60km/h | 11457m | 3.6m/s | -50.3°C | 47.7% | 0hPa | 2.7V | 00:00:00 | 00:59:35 | 08:30:00 | |
| DB0UT-7 | 2026-09-04 23:34:19 | 46.82175 | 7.38933 | 122° | 58km/h | 11453m | 5.7m/s | -50.3°C | 48.2% | 0hPa | 2.8V | 00:00:00 | 00:00:00 | 00:00:00 | |
| DO3MHA-11 | 2026-09-04 23:34:16 | 46.82198 | 7.38876 | 122° | 62km/h | 11440m | 4.5m/s | -50.1°C | 49.0% | 0hPa | 2.8V | 00:00:00 | 00:59:31 | 00:00:00 | |
| IW2NTF | 2026-09-04 23:34:10 | 46.82251 | 7.38736 | 121° | 60km/h | 11405m | 3.3m/s | 0°C | 0% | 0hPa | 2.8V | 00:00:00 | 00:59:24 | 00:00:00 | |
| DO3MHA-12 | 2026-09-04 23:34:10 | 46.82243 | 7.38755 | 119° | 57km/h | 11410m | 6.5m/s | -49.9°C | 48.2% | 0hPa | 2.7V | 00:00:00 | 00:59:25 | 00:00:00 | |
| DO3MHA-11 | 2026-09-04 23:34:06 | 46.82275 | 7.38683 | 126° | 58km/h | 11389m | 3.1m/s | -49.8°C | 48.3% | 0hPa | 2.7V | 00:00:00 | 00:59:21 | 00:00:00 | |
| HASLITAL | 2026-09-04 23:34:01 | 46.82306 | 7.38615 | 121° | 57km/h | 11368m | 6.8m/s | -49.7°C | 39.5% | 0hPa | 2.7V | 00:00:00 | 00:00:00 | 00:00:00 | |
| IW2NTF | 2026-09-04 23:34:00 | 46.82327 | 7.38559 | 119° | 60km/h | 11353m | 5.3m/s | 0°C | 0% | 0hPa | 2.7V | 00:00:00 | 00:59:14 | 00:00:00 | |
| HARRO8 | 2026-09-04 23:33:59 | 46.82327 | 7.38559 | 119° | 60km/h | 11353m | 5.3m/s | 0°C | -1.0% | -1.0hPa | 2.7V | 00:00:00 | 00:00:00 | 00:00:00 | |
| DO3MHA-11 | 2026-09-04 23:33:56 | 46.82353 | 7.38497 | 124° | 58km/h | 11336m | 6.2m/s | -49.4°C | 46.2% | 0hPa | 2.7V | 00:00:00 | 00:59:11 | 08:30:00 | |
| IW2NTF | 2026-09-04 23:33:50 | 46.82412 | 7.38379 | 126° | 57km/h | 11297m | 4m/s | 0°C | 0% | 0hPa | 2.7V | 00:00:00 | 00:59:04 | 00:00:00 | |
| DO3MHA-12 | 2026-09-04 23:33:50 | 46.82404 | 7.38395 | 129° | 60km/h | 11303m | 7.6m/s | -49.1°C | 44.1% | 0hPa | 2.7V | 00:00:00 | 00:59:05 | 00:00:00 | |
| DB0UT-7 | 2026-09-04 23:33:49 | 46.82412 | 7.38379 | 127° | 60km/h | 11297m | 3.9m/s | -49.0°C | 44.4% | 0hPa | 2.7V | 00:00:00 | 00:59:04 | 00:00:00 | |
| DO3MHA-11 | 2026-09-04 23:33:46 | 46.82440 | 7.38327 | 128° | 64km/h | 11279m | 8.1m/s | -48.8°C | 43.3% | 0hPa | 2.7V | 00:00:00 | 00:59:01 | 00:00:00 | |
| HASLITAL | 2026-09-04 23:33:40 | 46.82486 | 7.38236 | 126° | 62km/h | 11251m | 8.1m/s | -48.6°C | 35.4% | 0hPa | 2.7V | 00:00:00 | 00:00:00 | 00:00:00 | |
| IW2NTF | 2026-09-04 23:33:39 | 46.82504 | 7.38197 | 123° | 68km/h | 11238m | 5m/s | 0°C | 0% | 0hPa | 2.7V | 00:00:00 | 00:58:54 | 00:00:00 | |
| DO3MHA-11 | 2026-09-04 23:33:36 | 46.82531 | 7.38135 | 122° | 60km/h | 11221m | 5.8m/s | -48.3°C | 41.3% | 0hPa | 2.8V | 00:00:00 | 00:58:51 | 00:00:00 | |
| IW2NTF | 2026-09-04 23:33:34 | 46.82581 | 7.37995 | 121° | 57km/h | 11175m | 6.2m/s | 0°C | 0% | 0hPa | 2.8V | 00:00:00 | 00:58:44 | 00:00:00 | |
| DO3MHA-12 | 2026-09-04 23:33:30 | 46.82573 | 7.38014 | 118° | 58km/h | 11183m | 7.7m/s | -47.9°C | 40.5% | 0hPa | 2.7V | 00:00:00 | 00:58:45 | 00:00:00 | |
| DO3MHA-11 | 2026-09-04 23:33:26 | 46.82604 | 7.37946 | 128° | 60km/h | 11158m | 4.4m/s | -47.7°C | 39.9% | 0hPa | 2.7V | 00:00:00 | 00:58:41 | 00:00:00 | |
| IW2NTF | 2026-09-04 23:33:22 | 46.82676 | 7.37777 | 118° | 55km/h | 11107m | 4m/s | 0°C | 0% | 0hPa | 2.7V | 00:00:00 | 00:58:32 | 00:00:00 | |
| DO3MHA-12 | 2026-09-04 23:33:20 | 46.82656 | 7.37834 | 118° | 55km/h | 11122m | 6.6m/s | -47.3°C | 39.0% | 0hPa | 2.7V | 00:00:00 | 00:58:35 | 00:00:00 | |
| DB0UT-7 | 2026-09-04 23:33:19 | 46.82663 | 7.37814 | 117° | 57km/h | 11117m | 3.8m/s | -47.3°C | 39.4% | 0hPa | 2.7V | 00:00:00 | 00:00:00 | 00:00:00 | |
| DO3MHA-11 | 2026-09-04 23:33:16 | 46.82683 | 7.37759 | 119° | 55km/h | 11102m | 5.8m/s | -47.1°C | 37.9% | 0hPa | 2.7V | 00:00:00 | 00:58:31 | 00:00:00 | |
| IW2NTF | 2026-09-04 23:33:12 | 46.82746 | 7.37600 | 116° | 58km/h | 11051m | 5.2m/s | 0°C | 0% | 0hPa | 2.7V | 00:00:00 | 00:58:22 | 00:00:00 | |
| DO3MHA-12 | 2026-09-04 23:33:10 | 46.82726 | 7.37658 | 121° | 57km/h | 11065m | 6.0m/s | -46.8°C | 36.4% | 0hPa | 2.9V | 00:00:00 | 00:58:25 | 00:00:00 | |
| DO3MHA-11 | 2026-09-04 23:33:06 | 46.82753 | 7.37581 | 119° | 58km/h | 11046m | 5.4m/s | -46.6°C | 36.4% | 0hPa | 2.9V | 00:00:00 | 00:58:21 | 00:00:00 | |
| DO3MHA-12 | 2026-09-04 23:33:00 | 46.82799 | 7.37477 | 128° | 60km/h | 11019m | 4.6m/s | -46.3°C | 34.8% | 0hPa | 2.9V | 00:00:00 | 00:58:15 | 00:00:00 | |
| HASLITAL | 2026-09-04 23:32:59 | 46.82799 | 7.37477 | 129° | 60km/h | 11019m | 4.6m/s | -46.4°C | 29.1% | 0hPa | 2.9V | 00:00:00 | 00:00:00 | 00:00:00 | |
| IW2NTF | 2026-09-04 23:32:58 | 46.82857 | 7.37344 | 117° | 57km/h | 10990m | 3.5m/s | 0°C | 0% | 0hPa | 2.9V | 00:00:00 | 00:58:08 | 00:00:00 | |
| DO3MHA-11 | 2026-09-04 23:32:56 | 46.82836 | 7.37403 | 120° | 57km/h | 11002m | 3.8m/s | -46.2°C | 35.1% | 0hPa | 2.7V | 00:00:00 | 00:58:11 | 00:00:00 | |
| DO3MHA-12 | 2026-09-04 23:32:50 | 46.82878 | 7.37293 | 125° | 57km/h | 10977m | 3.9m/s | 0°C | 0% | 0hPa | 2.8V | 00:00:00 | 00:58:05 | 08:30:00 | |
| DB0UT-7 | 2026-09-04 23:32:49 | 46.82886 | 7.37277 | 126° | 57km/h | 10972m | 5.4m/s | -45.9°C | 34.5% | 0hPa | 2.8V | 00:00:00 | 00:58:04 | 00:00:00 | |
| DO3MHA-11 | 2026-09-04 23:32:46 | 46.82908 | 7.37227 | 120° | 58km/h | 10958m | 3.7m/s | -45.8°C | 34.8% | 0hPa | 2.8V | 00:00:00 | 00:58:01 | 00:00:00 | |
| DB0ND-19 | 2026-09-04 23:32:44 | 46.82930 | 7.37170 | 120° | 62km/h | 10944m | 5.3m/s | -45.8°C | 28.5% | -1.0hPa | 2.8V | 00:00:00 | 00:00:00 | 00:00:00 | |
| IW2NTF | 2026-09-04 23:32:42 | 46.82967 | 7.37074 | 117° | 55km/h | 10921m | 4.9m/s | 0°C | 0% | 0hPa | 2.8V | 00:00:00 | 00:57:53 | 00:00:00 | |
| DO3MHA-12 | 2026-09-04 23:32:40 | 46.82953 | 7.37112 | 119° | 55km/h | 10931m | 6.0m/s | 0°C | 0% | 0hPa | 2.7V | 00:00:00 | 00:57:55 | 00:00:00 | |
| HASLITAL | 2026-09-04 23:32:39 | 46.82953 | 7.37112 | 119° | 58km/h | 10931m | 6.0m/s | -45.6°C | 28.4% | 0hPa | 2.7V | 00:00:00 | 00:00:00 | 00:00:00 | |
| DO3MHA-11 | 2026-09-04 23:32:36 | 46.82980 | 7.37039 | 121° | 57km/h | 10913m | 3.0m/s | -45.4°C | 33.7% | 0hPa | 2.7V | 00:00:00 | 00:57:51 | 00:00:00 | |
| IW2NTF | 2026-09-04 23:32:32 | 46.83036 | 7.36895 | 118° | 60km/h | 10880m | 3.9m/s | 0°C | 0% | 0hPa | 2.7V | 00:00:00 | 00:57:43 | 00:00:00 | |
| DO3MHA-12 | 2026-09-04 23:32:30 | 46.83021 | 7.36934 | 119° | 57km/h | 10888m | 5.0m/s | 0°C | 0% | 0hPa | 2.9V | 00:00:00 | 00:57:45 | 00:00:00 | |
| DO3MHA-11 | 2026-09-04 23:32:26 | 46.83050 | 7.36858 | 122° | 55km/h | 10871m | 3.5m/s | -45.1°C | 30.8% | 0hPa | 2.9V | 00:00:00 | 00:57:41 | 08:30:00 | |
| DO3MHA-12 | 2026-09-04 23:32:20 | 46.83092 | 7.36753 | 121° | 57km/h | 10845m | 5.1m/s | 0°C | 0% | 0hPa | 2.8V | 00:00:00 | 00:57:35 | 00:00:00 | |
| DB0UT-7 | 2026-09-04 23:32:19 | 46.83099 | 7.36735 | 120° | 55km/h | 10840m | 4.7m/s | -44.8°C | 29.8% | 0hPa | 2.8V | 00:00:00 | 00:00:00 | 00:00:00 | |
| HASLITAL | 2026-09-04 23:32:18 | 46.83099 | 7.36735 | 120° | 55km/h | 10840m | 4.7m/s | -44.8°C | 24.9% | 0hPa | 2.8V | 00:00:00 | 00:00:00 | 00:00:00 | |
| DO3MHA-11 | 2026-09-04 23:32:16 | 46.83120 | 7.36682 | 121° | 55km/h | 10826m | 4.1m/s | -44.7°C | 29.7% | 0hPa | 2.8V | 00:00:00 | 00:57:31 | 00:00:00 | |
| DB0ND-19 | 2026-09-04 23:32:13 | 46.83142 | 7.36628 | 120° | 57km/h | 10813m | 3.8m/s | -44.6°C | 24.2% | -1.0hPa | 2.8V | 00:00:00 | 00:00:00 | 00:00:00 | |
| DO3MHA-12 | 2026-09-04 23:32:10 | 46.83164 | 7.36575 | 120° | 55km/h | 10801m | 3.9m/s | 0°C | 0% | 0hPa | 2.8V | 00:00:00 | 00:57:25 | 00:00:00 | |
| DO3MHA-11 | 2026-09-04 23:32:06 | 46.83189 | 7.36505 | 119° | 57km/h | 10784m | 4.0m/s | -44.2°C | 28.5% | 0hPa | 2.8V | 00:00:00 | 00:57:21 | 00:00:00 | |
| IW2NTF | 2026-09-04 23:31:58 | 46.83279 | 7.36274 | 119° | 53km/h | 10727m | 3.5m/s | 0°C | 0% | 0hPa | 2.8V | 00:00:00 | 00:57:08 | 00:00:00 | |
| DO3MHA-12 | 2026-09-04 23:31:58 | 46.83245 | 7.36356 | 120° | 53km/h | 10749m | 3.6m/s | 0°C | 0% | 0hPa | 2.9V | 00:00:00 | 00:57:13 | 00:00:00 | |
| DO3MHA-11 | 2026-09-04 23:31:56 | 46.83260 | 7.36322 | 123° | 55km/h | 10740m | 4.7m/s | -43.8°C | 27.0% | 0hPa | 2.9V | 00:00:00 | 00:57:11 | 00:00:00 | |
| DB0UT-7 | 2026-09-04 23:31:49 | 46.83308 | 7.36201 | 117° | 58km/h | 10709m | 4.7m/s | -43.5°C | 26.1% | 0hPa | 2.7V | 00:00:00 | 00:57:04 | 08:30:00 | |
| IW2NTF | 2026-09-04 23:31:49 | 46.83351 | 7.36088 | 120° | 57km/h | 10684m | 4.5m/s | 0°C | 0% | 0hPa | 2.8V | 00:00:00 | 00:56:58 | 00:00:00 | |
| DO3MHA-12 | 2026-09-04 23:31:47 | 46.83321 | 7.36162 | 118° | 58km/h | 10701m | 4.0m/s | 0°C | 0% | 0hPa | 2.9V | 00:00:00 | 00:57:02 | 00:00:00 | |
| DO3MHA-11 | 2026-09-04 23:31:46 | 46.83328 | 7.36143 | 120° | 57km/h | 10697m | 4.3m/s | -43.4°C | 25.8% | 0hPa | 2.9V | 00:00:00 | 00:57:01 | 00:00:00 | |
| HASLITAL | 2026-09-04 23:31:37 | 46.83391 | 7.36001 | 123° | 57km/h | 10663m | 5.3m/s | -43.1°C | 21.0% | 0hPa | 2.9V | 00:00:00 | 00:00:00 | 00:00:00 | |
| DO3MHA-11 | 2026-09-04 23:31:36 | 46.83404 | 7.35964 | 116° | 55km/h | 10655m | 4.0m/s | -43.0°C | 25.2% | 0hPa | 2.9V | 00:00:00 | 00:56:51 | 00:00:00 | |
| IW2NTF | 2026-09-04 23:31:33 | 46.83423 | 7.35908 | 116° | 53km/h | 10642m | 3.1m/s | 0°C | 0% | 0hPa | 2.9V | 00:00:00 | 00:56:48 | 00:00:00 | |
| DO3MHA-12 | 2026-09-04 23:31:32 | 46.83429 | 7.35890 | 116° | 60km/h | 10638m | 5.1m/s | 0°C | 0% | 0hPa | 2.9V | 00:00:00 | 00:56:47 | 00:00:00 | |
| IW2NTF | 2026-09-04 23:31:28 | 46.83507 | 7.35712 | 117° | 60km/h | 10591m | 5m/s | 0°C | 0% | 0hPa | 2.9V | 00:00:00 | 00:56:37 | 00:00:00 | |
| DO3MHA-11 | 2026-09-04 23:31:26 | 46.83472 | 7.35787 | 129° | 58km/h | 10610m | 4.9m/s | -42.5°C | 23.3% | 0hPa | 2.9V | 00:00:00 | 00:56:41 | 00:00:00 | |
| DO3MHA-12 | 2026-09-04 23:31:19 | 46.83525 | 7.35653 | 115° | 53km/h | 10577m | 5.3m/s | 0°C | 0% | 0hPa | 2.9V | 00:00:00 | 00:56:34 | 00:00:00 | |
| HASLITAL | 2026-09-04 23:31:17 | 46.83530 | 7.35636 | 119° | 51km/h | 10572m | 3.7m/s | -42.2°C | 19.0% | 0hPa | 2.9V | 00:00:00 | 00:00:00 | 00:00:00 | |
| DO3MHA-11 | 2026-09-04 23:31:16 | 46.83543 | 7.35604 | 123° | 55km/h | 10563m | 5.9m/s | -42.1°C | 22.5% | 0hPa | 2.9V | 00:00:00 | 00:56:31 | 00:00:00 | |
| IW2NTF | 2026-09-04 23:31:10 | 46.83594 | 7.35461 | 114° | 55km/h | 10526m | 5m/s | 0°C | 0% | 0hPa | 2.9V | 00:00:00 | 00:56:23 | 00:00:00 | |
| DO3MHA-12 | 2026-09-04 23:31:09 | 46.83588 | 7.35479 | 112° | 57km/h | 10531m | 3.8m/s | 0°C | 0% | 0hPa | 2.9V | 00:00:00 | 00:56:24 | 00:00:00 | |
| DO3MHA-11 | 2026-09-04 23:31:06 | 46.83608 | 7.35423 | 124° | 60km/h | 10517m | 3.9m/s | -41.6°C | 22.1% | 0hPa | 2.9V | 00:00:00 | 00:56:21 | 00:00:00 | |
| IW2NTF | 2026-09-04 23:31:00 | 46.83696 | 7.35247 | 124° | 57km/h | 10460m | 5.5m/s | 0°C | 0% | 0hPa | 2.9V | 00:00:00 | 00:56:11 | 00:00:00 | |
| DO3MHA-11 | 2026-09-04 23:30:56 | 46.83696 | 7.35247 | 125° | 58km/h | 10460m | 5.4m/s | 0°C | 0% | 0hPa | 2.9V | 00:00:00 | 00:56:11 | 08:30:00 | |
| IW2NTF | 2026-09-04 23:30:49 | 46.83776 | 7.35025 | 128° | 53km/h | 10386m | 6.7m/s | 0°C | 0% | 0hPa | 2.9V | 00:00:00 | 00:55:59 | 00:00:00 | |
| DB0UT-7 | 2026-09-04 23:30:49 | 46.83743 | 7.35106 | 113° | 57km/h | 10415m | 5.7m/s | -40.6°C | 19.8% | 0hPa | 2.9V | 00:00:00 | 00:56:04 | 00:00:00 | |
| DO3MHA-11 | 2026-09-04 23:30:46 | 46.83761 | 7.35056 | 121° | 51km/h | 10396m | 6.7m/s | -40.5°C | 19.5% | 0hPa | 2.9V | 00:00:00 | 00:56:01 | 00:00:00 | |
| IW2NTF | 2026-09-04 23:30:39 | 46.83837 | 7.34852 | 111° | 53km/h | 10321m | 7.5m/s | 0°C | 0% | 0hPa | 2.9V | 00:00:00 | 00:55:49 | 00:00:00 | |
| DO3MHA-11 | 2026-09-04 23:30:36 | 46.83828 | 7.34891 | 108° | 57km/h | 10331m | 4.7m/s | -39.8°C | 17.9% | 0hPa | 2.9V | 00:00:00 | 00:55:51 | 00:00:00 | |
| DO3MHA-11 | 2026-09-04 23:30:26 | 46.83899 | 7.34707 | 118° | 62km/h | 10269m | 5.7m/s | 0°C | 0% | 0hPa | 2.9V | 00:00:00 | 00:55:41 | 00:00:00 | |
| IW2NTF | 2026-09-04 23:30:22 | 46.83962 | 7.34544 | 117° | 57km/h | 10216m | 6.6m/s | 0°C | 0% | 0hPa | 2.9V | 00:00:00 | 00:55:33 | 00:00:00 | |
| DB0UT-7 | 2026-09-04 23:30:19 | 46.83955 | 7.34563 | 119° | 55km/h | 10223m | 7.3m/s | -38.8°C | 15.4% | 0hPa | 2.9V | 00:00:00 | 00:00:00 | 00:00:00 | |
| HASLITAL | 2026-09-04 23:30:16 | 46.83975 | 7.34506 | 119° | 57km/h | 10202m | 8.2m/s | -38.7°C | 12.2% | 0hPa | 2.9V | 00:00:00 | 00:00:00 | 00:00:00 | |
| DB0ND-19 | 2026-09-04 23:30:09 | 46.84032 | 7.34364 | 114° | 47km/h | 10148m | 7.5m/s | -38.2°C | 11.1% | -1.0hPa | 2.9V | 00:00:00 | 00:00:00 | 00:00:00 | |
| DO3MHA-11 | 2026-09-04 23:30:02 | 46.84068 | 7.34258 | 120° | 51km/h | 10109m | 7.1m/s | 0°C | 0% | 0hPa | 2.9V | 00:00:00 | 00:55:17 | 00:00:00 | |
| HASLITAL | 2026-09-04 23:29:55 | 46.84106 | 7.34164 | 124° | 46km/h | 10071m | 4.3m/s | -37.7°C | 10.0% | 0hPa | 2.9V | 00:00:00 | 00:00:00 | 00:00:00 | |
| DO3MHA-11 | 2026-09-04 23:29:52 | 46.84133 | 7.34095 | 118° | 60km/h | 10046m | 8.1m/s | 0°C | 0% | 0hPa | 2.9V | 00:00:00 | 00:55:07 | 00:00:00 | |
| DB0UT-7 | 2026-09-04 23:29:49 | 46.84154 | 7.34028 | 113° | 57km/h | 10026m | 7.2m/s | -37.4°C | 12.0% | 0hPa | 2.9V | 00:00:00 | 00:55:04 | 00:00:00 | |
| DO3MHA-11 | 2026-09-04 23:29:42 | 46.84201 | 7.33903 | 127° | 57km/h | 9984m | 5.5m/s | 0°C | 0% | 0hPa | 2.9V | 00:00:00 | 00:54:57 | 00:00:00 | |
| HASLITAL | 2026-09-04 23:29:34 | 46.84253 | 7.33776 | 115° | 60km/h | 9946m | 5.0m/s | -36.7°C | 10.6% | 0hPa | 2.9V | 00:00:00 | 00:00:00 | 00:00:00 | |
| DO3MHA-11 | 2026-09-04 23:29:32 | 46.84271 | 7.33719 | 115° | 55km/h | 9926m | 6.7m/s | 0°C | 0% | 0hPa | 2.9V | 00:00:00 | 00:54:47 | 00:00:00 | |
| DO3MHA-11 | 2026-09-04 23:29:22 | 46.84340 | 7.33543 | 117° | 62km/h | 9864m | 6.8m/s | 0°C | 0% | 0hPa | 2.9V | 00:00:00 | 00:54:37 | 00:00:00 | |
| DB0UT-7 | 2026-09-04 23:29:19 | 46.84362 | 7.33483 | 122° | 60km/h | 9843m | 6.7m/s | -35.8°C | 9.3% | 0hPa | 2.9V | 00:00:00 | 00:00:00 | 00:00:00 | |
| HASLITAL | 2026-09-04 23:29:13 | 46.84408 | 7.33386 | 127° | 62km/h | 9814m | 6.3m/s | -35.7°C | 7.1% | 0hPa | 2.9V | 00:00:00 | 00:00:00 | 00:00:00 | |
| HASLITAL | 2026-09-04 23:28:53 | 46.84547 | 7.32994 | 113° | 62km/h | 9686m | 5.0m/s | -35.4°C | 8.2% | 0hPa | 2.9V | 00:00:00 | 00:00:00 | 00:00:00 | |
| DB0UT-7 | 2026-09-04 23:28:49 | 46.84575 | 7.32895 | 115° | 62km/h | 9654m | 7.9m/s | -35.2°C | 10.1% | 0hPa | 2.9V | 00:00:00 | 00:54:04 | 00:00:00 | |
| DH7VM-15 | 2026-09-04 23:28:38 | 46.84625 | 7.32695 | 107° | 60km/h | 9592m | 5.1m/s | 0°C | 0% | 0hPa | 2.9V | 00:00:00 | 00:00:00 | 00:00:00 | |
| HASLITAL | 2026-09-04 23:28:32 | 46.84662 | 7.32563 | 109° | 64km/h | 9555m | 6.7m/s | -34.8°C | 8.0% | 0hPa | 2.9V | 00:00:00 | 00:00:00 | 00:00:00 | |
| IW2NTF | 2026-09-04 23:28:26 | 46.84692 | 7.32288 | 103° | 60km/h | 9479m | 5.5m/s | 0°C | 0% | 0hPa | 2.9V | 00:00:00 | 00:53:36 | 00:00:00 | |
| DB0UT-7 | 2026-09-04 23:28:19 | 46.84698 | 7.32246 | 102° | 69km/h | 9468m | 6.4m/s | -34.2°C | 10.0% | 0hPa | 2.9V | 00:00:00 | 00:00:00 | 00:00:00 | |
| IW2NTF | 2026-09-04 23:28:14 | 46.84727 | 7.31998 | 99° | 69km/h | 9406m | 8.1m/s | 0°C | 0% | 0hPa | 2.9V | 00:00:00 | 00:53:24 | 00:00:00 | |
| HASLITAL | 2026-09-04 23:28:12 | 46.84717 | 7.32105 | 99° | 77km/h | 9433m | 8.4m/s | -34.3°C | 9.1% | 0hPa | 2.8V | 00:00:00 | 00:00:00 | 00:00:00 | |
| DB0ND-19 | 2026-09-04 23:28:05 | 46.84772 | 7.31489 | 93° | 69km/h | 9289m | 4.9m/s | -33.2°C | 8.4% | -1.0hPa | 2.8V | 00:00:00 | 00:00:00 | 00:00:00 | |
| IW2NTF | 2026-09-04 23:27:54 | 46.84772 | 7.31489 | 93° | 71km/h | 9289m | 4.9m/s | 0°C | 0% | 0hPa | 2.8V | 00:00:00 | 00:53:04 | 00:00:00 | |
| HASLITAL | 2026-09-04 23:27:51 | 46.84766 | 7.31569 | 100° | 75km/h | 9306m | 7.6m/s | -33.4°C | 8.5% | 0hPa | 2.8V | 00:00:00 | 00:00:00 | 00:00:00 | |
| DB0UT-7 | 2026-09-04 23:27:49 | 46.84772 | 7.31489 | 94° | 73km/h | 9289m | 4.8m/s | -33.2°C | 10.2% | 0hPa | 2.8V | 00:00:00 | 00:53:04 | 00:00:00 | |
| IW2NTF | 2026-09-04 23:27:43 | 46.84787 | 7.31205 | 96° | 64km/h | 9219m | 6.5m/s | 0°C | 0% | 0hPa | 2.8V | 00:00:00 | 00:52:53 | 00:00:00 | |
| DB0ND-19 | 2026-09-04 23:27:34 | 46.84796 | 7.31113 | 99° | 68km/h | 9194m | 5.3m/s | -32.5°C | -1.0% | -1.0hPa | 2.9V | 00:00:00 | 00:00:00 | 00:00:00 | |
| IW2NTF | 2026-09-04 23:27:31 | 46.84803 | 7.30898 | 87° | 71km/h | 9144m | 7.6m/s | 0°C | 0% | 0hPa | 2.9V | 00:00:00 | 00:52:41 | 00:00:00 | |
| HASLITAL | 2026-09-04 23:27:31 | 46.84801 | 7.31060 | 96° | 77km/h | 9182m | 5.0m/s | -32.4°C | 7.3% | 0hPa | 2.8V | 00:00:00 | 00:00:00 | 00:00:00 | |
| IW2NTF | 2026-09-04 23:27:19 | 46.84817 | 7.30602 | 94° | 77km/h | 9083m | 5.5m/s | 0°C | 0% | 0hPa | 2.8V | 00:00:00 | 00:52:31 | 00:00:00 | |
| DB0UT-7 | 2026-09-04 23:27:19 | 46.84811 | 7.30692 | 95° | 78km/h | 9099m | 5.1m/s | -32.1°C | 9.5% | 0hPa | 2.9V | 00:00:00 | 00:00:00 | 08:30:00 | |
| HASLITAL | 2026-09-04 23:27:10 | 46.84825 | 7.30464 | 93° | 82km/h | 9053m | 5.3m/s | -31.7°C | 7.8% | 0hPa | 2.9V | 00:00:00 | 00:00:00 | 00:00:00 | |
| IW2NTF | 2026-09-04 23:27:09 | 46.84829 | 7.30308 | 91° | 84km/h | 9024m | 5.8m/s | 0°C | 0% | 0hPa | 2.9V | 00:00:00 | 00:52:21 | 00:00:00 | |
| DB0ND-19 | 2026-09-04 23:27:03 | 46.84823 | 7.29702 | 86° | 80km/h | 8902m | 7.3m/s | -30.7°C | -1.0% | -1.0hPa | 2.9V | 00:00:00 | 00:00:00 | 00:00:00 | |
| IW2NTF | 2026-09-04 23:26:59 | 46.84828 | 7.30033 | 89° | 75km/h | 8964m | 4.6m/s | 0°C | 0% | 0hPa | 2.9V | 00:00:00 | 00:52:11 | 00:00:00 | |
| DB0UT-7 | 2026-09-04 23:26:49 | 46.84830 | 7.29822 | 86° | 82km/h | 8929m | 7.0m/s | -30.8°C | 9.3% | 0hPa | 2.9V | 00:00:00 | 00:52:04 | 00:00:00 | |
| DB0ND-19 | 2026-09-04 23:26:32 | 46.84827 | 7.29325 | 92° | 91km/h | 8828m | 4.6m/s | 0°C | -1.0% | -1.0hPa | 2.9V | 00:00:00 | 00:00:00 | 00:00:00 | |
| HASLITAL | 2026-09-04 23:26:29 | 46.84829 | 7.29258 | 93° | 89km/h | 8818m | 5.0m/s | -30.1°C | 8.8% | 0hPa | 2.9V | 00:00:00 | 00:00:00 | 00:00:00 | |
| DB0UT-7 | 2026-09-04 23:26:19 | 46.84825 | 7.28904 | 90° | 88km/h | 8747m | 4.0m/s | -29.4°C | 10.3% | 0hPa | 2.9V | 00:00:00 | 00:00:00 | 00:00:00 | |
| HASLITAL | 2026-09-04 23:26:08 | 46.84823 | 7.28589 | 94° | 86km/h | 8691m | 4.6m/s | -29.1°C | 9.9% | 0hPa | 2.9V | 00:00:00 | 00:00:00 | 00:00:00 | |
| DB0UT-7 | 2026-09-04 23:25:49 | 46.84811 | 7.27945 | 88° | 89km/h | 8588m | 6.4m/s | -28.3°C | 11.7% | 0hPa | 2.9V | 00:00:00 | 00:51:04 | 00:00:00 | |
| HASLITAL | 2026-09-04 23:25:48 | 46.84811 | 7.27945 | 89° | 84km/h | 8588m | 6.4m/s | -28.3°C | 10.2% | 0hPa | 2.9V | 00:00:00 | 00:00:00 | 00:00:00 | |
| HASLITAL | 2026-09-04 23:25:27 | 46.84802 | 7.27264 | 91° | 93km/h | 8475m | 4.0m/s | -27.7°C | 10.0% | 0hPa | 2.9V | 00:00:00 | 00:00:00 | 00:00:00 | |
| DB0UT-7 | 2026-09-04 23:25:15 | 46.84802 | 7.26822 | 85° | 91km/h | 8403m | 6.1m/s | -27.1°C | 11.3% | 0hPa | 2.9V | 00:00:00 | 00:00:00 | 00:00:00 | |
| HASLITAL | 2026-09-04 23:25:06 | 46.84803 | 7.26554 | 93° | 93km/h | 8358m | 4.2m/s | -27.1°C | 10.6% | 0hPa | 2.9V | 00:00:00 | 00:00:00 | 00:00:00 | |
| IW2NTF | 2026-09-04 23:25:05 | 46.84794 | 7.26312 | 85° | 97km/h | 8320m | 4.6m/s | 0°C | 0% | 0hPa | 2.9V | 00:00:00 | 00:50:15 | 00:00:00 | |
| DB0UT-7 | 2026-09-04 23:24:45 | 46.84768 | 7.25820 | 83° | 93km/h | 8239m | 3.8m/s | -25.9°C | 11.1% | 0hPa | 2.8V | 00:00:00 | 00:50:00 | 00:00:00 | |
| IW2NTF | 2026-09-04 23:24:27 | 46.84753 | 7.25098 | 85° | 88km/h | 8130m | 3.9m/s | 0°C | 0% | 0hPa | 2.8V | 00:00:00 | 00:49:39 | 00:00:00 | |
| HASLITAL | 2026-09-04 23:24:25 | 46.84754 | 7.25164 | 93° | 93km/h | 8141m | 5.9m/s | -25.2°C | 9.5% | 0hPa | 2.7V | 00:00:00 | 00:00:00 | 00:00:00 | |
| DB0UT-7 | 2026-09-04 23:24:14 | 46.84728 | 7.24766 | 84° | 93km/h | 8080m | 5.0m/s | -24.7°C | 11.7% | 0hPa | 2.7V | 00:00:00 | 00:00:00 | 00:00:00 | |
| HASLITAL | 2026-09-04 23:24:04 | 46.84712 | 7.24461 | 89° | 95km/h | 8032m | 3.5m/s | 0°C | 0% | 0hPa | 2.9V | 00:00:00 | 00:00:00 | 00:00:00 | |
| IW2NTF | 2026-09-04 23:23:50 | 46.84649 | 7.23784 | 80° | 95km/h | 7924m | 7.2m/s | 0°C | 0% | 0hPa | 2.9V | 00:00:00 | 00:49:00 | 00:00:00 | |
| DB0UT-7 | 2026-09-04 23:23:44 | 46.84645 | 7.23748 | 83° | 97km/h | 7917m | 6.7m/s | -23.7°C | 15.3% | 0hPa | 2.9V | 00:00:00 | 00:48:59 | 00:00:00 | |
| IW2NTF | 2026-09-04 23:23:41 | 46.84616 | 7.23420 | 79° | 93km/h | 7868m | 3.9m/s | 0°C | 0% | 0hPa | 2.9V | 00:00:00 | 00:48:50 | 00:00:00 | |
| IW2NTF | 2026-09-04 23:23:25 | 46.84564 | 7.22923 | 84° | 93km/h | 7785m | 5.4m/s | 0°C | 0% | 0hPa | 2.9V | 00:00:00 | 00:48:36 | 00:00:00 | |
| HASLITAL | 2026-09-04 23:23:23 | 46.84575 | 7.23023 | 79° | 91km/h | 7803m | 6.7m/s | 0°C | 0% | 0hPa | 2.9V | 00:00:00 | 00:00:00 | 00:00:00 | |
| DB0UT-7 | 2026-09-04 23:23:14 | 46.84543 | 7.22681 | 79° | 91km/h | 7745m | 3.9m/s | -22.3°C | 15.3% | 0hPa | 2.9V | 00:00:00 | 00:00:00 | 00:00:00 | |
| IW2NTF | 2026-09-04 23:23:13 | 46.84515 | 7.22490 | 75° | 89km/h | 7710m | 7.8m/s | 0°C | 0% | 0hPa | 2.9V | 00:00:00 | 00:48:23 | 00:00:00 | |
| IW2NTF | 2026-09-04 23:23:03 | 46.84470 | 7.22145 | 72° | 100km/h | 7651m | 5.3m/s | 0°C | 0% | 0hPa | 2.9V | 00:00:00 | 00:48:13 | 00:00:00 | |
| HASLITAL | 2026-09-04 23:23:02 | 46.84494 | 7.22321 | 85° | 97km/h | 7679m | 6.6m/s | 0°C | 0% | 0hPa | 2.9V | 00:00:00 | 00:00:00 | 00:00:00 | |
| DB0ND-19 | 2026-09-04 23:22:55 | 46.84445 | 7.22012 | 78° | 86km/h | 7630m | 4.7m/s | -21.3°C | 14.7% | -1.0hPa | 2.9V | 00:00:00 | 00:00:00 | 00:00:00 | |
| DB0UT-7 | 2026-09-04 23:22:44 | 46.84402 | 7.21695 | 79° | 88km/h | 7573m | 6.6m/s | -20.8°C | 16.5% | 0hPa | 2.9V | 00:00:00 | 00:47:59 | 08:30:00 | |
| DH7VM-15 | 2026-09-04 23:22:35 | 46.84365 | 7.21427 | 80° | 99km/h | 7531m | 6.6m/s | 0°C | 0% | 0hPa | 2.9V | 00:00:00 | 00:00:00 | 00:00:00 | |
| IW2NTF | 2026-09-04 23:22:28 | 46.84328 | 7.21121 | 80° | 86km/h | 7473m | 4m/s | 0°C | 0% | 0hPa | 2.9V | 00:00:00 | 00:47:41 | 00:00:00 | |
| IW2NTF | 2026-09-04 23:22:21 | 46.84281 | 7.20773 | 83° | 84km/h | 7407m | 7.2m/s | 0°C | 0% | 0hPa | 2.9V | 00:00:00 | 00:47:30 | 00:00:00 | |
| DB0UT-7 | 2026-09-04 23:22:14 | 46.84278 | 7.20742 | 82° | 84km/h | 7401m | 5.7m/s | -19.8°C | 12.3% | 0hPa | 2.9V | 00:00:00 | 00:00:00 | 00:00:00 | |
| DB0UT-7 | 2026-09-04 23:21:44 | 46.84129 | 7.19839 | 79° | 82km/h | 7220m | 5.5m/s | -18.3°C | 9.4% | 0hPa | 2.9V | 00:00:00 | 00:46:59 | 00:00:00 | |
| DB0ND-19 | 2026-09-04 23:21:22 | 46.84016 | 7.19147 | 73° | 89km/h | 7080m | 7.0m/s | -17.4°C | 8.1% | -1.0hPa | 2.9V | 00:00:00 | 00:00:00 | 00:00:00 | |
| DB0UT-7 | 2026-09-04 23:21:14 | 46.83975 | 7.18958 | 78° | 80km/h | 7042m | 4.6m/s | -17.0°C | 9.0% | 0hPa | 2.9V | 00:00:00 | 00:00:00 | 00:00:00 | |
| DB0ND-19 | 2026-09-04 23:20:51 | 46.83850 | 7.18268 | 68° | 88km/h | 6903m | 4.6m/s | -16.1°C | 12.2% | -1.0hPa | 2.9V | 00:00:00 | 00:00:00 | 00:00:00 | |
| DB0UT-7 | 2026-09-04 23:20:44 | 46.83813 | 7.18097 | 78° | 78km/h | 6871m | 7.1m/s | -15.8°C | 13.3% | 0hPa | 2.9V | 00:00:00 | 00:45:59 | 00:00:00 | |
| DB0ND-19 | 2026-09-04 23:20:20 | 46.83695 | 7.17376 | 75° | 75km/h | 6733m | 5.9m/s | -15.4°C | 13.3% | -1.0hPa | 2.9V | 00:00:00 | 00:00:00 | 00:00:00 | |
| DB0UT-7 | 2026-09-04 23:20:14 | 46.83669 | 7.17236 | 74° | 75km/h | 6712m | 5.6m/s | -15.2°C | 14.3% | 0hPa | 2.9V | 00:00:00 | 00:00:00 | 00:00:00 | |
| DB0ND-19 | 2026-09-04 23:19:49 | 46.83606 | 7.16511 | 85° | 73km/h | 6561m | 7.7m/s | -13.8°C | 12.6% | -1.0hPa | 2.9V | 00:00:00 | 00:00:00 | 00:00:00 | |
| DB0UT-7 | 2026-09-04 23:19:44 | 46.83600 | 7.16421 | 84° | 80km/h | 6541m | 5.7m/s | -13.6°C | 13.2% | 0hPa | 2.9V | 00:00:00 | 00:44:59 | 00:00:00 | |
| DB0ND-19 | 2026-09-04 23:19:18 | 46.83568 | 7.15595 | 86° | 73km/h | 6376m | 6.1m/s | -12.3°C | 12.9% | -1.0hPa | 2.9V | 00:00:00 | 00:00:00 | 00:00:00 | |
| DB0UT-7 | 2026-09-04 23:19:14 | 46.83565 | 7.15542 | 86° | 77km/h | 6363m | 6.2m/s | -12.2°C | 13.8% | 0hPa | 2.9V | 00:00:00 | 00:00:00 | 00:00:00 | |
| DB0ND-19 | 2026-09-04 23:18:46 | 46.83536 | 7.14759 | 84° | 78km/h | 6246m | 4.7m/s | -11.5°C | 13.8% | -1.0hPa | 2.9V | 00:00:00 | 00:00:00 | 00:00:00 | |
| DB0UT-7 | 2026-09-04 23:18:44 | 46.83531 | 7.14703 | 85° | 78km/h | 6239m | 3.0m/s | -11.4°C | 14.8% | 0hPa | 2.9V | 00:00:00 | 00:43:59 | 00:00:00 | |
| DB0ND-19 | 2026-09-04 23:18:16 | 46.83570 | 7.13870 | 101° | 71km/h | 6079m | 4.7m/s | -10.4°C | 16.4% | -1.0hPa | 2.9V | 00:00:00 | 00:00:00 | 00:00:00 | |
| DB0UT-7 | 2026-09-04 23:18:14 | 46.83573 | 7.13844 | 99° | 77km/h | 6074m | 5.0m/s | -10.3°C | 17.5% | 0hPa | 2.9V | 00:00:00 | 00:00:00 | 08:30:00 | |
| DB0UT-7 | 2026-09-04 23:17:44 | 46.83642 | 7.13006 | 96° | 73km/h | 5911m | 2.4m/s | -9.1°C | 15.2% | 0hPa | 2.9V | 00:00:00 | 00:42:59 | 00:00:00 | |
| DB0ND-19 | 2026-09-04 23:17:14 | 46.83713 | 7.12170 | 100° | 84km/h | 5735m | 4.9m/s | -8.0°C | 12.8% | -1.0hPa | 2.9V | 00:00:00 | 00:00:00 | 00:00:00 | |
| DB0UT-7 | 2026-09-04 23:16:44 | 46.83764 | 7.11354 | 92° | 68km/h | 5592m | 7.3m/s | -7.0°C | 14.5% | 0hPa | 2.9V | 00:00:00 | 00:41:59 | 00:00:00 | |
| DB0ND-19 | 2026-09-04 23:16:42 | 46.83766 | 7.11294 | 94° | 77km/h | 5576m | 7.1m/s | -7.0°C | 13.7% | -1.0hPa | 0V | 00:00:00 | 00:00:00 | 00:00:00 | |
| DB0UT-7 | 2026-09-04 23:16:14 | 46.83814 | 7.10614 | 106° | 66km/h | 5416m | 3.2m/s | -6.4°C | 16.7% | 0hPa | 0V | 00:00:00 | 00:00:00 | 00:00:00 | |
| DB0ND-19 | 2026-09-04 23:16:11 | 46.83835 | 7.10423 | 96° | 58km/h | 5364m | 7.0m/s | -6.5°C | 21.2% | -1.0hPa | 0V | 00:00:00 | 00:00:00 | 00:00:00 | |
| DB0UT-7 | 2026-09-04 23:15:44 | 46.83888 | 7.09887 | 97° | 62km/h | 5237m | 3.7m/s | -6.0°C | 22.7% | 0hPa | 0V | 00:00:00 | 00:40:59 | 00:00:00 | |
| DB0ND-19 | 2026-09-04 23:15:40 | 46.83894 | 7.09794 | 94° | 62km/h | 5218m | 4.6m/s | -5.9°C | -1.0% | -1.0hPa | 0V | 00:00:00 | 00:00:00 | 00:00:00 | |
| DB0UT-7 | 2026-09-04 23:15:14 | 46.83951 | 7.09215 | 90° | 77km/h | 5061m | 5.4m/s | 0°C | 0% | 0hPa | 0V | 00:00:00 | 00:00:00 | 00:00:00 | |
| DB0ND-19 | 2026-09-04 23:15:09 | 46.83954 | 7.09070 | 93° | 78km/h | 5032m | 4.9m/s | 0°C | -1.0% | -1.0hPa | 0V | 00:00:00 | 00:00:00 | 00:00:00 | |
| DB0UT-7 | 2026-09-04 23:14:44 | 46.83965 | 7.08373 | 95° | 66km/h | 4880m | 4.5m/s | 0°C | 0% | 0hPa | 0V | 00:00:00 | 00:39:59 | 00:00:00 | |
| DB0UT-7 | 2026-09-04 23:14:14 | 46.83963 | 7.07656 | 77° | 66km/h | 4734m | 6.8m/s | 0°C | 0% | 0hPa | 0V | 00:00:00 | 00:00:00 | 00:00:00 |